<?xml version="1.0" encoding="UTF-8" standalone="no" ?>
<gpx xmlns="http://www.topografix.com/GPX/1/1" xmlns:xsi="http://www.w3.org/2001/XMLSchema-instance" xsi:schemaLocation="http://www.topografix.com/GPX/1/1 http://www.topografix.com/GPX/1/1/gpx.xsd" version="1.1" creator="VisuGPX - https://www.visugpx.com">
  <metadata>
    <name>PlCy-P42</name>
  </metadata>
  <trk>
    <name><![CDATA[PlCy-P42]]></name>
    <trkseg>
      <trkpt lat="48.02055" lon="-4.2177">
        <ele>143.3330484593</ele>
        <time>2021-12-26T16:34:36.000Z</time>
      </trkpt>
      <trkpt lat="48.02058" lon="-4.21769">
        <ele>143.57356946162</ele>
        <time>2021-12-26T16:34:36.000Z</time>
      </trkpt>
      <trkpt lat="48.0206" lon="-4.21769">
        <ele>143.80592346365</ele>
        <time>2021-12-26T16:34:36.001Z</time>
      </trkpt>
      <trkpt lat="48.02065" lon="-4.21775">
        <ele>144.01088182286</ele>
        <time>2021-12-26T16:34:36.002Z</time>
      </trkpt>
      <trkpt lat="48.02067" lon="-4.2178">
        <ele>144.23861578369</ele>
        <time>2021-12-26T16:34:36.004Z</time>
      </trkpt>
      <trkpt lat="48.02078" lon="-4.21806">
        <ele>144.42890124204</ele>
        <time>2021-12-26T16:34:36.009Z</time>
      </trkpt>
      <trkpt lat="48.02095" lon="-4.21844">
        <ele>144.65410681606</ele>
        <time>2021-12-26T16:34:36.018Z</time>
      </trkpt>
      <trkpt lat="48.0211" lon="-4.21879">
        <ele>144.97949688668</ele>
        <time>2021-12-26T16:34:36.030Z</time>
      </trkpt>
      <trkpt lat="48.02113" lon="-4.21886">
        <ele>145.29845111447</ele>
        <time>2021-12-26T16:34:36.043Z</time>
      </trkpt>
      <trkpt lat="48.02134" lon="-4.21939">
        <ele>146.10749601227</ele>
        <time>2021-12-26T16:34:36.061Z</time>
      </trkpt>
      <trkpt lat="48.02164" lon="-4.2201">
        <ele>146.70543129391</ele>
        <time>2021-12-26T16:34:36.087Z</time>
      </trkpt>
      <trkpt lat="48.02189" lon="-4.22067">
        <ele>147.10773992891</ele>
        <time>2021-12-26T16:34:36.118Z</time>
      </trkpt>
      <trkpt lat="48.02191" lon="-4.22074">
        <ele>147.42217072573</ele>
        <time>2021-12-26T16:34:36.150Z</time>
      </trkpt>
      <trkpt lat="48.02214" lon="-4.22125">
        <ele>147.2631795225</ele>
        <time>2021-12-26T16:34:36.187Z</time>
      </trkpt>
      <trkpt lat="48.02223" lon="-4.22148">
        <ele>147.20128310881</ele>
        <time>2021-12-26T16:34:36.227Z</time>
      </trkpt>
      <trkpt lat="48.02232" lon="-4.22169">
        <ele>147.05316314305</ele>
        <time>2021-12-26T16:34:36.269Z</time>
      </trkpt>
      <trkpt lat="48.02239" lon="-4.22184">
        <ele>146.84998022208</ele>
        <time>2021-12-26T16:34:36.312Z</time>
      </trkpt>
      <trkpt lat="48.02264" lon="-4.22242">
        <ele>147.16130117367</ele>
        <time>2021-12-26T16:34:36.361Z</time>
      </trkpt>
      <trkpt lat="48.02295" lon="-4.22315">
        <ele>147.23299328375</ele>
        <time>2021-12-26T16:34:36.418Z</time>
      </trkpt>
      <trkpt lat="48.02298" lon="-4.22322">
        <ele>147.15571388196</ele>
        <time>2021-12-26T16:34:36.476Z</time>
      </trkpt>
      <trkpt lat="48.02328" lon="-4.22384">
        <ele>146.8807767732</ele>
        <time>2021-12-26T16:34:36.540Z</time>
      </trkpt>
      <trkpt lat="48.02344" lon="-4.22413">
        <ele>146.53056351088</ele>
        <time>2021-12-26T16:34:36.607Z</time>
      </trkpt>
      <trkpt lat="48.02354" lon="-4.22427">
        <ele>146.05846555931</ele>
        <time>2021-12-26T16:34:36.676Z</time>
      </trkpt>
      <trkpt lat="48.02359" lon="-4.22434">
        <ele>145.53218893785</ele>
        <time>2021-12-26T16:34:36.746Z</time>
      </trkpt>
      <trkpt lat="48.02362" lon="-4.22442">
        <ele>144.93680401887</ele>
        <time>2021-12-26T16:34:36.817Z</time>
      </trkpt>
      <trkpt lat="48.02367" lon="-4.2246">
        <ele>144.29182642077</ele>
        <time>2021-12-26T16:34:36.890Z</time>
      </trkpt>
      <trkpt lat="48.02368" lon="-4.22479">
        <ele>143.64324630762</ele>
        <time>2021-12-26T16:34:36.964Z</time>
      </trkpt>
      <trkpt lat="48.02369" lon="-4.22487">
        <ele>142.94545222844</ele>
        <time>2021-12-26T16:34:37.039Z</time>
      </trkpt>
      <trkpt lat="48.02373" lon="-4.22495">
        <ele>142.22567492904</ele>
        <time>2021-12-26T16:34:37.115Z</time>
      </trkpt>
      <trkpt lat="48.02379" lon="-4.22501">
        <ele>141.47218868951</ele>
        <time>2021-12-26T16:34:37.192Z</time>
      </trkpt>
      <trkpt lat="48.02413" lon="-4.22533">
        <ele>140.40613186675</ele>
        <time>2021-12-26T16:34:37.274Z</time>
      </trkpt>
      <trkpt lat="48.02434" lon="-4.22554">
        <ele>139.39767827608</ele>
        <time>2021-12-26T16:34:37.359Z</time>
      </trkpt>
      <trkpt lat="48.02448" lon="-4.22569">
        <ele>138.45260834342</ele>
        <time>2021-12-26T16:34:37.446Z</time>
      </trkpt>
      <trkpt lat="48.02461" lon="-4.22586">
        <ele>137.5936391614</ele>
        <time>2021-12-26T16:34:37.536Z</time>
      </trkpt>
      <trkpt lat="48.02467" lon="-4.22594">
        <ele>136.78479187851</ele>
        <time>2021-12-26T16:34:37.627Z</time>
      </trkpt>
      <trkpt lat="48.02488" lon="-4.22621">
        <ele>136.0496642201</ele>
        <time>2021-12-26T16:34:37.721Z</time>
      </trkpt>
      <trkpt lat="48.02508" lon="-4.22647">
        <ele>135.24921857296</ele>
        <time>2021-12-26T16:34:37.819Z</time>
      </trkpt>
      <trkpt lat="48.02529" lon="-4.22673">
        <ele>134.36609770907</ele>
        <time>2021-12-26T16:34:37.920Z</time>
      </trkpt>
      <trkpt lat="48.02537" lon="-4.22682">
        <ele>133.61278352588</ele>
        <time>2021-12-26T16:34:38.022Z</time>
      </trkpt>
      <trkpt lat="48.02565" lon="-4.22717">
        <ele>132.75005978616</ele>
        <time>2021-12-26T16:34:38.129Z</time>
      </trkpt>
      <trkpt lat="48.02595" lon="-4.22752">
        <ele>132.09488885718</ele>
        <time>2021-12-26T16:34:38.241Z</time>
      </trkpt>
      <trkpt lat="48.02609" lon="-4.2277">
        <ele>131.56507675498</ele>
        <time>2021-12-26T16:34:38.356Z</time>
      </trkpt>
      <trkpt lat="48.02624" lon="-4.22788">
        <ele>131.14248804974</ele>
        <time>2021-12-26T16:34:38.473Z</time>
      </trkpt>
      <trkpt lat="48.02669" lon="-4.22843">
        <ele>130.52429691136</ele>
        <time>2021-12-26T16:34:38.597Z</time>
      </trkpt>
      <trkpt lat="48.02692" lon="-4.22872">
        <ele>130.08961971771</ele>
        <time>2021-12-26T16:34:38.725Z</time>
      </trkpt>
      <trkpt lat="48.02716" lon="-4.22902">
        <ele>129.68309877905</ele>
        <time>2021-12-26T16:34:38.857Z</time>
      </trkpt>
      <trkpt lat="48.0274" lon="-4.22933">
        <ele>129.43859145957</ele>
        <time>2021-12-26T16:34:38.994Z</time>
      </trkpt>
      <trkpt lat="48.02764" lon="-4.22964">
        <ele>129.44877174863</ele>
        <time>2021-12-26T16:34:39.135Z</time>
      </trkpt>
      <trkpt lat="48.02809" lon="-4.23027">
        <ele>129.42576447573</ele>
        <time>2021-12-26T16:34:39.284Z</time>
      </trkpt>
      <trkpt lat="48.02823" lon="-4.23047">
        <ele>129.52943090701</ele>
        <time>2021-12-26T16:34:39.435Z</time>
      </trkpt>
      <trkpt lat="48.0286" lon="-4.23108">
        <ele>129.81234162734</ele>
        <time>2021-12-26T16:34:39.593Z</time>
      </trkpt>
      <trkpt lat="48.02865" lon="-4.23118">
        <ele>130.1571118133</ele>
        <time>2021-12-26T16:34:39.752Z</time>
      </trkpt>
      <trkpt lat="48.02879" lon="-4.2315">
        <ele>130.56659170671</ele>
        <time>2021-12-26T16:34:39.915Z</time>
      </trkpt>
      <trkpt lat="48.02896" lon="-4.23192">
        <ele>131.18409502402</ele>
        <time>2021-12-26T16:34:40.082Z</time>
      </trkpt>
      <trkpt lat="48.02903" lon="-4.23213">
        <ele>131.83220085228</ele>
        <time>2021-12-26T16:34:40.251Z</time>
      </trkpt>
      <trkpt lat="48.02912" lon="-4.23244">
        <ele>132.6165984911</ele>
        <time>2021-12-26T16:34:40.423Z</time>
      </trkpt>
      <trkpt lat="48.02918" lon="-4.23264">
        <ele>133.37401245894</ele>
        <time>2021-12-26T16:34:40.597Z</time>
      </trkpt>
      <trkpt lat="48.02924" lon="-4.23282">
        <ele>134.14267615247</ele>
        <time>2021-12-26T16:34:40.772Z</time>
      </trkpt>
      <trkpt lat="48.02926" lon="-4.23291">
        <ele>134.96002423368</ele>
        <time>2021-12-26T16:34:40.948Z</time>
      </trkpt>
      <trkpt lat="48.02937" lon="-4.23328">
        <ele>135.78351271483</ele>
        <time>2021-12-26T16:34:41.128Z</time>
      </trkpt>
      <trkpt lat="48.02942" lon="-4.23346">
        <ele>136.67259586126</ele>
        <time>2021-12-26T16:34:41.309Z</time>
      </trkpt>
      <trkpt lat="48.02947" lon="-4.23364">
        <ele>137.55602492147</ele>
        <time>2021-12-26T16:34:41.492Z</time>
      </trkpt>
      <trkpt lat="48.02957" lon="-4.23398">
        <ele>138.56606191723</ele>
        <time>2021-12-26T16:34:41.678Z</time>
      </trkpt>
      <trkpt lat="48.02962" lon="-4.23415">
        <ele>139.49235653013</ele>
        <time>2021-12-26T16:34:41.866Z</time>
      </trkpt>
      <trkpt lat="48.02964" lon="-4.23423">
        <ele>140.38562537306</ele>
        <time>2021-12-26T16:34:42.055Z</time>
      </trkpt>
      <trkpt lat="48.02971" lon="-4.23447">
        <ele>141.32183087871</ele>
        <time>2021-12-26T16:34:42.246Z</time>
      </trkpt>
      <trkpt lat="48.02975" lon="-4.23463">
        <ele>142.23430562672</ele>
        <time>2021-12-26T16:34:42.439Z</time>
      </trkpt>
      <trkpt lat="48.02984" lon="-4.23494">
        <ele>143.13233057196</ele>
        <time>2021-12-26T16:34:42.634Z</time>
      </trkpt>
      <trkpt lat="48.02991" lon="-4.23517">
        <ele>143.98448312511</ele>
        <time>2021-12-26T16:34:42.832Z</time>
      </trkpt>
      <trkpt lat="48.03" lon="-4.23547">
        <ele>144.73783205939</ele>
        <time>2021-12-26T16:34:43.032Z</time>
      </trkpt>
      <trkpt lat="48.03006" lon="-4.23569">
        <ele>145.4649682932</ele>
        <time>2021-12-26T16:34:43.235Z</time>
      </trkpt>
      <trkpt lat="48.03011" lon="-4.23584">
        <ele>146.14817888295</ele>
        <time>2021-12-26T16:34:43.439Z</time>
      </trkpt>
      <trkpt lat="48.03017" lon="-4.23607">
        <ele>146.75785980083</ele>
        <time>2021-12-26T16:34:43.645Z</time>
      </trkpt>
      <trkpt lat="48.03021" lon="-4.23622">
        <ele>147.33676077881</ele>
        <time>2021-12-26T16:34:43.852Z</time>
      </trkpt>
      <trkpt lat="48.03032" lon="-4.23659">
        <ele>147.93034725461</ele>
        <time>2021-12-26T16:34:44.063Z</time>
      </trkpt>
      <trkpt lat="48.03041" lon="-4.23689">
        <ele>148.48462235593</ele>
        <time>2021-12-26T16:34:44.277Z</time>
      </trkpt>
      <trkpt lat="48.03053" lon="-4.23718">
        <ele>148.83960764502</ele>
        <time>2021-12-26T16:34:44.494Z</time>
      </trkpt>
      <trkpt lat="48.03067" lon="-4.23747">
        <ele>149.16961719195</ele>
        <time>2021-12-26T16:34:44.714Z</time>
      </trkpt>
      <trkpt lat="48.03083" lon="-4.23776">
        <ele>149.43483058838</ele>
        <time>2021-12-26T16:34:44.937Z</time>
      </trkpt>
      <trkpt lat="48.03088" lon="-4.23783">
        <ele>149.67200448426</ele>
        <time>2021-12-26T16:34:45.161Z</time>
      </trkpt>
      <trkpt lat="48.03112" lon="-4.23823">
        <ele>149.87273300548</ele>
        <time>2021-12-26T16:34:45.390Z</time>
      </trkpt>
      <trkpt lat="48.03123" lon="-4.2384">
        <ele>150.03033918332</ele>
        <time>2021-12-26T16:34:45.621Z</time>
      </trkpt>
      <trkpt lat="48.0315" lon="-4.23883">
        <ele>150.07940957737</ele>
        <time>2021-12-26T16:34:45.857Z</time>
      </trkpt>
      <trkpt lat="48.03172" lon="-4.23918">
        <ele>150.06093426429</ele>
        <time>2021-12-26T16:34:46.097Z</time>
      </trkpt>
      <trkpt lat="48.03213" lon="-4.23974">
        <ele>150.13777005379</ele>
        <time>2021-12-26T16:34:46.344Z</time>
      </trkpt>
      <trkpt lat="48.03219" lon="-4.23981">
        <ele>150.16546381463</ele>
        <time>2021-12-26T16:34:46.592Z</time>
      </trkpt>
      <trkpt lat="48.03245" lon="-4.24006">
        <ele>150.12436428848</ele>
        <time>2021-12-26T16:34:46.844Z</time>
      </trkpt>
      <trkpt lat="48.03277" lon="-4.24035">
        <ele>150.13544793209</ele>
        <time>2021-12-26T16:34:47.101Z</time>
      </trkpt>
      <trkpt lat="48.03291" lon="-4.24045">
        <ele>150.15067709248</ele>
        <time>2021-12-26T16:34:47.360Z</time>
      </trkpt>
      <trkpt lat="48.03323" lon="-4.2407">
        <ele>150.21328407894</ele>
        <time>2021-12-26T16:34:47.624Z</time>
      </trkpt>
      <trkpt lat="48.03342" lon="-4.24087">
        <ele>150.26517695475</ele>
        <time>2021-12-26T16:34:47.891Z</time>
      </trkpt>
      <trkpt lat="48.03378" lon="-4.24133">
        <ele>150.26661974805</ele>
        <time>2021-12-26T16:34:48.164Z</time>
      </trkpt>
      <trkpt lat="48.03389" lon="-4.24152">
        <ele>150.23412666142</ele>
        <time>2021-12-26T16:34:48.439Z</time>
      </trkpt>
      <trkpt lat="48.03394" lon="-4.24161">
        <ele>150.19377407854</ele>
        <time>2021-12-26T16:34:48.715Z</time>
      </trkpt>
      <trkpt lat="48.03409" lon="-4.24193">
        <ele>150.12607969248</ele>
        <time>2021-12-26T16:34:48.994Z</time>
      </trkpt>
      <trkpt lat="48.03413" lon="-4.24205">
        <ele>150.05177919651</ele>
        <time>2021-12-26T16:34:49.274Z</time>
      </trkpt>
      <trkpt lat="48.03422" lon="-4.24227">
        <ele>149.99780216984</ele>
        <time>2021-12-26T16:34:49.557Z</time>
      </trkpt>
      <trkpt lat="48.03446" lon="-4.24295">
        <ele>149.91514978568</ele>
        <time>2021-12-26T16:34:49.846Z</time>
      </trkpt>
      <trkpt lat="48.03464" lon="-4.24353">
        <ele>149.87095505742</ele>
        <time>2021-12-26T16:34:50.141Z</time>
      </trkpt>
      <trkpt lat="48.03481" lon="-4.24409">
        <ele>149.87867107894</ele>
        <time>2021-12-26T16:34:50.441Z</time>
      </trkpt>
      <trkpt lat="48.03484" lon="-4.2442">
        <ele>149.8220855763</ele>
        <time>2021-12-26T16:34:50.742Z</time>
      </trkpt>
      <trkpt lat="48.03493" lon="-4.24451">
        <ele>149.82688530692</ele>
        <time>2021-12-26T16:34:51.046Z</time>
      </trkpt>
      <trkpt lat="48.03504" lon="-4.24491">
        <ele>149.85313785238</ele>
        <time>2021-12-26T16:34:51.354Z</time>
      </trkpt>
      <trkpt lat="48.03513" lon="-4.2452">
        <ele>149.87609246604</ele>
        <time>2021-12-26T16:34:51.665Z</time>
      </trkpt>
      <trkpt lat="48.03524" lon="-4.24559">
        <ele>149.76858492766</ele>
        <time>2021-12-26T16:34:51.979Z</time>
      </trkpt>
      <trkpt lat="48.03527" lon="-4.24569">
        <ele>149.64238163469</ele>
        <time>2021-12-26T16:34:52.294Z</time>
      </trkpt>
      <trkpt lat="48.03539" lon="-4.24606">
        <ele>149.46136446116</ele>
        <time>2021-12-26T16:34:52.613Z</time>
      </trkpt>
      <trkpt lat="48.03556" lon="-4.24661">
        <ele>149.30888835805</ele>
        <time>2021-12-26T16:34:52.937Z</time>
      </trkpt>
      <trkpt lat="48.0357" lon="-4.24698">
        <ele>149.12468054581</ele>
        <time>2021-12-26T16:34:53.265Z</time>
      </trkpt>
      <trkpt lat="48.03586" lon="-4.24736">
        <ele>148.89787521769</ele>
        <time>2021-12-26T16:34:53.596Z</time>
      </trkpt>
      <trkpt lat="48.03612" lon="-4.24795">
        <ele>148.55764043408</ele>
        <time>2021-12-26T16:34:53.934Z</time>
      </trkpt>
      <trkpt lat="48.03621" lon="-4.24815">
        <ele>148.31791514499</ele>
        <time>2021-12-26T16:34:54.274Z</time>
      </trkpt>
      <trkpt lat="48.03631" lon="-4.24836">
        <ele>148.1069523604</ele>
        <time>2021-12-26T16:34:54.616Z</time>
      </trkpt>
      <trkpt lat="48.03636" lon="-4.24846">
        <ele>147.91041712448</ele>
        <time>2021-12-26T16:34:54.959Z</time>
      </trkpt>
      <trkpt lat="48.03646" lon="-4.24868">
        <ele>147.70798403673</ele>
        <time>2021-12-26T16:34:55.304Z</time>
      </trkpt>
      <trkpt lat="48.03661" lon="-4.24902">
        <ele>147.50133823673</ele>
        <time>2021-12-26T16:34:55.653Z</time>
      </trkpt>
      <trkpt lat="48.03672" lon="-4.24924">
        <ele>147.27045515822</ele>
        <time>2021-12-26T16:34:56.004Z</time>
      </trkpt>
      <trkpt lat="48.03707" lon="-4.25001">
        <ele>147.03415804135</ele>
        <time>2021-12-26T16:34:56.363Z</time>
      </trkpt>
      <trkpt lat="48.03717" lon="-4.25022">
        <ele>146.86406948818</ele>
        <time>2021-12-26T16:34:56.724Z</time>
      </trkpt>
      <trkpt lat="48.03731" lon="-4.25053">
        <ele>146.73970283452</ele>
        <time>2021-12-26T16:34:57.089Z</time>
      </trkpt>
      <trkpt lat="48.03754" lon="-4.251">
        <ele>146.73176146153</ele>
        <time>2021-12-26T16:34:57.459Z</time>
      </trkpt>
      <trkpt lat="48.03763" lon="-4.25116">
        <ele>146.71184594079</ele>
        <time>2021-12-26T16:34:57.831Z</time>
      </trkpt>
      <trkpt lat="48.03774" lon="-4.25129">
        <ele>146.72647061384</ele>
        <time>2021-12-26T16:34:58.204Z</time>
      </trkpt>
      <trkpt lat="48.03779" lon="-4.25136">
        <ele>146.77969783779</ele>
        <time>2021-12-26T16:34:58.578Z</time>
      </trkpt>
      <trkpt lat="48.03786" lon="-4.25155">
        <ele>146.89302673787</ele>
        <time>2021-12-26T16:34:58.954Z</time>
      </trkpt>
      <trkpt lat="48.03794" lon="-4.25175">
        <ele>147.05010534231</ele>
        <time>2021-12-26T16:34:59.332Z</time>
      </trkpt>
      <trkpt lat="48.03803" lon="-4.25194">
        <ele>147.22828012105</ele>
        <time>2021-12-26T16:34:59.712Z</time>
      </trkpt>
      <trkpt lat="48.03832" lon="-4.25255">
        <ele>147.41623309272</ele>
        <time>2021-12-26T16:35:00.099Z</time>
      </trkpt>
      <trkpt lat="48.03841" lon="-4.25276">
        <ele>147.73311380336</ele>
        <time>2021-12-26T16:35:00.488Z</time>
      </trkpt>
      <trkpt lat="48.03878" lon="-4.25339">
        <ele>148.06497990348</ele>
        <time>2021-12-26T16:35:00.884Z</time>
      </trkpt>
      <trkpt lat="48.03883" lon="-4.25348">
        <ele>148.37148605218</ele>
        <time>2021-12-26T16:35:01.281Z</time>
      </trkpt>
      <trkpt lat="48.03914" lon="-4.254">
        <ele>148.71363466375</ele>
        <time>2021-12-26T16:35:01.684Z</time>
      </trkpt>
      <trkpt lat="48.03934" lon="-4.25433">
        <ele>149.23762315307</ele>
        <time>2021-12-26T16:35:02.091Z</time>
      </trkpt>
      <trkpt lat="48.03947" lon="-4.25455">
        <ele>149.74164456218</ele>
        <time>2021-12-26T16:35:02.500Z</time>
      </trkpt>
      <trkpt lat="48.03964" lon="-4.25484">
        <ele>150.24362195974</ele>
        <time>2021-12-26T16:35:02.913Z</time>
      </trkpt>
      <trkpt lat="48.03972" lon="-4.25498">
        <ele>150.7093440956</ele>
        <time>2021-12-26T16:35:03.327Z</time>
      </trkpt>
      <trkpt lat="48.0398" lon="-4.25511">
        <ele>151.19047565559</ele>
        <time>2021-12-26T16:35:03.743Z</time>
      </trkpt>
      <trkpt lat="48.04003" lon="-4.25549">
        <ele>151.68153358351</ele>
        <time>2021-12-26T16:35:04.163Z</time>
      </trkpt>
      <trkpt lat="48.04007" lon="-4.25556">
        <ele>152.12807556568</ele>
        <time>2021-12-26T16:35:04.584Z</time>
      </trkpt>
      <trkpt lat="48.04027" lon="-4.25589">
        <ele>152.64270132962</ele>
        <time>2021-12-26T16:35:05.009Z</time>
      </trkpt>
      <trkpt lat="48.04038" lon="-4.25609">
        <ele>153.0654522304</ele>
        <time>2021-12-26T16:35:05.436Z</time>
      </trkpt>
      <trkpt lat="48.04046" lon="-4.25622">
        <ele>153.4595467755</ele>
        <time>2021-12-26T16:35:05.865Z</time>
      </trkpt>
      <trkpt lat="48.04068" lon="-4.25662">
        <ele>153.80119385178</ele>
        <time>2021-12-26T16:35:06.298Z</time>
      </trkpt>
      <trkpt lat="48.04084" lon="-4.25689">
        <ele>154.09255226727</ele>
        <time>2021-12-26T16:35:06.734Z</time>
      </trkpt>
      <trkpt lat="48.04096" lon="-4.2571">
        <ele>154.34420198087</ele>
        <time>2021-12-26T16:35:07.173Z</time>
      </trkpt>
      <trkpt lat="48.0413" lon="-4.25771">
        <ele>154.49763964224</ele>
        <time>2021-12-26T16:35:07.619Z</time>
      </trkpt>
      <trkpt lat="48.04167" lon="-4.25838">
        <ele>154.54255942299</ele>
        <time>2021-12-26T16:35:08.072Z</time>
      </trkpt>
      <trkpt lat="48.04172" lon="-4.25847">
        <ele>154.65070599242</ele>
        <time>2021-12-26T16:35:08.526Z</time>
      </trkpt>
      <trkpt lat="48.04211" lon="-4.25915">
        <ele>154.77425410508</ele>
        <time>2021-12-26T16:35:08.988Z</time>
      </trkpt>
      <trkpt lat="48.0422" lon="-4.25932">
        <ele>154.81916127241</ele>
        <time>2021-12-26T16:35:09.452Z</time>
      </trkpt>
      <trkpt lat="48.04259" lon="-4.26">
        <ele>154.74152947556</ele>
        <time>2021-12-26T16:35:09.924Z</time>
      </trkpt>
      <trkpt lat="48.04264" lon="-4.26009">
        <ele>154.6510383755</ele>
        <time>2021-12-26T16:35:10.397Z</time>
      </trkpt>
      <trkpt lat="48.04298" lon="-4.26072">
        <ele>154.55349923311</ele>
        <time>2021-12-26T16:35:10.877Z</time>
      </trkpt>
      <trkpt lat="48.04308" lon="-4.26091">
        <ele>154.32985095771</ele>
        <time>2021-12-26T16:35:11.359Z</time>
      </trkpt>
      <trkpt lat="48.04318" lon="-4.2611">
        <ele>154.1327527802</ele>
        <time>2021-12-26T16:35:11.843Z</time>
      </trkpt>
      <trkpt lat="48.04355" lon="-4.26177">
        <ele>153.89044857208</ele>
        <time>2021-12-26T16:35:12.334Z</time>
      </trkpt>
      <trkpt lat="48.04366" lon="-4.26196">
        <ele>153.54076282586</ele>
        <time>2021-12-26T16:35:12.827Z</time>
      </trkpt>
      <trkpt lat="48.04381" lon="-4.26223">
        <ele>153.12510700446</ele>
        <time>2021-12-26T16:35:13.324Z</time>
      </trkpt>
      <trkpt lat="48.04409" lon="-4.26271">
        <ele>152.57436269571</ele>
        <time>2021-12-26T16:35:13.826Z</time>
      </trkpt>
      <trkpt lat="48.0442" lon="-4.26291">
        <ele>152.07507090994</ele>
        <time>2021-12-26T16:35:14.330Z</time>
      </trkpt>
      <trkpt lat="48.04444" lon="-4.26332">
        <ele>151.50009352923</ele>
        <time>2021-12-26T16:35:14.839Z</time>
      </trkpt>
      <trkpt lat="48.04474" lon="-4.26385">
        <ele>150.98709725241</ele>
        <time>2021-12-26T16:35:15.354Z</time>
      </trkpt>
      <trkpt lat="48.0451" lon="-4.26446">
        <ele>150.42284498168</ele>
        <time>2021-12-26T16:35:15.876Z</time>
      </trkpt>
      <trkpt lat="48.04522" lon="-4.26466">
        <ele>149.8250395185</ele>
        <time>2021-12-26T16:35:16.400Z</time>
      </trkpt>
      <trkpt lat="48.04565" lon="-4.26532">
        <ele>149.22003861087</ele>
        <time>2021-12-26T16:35:16.932Z</time>
      </trkpt>
      <trkpt lat="48.04585" lon="-4.26558">
        <ele>148.53656649577</ele>
        <time>2021-12-26T16:35:17.468Z</time>
      </trkpt>
      <trkpt lat="48.04627" lon="-4.26608">
        <ele>147.90995963324</ele>
        <time>2021-12-26T16:35:18.011Z</time>
      </trkpt>
      <trkpt lat="48.0465" lon="-4.26633">
        <ele>147.06004877762</ele>
        <time>2021-12-26T16:35:18.557Z</time>
      </trkpt>
      <trkpt lat="48.04674" lon="-4.26657">
        <ele>146.13582419075</ele>
        <time>2021-12-26T16:35:19.107Z</time>
      </trkpt>
      <trkpt lat="48.04699" lon="-4.26681">
        <ele>145.19649312601</ele>
        <time>2021-12-26T16:35:19.661Z</time>
      </trkpt>
      <trkpt lat="48.04716" lon="-4.26696">
        <ele>144.26644282303</ele>
        <time>2021-12-26T16:35:20.217Z</time>
      </trkpt>
      <trkpt lat="48.04735" lon="-4.26711">
        <ele>143.31484883092</ele>
        <time>2021-12-26T16:35:20.776Z</time>
      </trkpt>
      <trkpt lat="48.04763" lon="-4.26733">
        <ele>142.31625692378</ele>
        <time>2021-12-26T16:35:21.339Z</time>
      </trkpt>
      <trkpt lat="48.04783" lon="-4.26748">
        <ele>141.3151889027</ele>
        <time>2021-12-26T16:35:21.905Z</time>
      </trkpt>
      <trkpt lat="48.04803" lon="-4.26762">
        <ele>140.29534248026</ele>
        <time>2021-12-26T16:35:22.474Z</time>
      </trkpt>
      <trkpt lat="48.04823" lon="-4.26775">
        <ele>139.28150224147</ele>
        <time>2021-12-26T16:35:23.046Z</time>
      </trkpt>
      <trkpt lat="48.04855" lon="-4.26794">
        <ele>138.24457243114</ele>
        <time>2021-12-26T16:35:23.622Z</time>
      </trkpt>
      <trkpt lat="48.04867" lon="-4.26799">
        <ele>137.21096038623</ele>
        <time>2021-12-26T16:35:24.200Z</time>
      </trkpt>
      <trkpt lat="48.04914" lon="-4.26822">
        <ele>136.14927913615</ele>
        <time>2021-12-26T16:35:24.784Z</time>
      </trkpt>
      <trkpt lat="48.04926" lon="-4.26827">
        <ele>135.09733525308</ele>
        <time>2021-12-26T16:35:25.370Z</time>
      </trkpt>
      <trkpt lat="48.04938" lon="-4.26832">
        <ele>134.00642791527</ele>
        <time>2021-12-26T16:35:25.958Z</time>
      </trkpt>
      <trkpt lat="48.04977" lon="-4.26846">
        <ele>132.72747204133</ele>
        <time>2021-12-26T16:35:26.551Z</time>
      </trkpt>
      <trkpt lat="48.04989" lon="-4.26851">
        <ele>131.57766162819</ele>
        <time>2021-12-26T16:35:27.145Z</time>
      </trkpt>
      <trkpt lat="48.05016" lon="-4.26861">
        <ele>130.32934451014</ele>
        <time>2021-12-26T16:35:27.743Z</time>
      </trkpt>
      <trkpt lat="48.05029" lon="-4.26865">
        <ele>129.28747250464</ele>
        <time>2021-12-26T16:35:28.343Z</time>
      </trkpt>
      <trkpt lat="48.05055" lon="-4.26875">
        <ele>128.22995112392</ele>
        <time>2021-12-26T16:35:28.946Z</time>
      </trkpt>
      <trkpt lat="48.05095" lon="-4.2689">
        <ele>127.37621903665</ele>
        <time>2021-12-26T16:35:29.554Z</time>
      </trkpt>
      <trkpt lat="48.05135" lon="-4.26906">
        <ele>126.4953076924</ele>
        <time>2021-12-26T16:35:30.168Z</time>
      </trkpt>
      <trkpt lat="48.05187" lon="-4.26925">
        <ele>125.55894715026</ele>
        <time>2021-12-26T16:35:30.789Z</time>
      </trkpt>
      <trkpt lat="48.05213" lon="-4.26935">
        <ele>124.70093809116</ele>
        <time>2021-12-26T16:35:31.413Z</time>
      </trkpt>
      <trkpt lat="48.05238" lon="-4.26944">
        <ele>123.95146613916</ele>
        <time>2021-12-26T16:35:32.040Z</time>
      </trkpt>
      <trkpt lat="48.05298" lon="-4.26967">
        <ele>123.33099003148</ele>
        <time>2021-12-26T16:35:32.675Z</time>
      </trkpt>
      <trkpt lat="48.05321" lon="-4.26976">
        <ele>122.62342285062</ele>
        <time>2021-12-26T16:35:33.314Z</time>
      </trkpt>
      <trkpt lat="48.05378" lon="-4.26998">
        <ele>121.88557482739</ele>
        <time>2021-12-26T16:35:33.960Z</time>
      </trkpt>
      <trkpt lat="48.05411" lon="-4.2701">
        <ele>121.138924339</ele>
        <time>2021-12-26T16:35:34.611Z</time>
      </trkpt>
      <trkpt lat="48.05445" lon="-4.27024">
        <ele>120.51629770053</ele>
        <time>2021-12-26T16:35:35.266Z</time>
      </trkpt>
      <trkpt lat="48.055" lon="-4.27045">
        <ele>119.74117354535</ele>
        <time>2021-12-26T16:35:35.928Z</time>
      </trkpt>
      <trkpt lat="48.05533" lon="-4.27058">
        <ele>119.05503879957</ele>
        <time>2021-12-26T16:35:36.595Z</time>
      </trkpt>
      <trkpt lat="48.05585" lon="-4.27079">
        <ele>118.42142119452</ele>
        <time>2021-12-26T16:35:37.269Z</time>
      </trkpt>
      <trkpt lat="48.05606" lon="-4.27088">
        <ele>117.76473968799</ele>
        <time>2021-12-26T16:35:37.946Z</time>
      </trkpt>
      <trkpt lat="48.05616" lon="-4.27093">
        <ele>117.12661857494</ele>
        <time>2021-12-26T16:35:38.624Z</time>
      </trkpt>
      <trkpt lat="48.05667" lon="-4.27122">
        <ele>116.54359027417</ele>
        <time>2021-12-26T16:35:39.309Z</time>
      </trkpt>
      <trkpt lat="48.05677" lon="-4.27128">
        <ele>115.92704024996</ele>
        <time>2021-12-26T16:35:39.995Z</time>
      </trkpt>
      <trkpt lat="48.05697" lon="-4.27142">
        <ele>115.27061092723</ele>
        <time>2021-12-26T16:35:40.684Z</time>
      </trkpt>
      <trkpt lat="48.05727" lon="-4.27163">
        <ele>114.66072073065</ele>
        <time>2021-12-26T16:35:41.377Z</time>
      </trkpt>
      <trkpt lat="48.05775" lon="-4.27205">
        <ele>113.90407806712</ele>
        <time>2021-12-26T16:35:42.078Z</time>
      </trkpt>
      <trkpt lat="48.05803" lon="-4.27233">
        <ele>113.22646767066</ele>
        <time>2021-12-26T16:35:42.783Z</time>
      </trkpt>
      <trkpt lat="48.05812" lon="-4.27243">
        <ele>112.58632409678</ele>
        <time>2021-12-26T16:35:43.489Z</time>
      </trkpt>
      <trkpt lat="48.05849" lon="-4.27283">
        <ele>111.8747000934</ele>
        <time>2021-12-26T16:35:44.201Z</time>
      </trkpt>
      <trkpt lat="48.05878" lon="-4.27314">
        <ele>111.1063541787</ele>
        <time>2021-12-26T16:35:44.918Z</time>
      </trkpt>
      <trkpt lat="48.05897" lon="-4.27335">
        <ele>110.34527553665</ele>
        <time>2021-12-26T16:35:45.638Z</time>
      </trkpt>
      <trkpt lat="48.05917" lon="-4.27356">
        <ele>109.5699813863</ele>
        <time>2021-12-26T16:35:46.361Z</time>
      </trkpt>
      <trkpt lat="48.05936" lon="-4.27378">
        <ele>108.77740522132</ele>
        <time>2021-12-26T16:35:47.087Z</time>
      </trkpt>
      <trkpt lat="48.05985" lon="-4.27432">
        <ele>107.86469662503</ele>
        <time>2021-12-26T16:35:47.821Z</time>
      </trkpt>
      <trkpt lat="48.06014" lon="-4.27466">
        <ele>107.05680982902</ele>
        <time>2021-12-26T16:35:48.560Z</time>
      </trkpt>
      <trkpt lat="48.06024" lon="-4.27478">
        <ele>106.26564689321</ele>
        <time>2021-12-26T16:35:49.301Z</time>
      </trkpt>
      <trkpt lat="48.06033" lon="-4.2749">
        <ele>105.44528838834</ele>
        <time>2021-12-26T16:35:50.043Z</time>
      </trkpt>
      <trkpt lat="48.06063" lon="-4.27528">
        <ele>104.52489877238</ele>
        <time>2021-12-26T16:35:50.790Z</time>
      </trkpt>
      <trkpt lat="48.06072" lon="-4.27542">
        <ele>103.67757842072</ele>
        <time>2021-12-26T16:35:51.539Z</time>
      </trkpt>
      <trkpt lat="48.06081" lon="-4.27557">
        <ele>102.89800039946</ele>
        <time>2021-12-26T16:35:52.290Z</time>
      </trkpt>
      <trkpt lat="48.06099" lon="-4.27587">
        <ele>102.06894989202</ele>
        <time>2021-12-26T16:35:53.044Z</time>
      </trkpt>
      <trkpt lat="48.06142" lon="-4.27663">
        <ele>101.34459309311</ele>
        <time>2021-12-26T16:35:53.807Z</time>
      </trkpt>
      <trkpt lat="48.06181" lon="-4.27738">
        <ele>100.51862087811</ele>
        <time>2021-12-26T16:35:54.578Z</time>
      </trkpt>
      <trkpt lat="48.06189" lon="-4.27753">
        <ele>99.756947340549</ele>
        <time>2021-12-26T16:35:55.351Z</time>
      </trkpt>
      <trkpt lat="48.06204" lon="-4.27782">
        <ele>98.963288290653</ele>
        <time>2021-12-26T16:35:56.127Z</time>
      </trkpt>
      <trkpt lat="48.06219" lon="-4.27812">
        <ele>98.174406951063</ele>
        <time>2021-12-26T16:35:56.906Z</time>
      </trkpt>
      <trkpt lat="48.0624" lon="-4.27859">
        <ele>97.425967946286</ele>
        <time>2021-12-26T16:35:57.690Z</time>
      </trkpt>
      <trkpt lat="48.06247" lon="-4.27875">
        <ele>96.659361472925</ele>
        <time>2021-12-26T16:35:58.476Z</time>
      </trkpt>
      <trkpt lat="48.0626" lon="-4.27907">
        <ele>95.852570261809</ele>
        <time>2021-12-26T16:35:59.265Z</time>
      </trkpt>
      <trkpt lat="48.06266" lon="-4.27923">
        <ele>95.039135247674</ele>
        <time>2021-12-26T16:36:00.055Z</time>
      </trkpt>
      <trkpt lat="48.0629" lon="-4.27984">
        <ele>94.167115121414</ele>
        <time>2021-12-26T16:36:00.852Z</time>
      </trkpt>
      <trkpt lat="48.06317" lon="-4.28061">
        <ele>93.29692787611</ele>
        <time>2021-12-26T16:36:01.656Z</time>
      </trkpt>
      <trkpt lat="48.06321" lon="-4.28077">
        <ele>92.489973742029</ele>
        <time>2021-12-26T16:36:02.462Z</time>
      </trkpt>
      <trkpt lat="48.06342" lon="-4.28149">
        <ele>91.747628975639</ele>
        <time>2021-12-26T16:36:03.274Z</time>
      </trkpt>
      <trkpt lat="48.06365" lon="-4.28234">
        <ele>91.024655637272</ele>
        <time>2021-12-26T16:36:04.094Z</time>
      </trkpt>
      <trkpt lat="48.06373" lon="-4.28262">
        <ele>90.181026851847</ele>
        <time>2021-12-26T16:36:04.917Z</time>
      </trkpt>
      <trkpt lat="48.06395" lon="-4.28343">
        <ele>89.260537026909</ele>
        <time>2021-12-26T16:36:05.747Z</time>
      </trkpt>
      <trkpt lat="48.06402" lon="-4.28369">
        <ele>88.368969878455</ele>
        <time>2021-12-26T16:36:06.580Z</time>
      </trkpt>
      <trkpt lat="48.06425" lon="-4.28451">
        <ele>87.439603127562</ele>
        <time>2021-12-26T16:36:07.421Z</time>
      </trkpt>
      <trkpt lat="48.06438" lon="-4.28494">
        <ele>86.481448183714</ele>
        <time>2021-12-26T16:36:08.266Z</time>
      </trkpt>
      <trkpt lat="48.06453" lon="-4.28537">
        <ele>85.440914307814</ele>
        <time>2021-12-26T16:36:09.115Z</time>
      </trkpt>
      <trkpt lat="48.0647" lon="-4.28579">
        <ele>84.375108766718</ele>
        <time>2021-12-26T16:36:09.968Z</time>
      </trkpt>
      <trkpt lat="48.06482" lon="-4.28608">
        <ele>83.358712579282</ele>
        <time>2021-12-26T16:36:10.824Z</time>
      </trkpt>
      <trkpt lat="48.06501" lon="-4.28651">
        <ele>82.297621176042</ele>
        <time>2021-12-26T16:36:11.684Z</time>
      </trkpt>
      <trkpt lat="48.06521" lon="-4.28695">
        <ele>81.139997454796</ele>
        <time>2021-12-26T16:36:12.549Z</time>
      </trkpt>
      <trkpt lat="48.06534" lon="-4.28725">
        <ele>80.077898242415</ele>
        <time>2021-12-26T16:36:13.417Z</time>
      </trkpt>
      <trkpt lat="48.06555" lon="-4.28772">
        <ele>79.024902156321</ele>
        <time>2021-12-26T16:36:14.290Z</time>
      </trkpt>
      <trkpt lat="48.06568" lon="-4.28803">
        <ele>77.942523757898</ele>
        <time>2021-12-26T16:36:15.166Z</time>
      </trkpt>
      <trkpt lat="48.06582" lon="-4.28835">
        <ele>76.870797994586</ele>
        <time>2021-12-26T16:36:16.046Z</time>
      </trkpt>
      <trkpt lat="48.06589" lon="-4.2885">
        <ele>75.812607355786</ele>
        <time>2021-12-26T16:36:16.927Z</time>
      </trkpt>
      <trkpt lat="48.06616" lon="-4.28912">
        <ele>74.762063406139</ele>
        <time>2021-12-26T16:36:17.815Z</time>
      </trkpt>
      <trkpt lat="48.06623" lon="-4.28928">
        <ele>73.715436824384</ele>
        <time>2021-12-26T16:36:18.704Z</time>
      </trkpt>
      <trkpt lat="48.0665" lon="-4.2899">
        <ele>72.620236230265</ele>
        <time>2021-12-26T16:36:19.600Z</time>
      </trkpt>
      <trkpt lat="48.06678" lon="-4.29054">
        <ele>71.397394388318</ele>
        <time>2021-12-26T16:36:20.502Z</time>
      </trkpt>
      <trkpt lat="48.06685" lon="-4.2907">
        <ele>70.293274461681</ele>
        <time>2021-12-26T16:36:21.406Z</time>
      </trkpt>
      <trkpt lat="48.06698" lon="-4.29102">
        <ele>69.166622341491</ele>
        <time>2021-12-26T16:36:22.313Z</time>
      </trkpt>
      <trkpt lat="48.06718" lon="-4.29151">
        <ele>68.049882290612</ele>
        <time>2021-12-26T16:36:23.225Z</time>
      </trkpt>
      <trkpt lat="48.06725" lon="-4.29168">
        <ele>66.944863729634</ele>
        <time>2021-12-26T16:36:24.139Z</time>
      </trkpt>
      <trkpt lat="48.06731" lon="-4.29184">
        <ele>65.879492105892</ele>
        <time>2021-12-26T16:36:25.054Z</time>
      </trkpt>
      <trkpt lat="48.06737" lon="-4.29201">
        <ele>64.818192622475</ele>
        <time>2021-12-26T16:36:25.971Z</time>
      </trkpt>
      <trkpt lat="48.06753" lon="-4.29253">
        <ele>63.704444146099</ele>
        <time>2021-12-26T16:36:26.893Z</time>
      </trkpt>
      <trkpt lat="48.06771" lon="-4.29342">
        <ele>62.582440113306</ele>
        <time>2021-12-26T16:36:27.823Z</time>
      </trkpt>
      <trkpt lat="48.06776" lon="-4.29378">
        <ele>61.528962272832</ele>
        <time>2021-12-26T16:36:28.756Z</time>
      </trkpt>
      <trkpt lat="48.06785" lon="-4.29446">
        <ele>60.502772293799</ele>
        <time>2021-12-26T16:36:29.695Z</time>
      </trkpt>
      <trkpt lat="48.06788" lon="-4.29463">
        <ele>59.487866829451</ele>
        <time>2021-12-26T16:36:30.636Z</time>
      </trkpt>
      <trkpt lat="48.0679" lon="-4.2948">
        <ele>58.467103911678</ele>
        <time>2021-12-26T16:36:31.578Z</time>
      </trkpt>
      <trkpt lat="48.068" lon="-4.29545">
        <ele>57.497597700872</ele>
        <time>2021-12-26T16:36:32.526Z</time>
      </trkpt>
      <trkpt lat="48.06806" lon="-4.29576">
        <ele>56.473646464358</ele>
        <time>2021-12-26T16:36:33.477Z</time>
      </trkpt>
      <trkpt lat="48.06809" lon="-4.29593">
        <ele>55.472172932975</ele>
        <time>2021-12-26T16:36:34.429Z</time>
      </trkpt>
      <trkpt lat="48.06832" lon="-4.29672">
        <ele>54.39381848602</ele>
        <time>2021-12-26T16:36:35.389Z</time>
      </trkpt>
      <trkpt lat="48.06851" lon="-4.29718">
        <ele>53.363856079736</ele>
        <time>2021-12-26T16:36:36.353Z</time>
      </trkpt>
      <trkpt lat="48.06864" lon="-4.29748">
        <ele>52.406202083195</ele>
        <time>2021-12-26T16:36:37.321Z</time>
      </trkpt>
      <trkpt lat="48.06872" lon="-4.29763">
        <ele>51.498085126737</ele>
        <time>2021-12-26T16:36:38.290Z</time>
      </trkpt>
      <trkpt lat="48.06888" lon="-4.29794">
        <ele>50.589185261054</ele>
        <time>2021-12-26T16:36:39.263Z</time>
      </trkpt>
      <trkpt lat="48.06904" lon="-4.29825">
        <ele>49.649744076287</ele>
        <time>2021-12-26T16:36:40.239Z</time>
      </trkpt>
      <trkpt lat="48.06921" lon="-4.29857">
        <ele>48.701074937455</ele>
        <time>2021-12-26T16:36:41.218Z</time>
      </trkpt>
      <trkpt lat="48.06929" lon="-4.29873">
        <ele>47.832295856538</ele>
        <time>2021-12-26T16:36:42.199Z</time>
      </trkpt>
      <trkpt lat="48.06938" lon="-4.29889">
        <ele>46.998196728807</ele>
        <time>2021-12-26T16:36:43.182Z</time>
      </trkpt>
      <trkpt lat="48.06962" lon="-4.29936">
        <ele>46.102037278398</ele>
        <time>2021-12-26T16:36:44.170Z</time>
      </trkpt>
      <trkpt lat="48.0697" lon="-4.29952">
        <ele>45.348959599857</ele>
        <time>2021-12-26T16:36:45.160Z</time>
      </trkpt>
      <trkpt lat="48.06985" lon="-4.29984">
        <ele>44.702892864416</ele>
        <time>2021-12-26T16:36:46.153Z</time>
      </trkpt>
      <trkpt lat="48.07007" lon="-4.30036">
        <ele>44.03547496247</ele>
        <time>2021-12-26T16:36:47.152Z</time>
      </trkpt>
      <trkpt lat="48.07014" lon="-4.30054">
        <ele>43.467038979578</ele>
        <time>2021-12-26T16:36:48.152Z</time>
      </trkpt>
      <trkpt lat="48.07021" lon="-4.30072">
        <ele>42.886259706895</ele>
        <time>2021-12-26T16:36:49.154Z</time>
      </trkpt>
      <trkpt lat="48.07028" lon="-4.30089">
        <ele>42.415339222454</ele>
        <time>2021-12-26T16:36:50.158Z</time>
      </trkpt>
      <trkpt lat="48.07048" lon="-4.30144">
        <ele>41.943012938903</ele>
        <time>2021-12-26T16:36:51.167Z</time>
      </trkpt>
      <trkpt lat="48.07075" lon="-4.30216">
        <ele>41.62612842279</ele>
        <time>2021-12-26T16:36:52.183Z</time>
      </trkpt>
      <trkpt lat="48.0708" lon="-4.30234">
        <ele>41.374746184024</ele>
        <time>2021-12-26T16:36:53.201Z</time>
      </trkpt>
      <trkpt lat="48.07086" lon="-4.30252">
        <ele>41.183142572976</ele>
        <time>2021-12-26T16:36:54.221Z</time>
      </trkpt>
      <trkpt lat="48.07111" lon="-4.30337">
        <ele>41.007244848268</ele>
        <time>2021-12-26T16:36:55.249Z</time>
      </trkpt>
      <trkpt lat="48.07116" lon="-4.30353">
        <ele>40.934966815526</ele>
        <time>2021-12-26T16:36:56.278Z</time>
      </trkpt>
      <trkpt lat="48.0714" lon="-4.30435">
        <ele>40.877696602176</ele>
        <time>2021-12-26T16:36:57.315Z</time>
      </trkpt>
      <trkpt lat="48.07166" lon="-4.30516">
        <ele>40.884316018231</ele>
        <time>2021-12-26T16:36:58.360Z</time>
      </trkpt>
      <trkpt lat="48.07195" lon="-4.30592">
        <ele>40.917014404296</ele>
        <time>2021-12-26T16:36:59.413Z</time>
      </trkpt>
      <trkpt lat="48.07201" lon="-4.30607">
        <ele>41.030793406784</ele>
        <time>2021-12-26T16:37:00.467Z</time>
      </trkpt>
      <trkpt lat="48.07214" lon="-4.30636">
        <ele>41.228381620922</ele>
        <time>2021-12-26T16:37:01.524Z</time>
      </trkpt>
      <trkpt lat="48.07245" lon="-4.30704">
        <ele>41.57411075019</ele>
        <time>2021-12-26T16:37:02.588Z</time>
      </trkpt>
      <trkpt lat="48.07251" lon="-4.30716">
        <ele>41.812642093414</ele>
        <time>2021-12-26T16:37:03.653Z</time>
      </trkpt>
      <trkpt lat="48.07283" lon="-4.30775">
        <ele>42.154117140809</ele>
        <time>2021-12-26T16:37:04.725Z</time>
      </trkpt>
      <trkpt lat="48.07289" lon="-4.30786">
        <ele>42.457335126396</ele>
        <time>2021-12-26T16:37:05.798Z</time>
      </trkpt>
      <trkpt lat="48.07302" lon="-4.30806">
        <ele>42.778104040561</ele>
        <time>2021-12-26T16:37:06.874Z</time>
      </trkpt>
      <trkpt lat="48.07314" lon="-4.30826">
        <ele>43.112549337646</ele>
        <time>2021-12-26T16:37:07.952Z</time>
      </trkpt>
      <trkpt lat="48.07334" lon="-4.30856">
        <ele>43.504868198516</ele>
        <time>2021-12-26T16:37:09.034Z</time>
      </trkpt>
      <trkpt lat="48.07368" lon="-4.30906">
        <ele>44.006795538191</ele>
        <time>2021-12-26T16:37:10.122Z</time>
      </trkpt>
      <trkpt lat="48.07394" lon="-4.30945">
        <ele>44.288854154177</ele>
        <time>2021-12-26T16:37:11.215Z</time>
      </trkpt>
      <trkpt lat="48.07401" lon="-4.30954">
        <ele>44.545967413162</ele>
        <time>2021-12-26T16:37:12.309Z</time>
      </trkpt>
      <trkpt lat="48.07436" lon="-4.31009">
        <ele>44.639216120348</ele>
        <time>2021-12-26T16:37:13.409Z</time>
      </trkpt>
      <trkpt lat="48.07479" lon="-4.31075">
        <ele>44.792484560181</ele>
        <time>2021-12-26T16:37:14.517Z</time>
      </trkpt>
      <trkpt lat="48.07484" lon="-4.31083">
        <ele>44.991429410148</ele>
        <time>2021-12-26T16:37:15.626Z</time>
      </trkpt>
      <trkpt lat="48.07508" lon="-4.31113">
        <ele>45.156072523081</ele>
        <time>2021-12-26T16:37:16.739Z</time>
      </trkpt>
      <trkpt lat="48.07522" lon="-4.31125">
        <ele>45.269369899799</ele>
        <time>2021-12-26T16:37:17.854Z</time>
      </trkpt>
      <trkpt lat="48.07544" lon="-4.31138">
        <ele>45.337369187302</ele>
        <time>2021-12-26T16:37:18.972Z</time>
      </trkpt>
      <trkpt lat="48.07552" lon="-4.31139">
        <ele>45.394735031092</ele>
        <time>2021-12-26T16:37:20.091Z</time>
      </trkpt>
      <trkpt lat="48.0756" lon="-4.31139">
        <ele>45.417676036893</ele>
        <time>2021-12-26T16:37:21.211Z</time>
      </trkpt>
      <trkpt lat="48.07574" lon="-4.31141">
        <ele>45.38315606206</ele>
        <time>2021-12-26T16:37:22.333Z</time>
      </trkpt>
      <trkpt lat="48.0758" lon="-4.31147">
        <ele>45.327523337992</ele>
        <time>2021-12-26T16:37:23.456Z</time>
      </trkpt>
      <trkpt lat="48.07585" lon="-4.31156">
        <ele>45.232755192457</ele>
        <time>2021-12-26T16:37:24.580Z</time>
      </trkpt>
      <trkpt lat="48.07587" lon="-4.31167">
        <ele>45.111408830678</ele>
        <time>2021-12-26T16:37:25.705Z</time>
      </trkpt>
      <trkpt lat="48.07586" lon="-4.31179">
        <ele>44.957583918137</ele>
        <time>2021-12-26T16:37:26.831Z</time>
      </trkpt>
      <trkpt lat="48.07585" lon="-4.31192">
        <ele>44.756343085528</ele>
        <time>2021-12-26T16:37:27.958Z</time>
      </trkpt>
      <trkpt lat="48.07585" lon="-4.31205">
        <ele>44.515627407159</ele>
        <time>2021-12-26T16:37:29.087Z</time>
      </trkpt>
      <trkpt lat="48.07589" lon="-4.31257">
        <ele>44.248339233083</ele>
        <time>2021-12-26T16:37:30.220Z</time>
      </trkpt>
      <trkpt lat="48.07591" lon="-4.31268">
        <ele>43.945130289443</ele>
        <time>2021-12-26T16:37:31.354Z</time>
      </trkpt>
      <trkpt lat="48.07603" lon="-4.31301">
        <ele>43.590219431152</ele>
        <time>2021-12-26T16:37:32.491Z</time>
      </trkpt>
      <trkpt lat="48.07634" lon="-4.3136">
        <ele>43.296252535392</ele>
        <time>2021-12-26T16:37:33.635Z</time>
      </trkpt>
      <trkpt lat="48.07665" lon="-4.31411">
        <ele>42.817431383654</ele>
        <time>2021-12-26T16:37:34.785Z</time>
      </trkpt>
      <trkpt lat="48.07677" lon="-4.31433">
        <ele>42.298122790737</ele>
        <time>2021-12-26T16:37:35.937Z</time>
      </trkpt>
      <trkpt lat="48.07711" lon="-4.315">
        <ele>41.786191218565</ele>
        <time>2021-12-26T16:37:37.096Z</time>
      </trkpt>
      <trkpt lat="48.07716" lon="-4.31512">
        <ele>41.287815813612</ele>
        <time>2021-12-26T16:37:38.257Z</time>
      </trkpt>
      <trkpt lat="48.07729" lon="-4.3155">
        <ele>40.69212740931</ele>
        <time>2021-12-26T16:37:39.421Z</time>
      </trkpt>
      <trkpt lat="48.07732" lon="-4.31564">
        <ele>40.069788987144</ele>
        <time>2021-12-26T16:37:40.587Z</time>
      </trkpt>
      <trkpt lat="48.07735" lon="-4.31579">
        <ele>39.416260749574</ele>
        <time>2021-12-26T16:37:41.754Z</time>
      </trkpt>
      <trkpt lat="48.07741" lon="-4.31626">
        <ele>38.684594560911</ele>
        <time>2021-12-26T16:37:42.925Z</time>
      </trkpt>
      <trkpt lat="48.07741" lon="-4.31641">
        <ele>37.974399112577</ele>
        <time>2021-12-26T16:37:44.097Z</time>
      </trkpt>
      <trkpt lat="48.07739" lon="-4.31674">
        <ele>37.254231272197</ele>
        <time>2021-12-26T16:37:45.272Z</time>
      </trkpt>
      <trkpt lat="48.07737" lon="-4.3169">
        <ele>36.503604414357</ele>
        <time>2021-12-26T16:37:46.449Z</time>
      </trkpt>
      <trkpt lat="48.07733" lon="-4.31723">
        <ele>35.7244400324</ele>
        <time>2021-12-26T16:37:47.629Z</time>
      </trkpt>
      <trkpt lat="48.07724" lon="-4.31773">
        <ele>34.839293472775</ele>
        <time>2021-12-26T16:37:48.813Z</time>
      </trkpt>
      <trkpt lat="48.07718" lon="-4.31823">
        <ele>33.85587824906</ele>
        <time>2021-12-26T16:37:50.002Z</time>
      </trkpt>
      <trkpt lat="48.07716" lon="-4.31874">
        <ele>32.834411494566</ele>
        <time>2021-12-26T16:37:51.195Z</time>
      </trkpt>
      <trkpt lat="48.07718" lon="-4.31891">
        <ele>31.946541170067</ele>
        <time>2021-12-26T16:37:52.389Z</time>
      </trkpt>
      <trkpt lat="48.0772" lon="-4.31908">
        <ele>31.056667657841</ele>
        <time>2021-12-26T16:37:53.585Z</time>
      </trkpt>
      <trkpt lat="48.07723" lon="-4.31925">
        <ele>30.177033842907</ele>
        <time>2021-12-26T16:37:54.782Z</time>
      </trkpt>
      <trkpt lat="48.07731" lon="-4.31958">
        <ele>29.274413064336</ele>
        <time>2021-12-26T16:37:55.982Z</time>
      </trkpt>
      <trkpt lat="48.07737" lon="-4.31974">
        <ele>28.371562128658</ele>
        <time>2021-12-26T16:37:57.184Z</time>
      </trkpt>
      <trkpt lat="48.07743" lon="-4.31988">
        <ele>27.465710057275</ele>
        <time>2021-12-26T16:37:58.388Z</time>
      </trkpt>
      <trkpt lat="48.07757" lon="-4.32016">
        <ele>26.585191529181</ele>
        <time>2021-12-26T16:37:59.595Z</time>
      </trkpt>
      <trkpt lat="48.07795" lon="-4.32079">
        <ele>25.5753984297</ele>
        <time>2021-12-26T16:38:00.809Z</time>
      </trkpt>
      <trkpt lat="48.07803" lon="-4.32091">
        <ele>24.637117507059</ele>
        <time>2021-12-26T16:38:02.024Z</time>
      </trkpt>
      <trkpt lat="48.07827" lon="-4.32128">
        <ele>23.686165487348</ele>
        <time>2021-12-26T16:38:03.244Z</time>
      </trkpt>
      <trkpt lat="48.07842" lon="-4.32151">
        <ele>22.748455071688</ele>
        <time>2021-12-26T16:38:04.467Z</time>
      </trkpt>
      <trkpt lat="48.07865" lon="-4.32186">
        <ele>21.754858184121</ele>
        <time>2021-12-26T16:38:05.694Z</time>
      </trkpt>
      <trkpt lat="48.0788" lon="-4.32209">
        <ele>20.841961295987</ele>
        <time>2021-12-26T16:38:06.924Z</time>
      </trkpt>
      <trkpt lat="48.07903" lon="-4.32243">
        <ele>19.953713153022</ele>
        <time>2021-12-26T16:38:08.158Z</time>
      </trkpt>
      <trkpt lat="48.0791" lon="-4.32255">
        <ele>19.080446590787</ele>
        <time>2021-12-26T16:38:09.393Z</time>
      </trkpt>
      <trkpt lat="48.07925" lon="-4.32278">
        <ele>18.193228922353</ele>
        <time>2021-12-26T16:38:10.631Z</time>
      </trkpt>
      <trkpt lat="48.07939" lon="-4.32301">
        <ele>17.287351911806</ele>
        <time>2021-12-26T16:38:11.872Z</time>
      </trkpt>
      <trkpt lat="48.07954" lon="-4.32325">
        <ele>16.387769692462</ele>
        <time>2021-12-26T16:38:13.115Z</time>
      </trkpt>
      <trkpt lat="48.07969" lon="-4.3235">
        <ele>15.553829365362</ele>
        <time>2021-12-26T16:38:14.361Z</time>
      </trkpt>
      <trkpt lat="48.07984" lon="-4.32374">
        <ele>14.730124923311</ele>
        <time>2021-12-26T16:38:15.610Z</time>
      </trkpt>
      <trkpt lat="48.08" lon="-4.32397">
        <ele>13.922161424037</ele>
        <time>2021-12-26T16:38:16.862Z</time>
      </trkpt>
      <trkpt lat="48.08031" lon="-4.32444">
        <ele>13.062680642554</ele>
        <time>2021-12-26T16:38:18.120Z</time>
      </trkpt>
      <trkpt lat="48.08039" lon="-4.32457">
        <ele>12.315886520777</ele>
        <time>2021-12-26T16:38:19.379Z</time>
      </trkpt>
      <trkpt lat="48.08058" lon="-4.32497">
        <ele>11.577237039869</ele>
        <time>2021-12-26T16:38:20.643Z</time>
      </trkpt>
      <trkpt lat="48.08062" lon="-4.32511">
        <ele>10.927960258189</ele>
        <time>2021-12-26T16:38:21.908Z</time>
      </trkpt>
      <trkpt lat="48.08066" lon="-4.32525">
        <ele>10.311881541925</ele>
        <time>2021-12-26T16:38:23.174Z</time>
      </trkpt>
      <trkpt lat="48.08072" lon="-4.32568">
        <ele>9.768582004329</ele>
        <time>2021-12-26T16:38:24.444Z</time>
      </trkpt>
      <trkpt lat="48.08074" lon="-4.32621">
        <ele>9.2452958654942</ele>
        <time>2021-12-26T16:38:25.719Z</time>
      </trkpt>
      <trkpt lat="48.08076" lon="-4.32633">
        <ele>8.7174060836342</ele>
        <time>2021-12-26T16:38:26.995Z</time>
      </trkpt>
      <trkpt lat="48.08083" lon="-4.32654">
        <ele>8.2806047300312</ele>
        <time>2021-12-26T16:38:28.273Z</time>
      </trkpt>
      <trkpt lat="48.08091" lon="-4.32674">
        <ele>7.8269291794554</ele>
        <time>2021-12-26T16:38:29.553Z</time>
      </trkpt>
      <trkpt lat="48.08092" lon="-4.32685">
        <ele>7.4210061282345</ele>
        <time>2021-12-26T16:38:30.834Z</time>
      </trkpt>
      <trkpt lat="48.08092" lon="-4.32696">
        <ele>7.020722482065</ele>
        <time>2021-12-26T16:38:32.116Z</time>
      </trkpt>
      <trkpt lat="48.08089" lon="-4.32705">
        <ele>6.629220142196</ele>
        <time>2021-12-26T16:38:33.398Z</time>
      </trkpt>
      <trkpt lat="48.08083" lon="-4.32713">
        <ele>6.2492739503705</ele>
        <time>2021-12-26T16:38:34.681Z</time>
      </trkpt>
      <trkpt lat="48.08076" lon="-4.32717">
        <ele>5.8886235911076</ele>
        <time>2021-12-26T16:38:35.965Z</time>
      </trkpt>
      <trkpt lat="48.08043" lon="-4.32732">
        <ele>5.4781387074339</ele>
        <time>2021-12-26T16:38:37.254Z</time>
      </trkpt>
      <trkpt lat="48.0803" lon="-4.3275">
        <ele>5.2059214558149</ele>
        <time>2021-12-26T16:38:38.545Z</time>
      </trkpt>
      <trkpt lat="48.08025" lon="-4.32762">
        <ele>4.9617440505846</ele>
        <time>2021-12-26T16:38:39.837Z</time>
      </trkpt>
      <trkpt lat="48.08016" lon="-4.32785">
        <ele>4.7266052990929</ele>
        <time>2021-12-26T16:38:41.132Z</time>
      </trkpt>
      <trkpt lat="48.07995" lon="-4.3284">
        <ele>4.4061989854111</ele>
        <time>2021-12-26T16:38:42.432Z</time>
      </trkpt>
      <trkpt lat="48.07977" lon="-4.32889">
        <ele>4.2345799913095</ele>
        <time>2021-12-26T16:38:43.737Z</time>
      </trkpt>
      <trkpt lat="48.07973" lon="-4.32899">
        <ele>4.1257819585748</ele>
        <time>2021-12-26T16:38:45.043Z</time>
      </trkpt>
      <trkpt lat="48.07952" lon="-4.32958">
        <ele>4.0600560369549</ele>
        <time>2021-12-26T16:38:46.355Z</time>
      </trkpt>
      <trkpt lat="48.07939" lon="-4.32995">
        <ele>4.014706628457</ele>
        <time>2021-12-26T16:38:47.670Z</time>
      </trkpt>
      <trkpt lat="48.07938" lon="-4.33005">
        <ele>3.9797430478657</ele>
        <time>2021-12-26T16:38:48.986Z</time>
      </trkpt>
      <trkpt lat="48.07937" lon="-4.33027">
        <ele>3.9677927154535</ele>
        <time>2021-12-26T16:38:50.304Z</time>
      </trkpt>
      <trkpt lat="48.07934" lon="-4.33037">
        <ele>3.9783353411973</ele>
        <time>2021-12-26T16:38:51.623Z</time>
      </trkpt>
      <trkpt lat="48.07929" lon="-4.33044">
        <ele>4.015360700917</ele>
        <time>2021-12-26T16:38:52.943Z</time>
      </trkpt>
      <trkpt lat="48.07919" lon="-4.3306">
        <ele>4.0793907404343</ele>
        <time>2021-12-26T16:38:54.265Z</time>
      </trkpt>
      <trkpt lat="48.07908" lon="-4.33087">
        <ele>4.1890568436129</ele>
        <time>2021-12-26T16:38:55.590Z</time>
      </trkpt>
      <trkpt lat="48.07899" lon="-4.33117">
        <ele>4.3967182966289</ele>
        <time>2021-12-26T16:38:56.917Z</time>
      </trkpt>
      <trkpt lat="48.07897" lon="-4.33128">
        <ele>4.573755171086</ele>
        <time>2021-12-26T16:38:58.245Z</time>
      </trkpt>
      <trkpt lat="48.07895" lon="-4.3315">
        <ele>4.7827338800702</ele>
        <time>2021-12-26T16:38:59.575Z</time>
      </trkpt>
      <trkpt lat="48.07895" lon="-4.33162">
        <ele>4.9760733678633</ele>
        <time>2021-12-26T16:39:00.906Z</time>
      </trkpt>
      <trkpt lat="48.07895" lon="-4.33187">
        <ele>5.1841483534303</ele>
        <time>2021-12-26T16:39:02.240Z</time>
      </trkpt>
      <trkpt lat="48.07898" lon="-4.33236">
        <ele>5.4103022394687</ele>
        <time>2021-12-26T16:39:03.578Z</time>
      </trkpt>
      <trkpt lat="48.07899" lon="-4.3326">
        <ele>5.6491502659035</ele>
        <time>2021-12-26T16:39:04.918Z</time>
      </trkpt>
      <trkpt lat="48.07906" lon="-4.33333">
        <ele>5.9191070996096</ele>
        <time>2021-12-26T16:39:06.264Z</time>
      </trkpt>
      <trkpt lat="48.0791" lon="-4.33418">
        <ele>6.178795974298</ele>
        <time>2021-12-26T16:39:07.618Z</time>
      </trkpt>
      <trkpt lat="48.07911" lon="-4.3343">
        <ele>6.4778247180303</ele>
        <time>2021-12-26T16:39:08.973Z</time>
      </trkpt>
      <trkpt lat="48.07914" lon="-4.33476">
        <ele>6.766165355519</ele>
        <time>2021-12-26T16:39:10.332Z</time>
      </trkpt>
      <trkpt lat="48.07916" lon="-4.3352">
        <ele>7.1695678423381</ele>
        <time>2021-12-26T16:39:11.695Z</time>
      </trkpt>
      <trkpt lat="48.07915" lon="-4.33542">
        <ele>7.5323056234869</ele>
        <time>2021-12-26T16:39:13.059Z</time>
      </trkpt>
      <trkpt lat="48.07909" lon="-4.33573">
        <ele>7.8857654552446</ele>
        <time>2021-12-26T16:39:14.426Z</time>
      </trkpt>
      <trkpt lat="48.07893" lon="-4.33608">
        <ele>8.2431958034139</ele>
        <time>2021-12-26T16:39:15.797Z</time>
      </trkpt>
      <trkpt lat="48.07882" lon="-4.33624">
        <ele>8.6331913507553</ele>
        <time>2021-12-26T16:39:17.170Z</time>
      </trkpt>
      <trkpt lat="48.07871" lon="-4.33637">
        <ele>9.0420142417282</ele>
        <time>2021-12-26T16:39:18.545Z</time>
      </trkpt>
      <trkpt lat="48.07858" lon="-4.33648">
        <ele>9.467692790768</ele>
        <time>2021-12-26T16:39:19.922Z</time>
      </trkpt>
      <trkpt lat="48.07831" lon="-4.33662">
        <ele>9.9829614429017</ele>
        <time>2021-12-26T16:39:21.302Z</time>
      </trkpt>
      <trkpt lat="48.07816" lon="-4.33665">
        <ele>10.476556545562</ele>
        <time>2021-12-26T16:39:22.684Z</time>
      </trkpt>
      <trkpt lat="48.07788" lon="-4.33666">
        <ele>11.010863968491</ele>
        <time>2021-12-26T16:39:24.070Z</time>
      </trkpt>
      <trkpt lat="48.07774" lon="-4.33666">
        <ele>11.504029060677</ele>
        <time>2021-12-26T16:39:25.458Z</time>
      </trkpt>
      <trkpt lat="48.07734" lon="-4.33662">
        <ele>12.03863196378</ele>
        <time>2021-12-26T16:39:26.851Z</time>
      </trkpt>
      <trkpt lat="48.07714" lon="-4.33659">
        <ele>12.500044336826</ele>
        <time>2021-12-26T16:39:28.246Z</time>
      </trkpt>
      <trkpt lat="48.07701" lon="-4.33658">
        <ele>12.922539932306</ele>
        <time>2021-12-26T16:39:29.643Z</time>
      </trkpt>
      <trkpt lat="48.0766" lon="-4.33658">
        <ele>13.27520793113</ele>
        <time>2021-12-26T16:39:31.045Z</time>
      </trkpt>
      <trkpt lat="48.07653" lon="-4.33657">
        <ele>13.702548526985</ele>
        <time>2021-12-26T16:39:32.448Z</time>
      </trkpt>
      <trkpt lat="48.076" lon="-4.33664">
        <ele>14.276782314495</ele>
        <time>2021-12-26T16:39:33.858Z</time>
      </trkpt>
      <trkpt lat="48.07581" lon="-4.33671">
        <ele>14.798754617081</ele>
        <time>2021-12-26T16:39:35.271Z</time>
      </trkpt>
      <trkpt lat="48.0755" lon="-4.33687">
        <ele>15.21617118332</ele>
        <time>2021-12-26T16:39:36.688Z</time>
      </trkpt>
      <trkpt lat="48.07544" lon="-4.33691">
        <ele>15.60256456106</ele>
        <time>2021-12-26T16:39:38.106Z</time>
      </trkpt>
      <trkpt lat="48.07527" lon="-4.33707">
        <ele>15.945257580019</ele>
        <time>2021-12-26T16:39:39.526Z</time>
      </trkpt>
      <trkpt lat="48.07516" lon="-4.33718">
        <ele>16.287506703731</ele>
        <time>2021-12-26T16:39:40.948Z</time>
      </trkpt>
      <trkpt lat="48.07506" lon="-4.33731">
        <ele>16.615276373123</ele>
        <time>2021-12-26T16:39:42.372Z</time>
      </trkpt>
      <trkpt lat="48.07489" lon="-4.3376">
        <ele>16.913641808946</ele>
        <time>2021-12-26T16:39:43.799Z</time>
      </trkpt>
      <trkpt lat="48.07464" lon="-4.33819">
        <ele>17.282971516535</ele>
        <time>2021-12-26T16:39:45.232Z</time>
      </trkpt>
      <trkpt lat="48.07448" lon="-4.33874">
        <ele>17.794701266098</ele>
        <time>2021-12-26T16:39:46.670Z</time>
      </trkpt>
      <trkpt lat="48.07442" lon="-4.33892">
        <ele>18.167941443374</ele>
        <time>2021-12-26T16:39:48.110Z</time>
      </trkpt>
      <trkpt lat="48.07429" lon="-4.33936">
        <ele>18.503340329259</ele>
        <time>2021-12-26T16:39:49.554Z</time>
      </trkpt>
      <trkpt lat="48.07421" lon="-4.33963">
        <ele>18.804978262929</ele>
        <time>2021-12-26T16:39:51.001Z</time>
      </trkpt>
      <trkpt lat="48.07403" lon="-4.34028">
        <ele>19.060643019049</ele>
        <time>2021-12-26T16:39:52.454Z</time>
      </trkpt>
      <trkpt lat="48.07403" lon="-4.34028">
        <ele>19.356508089033</ele>
        <time>2021-12-26T16:39:53.907Z</time>
      </trkpt>
      <trkpt lat="48.07387" lon="-4.34083">
        <ele>19.983051136116</ele>
        <time>2021-12-26T16:39:55.365Z</time>
      </trkpt>
      <trkpt lat="48.07378" lon="-4.3411">
        <ele>20.276801900124</ele>
        <time>2021-12-26T16:39:56.826Z</time>
      </trkpt>
      <trkpt lat="48.07368" lon="-4.34136">
        <ele>20.569708375311</ele>
        <time>2021-12-26T16:39:58.289Z</time>
      </trkpt>
      <trkpt lat="48.07361" lon="-4.34153">
        <ele>20.836053325735</ele>
        <time>2021-12-26T16:39:59.754Z</time>
      </trkpt>
      <trkpt lat="48.07326" lon="-4.34213">
        <ele>21.049032789448</ele>
        <time>2021-12-26T16:40:01.226Z</time>
      </trkpt>
      <trkpt lat="48.07297" lon="-4.34254">
        <ele>21.136723506266</ele>
        <time>2021-12-26T16:40:02.703Z</time>
      </trkpt>
      <trkpt lat="48.07288" lon="-4.34269">
        <ele>21.296197862296</ele>
        <time>2021-12-26T16:40:04.182Z</time>
      </trkpt>
      <trkpt lat="48.07272" lon="-4.34299">
        <ele>21.444807453094</ele>
        <time>2021-12-26T16:40:05.664Z</time>
      </trkpt>
      <trkpt lat="48.07264" lon="-4.34325">
        <ele>21.625702934973</ele>
        <time>2021-12-26T16:40:07.149Z</time>
      </trkpt>
      <trkpt lat="48.07261" lon="-4.34345">
        <ele>21.880714600634</ele>
        <time>2021-12-26T16:40:08.635Z</time>
      </trkpt>
      <trkpt lat="48.07247" lon="-4.34412">
        <ele>22.248649217924</ele>
        <time>2021-12-26T16:40:10.127Z</time>
      </trkpt>
      <trkpt lat="48.07232" lon="-4.34466">
        <ele>22.547575423457</ele>
        <time>2021-12-26T16:40:11.625Z</time>
      </trkpt>
      <trkpt lat="48.07221" lon="-4.34493">
        <ele>22.674286558164</ele>
        <time>2021-12-26T16:40:13.125Z</time>
      </trkpt>
      <trkpt lat="48.07207" lon="-4.34529">
        <ele>22.718248391317</ele>
        <time>2021-12-26T16:40:14.629Z</time>
      </trkpt>
      <trkpt lat="48.07197" lon="-4.34556">
        <ele>22.720362809657</ele>
        <time>2021-12-26T16:40:16.136Z</time>
      </trkpt>
      <trkpt lat="48.07164" lon="-4.34635">
        <ele>22.453539617353</ele>
        <time>2021-12-26T16:40:17.651Z</time>
      </trkpt>
      <trkpt lat="48.07132" lon="-4.34686">
        <ele>22.594358881168</ele>
        <time>2021-12-26T16:40:19.172Z</time>
      </trkpt>
      <trkpt lat="48.07092" lon="-4.34736">
        <ele>22.740659233337</ele>
        <time>2021-12-26T16:40:20.699Z</time>
      </trkpt>
      <trkpt lat="48.07078" lon="-4.3476">
        <ele>22.670760270427</ele>
        <time>2021-12-26T16:40:22.229Z</time>
      </trkpt>
      <trkpt lat="48.07069" lon="-4.34777">
        <ele>22.606769081885</ele>
        <time>2021-12-26T16:40:23.761Z</time>
      </trkpt>
      <trkpt lat="48.07056" lon="-4.34818">
        <ele>22.543788438354</ele>
        <time>2021-12-26T16:40:25.297Z</time>
      </trkpt>
      <trkpt lat="48.07053" lon="-4.34828">
        <ele>22.482460852234</ele>
        <time>2021-12-26T16:40:26.834Z</time>
      </trkpt>
      <trkpt lat="48.07048" lon="-4.34847">
        <ele>22.409824182616</ele>
        <time>2021-12-26T16:40:28.373Z</time>
      </trkpt>
      <trkpt lat="48.07046" lon="-4.34878">
        <ele>22.349191609558</ele>
        <time>2021-12-26T16:40:29.914Z</time>
      </trkpt>
      <trkpt lat="48.0704" lon="-4.34936">
        <ele>22.30082985418</ele>
        <time>2021-12-26T16:40:31.460Z</time>
      </trkpt>
      <trkpt lat="48.07034" lon="-4.34957">
        <ele>22.145398804739</ele>
        <time>2021-12-26T16:40:33.008Z</time>
      </trkpt>
      <trkpt lat="48.0702" lon="-4.34986">
        <ele>21.89635901202</ele>
        <time>2021-12-26T16:40:34.560Z</time>
      </trkpt>
      <trkpt lat="48.07008" lon="-4.35003">
        <ele>21.67933884087</ele>
        <time>2021-12-26T16:40:36.114Z</time>
      </trkpt>
      <trkpt lat="48.0697" lon="-4.35043">
        <ele>21.31825493694</ele>
        <time>2021-12-26T16:40:37.674Z</time>
      </trkpt>
      <trkpt lat="48.06951" lon="-4.35063">
        <ele>21.079451019871</ele>
        <time>2021-12-26T16:40:39.237Z</time>
      </trkpt>
      <trkpt lat="48.06926" lon="-4.3509">
        <ele>20.895353475121</ele>
        <time>2021-12-26T16:40:40.804Z</time>
      </trkpt>
      <trkpt lat="48.06914" lon="-4.35103">
        <ele>20.785004612578</ele>
        <time>2021-12-26T16:40:42.373Z</time>
      </trkpt>
      <trkpt lat="48.06866" lon="-4.35156">
        <ele>20.942578571994</ele>
        <time>2021-12-26T16:40:43.949Z</time>
      </trkpt>
      <trkpt lat="48.0686" lon="-4.35163">
        <ele>20.894661015402</ele>
        <time>2021-12-26T16:40:45.526Z</time>
      </trkpt>
      <trkpt lat="48.06844" lon="-4.35182">
        <ele>20.884677780443</ele>
        <time>2021-12-26T16:40:47.106Z</time>
      </trkpt>
      <trkpt lat="48.06815" lon="-4.35214">
        <ele>20.812120092325</ele>
        <time>2021-12-26T16:40:48.691Z</time>
      </trkpt>
      <trkpt lat="48.06781" lon="-4.35251">
        <ele>20.793378930401</ele>
        <time>2021-12-26T16:40:50.281Z</time>
      </trkpt>
      <trkpt lat="48.06776" lon="-4.35257">
        <ele>20.832729515452</ele>
        <time>2021-12-26T16:40:51.872Z</time>
      </trkpt>
      <trkpt lat="48.0676" lon="-4.35275">
        <ele>20.904843797639</ele>
        <time>2021-12-26T16:40:53.465Z</time>
      </trkpt>
      <trkpt lat="48.06749" lon="-4.35287">
        <ele>21.011470766443</ele>
        <time>2021-12-26T16:40:55.060Z</time>
      </trkpt>
      <trkpt lat="48.06739" lon="-4.353">
        <ele>21.153894273109</ele>
        <time>2021-12-26T16:40:56.657Z</time>
      </trkpt>
      <trkpt lat="48.06731" lon="-4.35315">
        <ele>21.333930445447</ele>
        <time>2021-12-26T16:40:58.256Z</time>
      </trkpt>
      <trkpt lat="48.06723" lon="-4.35331">
        <ele>21.554403812415</ele>
        <time>2021-12-26T16:40:59.856Z</time>
      </trkpt>
      <trkpt lat="48.06721" lon="-4.35339">
        <ele>21.824501293937</ele>
        <time>2021-12-26T16:41:01.457Z</time>
      </trkpt>
      <trkpt lat="48.06719" lon="-4.35348">
        <ele>22.133616448153</ele>
        <time>2021-12-26T16:41:03.059Z</time>
      </trkpt>
      <trkpt lat="48.06717" lon="-4.35357">
        <ele>22.481560011107</ele>
        <time>2021-12-26T16:41:04.662Z</time>
      </trkpt>
      <trkpt lat="48.06714" lon="-4.35374">
        <ele>22.854267398461</ele>
        <time>2021-12-26T16:41:06.266Z</time>
      </trkpt>
      <trkpt lat="48.06711" lon="-4.3541">
        <ele>23.263334565166</ele>
        <time>2021-12-26T16:41:07.873Z</time>
      </trkpt>
      <trkpt lat="48.06707" lon="-4.35456">
        <ele>23.836192369779</ele>
        <time>2021-12-26T16:41:09.484Z</time>
      </trkpt>
      <trkpt lat="48.06704" lon="-4.35491">
        <ele>24.386402944364</ele>
        <time>2021-12-26T16:41:11.098Z</time>
      </trkpt>
      <trkpt lat="48.06703" lon="-4.355">
        <ele>24.901119535853</ele>
        <time>2021-12-26T16:41:12.713Z</time>
      </trkpt>
      <trkpt lat="48.06703" lon="-4.35509">
        <ele>25.430389421559</ele>
        <time>2021-12-26T16:41:14.329Z</time>
      </trkpt>
      <trkpt lat="48.06699" lon="-4.35543">
        <ele>25.97422316517</ele>
        <time>2021-12-26T16:41:15.948Z</time>
      </trkpt>
      <trkpt lat="48.06696" lon="-4.35595">
        <ele>26.570975372962</ele>
        <time>2021-12-26T16:41:17.571Z</time>
      </trkpt>
      <trkpt lat="48.06696" lon="-4.35604">
        <ele>27.187120183964</ele>
        <time>2021-12-26T16:41:19.195Z</time>
      </trkpt>
      <trkpt lat="48.06698" lon="-4.35638">
        <ele>27.893007463095</ele>
        <time>2021-12-26T16:41:20.822Z</time>
      </trkpt>
      <trkpt lat="48.06699" lon="-4.35655">
        <ele>28.6156876141</ele>
        <time>2021-12-26T16:41:22.451Z</time>
      </trkpt>
      <trkpt lat="48.06704" lon="-4.35681">
        <ele>29.376082036431</ele>
        <time>2021-12-26T16:41:24.082Z</time>
      </trkpt>
      <trkpt lat="48.06705" lon="-4.3569">
        <ele>30.082706617398</ele>
        <time>2021-12-26T16:41:25.714Z</time>
      </trkpt>
      <trkpt lat="48.0671" lon="-4.35722">
        <ele>30.877942383394</ele>
        <time>2021-12-26T16:41:27.349Z</time>
      </trkpt>
      <trkpt lat="48.06712" lon="-4.35739">
        <ele>31.60395982809</ele>
        <time>2021-12-26T16:41:28.985Z</time>
      </trkpt>
      <trkpt lat="48.06713" lon="-4.35748">
        <ele>32.307932118591</ele>
        <time>2021-12-26T16:41:30.622Z</time>
      </trkpt>
      <trkpt lat="48.06714" lon="-4.35765">
        <ele>32.989484576204</ele>
        <time>2021-12-26T16:41:32.260Z</time>
      </trkpt>
      <trkpt lat="48.06714" lon="-4.35773">
        <ele>33.678918879491</ele>
        <time>2021-12-26T16:41:33.899Z</time>
      </trkpt>
      <trkpt lat="48.06713" lon="-4.35791">
        <ele>34.365380956284</ele>
        <time>2021-12-26T16:41:35.540Z</time>
      </trkpt>
      <trkpt lat="48.06712" lon="-4.35808">
        <ele>35.047833647191</ele>
        <time>2021-12-26T16:41:37.182Z</time>
      </trkpt>
      <trkpt lat="48.06709" lon="-4.35835">
        <ele>35.72772657851</ele>
        <time>2021-12-26T16:41:38.826Z</time>
      </trkpt>
      <trkpt lat="48.06706" lon="-4.35861">
        <ele>36.409092869891</ele>
        <time>2021-12-26T16:41:40.473Z</time>
      </trkpt>
      <trkpt lat="48.06705" lon="-4.35868">
        <ele>37.074126585452</ele>
        <time>2021-12-26T16:41:42.120Z</time>
      </trkpt>
      <trkpt lat="48.06704" lon="-4.35876">
        <ele>37.72559201977</ele>
        <time>2021-12-26T16:41:43.768Z</time>
      </trkpt>
      <trkpt lat="48.06702" lon="-4.35892">
        <ele>38.38450301297</ele>
        <time>2021-12-26T16:41:45.417Z</time>
      </trkpt>
      <trkpt lat="48.06696" lon="-4.3593">
        <ele>39.021891058894</ele>
        <time>2021-12-26T16:41:47.070Z</time>
      </trkpt>
      <trkpt lat="48.06685" lon="-4.35975">
        <ele>39.643925565778</ele>
        <time>2021-12-26T16:41:48.727Z</time>
      </trkpt>
      <trkpt lat="48.06683" lon="-4.35982">
        <ele>40.214858954353</ele>
        <time>2021-12-26T16:41:50.385Z</time>
      </trkpt>
      <trkpt lat="48.06673" lon="-4.36011">
        <ele>40.788320372764</ele>
        <time>2021-12-26T16:41:52.045Z</time>
      </trkpt>
      <trkpt lat="48.0667" lon="-4.36018">
        <ele>41.324906119809</ele>
        <time>2021-12-26T16:41:53.706Z</time>
      </trkpt>
      <trkpt lat="48.06651" lon="-4.36054">
        <ele>41.958722867319</ele>
        <time>2021-12-26T16:41:55.371Z</time>
      </trkpt>
      <trkpt lat="48.06647" lon="-4.36061">
        <ele>42.461188780815</ele>
        <time>2021-12-26T16:41:57.037Z</time>
      </trkpt>
      <trkpt lat="48.06631" lon="-4.3609">
        <ele>42.949549037268</ele>
        <time>2021-12-26T16:41:58.706Z</time>
      </trkpt>
      <trkpt lat="48.06613" lon="-4.36124">
        <ele>43.470331324489</ele>
        <time>2021-12-26T16:42:00.379Z</time>
      </trkpt>
      <trkpt lat="48.06599" lon="-4.36151">
        <ele>43.96603170979</ele>
        <time>2021-12-26T16:42:02.055Z</time>
      </trkpt>
      <trkpt lat="48.06589" lon="-4.36169">
        <ele>44.423052622827</ele>
        <time>2021-12-26T16:42:03.733Z</time>
      </trkpt>
      <trkpt lat="48.06579" lon="-4.36187">
        <ele>44.866958675567</ele>
        <time>2021-12-26T16:42:05.413Z</time>
      </trkpt>
      <trkpt lat="48.06572" lon="-4.362">
        <ele>45.284016879758</ele>
        <time>2021-12-26T16:42:07.094Z</time>
      </trkpt>
      <trkpt lat="48.06569" lon="-4.36206">
        <ele>45.663290624358</ele>
        <time>2021-12-26T16:42:08.776Z</time>
      </trkpt>
      <trkpt lat="48.06566" lon="-4.36212">
        <ele>46.02888865971</ele>
        <time>2021-12-26T16:42:10.459Z</time>
      </trkpt>
      <trkpt lat="48.06554" lon="-4.3623">
        <ele>46.389939659036</ele>
        <time>2021-12-26T16:42:12.144Z</time>
      </trkpt>
      <trkpt lat="48.0655" lon="-4.36235">
        <ele>46.765505059296</ele>
        <time>2021-12-26T16:42:13.830Z</time>
      </trkpt>
      <trkpt lat="48.06541" lon="-4.36244">
        <ele>47.137275200396</ele>
        <time>2021-12-26T16:42:15.517Z</time>
      </trkpt>
      <trkpt lat="48.0653" lon="-4.36251">
        <ele>47.488065610342</ele>
        <time>2021-12-26T16:42:17.206Z</time>
      </trkpt>
      <trkpt lat="48.06519" lon="-4.36252">
        <ele>47.859249981321</ele>
        <time>2021-12-26T16:42:18.896Z</time>
      </trkpt>
      <trkpt lat="48.06497" lon="-4.36246">
        <ele>48.262888531985</ele>
        <time>2021-12-26T16:42:20.589Z</time>
      </trkpt>
      <trkpt lat="48.06492" lon="-4.36243">
        <ele>48.674604330149</ele>
        <time>2021-12-26T16:42:22.283Z</time>
      </trkpt>
      <trkpt lat="48.06456" lon="-4.36221">
        <ele>49.221195189279</ele>
        <time>2021-12-26T16:42:23.982Z</time>
      </trkpt>
      <trkpt lat="48.0644" lon="-4.36216">
        <ele>49.613786237738</ele>
        <time>2021-12-26T16:42:25.683Z</time>
      </trkpt>
      <trkpt lat="48.06423" lon="-4.36214">
        <ele>50.008054721831</ele>
        <time>2021-12-26T16:42:27.386Z</time>
      </trkpt>
      <trkpt lat="48.06388" lon="-4.36219">
        <ele>50.37941213255</ele>
        <time>2021-12-26T16:42:29.093Z</time>
      </trkpt>
      <trkpt lat="48.06357" lon="-4.36237">
        <ele>50.862379719411</ele>
        <time>2021-12-26T16:42:30.805Z</time>
      </trkpt>
      <trkpt lat="48.06351" lon="-4.36241">
        <ele>51.364387575062</ele>
        <time>2021-12-26T16:42:32.518Z</time>
      </trkpt>
      <trkpt lat="48.06347" lon="-4.36246">
        <ele>51.891829172003</ele>
        <time>2021-12-26T16:42:34.231Z</time>
      </trkpt>
      <trkpt lat="48.06328" lon="-4.36267">
        <ele>52.491197950521</ele>
        <time>2021-12-26T16:42:35.947Z</time>
      </trkpt>
      <trkpt lat="48.0631" lon="-4.363">
        <ele>53.128520878214</ele>
        <time>2021-12-26T16:42:37.667Z</time>
      </trkpt>
      <trkpt lat="48.06307" lon="-4.36307">
        <ele>53.732807660157</ele>
        <time>2021-12-26T16:42:39.388Z</time>
      </trkpt>
      <trkpt lat="48.06298" lon="-4.36329">
        <ele>54.384871881359</ele>
        <time>2021-12-26T16:42:41.111Z</time>
      </trkpt>
      <trkpt lat="48.06291" lon="-4.36343">
        <ele>55.020985364631</ele>
        <time>2021-12-26T16:42:42.835Z</time>
      </trkpt>
      <trkpt lat="48.06273" lon="-4.36377">
        <ele>55.766669855201</ele>
        <time>2021-12-26T16:42:44.563Z</time>
      </trkpt>
      <trkpt lat="48.06269" lon="-4.36384">
        <ele>56.455930345161</ele>
        <time>2021-12-26T16:42:46.292Z</time>
      </trkpt>
      <trkpt lat="48.06248" lon="-4.36416">
        <ele>57.282774338534</ele>
        <time>2021-12-26T16:42:48.025Z</time>
      </trkpt>
      <trkpt lat="48.06236" lon="-4.36435">
        <ele>57.986158468577</ele>
        <time>2021-12-26T16:42:49.760Z</time>
      </trkpt>
      <trkpt lat="48.06223" lon="-4.36455">
        <ele>58.640176659617</ele>
        <time>2021-12-26T16:42:51.497Z</time>
      </trkpt>
      <trkpt lat="48.06202" lon="-4.36487">
        <ele>59.281706444449</ele>
        <time>2021-12-26T16:42:53.238Z</time>
      </trkpt>
      <trkpt lat="48.06188" lon="-4.36514">
        <ele>59.970574913976</ele>
        <time>2021-12-26T16:42:54.982Z</time>
      </trkpt>
      <trkpt lat="48.06176" lon="-4.36545">
        <ele>60.668848459167</ele>
        <time>2021-12-26T16:42:56.729Z</time>
      </trkpt>
      <trkpt lat="48.06169" lon="-4.3657">
        <ele>61.339243887928</ele>
        <time>2021-12-26T16:42:58.479Z</time>
      </trkpt>
      <trkpt lat="48.06164" lon="-4.36587">
        <ele>61.98109788233</ele>
        <time>2021-12-26T16:43:00.230Z</time>
      </trkpt>
      <trkpt lat="48.06154" lon="-4.36629">
        <ele>62.560184401686</ele>
        <time>2021-12-26T16:43:01.985Z</time>
      </trkpt>
      <trkpt lat="48.06147" lon="-4.36655">
        <ele>63.2133433084</ele>
        <time>2021-12-26T16:43:03.743Z</time>
      </trkpt>
      <trkpt lat="48.06131" lon="-4.36721">
        <ele>64.004806018453</ele>
        <time>2021-12-26T16:43:05.507Z</time>
      </trkpt>
      <trkpt lat="48.06129" lon="-4.3673">
        <ele>64.58047973523</ele>
        <time>2021-12-26T16:43:07.272Z</time>
      </trkpt>
      <trkpt lat="48.06123" lon="-4.36754">
        <ele>65.163850182841</ele>
        <time>2021-12-26T16:43:09.039Z</time>
      </trkpt>
      <trkpt lat="48.06113" lon="-4.36793">
        <ele>65.781222281421</ele>
        <time>2021-12-26T16:43:10.809Z</time>
      </trkpt>
      <trkpt lat="48.06111" lon="-4.368">
        <ele>66.246818660565</ele>
        <time>2021-12-26T16:43:12.580Z</time>
      </trkpt>
      <trkpt lat="48.06101" lon="-4.36842">
        <ele>66.750809002812</ele>
        <time>2021-12-26T16:43:14.355Z</time>
      </trkpt>
      <trkpt lat="48.06093" lon="-4.36876">
        <ele>67.124694655454</ele>
        <time>2021-12-26T16:43:16.133Z</time>
      </trkpt>
      <trkpt lat="48.06084" lon="-4.3691">
        <ele>67.426315756467</ele>
        <time>2021-12-26T16:43:17.914Z</time>
      </trkpt>
      <trkpt lat="48.06078" lon="-4.36936">
        <ele>67.650578466031</ele>
        <time>2021-12-26T16:43:19.698Z</time>
      </trkpt>
      <trkpt lat="48.0607" lon="-4.36971">
        <ele>67.81681867374</ele>
        <time>2021-12-26T16:43:21.485Z</time>
      </trkpt>
      <trkpt lat="48.06062" lon="-4.37007">
        <ele>67.926885094189</ele>
        <time>2021-12-26T16:43:23.275Z</time>
      </trkpt>
      <trkpt lat="48.06055" lon="-4.37036">
        <ele>67.989057183944</ele>
        <time>2021-12-26T16:43:25.068Z</time>
      </trkpt>
      <trkpt lat="48.0605" lon="-4.37056">
        <ele>68.013037348529</ele>
        <time>2021-12-26T16:43:26.863Z</time>
      </trkpt>
      <trkpt lat="48.06047" lon="-4.37066">
        <ele>68.003945789438</ele>
        <time>2021-12-26T16:43:28.659Z</time>
      </trkpt>
      <trkpt lat="48.06031" lon="-4.37117">
        <ele>67.907967310617</ele>
        <time>2021-12-26T16:43:30.459Z</time>
      </trkpt>
      <trkpt lat="48.06016" lon="-4.37161">
        <ele>67.800185005983</ele>
        <time>2021-12-26T16:43:32.264Z</time>
      </trkpt>
      <trkpt lat="48.06007" lon="-4.37185">
        <ele>67.593684171093</ele>
        <time>2021-12-26T16:43:34.071Z</time>
      </trkpt>
      <trkpt lat="48.05999" lon="-4.37208">
        <ele>67.35212358638</ele>
        <time>2021-12-26T16:43:35.880Z</time>
      </trkpt>
      <trkpt lat="48.05991" lon="-4.37231">
        <ele>67.080067417986</ele>
        <time>2021-12-26T16:43:37.692Z</time>
      </trkpt>
      <trkpt lat="48.0598" lon="-4.37268">
        <ele>66.776333367728</ele>
        <time>2021-12-26T16:43:39.507Z</time>
      </trkpt>
      <trkpt lat="48.05976" lon="-4.37281">
        <ele>66.507905660612</ele>
        <time>2021-12-26T16:43:41.323Z</time>
      </trkpt>
      <trkpt lat="48.05972" lon="-4.37293">
        <ele>66.22178262032</ele>
        <time>2021-12-26T16:43:43.140Z</time>
      </trkpt>
      <trkpt lat="48.05968" lon="-4.37306">
        <ele>65.924377679113</ele>
        <time>2021-12-26T16:43:44.959Z</time>
      </trkpt>
      <trkpt lat="48.05964" lon="-4.37318">
        <ele>65.62577738319</ele>
        <time>2021-12-26T16:43:46.779Z</time>
      </trkpt>
      <trkpt lat="48.05951" lon="-4.37355">
        <ele>65.319028622601</ele>
        <time>2021-12-26T16:43:48.602Z</time>
      </trkpt>
      <trkpt lat="48.05943" lon="-4.37381">
        <ele>65.047542276386</ele>
        <time>2021-12-26T16:43:50.428Z</time>
      </trkpt>
      <trkpt lat="48.05936" lon="-4.37406">
        <ele>64.785885091995</ele>
        <time>2021-12-26T16:43:52.256Z</time>
      </trkpt>
      <trkpt lat="48.0592" lon="-4.37455">
        <ele>64.517310479426</ele>
        <time>2021-12-26T16:43:54.089Z</time>
      </trkpt>
      <trkpt lat="48.05912" lon="-4.37478">
        <ele>64.308725682572</ele>
        <time>2021-12-26T16:43:55.924Z</time>
      </trkpt>
      <trkpt lat="48.05909" lon="-4.3749">
        <ele>64.108143197172</ele>
        <time>2021-12-26T16:43:57.760Z</time>
      </trkpt>
      <trkpt lat="48.05881" lon="-4.37574">
        <ele>63.948908126047</ele>
        <time>2021-12-26T16:43:59.604Z</time>
      </trkpt>
      <trkpt lat="48.05857" lon="-4.37645">
        <ele>63.934250487665</ele>
        <time>2021-12-26T16:44:01.455Z</time>
      </trkpt>
      <trkpt lat="48.05849" lon="-4.37667">
        <ele>63.852987362946</ele>
        <time>2021-12-26T16:44:03.308Z</time>
      </trkpt>
      <trkpt lat="48.05845" lon="-4.37678">
        <ele>63.751641111458</ele>
        <time>2021-12-26T16:44:05.163Z</time>
      </trkpt>
      <trkpt lat="48.05819" lon="-4.37756">
        <ele>63.607522335599</ele>
        <time>2021-12-26T16:44:07.025Z</time>
      </trkpt>
      <trkpt lat="48.05804" lon="-4.37802">
        <ele>63.460716985516</ele>
        <time>2021-12-26T16:44:08.892Z</time>
      </trkpt>
      <trkpt lat="48.05779" lon="-4.37883">
        <ele>63.35209611453</ele>
        <time>2021-12-26T16:44:10.766Z</time>
      </trkpt>
      <trkpt lat="48.05771" lon="-4.37906">
        <ele>63.313480699839</ele>
        <time>2021-12-26T16:44:12.642Z</time>
      </trkpt>
      <trkpt lat="48.05747" lon="-4.37982">
        <ele>63.314683796309</ele>
        <time>2021-12-26T16:44:14.526Z</time>
      </trkpt>
      <trkpt lat="48.0574" lon="-4.38003">
        <ele>63.29608962764</ele>
        <time>2021-12-26T16:44:16.412Z</time>
      </trkpt>
      <trkpt lat="48.05718" lon="-4.38075">
        <ele>63.509900461334</ele>
        <time>2021-12-26T16:44:18.305Z</time>
      </trkpt>
      <trkpt lat="48.05714" lon="-4.38085">
        <ele>63.567433623981</ele>
        <time>2021-12-26T16:44:20.199Z</time>
      </trkpt>
      <trkpt lat="48.05702" lon="-4.38125">
        <ele>63.667527073512</ele>
        <time>2021-12-26T16:44:22.096Z</time>
      </trkpt>
      <trkpt lat="48.05699" lon="-4.38135">
        <ele>63.714748892681</ele>
        <time>2021-12-26T16:44:23.994Z</time>
      </trkpt>
      <trkpt lat="48.05696" lon="-4.38144">
        <ele>63.743884849354</ele>
        <time>2021-12-26T16:44:25.893Z</time>
      </trkpt>
      <trkpt lat="48.05685" lon="-4.3817">
        <ele>63.791745746195</ele>
        <time>2021-12-26T16:44:27.795Z</time>
      </trkpt>
      <trkpt lat="48.05666" lon="-4.38212">
        <ele>63.843691509393</ele>
        <time>2021-12-26T16:44:29.701Z</time>
      </trkpt>
      <trkpt lat="48.05658" lon="-4.38229">
        <ele>63.853702901188</ele>
        <time>2021-12-26T16:44:31.609Z</time>
      </trkpt>
      <trkpt lat="48.05635" lon="-4.3827">
        <ele>63.809091886007</ele>
        <time>2021-12-26T16:44:33.522Z</time>
      </trkpt>
      <trkpt lat="48.05621" lon="-4.38294">
        <ele>63.72588798679</ele>
        <time>2021-12-26T16:44:35.438Z</time>
      </trkpt>
      <trkpt lat="48.05616" lon="-4.38302">
        <ele>63.625188746762</ele>
        <time>2021-12-26T16:44:37.355Z</time>
      </trkpt>
      <trkpt lat="48.05611" lon="-4.38311">
        <ele>63.496943545227</ele>
        <time>2021-12-26T16:44:39.272Z</time>
      </trkpt>
      <trkpt lat="48.05583" lon="-4.38363">
        <ele>63.302097671153</ele>
        <time>2021-12-26T16:44:41.195Z</time>
      </trkpt>
      <trkpt lat="48.05569" lon="-4.38392">
        <ele>63.120685331692</ele>
        <time>2021-12-26T16:44:43.121Z</time>
      </trkpt>
      <trkpt lat="48.05553" lon="-4.38432">
        <ele>62.937033942723</ele>
        <time>2021-12-26T16:44:45.051Z</time>
      </trkpt>
      <trkpt lat="48.05534" lon="-4.38494">
        <ele>62.673890365216</ele>
        <time>2021-12-26T16:44:46.987Z</time>
      </trkpt>
      <trkpt lat="48.05519" lon="-4.38549">
        <ele>62.249556615535</ele>
        <time>2021-12-26T16:44:48.928Z</time>
      </trkpt>
      <trkpt lat="48.05515" lon="-4.3856">
        <ele>61.939774256859</ele>
        <time>2021-12-26T16:44:50.870Z</time>
      </trkpt>
      <trkpt lat="48.05509" lon="-4.38584">
        <ele>61.576088014063</ele>
        <time>2021-12-26T16:44:52.815Z</time>
      </trkpt>
      <trkpt lat="48.05505" lon="-4.38596">
        <ele>61.238627395156</ele>
        <time>2021-12-26T16:44:54.761Z</time>
      </trkpt>
      <trkpt lat="48.05497" lon="-4.3862">
        <ele>60.877076368497</ele>
        <time>2021-12-26T16:44:56.709Z</time>
      </trkpt>
      <trkpt lat="48.05493" lon="-4.38633">
        <ele>60.550662110217</ele>
        <time>2021-12-26T16:44:58.658Z</time>
      </trkpt>
      <trkpt lat="48.05485" lon="-4.38657">
        <ele>60.213140815916</ele>
        <time>2021-12-26T16:45:00.610Z</time>
      </trkpt>
      <trkpt lat="48.0547" lon="-4.38707">
        <ele>59.938765569336</ele>
        <time>2021-12-26T16:45:02.566Z</time>
      </trkpt>
      <trkpt lat="48.05464" lon="-4.38733">
        <ele>59.638654958091</ele>
        <time>2021-12-26T16:45:04.525Z</time>
      </trkpt>
      <trkpt lat="48.05456" lon="-4.38802">
        <ele>59.373112458039</ele>
        <time>2021-12-26T16:45:06.490Z</time>
      </trkpt>
      <trkpt lat="48.05456" lon="-4.38854">
        <ele>59.066811450591</ele>
        <time>2021-12-26T16:45:08.459Z</time>
      </trkpt>
      <trkpt lat="48.05456" lon="-4.38866">
        <ele>58.799682651929</ele>
        <time>2021-12-26T16:45:10.429Z</time>
      </trkpt>
      <trkpt lat="48.05457" lon="-4.3889">
        <ele>58.558075032515</ele>
        <time>2021-12-26T16:45:12.402Z</time>
      </trkpt>
      <trkpt lat="48.05456" lon="-4.38951">
        <ele>58.33462055164</ele>
        <time>2021-12-26T16:45:14.380Z</time>
      </trkpt>
      <trkpt lat="48.05455" lon="-4.38975">
        <ele>58.107865505365</ele>
        <time>2021-12-26T16:45:16.360Z</time>
      </trkpt>
      <trkpt lat="48.05451" lon="-4.39024">
        <ele>57.912040270417</ele>
        <time>2021-12-26T16:45:18.344Z</time>
      </trkpt>
      <trkpt lat="48.0545" lon="-4.39037">
        <ele>57.770241553831</ele>
        <time>2021-12-26T16:45:20.329Z</time>
      </trkpt>
      <trkpt lat="48.05446" lon="-4.39087">
        <ele>57.603193470254</ele>
        <time>2021-12-26T16:45:22.319Z</time>
      </trkpt>
      <trkpt lat="48.05439" lon="-4.39178">
        <ele>57.501528194949</ele>
        <time>2021-12-26T16:45:24.317Z</time>
      </trkpt>
      <trkpt lat="48.05435" lon="-4.39217">
        <ele>57.463023993951</ele>
        <time>2021-12-26T16:45:26.318Z</time>
      </trkpt>
      <trkpt lat="48.05431" lon="-4.39254">
        <ele>57.408399090137</ele>
        <time>2021-12-26T16:45:28.322Z</time>
      </trkpt>
      <trkpt lat="48.05428" lon="-4.39278">
        <ele>57.422649573754</ele>
        <time>2021-12-26T16:45:30.328Z</time>
      </trkpt>
      <trkpt lat="48.05424" lon="-4.39314">
        <ele>57.437317463097</ele>
        <time>2021-12-26T16:45:32.338Z</time>
      </trkpt>
      <trkpt lat="48.05419" lon="-4.39347">
        <ele>57.510697072543</ele>
        <time>2021-12-26T16:45:34.350Z</time>
      </trkpt>
      <trkpt lat="48.05415" lon="-4.39378">
        <ele>57.609549879262</ele>
        <time>2021-12-26T16:45:36.365Z</time>
      </trkpt>
      <trkpt lat="48.05414" lon="-4.39388">
        <ele>57.744364986576</ele>
        <time>2021-12-26T16:45:38.381Z</time>
      </trkpt>
      <trkpt lat="48.05406" lon="-4.39427">
        <ele>57.939234744635</ele>
        <time>2021-12-26T16:45:40.401Z</time>
      </trkpt>
      <trkpt lat="48.05403" lon="-4.39447">
        <ele>58.104591936178</ele>
        <time>2021-12-26T16:45:42.422Z</time>
      </trkpt>
      <trkpt lat="48.05401" lon="-4.39457">
        <ele>58.272255805525</ele>
        <time>2021-12-26T16:45:44.444Z</time>
      </trkpt>
      <trkpt lat="48.05392" lon="-4.39514">
        <ele>58.463688370896</ele>
        <time>2021-12-26T16:45:46.471Z</time>
      </trkpt>
      <trkpt lat="48.05391" lon="-4.39524">
        <ele>58.639045832844</ele>
        <time>2021-12-26T16:45:48.499Z</time>
      </trkpt>
      <trkpt lat="48.05388" lon="-4.39542">
        <ele>58.845700366844</ele>
        <time>2021-12-26T16:45:50.529Z</time>
      </trkpt>
      <trkpt lat="48.05383" lon="-4.39571">
        <ele>59.12829331641</ele>
        <time>2021-12-26T16:45:52.561Z</time>
      </trkpt>
      <trkpt lat="48.05379" lon="-4.396">
        <ele>59.427696084767</ele>
        <time>2021-12-26T16:45:54.596Z</time>
      </trkpt>
      <trkpt lat="48.05378" lon="-4.39609">
        <ele>59.605884319822</ele>
        <time>2021-12-26T16:45:56.632Z</time>
      </trkpt>
      <trkpt lat="48.05376" lon="-4.39618">
        <ele>59.741262034826</ele>
        <time>2021-12-26T16:45:58.669Z</time>
      </trkpt>
      <trkpt lat="48.05369" lon="-4.39653">
        <ele>59.879297420564</ele>
        <time>2021-12-26T16:46:00.709Z</time>
      </trkpt>
      <trkpt lat="48.05362" lon="-4.39678">
        <ele>59.934846316611</ele>
        <time>2021-12-26T16:46:02.751Z</time>
      </trkpt>
      <trkpt lat="48.05352" lon="-4.39711">
        <ele>60.002440170585</ele>
        <time>2021-12-26T16:46:04.796Z</time>
      </trkpt>
      <trkpt lat="48.0534" lon="-4.3975">
        <ele>60.037603444623</ele>
        <time>2021-12-26T16:46:06.845Z</time>
      </trkpt>
      <trkpt lat="48.0533" lon="-4.39778">
        <ele>60.031471946052</ele>
        <time>2021-12-26T16:46:08.897Z</time>
      </trkpt>
      <trkpt lat="48.05323" lon="-4.39798">
        <ele>59.962810005656</ele>
        <time>2021-12-26T16:46:10.951Z</time>
      </trkpt>
      <trkpt lat="48.0531" lon="-4.39829">
        <ele>59.804573845565</ele>
        <time>2021-12-26T16:46:13.008Z</time>
      </trkpt>
      <trkpt lat="48.05295" lon="-4.3986">
        <ele>59.560550212712</ele>
        <time>2021-12-26T16:46:15.068Z</time>
      </trkpt>
      <trkpt lat="48.05276" lon="-4.39905">
        <ele>59.179162823972</ele>
        <time>2021-12-26T16:46:17.133Z</time>
      </trkpt>
      <trkpt lat="48.0526" lon="-4.39939">
        <ele>58.847576451234</ele>
        <time>2021-12-26T16:46:19.201Z</time>
      </trkpt>
      <trkpt lat="48.05255" lon="-4.39951">
        <ele>58.643384361527</ele>
        <time>2021-12-26T16:46:21.271Z</time>
      </trkpt>
      <trkpt lat="48.05244" lon="-4.39974">
        <ele>58.428510469366</ele>
        <time>2021-12-26T16:46:23.343Z</time>
      </trkpt>
      <trkpt lat="48.05239" lon="-4.39986">
        <ele>58.23147303337</ele>
        <time>2021-12-26T16:46:25.416Z</time>
      </trkpt>
      <trkpt lat="48.05228" lon="-4.4001">
        <ele>58.060794473905</ele>
        <time>2021-12-26T16:46:27.492Z</time>
      </trkpt>
      <trkpt lat="48.05222" lon="-4.40023">
        <ele>57.887173715159</ele>
        <time>2021-12-26T16:46:29.569Z</time>
      </trkpt>
      <trkpt lat="48.05213" lon="-4.40049">
        <ele>57.71404798843</ele>
        <time>2021-12-26T16:46:31.649Z</time>
      </trkpt>
      <trkpt lat="48.05203" lon="-4.40092">
        <ele>57.566408202391</ele>
        <time>2021-12-26T16:46:33.733Z</time>
      </trkpt>
      <trkpt lat="48.05201" lon="-4.40107">
        <ele>57.429559330767</ele>
        <time>2021-12-26T16:46:35.818Z</time>
      </trkpt>
      <trkpt lat="48.05197" lon="-4.40151">
        <ele>57.310866529578</ele>
        <time>2021-12-26T16:46:37.907Z</time>
      </trkpt>
      <trkpt lat="48.05195" lon="-4.40165">
        <ele>57.227225874972</ele>
        <time>2021-12-26T16:46:39.997Z</time>
      </trkpt>
      <trkpt lat="48.05193" lon="-4.4018">
        <ele>57.16080806413</ele>
        <time>2021-12-26T16:46:42.088Z</time>
      </trkpt>
      <trkpt lat="48.05189" lon="-4.4022">
        <ele>57.059817128465</ele>
        <time>2021-12-26T16:46:44.183Z</time>
      </trkpt>
      <trkpt lat="48.05178" lon="-4.40267">
        <ele>57.042453170779</ele>
        <time>2021-12-26T16:46:46.282Z</time>
      </trkpt>
      <trkpt lat="48.05177" lon="-4.40289">
        <ele>57.010440871005</ele>
        <time>2021-12-26T16:46:48.383Z</time>
      </trkpt>
      <trkpt lat="48.05178" lon="-4.40301">
        <ele>56.996218609004</ele>
        <time>2021-12-26T16:46:50.485Z</time>
      </trkpt>
      <trkpt lat="48.05179" lon="-4.40311">
        <ele>56.999063317941</ele>
        <time>2021-12-26T16:46:52.588Z</time>
      </trkpt>
      <trkpt lat="48.05177" lon="-4.40344">
        <ele>57.003663530678</ele>
        <time>2021-12-26T16:46:54.694Z</time>
      </trkpt>
      <trkpt lat="48.05175" lon="-4.40376">
        <ele>57.018236169868</ele>
        <time>2021-12-26T16:46:56.803Z</time>
      </trkpt>
      <trkpt lat="48.05174" lon="-4.40408">
        <ele>57.102297744029</ele>
        <time>2021-12-26T16:46:58.914Z</time>
      </trkpt>
      <trkpt lat="48.05174" lon="-4.40429">
        <ele>57.182628048366</ele>
        <time>2021-12-26T16:47:01.027Z</time>
      </trkpt>
      <trkpt lat="48.05176" lon="-4.40495">
        <ele>57.279023785416</ele>
        <time>2021-12-26T16:47:03.146Z</time>
      </trkpt>
      <trkpt lat="48.05178" lon="-4.4055">
        <ele>57.427695090304</ele>
        <time>2021-12-26T16:47:05.270Z</time>
      </trkpt>
      <trkpt lat="48.05179" lon="-4.40582">
        <ele>57.512767155666</ele>
        <time>2021-12-26T16:47:07.396Z</time>
      </trkpt>
      <trkpt lat="48.0518" lon="-4.40593">
        <ele>57.586001625195</ele>
        <time>2021-12-26T16:47:09.523Z</time>
      </trkpt>
      <trkpt lat="48.05181" lon="-4.40604">
        <ele>57.658887596664</ele>
        <time>2021-12-26T16:47:11.651Z</time>
      </trkpt>
      <trkpt lat="48.05184" lon="-4.40685">
        <ele>57.681313249715</ele>
        <time>2021-12-26T16:47:13.786Z</time>
      </trkpt>
      <trkpt lat="48.05187" lon="-4.40777">
        <ele>57.824578307027</ele>
        <time>2021-12-26T16:47:15.929Z</time>
      </trkpt>
      <trkpt lat="48.05188" lon="-4.40788">
        <ele>57.876876527731</ele>
        <time>2021-12-26T16:47:18.073Z</time>
      </trkpt>
      <trkpt lat="48.05191" lon="-4.40877">
        <ele>57.971042468972</ele>
        <time>2021-12-26T16:47:20.225Z</time>
      </trkpt>
      <trkpt lat="48.05192" lon="-4.40898">
        <ele>58.033774238586</ele>
        <time>2021-12-26T16:47:22.379Z</time>
      </trkpt>
      <trkpt lat="48.05194" lon="-4.40929">
        <ele>58.077311115151</ele>
        <time>2021-12-26T16:47:24.536Z</time>
      </trkpt>
      <trkpt lat="48.05196" lon="-4.40968">
        <ele>58.110322621845</ele>
        <time>2021-12-26T16:47:26.696Z</time>
      </trkpt>
      <trkpt lat="48.05197" lon="-4.40988">
        <ele>58.092269328121</ele>
        <time>2021-12-26T16:47:28.858Z</time>
      </trkpt>
      <trkpt lat="48.05198" lon="-4.41007">
        <ele>58.06098200933</ele>
        <time>2021-12-26T16:47:31.021Z</time>
      </trkpt>
      <trkpt lat="48.05199" lon="-4.4105">
        <ele>57.993917367621</ele>
        <time>2021-12-26T16:47:33.188Z</time>
      </trkpt>
      <trkpt lat="48.05199" lon="-4.41062">
        <ele>57.907494250284</ele>
        <time>2021-12-26T16:47:35.356Z</time>
      </trkpt>
      <trkpt lat="48.052" lon="-4.41086">
        <ele>57.757983586973</ele>
        <time>2021-12-26T16:47:37.526Z</time>
      </trkpt>
      <trkpt lat="48.052" lon="-4.41111">
        <ele>57.589022348035</ele>
        <time>2021-12-26T16:47:39.698Z</time>
      </trkpt>
      <trkpt lat="48.05199" lon="-4.41138">
        <ele>57.412792835963</ele>
        <time>2021-12-26T16:47:41.873Z</time>
      </trkpt>
      <trkpt lat="48.05197" lon="-4.41219">
        <ele>57.158805857643</ele>
        <time>2021-12-26T16:47:44.055Z</time>
      </trkpt>
      <trkpt lat="48.05197" lon="-4.41232">
        <ele>57.006847526379</ele>
        <time>2021-12-26T16:47:46.238Z</time>
      </trkpt>
      <trkpt lat="48.05196" lon="-4.41297">
        <ele>56.83214522748</ele>
        <time>2021-12-26T16:47:48.426Z</time>
      </trkpt>
      <trkpt lat="48.05195" lon="-4.41336">
        <ele>56.678005228476</ele>
        <time>2021-12-26T16:47:50.618Z</time>
      </trkpt>
      <trkpt lat="48.05194" lon="-4.41398">
        <ele>56.526793686594</ele>
        <time>2021-12-26T16:47:52.815Z</time>
      </trkpt>
      <trkpt lat="48.05194" lon="-4.41411">
        <ele>56.367964541678</ele>
        <time>2021-12-26T16:47:55.013Z</time>
      </trkpt>
      <trkpt lat="48.05194" lon="-4.41435">
        <ele>56.193148604368</ele>
        <time>2021-12-26T16:47:57.213Z</time>
      </trkpt>
      <trkpt lat="48.05194" lon="-4.41447">
        <ele>56.058521739801</ele>
        <time>2021-12-26T16:47:59.414Z</time>
      </trkpt>
      <trkpt lat="48.05192" lon="-4.41509">
        <ele>55.971304491032</ele>
        <time>2021-12-26T16:48:01.621Z</time>
      </trkpt>
      <trkpt lat="48.05188" lon="-4.41559">
        <ele>55.885202138347</ele>
        <time>2021-12-26T16:48:03.832Z</time>
      </trkpt>
      <trkpt lat="48.05183" lon="-4.41598">
        <ele>55.740082783646</ele>
        <time>2021-12-26T16:48:06.047Z</time>
      </trkpt>
      <trkpt lat="48.05178" lon="-4.41637">
        <ele>55.631693218791</ele>
        <time>2021-12-26T16:48:08.265Z</time>
      </trkpt>
      <trkpt lat="48.05175" lon="-4.41664">
        <ele>55.569894778424</ele>
        <time>2021-12-26T16:48:10.485Z</time>
      </trkpt>
      <trkpt lat="48.05173" lon="-4.41678">
        <ele>55.579617602412</ele>
        <time>2021-12-26T16:48:12.707Z</time>
      </trkpt>
      <trkpt lat="48.05169" lon="-4.41706">
        <ele>55.641801141334</ele>
        <time>2021-12-26T16:48:14.931Z</time>
      </trkpt>
      <trkpt lat="48.05159" lon="-4.41786">
        <ele>55.690355160966</ele>
        <time>2021-12-26T16:48:17.162Z</time>
      </trkpt>
      <trkpt lat="48.05155" lon="-4.41812">
        <ele>55.789971823129</ele>
        <time>2021-12-26T16:48:19.395Z</time>
      </trkpt>
      <trkpt lat="48.05145" lon="-4.41894">
        <ele>56.069206010574</ele>
        <time>2021-12-26T16:48:21.636Z</time>
      </trkpt>
      <trkpt lat="48.05142" lon="-4.41916">
        <ele>56.239642490636</ele>
        <time>2021-12-26T16:48:23.879Z</time>
      </trkpt>
      <trkpt lat="48.0514" lon="-4.41927">
        <ele>56.446425691017</ele>
        <time>2021-12-26T16:48:26.123Z</time>
      </trkpt>
      <trkpt lat="48.05131" lon="-4.42002">
        <ele>56.72879767192</ele>
        <time>2021-12-26T16:48:28.373Z</time>
      </trkpt>
      <trkpt lat="48.0513" lon="-4.42012">
        <ele>56.951606537158</ele>
        <time>2021-12-26T16:48:30.624Z</time>
      </trkpt>
      <trkpt lat="48.05129" lon="-4.42022">
        <ele>57.195915677357</ele>
        <time>2021-12-26T16:48:32.876Z</time>
      </trkpt>
      <trkpt lat="48.05122" lon="-4.42073">
        <ele>57.520206618599</ele>
        <time>2021-12-26T16:48:35.132Z</time>
      </trkpt>
      <trkpt lat="48.05116" lon="-4.42111">
        <ele>57.844628196421</ele>
        <time>2021-12-26T16:48:37.392Z</time>
      </trkpt>
      <trkpt lat="48.05114" lon="-4.42128">
        <ele>58.159578889901</ele>
        <time>2021-12-26T16:48:39.653Z</time>
      </trkpt>
      <trkpt lat="48.0511" lon="-4.42156">
        <ele>58.464710371246</ele>
        <time>2021-12-26T16:48:41.917Z</time>
      </trkpt>
      <trkpt lat="48.05105" lon="-4.42193">
        <ele>58.801848054803</ele>
        <time>2021-12-26T16:48:44.184Z</time>
      </trkpt>
      <trkpt lat="48.05104" lon="-4.42201">
        <ele>59.154370923512</ele>
        <time>2021-12-26T16:48:46.452Z</time>
      </trkpt>
      <trkpt lat="48.05098" lon="-4.42247">
        <ele>59.53406971837</ele>
        <time>2021-12-26T16:48:48.724Z</time>
      </trkpt>
      <trkpt lat="48.05095" lon="-4.42273">
        <ele>59.923540814577</ele>
        <time>2021-12-26T16:48:50.998Z</time>
      </trkpt>
      <trkpt lat="48.05085" lon="-4.42354">
        <ele>60.263856871905</ele>
        <time>2021-12-26T16:48:53.279Z</time>
      </trkpt>
      <trkpt lat="48.05084" lon="-4.42363">
        <ele>60.608778673193</ele>
        <time>2021-12-26T16:48:55.561Z</time>
      </trkpt>
      <trkpt lat="48.0508" lon="-4.42389">
        <ele>60.981349842348</ele>
        <time>2021-12-26T16:48:57.845Z</time>
      </trkpt>
      <trkpt lat="48.05078" lon="-4.42408">
        <ele>61.307293300835</ele>
        <time>2021-12-26T16:49:00.131Z</time>
      </trkpt>
      <trkpt lat="48.05076" lon="-4.42426">
        <ele>61.649270380847</ele>
        <time>2021-12-26T16:49:02.419Z</time>
      </trkpt>
      <trkpt lat="48.05073" lon="-4.42464">
        <ele>62.042433318133</ele>
        <time>2021-12-26T16:49:04.710Z</time>
      </trkpt>
      <trkpt lat="48.05072" lon="-4.42473">
        <ele>62.349224159329</ele>
        <time>2021-12-26T16:49:07.002Z</time>
      </trkpt>
      <trkpt lat="48.0507" lon="-4.42522">
        <ele>62.622064615841</ele>
        <time>2021-12-26T16:49:09.298Z</time>
      </trkpt>
      <trkpt lat="48.05069" lon="-4.42562">
        <ele>62.881398530237</ele>
        <time>2021-12-26T16:49:11.597Z</time>
      </trkpt>
      <trkpt lat="48.05066" lon="-4.42593">
        <ele>63.122559064388</ele>
        <time>2021-12-26T16:49:13.899Z</time>
      </trkpt>
      <trkpt lat="48.05065" lon="-4.4263">
        <ele>63.344402964671</ele>
        <time>2021-12-26T16:49:16.204Z</time>
      </trkpt>
      <trkpt lat="48.05063" lon="-4.42705">
        <ele>63.503301063038</ele>
        <time>2021-12-26T16:49:18.516Z</time>
      </trkpt>
      <trkpt lat="48.05063" lon="-4.42715">
        <ele>63.686698687904</ele>
        <time>2021-12-26T16:49:20.829Z</time>
      </trkpt>
      <trkpt lat="48.05063" lon="-4.42743">
        <ele>63.864406855694</ele>
        <time>2021-12-26T16:49:23.144Z</time>
      </trkpt>
      <trkpt lat="48.05064" lon="-4.42772">
        <ele>64.011425039452</ele>
        <time>2021-12-26T16:49:25.462Z</time>
      </trkpt>
      <trkpt lat="48.05064" lon="-4.428">
        <ele>64.141948874315</ele>
        <time>2021-12-26T16:49:27.782Z</time>
      </trkpt>
      <trkpt lat="48.05065" lon="-4.4281">
        <ele>64.258503635602</ele>
        <time>2021-12-26T16:49:30.103Z</time>
      </trkpt>
      <trkpt lat="48.05066" lon="-4.42839">
        <ele>64.355176444906</ele>
        <time>2021-12-26T16:49:32.426Z</time>
      </trkpt>
      <trkpt lat="48.05066" lon="-4.42859">
        <ele>64.413986678946</ele>
        <time>2021-12-26T16:49:34.751Z</time>
      </trkpt>
      <trkpt lat="48.05066" lon="-4.4288">
        <ele>64.492395946427</ele>
        <time>2021-12-26T16:49:37.078Z</time>
      </trkpt>
      <trkpt lat="48.05066" lon="-4.42901">
        <ele>64.57552756739</ele>
        <time>2021-12-26T16:49:39.407Z</time>
      </trkpt>
      <trkpt lat="48.05069" lon="-4.42965">
        <ele>64.684881556892</ele>
        <time>2021-12-26T16:49:41.741Z</time>
      </trkpt>
      <trkpt lat="48.05069" lon="-4.42976">
        <ele>64.746351247086</ele>
        <time>2021-12-26T16:49:44.076Z</time>
      </trkpt>
      <trkpt lat="48.05071" lon="-4.42998">
        <ele>64.792102038016</ele>
        <time>2021-12-26T16:49:46.413Z</time>
      </trkpt>
      <trkpt lat="48.05072" lon="-4.43066">
        <ele>64.830807765288</ele>
        <time>2021-12-26T16:49:48.756Z</time>
      </trkpt>
      <trkpt lat="48.05073" lon="-4.43123">
        <ele>64.822490903265</ele>
        <time>2021-12-26T16:49:51.104Z</time>
      </trkpt>
      <trkpt lat="48.05074" lon="-4.43158">
        <ele>64.89257737007</ele>
        <time>2021-12-26T16:49:53.455Z</time>
      </trkpt>
      <trkpt lat="48.05076" lon="-4.43239">
        <ele>64.915414109271</ele>
        <time>2021-12-26T16:49:55.813Z</time>
      </trkpt>
      <trkpt lat="48.05077" lon="-4.43274">
        <ele>64.942093736613</ele>
        <time>2021-12-26T16:49:58.174Z</time>
      </trkpt>
      <trkpt lat="48.05078" lon="-4.43317">
        <ele>64.951289106594</ele>
        <time>2021-12-26T16:50:00.539Z</time>
      </trkpt>
      <trkpt lat="48.05079" lon="-4.43325">
        <ele>64.998134268961</ele>
        <time>2021-12-26T16:50:02.905Z</time>
      </trkpt>
      <trkpt lat="48.05081" lon="-4.43332">
        <ele>65.040428610414</ele>
        <time>2021-12-26T16:50:05.271Z</time>
      </trkpt>
      <trkpt lat="48.0509" lon="-4.43352">
        <ele>65.122229143974</ele>
        <time>2021-12-26T16:50:07.639Z</time>
      </trkpt>
      <trkpt lat="48.05091" lon="-4.43368">
        <ele>65.202251676325</ele>
        <time>2021-12-26T16:50:10.009Z</time>
      </trkpt>
      <trkpt lat="48.05088" lon="-4.43376">
        <ele>65.2838521436</ele>
        <time>2021-12-26T16:50:12.379Z</time>
      </trkpt>
      <trkpt lat="48.05084" lon="-4.43394">
        <ele>65.377146825493</ele>
        <time>2021-12-26T16:50:14.751Z</time>
      </trkpt>
      <trkpt lat="48.05082" lon="-4.43414">
        <ele>65.490254235177</ele>
        <time>2021-12-26T16:50:17.125Z</time>
      </trkpt>
      <trkpt lat="48.05082" lon="-4.43426">
        <ele>65.591916901566</ele>
        <time>2021-12-26T16:50:19.500Z</time>
      </trkpt>
      <trkpt lat="48.05082" lon="-4.43437">
        <ele>65.699395564934</ele>
        <time>2021-12-26T16:50:21.876Z</time>
      </trkpt>
      <trkpt lat="48.05084" lon="-4.43474">
        <ele>65.813004885147</ele>
        <time>2021-12-26T16:50:24.255Z</time>
      </trkpt>
      <trkpt lat="48.05086" lon="-4.43512">
        <ele>65.908056071004</ele>
        <time>2021-12-26T16:50:26.637Z</time>
      </trkpt>
      <trkpt lat="48.05089" lon="-4.436">
        <ele>66.054952201818</ele>
        <time>2021-12-26T16:50:29.027Z</time>
      </trkpt>
      <trkpt lat="48.05092" lon="-4.43675">
        <ele>66.226234146141</ele>
        <time>2021-12-26T16:50:31.423Z</time>
      </trkpt>
      <trkpt lat="48.05093" lon="-4.43698">
        <ele>66.353724379177</ele>
        <time>2021-12-26T16:50:33.821Z</time>
      </trkpt>
      <trkpt lat="48.05093" lon="-4.4371">
        <ele>66.461623839819</ele>
        <time>2021-12-26T16:50:36.220Z</time>
      </trkpt>
      <trkpt lat="48.05096" lon="-4.43788">
        <ele>66.669639334319</ele>
        <time>2021-12-26T16:50:38.626Z</time>
      </trkpt>
      <trkpt lat="48.05096" lon="-4.43799">
        <ele>66.808351565111</ele>
        <time>2021-12-26T16:50:41.033Z</time>
      </trkpt>
      <trkpt lat="48.05099" lon="-4.43869">
        <ele>66.974392888432</ele>
        <time>2021-12-26T16:50:43.446Z</time>
      </trkpt>
      <trkpt lat="48.05099" lon="-4.43892">
        <ele>67.078916480832</ele>
        <time>2021-12-26T16:50:45.861Z</time>
      </trkpt>
      <trkpt lat="48.051" lon="-4.4398">
        <ele>67.169524898795</ele>
        <time>2021-12-26T16:50:48.284Z</time>
      </trkpt>
      <trkpt lat="48.05099" lon="-4.44044">
        <ele>67.212878567526</ele>
        <time>2021-12-26T16:50:50.712Z</time>
      </trkpt>
      <trkpt lat="48.05097" lon="-4.4413">
        <ele>67.242548480427</ele>
        <time>2021-12-26T16:50:53.148Z</time>
      </trkpt>
      <trkpt lat="48.05096" lon="-4.44155">
        <ele>67.325645464706</ele>
        <time>2021-12-26T16:50:55.586Z</time>
      </trkpt>
      <trkpt lat="48.05096" lon="-4.44168">
        <ele>67.384268836211</ele>
        <time>2021-12-26T16:50:58.025Z</time>
      </trkpt>
      <trkpt lat="48.05094" lon="-4.44233">
        <ele>67.403584520328</ele>
        <time>2021-12-26T16:51:00.470Z</time>
      </trkpt>
      <trkpt lat="48.05094" lon="-4.4426">
        <ele>67.400644637086</ele>
        <time>2021-12-26T16:51:02.917Z</time>
      </trkpt>
      <trkpt lat="48.05093" lon="-4.44287">
        <ele>67.35631918811</ele>
        <time>2021-12-26T16:51:05.366Z</time>
      </trkpt>
      <trkpt lat="48.05092" lon="-4.44327">
        <ele>67.300129331669</ele>
        <time>2021-12-26T16:51:07.819Z</time>
      </trkpt>
      <trkpt lat="48.05091" lon="-4.44369">
        <ele>67.230994436201</ele>
        <time>2021-12-26T16:51:10.276Z</time>
      </trkpt>
      <trkpt lat="48.05091" lon="-4.44383">
        <ele>67.141316891545</ele>
        <time>2021-12-26T16:51:12.734Z</time>
      </trkpt>
      <trkpt lat="48.0509" lon="-4.4441">
        <ele>67.009385698193</ele>
        <time>2021-12-26T16:51:15.194Z</time>
      </trkpt>
      <trkpt lat="48.05089" lon="-4.44436">
        <ele>66.891101097666</ele>
        <time>2021-12-26T16:51:17.656Z</time>
      </trkpt>
      <trkpt lat="48.05088" lon="-4.44477">
        <ele>66.739902613125</ele>
        <time>2021-12-26T16:51:20.122Z</time>
      </trkpt>
      <trkpt lat="48.05087" lon="-4.44542">
        <ele>66.576775398615</ele>
        <time>2021-12-26T16:51:22.594Z</time>
      </trkpt>
      <trkpt lat="48.05085" lon="-4.44633">
        <ele>66.46572529794</ele>
        <time>2021-12-26T16:51:25.073Z</time>
      </trkpt>
      <trkpt lat="48.05084" lon="-4.44673">
        <ele>66.304029290409</ele>
        <time>2021-12-26T16:51:27.556Z</time>
      </trkpt>
      <trkpt lat="48.05084" lon="-4.44698">
        <ele>66.096002632333</ele>
        <time>2021-12-26T16:51:30.041Z</time>
      </trkpt>
      <trkpt lat="48.05083" lon="-4.44711">
        <ele>65.843060637325</ele>
        <time>2021-12-26T16:51:32.527Z</time>
      </trkpt>
      <trkpt lat="48.05082" lon="-4.44772">
        <ele>65.524641515706</ele>
        <time>2021-12-26T16:51:35.018Z</time>
      </trkpt>
      <trkpt lat="48.05081" lon="-4.44809">
        <ele>65.15499075009</ele>
        <time>2021-12-26T16:51:37.513Z</time>
      </trkpt>
      <trkpt lat="48.05081" lon="-4.44822">
        <ele>64.784716793678</ele>
        <time>2021-12-26T16:51:40.009Z</time>
      </trkpt>
      <trkpt lat="48.0508" lon="-4.44889">
        <ele>64.364168227719</ele>
        <time>2021-12-26T16:51:42.511Z</time>
      </trkpt>
      <trkpt lat="48.05079" lon="-4.44902">
        <ele>63.923418941159</ele>
        <time>2021-12-26T16:51:45.014Z</time>
      </trkpt>
      <trkpt lat="48.05078" lon="-4.44985">
        <ele>63.466208035686</ele>
        <time>2021-12-26T16:51:47.524Z</time>
      </trkpt>
      <trkpt lat="48.05079" lon="-4.45014">
        <ele>62.932912356319</ele>
        <time>2021-12-26T16:51:50.036Z</time>
      </trkpt>
      <trkpt lat="48.05089" lon="-4.45102">
        <ele>62.252319184916</ele>
        <time>2021-12-26T16:51:52.556Z</time>
      </trkpt>
      <trkpt lat="48.05091" lon="-4.45117">
        <ele>61.675300205761</ele>
        <time>2021-12-26T16:51:55.077Z</time>
      </trkpt>
      <trkpt lat="48.05097" lon="-4.45161">
        <ele>60.978349093572</ele>
        <time>2021-12-26T16:51:57.602Z</time>
      </trkpt>
      <trkpt lat="48.05103" lon="-4.45205">
        <ele>60.294731206746</ele>
        <time>2021-12-26T16:52:00.131Z</time>
      </trkpt>
      <trkpt lat="48.05107" lon="-4.45234">
        <ele>59.61519883342</ele>
        <time>2021-12-26T16:52:02.663Z</time>
      </trkpt>
      <trkpt lat="48.05111" lon="-4.45264">
        <ele>58.900801413119</ele>
        <time>2021-12-26T16:52:05.197Z</time>
      </trkpt>
      <trkpt lat="48.05113" lon="-4.45279">
        <ele>58.182343927432</ele>
        <time>2021-12-26T16:52:07.733Z</time>
      </trkpt>
      <trkpt lat="48.05115" lon="-4.45294">
        <ele>57.464666660653</ele>
        <time>2021-12-26T16:52:10.270Z</time>
      </trkpt>
      <trkpt lat="48.05123" lon="-4.45355">
        <ele>56.684439115722</ele>
        <time>2021-12-26T16:52:12.812Z</time>
      </trkpt>
      <trkpt lat="48.05127" lon="-4.45386">
        <ele>55.890455994312</ele>
        <time>2021-12-26T16:52:15.357Z</time>
      </trkpt>
      <trkpt lat="48.05129" lon="-4.45401">
        <ele>55.096615926849</ele>
        <time>2021-12-26T16:52:17.904Z</time>
      </trkpt>
      <trkpt lat="48.05133" lon="-4.45432">
        <ele>54.289094212102</ele>
        <time>2021-12-26T16:52:20.453Z</time>
      </trkpt>
      <trkpt lat="48.05135" lon="-4.45448">
        <ele>53.497055575344</ele>
        <time>2021-12-26T16:52:23.004Z</time>
      </trkpt>
      <trkpt lat="48.05144" lon="-4.45513">
        <ele>52.668383840876</ele>
        <time>2021-12-26T16:52:25.560Z</time>
      </trkpt>
      <trkpt lat="48.05148" lon="-4.45546">
        <ele>51.821841497506</ele>
        <time>2021-12-26T16:52:28.119Z</time>
      </trkpt>
      <trkpt lat="48.05154" lon="-4.45595">
        <ele>50.986923705192</ele>
        <time>2021-12-26T16:52:30.683Z</time>
      </trkpt>
      <trkpt lat="48.05162" lon="-4.45658">
        <ele>50.066771240721</ele>
        <time>2021-12-26T16:52:33.252Z</time>
      </trkpt>
      <trkpt lat="48.05167" lon="-4.4569">
        <ele>49.180330048559</ele>
        <time>2021-12-26T16:52:35.824Z</time>
      </trkpt>
      <trkpt lat="48.05171" lon="-4.45722">
        <ele>48.322040705634</ele>
        <time>2021-12-26T16:52:38.399Z</time>
      </trkpt>
      <trkpt lat="48.05173" lon="-4.45738">
        <ele>47.473221141412</ele>
        <time>2021-12-26T16:52:40.975Z</time>
      </trkpt>
      <trkpt lat="48.05177" lon="-4.45771">
        <ele>46.65658370666</ele>
        <time>2021-12-26T16:52:43.554Z</time>
      </trkpt>
      <trkpt lat="48.0518" lon="-4.45787">
        <ele>45.864433736101</ele>
        <time>2021-12-26T16:52:46.135Z</time>
      </trkpt>
      <trkpt lat="48.05191" lon="-4.45868">
        <ele>45.11627853959</ele>
        <time>2021-12-26T16:52:48.723Z</time>
      </trkpt>
      <trkpt lat="48.05195" lon="-4.45901">
        <ele>44.304876609338</ele>
        <time>2021-12-26T16:52:51.314Z</time>
      </trkpt>
      <trkpt lat="48.05197" lon="-4.45918">
        <ele>43.500833640011</ele>
        <time>2021-12-26T16:52:53.906Z</time>
      </trkpt>
      <trkpt lat="48.05202" lon="-4.45951">
        <ele>42.66585452479</ele>
        <time>2021-12-26T16:52:56.501Z</time>
      </trkpt>
      <trkpt lat="48.05211" lon="-4.46018">
        <ele>41.891474871629</ele>
        <time>2021-12-26T16:52:59.102Z</time>
      </trkpt>
      <trkpt lat="48.05213" lon="-4.46035">
        <ele>41.100598159945</ele>
        <time>2021-12-26T16:53:01.705Z</time>
      </trkpt>
      <trkpt lat="48.05222" lon="-4.46103">
        <ele>40.224662822268</ele>
        <time>2021-12-26T16:53:04.314Z</time>
      </trkpt>
      <trkpt lat="48.05228" lon="-4.46153">
        <ele>39.36039863753</ele>
        <time>2021-12-26T16:53:06.927Z</time>
      </trkpt>
      <trkpt lat="48.05234" lon="-4.46238">
        <ele>38.577396247458</ele>
        <time>2021-12-26T16:53:09.547Z</time>
      </trkpt>
      <trkpt lat="48.05228" lon="-4.46306">
        <ele>37.629972149732</ele>
        <time>2021-12-26T16:53:12.173Z</time>
      </trkpt>
      <trkpt lat="48.05223" lon="-4.4634">
        <ele>36.842772768393</ele>
        <time>2021-12-26T16:53:14.802Z</time>
      </trkpt>
      <trkpt lat="48.05219" lon="-4.46357">
        <ele>36.143928919337</ele>
        <time>2021-12-26T16:53:17.433Z</time>
      </trkpt>
      <trkpt lat="48.05216" lon="-4.46374">
        <ele>35.471896403227</ele>
        <time>2021-12-26T16:53:20.065Z</time>
      </trkpt>
      <trkpt lat="48.05206" lon="-4.46406">
        <ele>34.815398757126</ele>
        <time>2021-12-26T16:53:22.700Z</time>
      </trkpt>
      <trkpt lat="48.05195" lon="-4.46437">
        <ele>34.114993298734</ele>
        <time>2021-12-26T16:53:25.338Z</time>
      </trkpt>
      <trkpt lat="48.05181" lon="-4.46464">
        <ele>33.412890748871</ele>
        <time>2021-12-26T16:53:27.979Z</time>
      </trkpt>
      <trkpt lat="48.05173" lon="-4.46477">
        <ele>32.810666476531</ele>
        <time>2021-12-26T16:53:30.622Z</time>
      </trkpt>
      <trkpt lat="48.05155" lon="-4.46499">
        <ele>32.2570041738</ele>
        <time>2021-12-26T16:53:33.268Z</time>
      </trkpt>
      <trkpt lat="48.05137" lon="-4.46519">
        <ele>31.697566736146</ele>
        <time>2021-12-26T16:53:35.917Z</time>
      </trkpt>
      <trkpt lat="48.05118" lon="-4.46537">
        <ele>31.207806979968</ele>
        <time>2021-12-26T16:53:38.569Z</time>
      </trkpt>
      <trkpt lat="48.05088" lon="-4.4656">
        <ele>30.786500012314</ele>
        <time>2021-12-26T16:53:41.225Z</time>
      </trkpt>
      <trkpt lat="48.05078" lon="-4.46567">
        <ele>30.334493994752</ele>
        <time>2021-12-26T16:53:43.882Z</time>
      </trkpt>
      <trkpt lat="48.05058" lon="-4.46579">
        <ele>29.90065666568</ele>
        <time>2021-12-26T16:53:46.542Z</time>
      </trkpt>
      <trkpt lat="48.05036" lon="-4.46587">
        <ele>29.477471448296</ele>
        <time>2021-12-26T16:53:49.205Z</time>
      </trkpt>
      <trkpt lat="48.05003" lon="-4.46586">
        <ele>29.080968999681</ele>
        <time>2021-12-26T16:53:51.872Z</time>
      </trkpt>
      <trkpt lat="48.04972" lon="-4.46579">
        <ele>28.703823573922</ele>
        <time>2021-12-26T16:53:54.544Z</time>
      </trkpt>
      <trkpt lat="48.04962" lon="-4.46574">
        <ele>28.322050347758</ele>
        <time>2021-12-26T16:53:57.217Z</time>
      </trkpt>
      <trkpt lat="48.04951" lon="-4.4657">
        <ele>27.942093640515</ele>
        <time>2021-12-26T16:53:59.891Z</time>
      </trkpt>
      <trkpt lat="48.0493" lon="-4.46563">
        <ele>27.56786980165</ele>
        <time>2021-12-26T16:54:02.568Z</time>
      </trkpt>
      <trkpt lat="48.0492" lon="-4.46559">
        <ele>27.20604569057</ele>
        <time>2021-12-26T16:54:05.247Z</time>
      </trkpt>
      <trkpt lat="48.04879" lon="-4.46542">
        <ele>26.862549710153</ele>
        <time>2021-12-26T16:54:07.931Z</time>
      </trkpt>
      <trkpt lat="48.04869" lon="-4.46539">
        <ele>26.470470824719</ele>
        <time>2021-12-26T16:54:10.616Z</time>
      </trkpt>
      <trkpt lat="48.0483" lon="-4.46528">
        <ele>26.02037099189</ele>
        <time>2021-12-26T16:54:13.306Z</time>
      </trkpt>
      <trkpt lat="48.04821" lon="-4.46526">
        <ele>25.6353529922</ele>
        <time>2021-12-26T16:54:15.998Z</time>
      </trkpt>
      <trkpt lat="48.04811" lon="-4.46525">
        <ele>25.230197921429</ele>
        <time>2021-12-26T16:54:18.691Z</time>
      </trkpt>
      <trkpt lat="48.04782" lon="-4.46524">
        <ele>24.754563573484</ele>
        <time>2021-12-26T16:54:21.388Z</time>
      </trkpt>
      <trkpt lat="48.04772" lon="-4.46524">
        <ele>24.362624489852</ele>
        <time>2021-12-26T16:54:24.086Z</time>
      </trkpt>
      <trkpt lat="48.04752" lon="-4.46526">
        <ele>23.984646080884</ele>
        <time>2021-12-26T16:54:26.786Z</time>
      </trkpt>
      <trkpt lat="48.04723" lon="-4.46533">
        <ele>23.652416923393</ele>
        <time>2021-12-26T16:54:29.490Z</time>
      </trkpt>
      <trkpt lat="48.04713" lon="-4.46537">
        <ele>23.305449348208</ele>
        <time>2021-12-26T16:54:32.196Z</time>
      </trkpt>
      <trkpt lat="48.04693" lon="-4.46547">
        <ele>22.909113346973</ele>
        <time>2021-12-26T16:54:34.904Z</time>
      </trkpt>
      <trkpt lat="48.04674" lon="-4.46557">
        <ele>22.507221490938</ele>
        <time>2021-12-26T16:54:37.615Z</time>
      </trkpt>
      <trkpt lat="48.04665" lon="-4.46562">
        <ele>22.148621229463</ele>
        <time>2021-12-26T16:54:40.327Z</time>
      </trkpt>
      <trkpt lat="48.04647" lon="-4.46573">
        <ele>21.788932620114</ele>
        <time>2021-12-26T16:54:43.042Z</time>
      </trkpt>
      <trkpt lat="48.04619" lon="-4.46589">
        <ele>21.42406588499</ele>
        <time>2021-12-26T16:54:45.761Z</time>
      </trkpt>
      <trkpt lat="48.04601" lon="-4.466">
        <ele>21.060823588226</ele>
        <time>2021-12-26T16:54:48.482Z</time>
      </trkpt>
      <trkpt lat="48.04582" lon="-4.46612">
        <ele>20.68467412245</ele>
        <time>2021-12-26T16:54:51.206Z</time>
      </trkpt>
      <trkpt lat="48.04543" lon="-4.46637">
        <ele>20.194176217316</ele>
        <time>2021-12-26T16:54:53.935Z</time>
      </trkpt>
      <trkpt lat="48.04513" lon="-4.46656">
        <ele>19.892152448932</ele>
        <time>2021-12-26T16:54:56.668Z</time>
      </trkpt>
      <trkpt lat="48.04503" lon="-4.46662">
        <ele>19.672040155061</ele>
        <time>2021-12-26T16:54:59.403Z</time>
      </trkpt>
      <trkpt lat="48.04484" lon="-4.46674">
        <ele>19.521340020408</ele>
        <time>2021-12-26T16:55:02.140Z</time>
      </trkpt>
      <trkpt lat="48.04474" lon="-4.46679">
        <ele>19.383626199242</ele>
        <time>2021-12-26T16:55:04.879Z</time>
      </trkpt>
      <trkpt lat="48.04417" lon="-4.46713">
        <ele>19.380234682845</ele>
        <time>2021-12-26T16:55:07.626Z</time>
      </trkpt>
      <trkpt lat="48.04369" lon="-4.4675">
        <ele>19.381987607432</ele>
        <time>2021-12-26T16:55:10.380Z</time>
      </trkpt>
      <trkpt lat="48.04349" lon="-4.46774">
        <ele>19.252357712583</ele>
        <time>2021-12-26T16:55:13.137Z</time>
      </trkpt>
      <trkpt lat="48.04338" lon="-4.46791">
        <ele>19.096092015836</ele>
        <time>2021-12-26T16:55:15.896Z</time>
      </trkpt>
      <trkpt lat="48.04332" lon="-4.468">
        <ele>18.990967996022</ele>
        <time>2021-12-26T16:55:18.656Z</time>
      </trkpt>
      <trkpt lat="48.04327" lon="-4.4681">
        <ele>18.906329957326</ele>
        <time>2021-12-26T16:55:21.417Z</time>
      </trkpt>
      <trkpt lat="48.04316" lon="-4.4683">
        <ele>18.817207257013</ele>
        <time>2021-12-26T16:55:24.181Z</time>
      </trkpt>
      <trkpt lat="48.0431" lon="-4.4684">
        <ele>18.78745807985</ele>
        <time>2021-12-26T16:55:26.946Z</time>
      </trkpt>
      <trkpt lat="48.04301" lon="-4.4686">
        <ele>18.80008248639</ele>
        <time>2021-12-26T16:55:29.713Z</time>
      </trkpt>
      <trkpt lat="48.04294" lon="-4.46879">
        <ele>18.815670433774</ele>
        <time>2021-12-26T16:55:32.482Z</time>
      </trkpt>
      <trkpt lat="48.04291" lon="-4.46888">
        <ele>18.858357496908</ele>
        <time>2021-12-26T16:55:35.252Z</time>
      </trkpt>
      <trkpt lat="48.04287" lon="-4.46898">
        <ele>18.91261742986</ele>
        <time>2021-12-26T16:55:38.023Z</time>
      </trkpt>
      <trkpt lat="48.04276" lon="-4.46926">
        <ele>18.94677256656</ele>
        <time>2021-12-26T16:55:40.796Z</time>
      </trkpt>
      <trkpt lat="48.04265" lon="-4.46956">
        <ele>19.039046537425</ele>
        <time>2021-12-26T16:55:43.572Z</time>
      </trkpt>
      <trkpt lat="48.04259" lon="-4.46976">
        <ele>19.191111207906</ele>
        <time>2021-12-26T16:55:46.350Z</time>
      </trkpt>
      <trkpt lat="48.04245" lon="-4.47027">
        <ele>19.369328762169</ele>
        <time>2021-12-26T16:55:49.133Z</time>
      </trkpt>
      <trkpt lat="48.04239" lon="-4.4706">
        <ele>19.62720886169</ele>
        <time>2021-12-26T16:55:51.919Z</time>
      </trkpt>
      <trkpt lat="48.04231" lon="-4.47113">
        <ele>20.002992606031</ele>
        <time>2021-12-26T16:55:54.710Z</time>
      </trkpt>
      <trkpt lat="48.04231" lon="-4.47125">
        <ele>20.284946021314</ele>
        <time>2021-12-26T16:55:57.502Z</time>
      </trkpt>
      <trkpt lat="48.04229" lon="-4.47157">
        <ele>20.611439544522</ele>
        <time>2021-12-26T16:56:00.296Z</time>
      </trkpt>
      <trkpt lat="48.04228" lon="-4.47189">
        <ele>20.917187716751</ele>
        <time>2021-12-26T16:56:03.093Z</time>
      </trkpt>
      <trkpt lat="48.04227" lon="-4.47199">
        <ele>21.268029243742</ele>
        <time>2021-12-26T16:56:05.891Z</time>
      </trkpt>
      <trkpt lat="48.04225" lon="-4.4725">
        <ele>21.630948281248</ele>
        <time>2021-12-26T16:56:08.694Z</time>
      </trkpt>
      <trkpt lat="48.04224" lon="-4.4727">
        <ele>22.046733809732</ele>
        <time>2021-12-26T16:56:11.498Z</time>
      </trkpt>
      <trkpt lat="48.04221" lon="-4.47332">
        <ele>22.499238209013</ele>
        <time>2021-12-26T16:56:14.308Z</time>
      </trkpt>
      <trkpt lat="48.0422" lon="-4.47364">
        <ele>22.946584545706</ele>
        <time>2021-12-26T16:56:17.120Z</time>
      </trkpt>
      <trkpt lat="48.04215" lon="-4.47444">
        <ele>23.470526644723</ele>
        <time>2021-12-26T16:56:19.939Z</time>
      </trkpt>
      <trkpt lat="48.04215" lon="-4.47454">
        <ele>23.96858344445</ele>
        <time>2021-12-26T16:56:22.759Z</time>
      </trkpt>
      <trkpt lat="48.04214" lon="-4.47465">
        <ele>24.487906305319</ele>
        <time>2021-12-26T16:56:25.580Z</time>
      </trkpt>
      <trkpt lat="48.04212" lon="-4.4754">
        <ele>25.011186718364</ele>
        <time>2021-12-26T16:56:28.408Z</time>
      </trkpt>
      <trkpt lat="48.04217" lon="-4.47619">
        <ele>25.625588201642</ele>
        <time>2021-12-26T16:56:31.243Z</time>
      </trkpt>
      <trkpt lat="48.0422" lon="-4.47642">
        <ele>26.215447705223</ele>
        <time>2021-12-26T16:56:34.080Z</time>
      </trkpt>
      <trkpt lat="48.04234" lon="-4.47717">
        <ele>26.845659883121</ele>
        <time>2021-12-26T16:56:36.923Z</time>
      </trkpt>
      <trkpt lat="48.04246" lon="-4.47758">
        <ele>27.52951924539</ele>
        <time>2021-12-26T16:56:39.770Z</time>
      </trkpt>
      <trkpt lat="48.04259" lon="-4.47798">
        <ele>28.173320010444</ele>
        <time>2021-12-26T16:56:42.621Z</time>
      </trkpt>
      <trkpt lat="48.04271" lon="-4.47835">
        <ele>28.776205347475</ele>
        <time>2021-12-26T16:56:45.476Z</time>
      </trkpt>
      <trkpt lat="48.04284" lon="-4.47874">
        <ele>29.355083265235</ele>
        <time>2021-12-26T16:56:48.334Z</time>
      </trkpt>
      <trkpt lat="48.04294" lon="-4.47905">
        <ele>29.978280034133</ele>
        <time>2021-12-26T16:56:51.195Z</time>
      </trkpt>
      <trkpt lat="48.04307" lon="-4.47956">
        <ele>30.630079963188</ele>
        <time>2021-12-26T16:56:54.061Z</time>
      </trkpt>
      <trkpt lat="48.04317" lon="-4.47996">
        <ele>31.301238121547</ele>
        <time>2021-12-26T16:56:56.931Z</time>
      </trkpt>
      <trkpt lat="48.04328" lon="-4.48048">
        <ele>32.016354255976</ele>
        <time>2021-12-26T16:56:59.806Z</time>
      </trkpt>
      <trkpt lat="48.04343" lon="-4.48121">
        <ele>32.79548941396</ele>
        <time>2021-12-26T16:57:02.687Z</time>
      </trkpt>
      <trkpt lat="48.04345" lon="-4.48131">
        <ele>33.404863932836</ele>
        <time>2021-12-26T16:57:05.569Z</time>
      </trkpt>
      <trkpt lat="48.04353" lon="-4.48173">
        <ele>34.000490777639</ele>
        <time>2021-12-26T16:57:08.455Z</time>
      </trkpt>
      <trkpt lat="48.04354" lon="-4.48184">
        <ele>34.525098876783</ele>
        <time>2021-12-26T16:57:11.342Z</time>
      </trkpt>
      <trkpt lat="48.0436" lon="-4.48206">
        <ele>35.001564547611</ele>
        <time>2021-12-26T16:57:14.231Z</time>
      </trkpt>
      <trkpt lat="48.04373" lon="-4.4827">
        <ele>35.329809682117</ele>
        <time>2021-12-26T16:57:17.126Z</time>
      </trkpt>
      <trkpt lat="48.04387" lon="-4.48333">
        <ele>35.88285610934</ele>
        <time>2021-12-26T16:57:20.026Z</time>
      </trkpt>
      <trkpt lat="48.04389" lon="-4.48342">
        <ele>36.304507694994</ele>
        <time>2021-12-26T16:57:22.927Z</time>
      </trkpt>
      <trkpt lat="48.04391" lon="-4.48351">
        <ele>36.700234717086</ele>
        <time>2021-12-26T16:57:25.829Z</time>
      </trkpt>
      <trkpt lat="48.04394" lon="-4.4841">
        <ele>37.115632257696</ele>
        <time>2021-12-26T16:57:28.736Z</time>
      </trkpt>
      <trkpt lat="48.04394" lon="-4.4841">
        <ele>37.606080060094</ele>
        <time>2021-12-26T16:57:31.643Z</time>
      </trkpt>
      <trkpt lat="48.04393" lon="-4.48432">
        <ele>37.792895520328</ele>
        <time>2021-12-26T16:57:34.552Z</time>
      </trkpt>
      <trkpt lat="48.04393" lon="-4.48442">
        <ele>37.928986233839</ele>
        <time>2021-12-26T16:57:37.462Z</time>
      </trkpt>
      <trkpt lat="48.0439" lon="-4.48485">
        <ele>38.017553215054</ele>
        <time>2021-12-26T16:57:40.376Z</time>
      </trkpt>
      <trkpt lat="48.04389" lon="-4.48495">
        <ele>38.035156565453</ele>
        <time>2021-12-26T16:57:43.291Z</time>
      </trkpt>
      <trkpt lat="48.0438" lon="-4.48546">
        <ele>37.913510833434</ele>
        <time>2021-12-26T16:57:46.210Z</time>
      </trkpt>
      <trkpt lat="48.04376" lon="-4.48566">
        <ele>37.775084688849</ele>
        <time>2021-12-26T16:57:49.131Z</time>
      </trkpt>
      <trkpt lat="48.04362" lon="-4.48636">
        <ele>37.49958429153</ele>
        <time>2021-12-26T16:57:52.058Z</time>
      </trkpt>
      <trkpt lat="48.04354" lon="-4.48685">
        <ele>37.344976408695</ele>
        <time>2021-12-26T16:57:54.990Z</time>
      </trkpt>
      <trkpt lat="48.04347" lon="-4.48721">
        <ele>37.181510766129</ele>
        <time>2021-12-26T16:57:57.925Z</time>
      </trkpt>
      <trkpt lat="48.04337" lon="-4.48773">
        <ele>36.91445448911</ele>
        <time>2021-12-26T16:58:00.864Z</time>
      </trkpt>
      <trkpt lat="48.04336" lon="-4.48782">
        <ele>36.581010252608</ele>
        <time>2021-12-26T16:58:03.804Z</time>
      </trkpt>
      <trkpt lat="48.04333" lon="-4.48798">
        <ele>36.204876635742</ele>
        <time>2021-12-26T16:58:06.746Z</time>
      </trkpt>
      <trkpt lat="48.0433" lon="-4.48816">
        <ele>35.807365172126</ele>
        <time>2021-12-26T16:58:09.689Z</time>
      </trkpt>
      <trkpt lat="48.0433" lon="-4.48846">
        <ele>35.38103179894</ele>
        <time>2021-12-26T16:58:12.635Z</time>
      </trkpt>
      <trkpt lat="48.0433" lon="-4.4889">
        <ele>34.891495162501</ele>
        <time>2021-12-26T16:58:15.585Z</time>
      </trkpt>
      <trkpt lat="48.04326" lon="-4.48982">
        <ele>34.264810816848</ele>
        <time>2021-12-26T16:58:18.543Z</time>
      </trkpt>
      <trkpt lat="48.04324" lon="-4.48993">
        <ele>33.696015195884</ele>
        <time>2021-12-26T16:58:21.502Z</time>
      </trkpt>
      <trkpt lat="48.04318" lon="-4.49028">
        <ele>33.093959371238</ele>
        <time>2021-12-26T16:58:24.464Z</time>
      </trkpt>
      <trkpt lat="48.04312" lon="-4.49052">
        <ele>32.471334357263</ele>
        <time>2021-12-26T16:58:27.428Z</time>
      </trkpt>
      <trkpt lat="48.04303" lon="-4.49088">
        <ele>31.736088180637</ele>
        <time>2021-12-26T16:58:30.395Z</time>
      </trkpt>
      <trkpt lat="48.04299" lon="-4.491">
        <ele>31.027787061814</ele>
        <time>2021-12-26T16:58:33.364Z</time>
      </trkpt>
      <trkpt lat="48.04292" lon="-4.49125">
        <ele>30.283728273322</ele>
        <time>2021-12-26T16:58:36.335Z</time>
      </trkpt>
      <trkpt lat="48.04288" lon="-4.49137">
        <ele>29.573770450712</ele>
        <time>2021-12-26T16:58:39.307Z</time>
      </trkpt>
      <trkpt lat="48.04271" lon="-4.49194">
        <ele>28.865564263315</ele>
        <time>2021-12-26T16:58:42.284Z</time>
      </trkpt>
      <trkpt lat="48.04268" lon="-4.49205">
        <ele>28.166054623282</ele>
        <time>2021-12-26T16:58:45.263Z</time>
      </trkpt>
      <trkpt lat="48.04257" lon="-4.4924">
        <ele>27.477740882919</ele>
        <time>2021-12-26T16:58:48.245Z</time>
      </trkpt>
      <trkpt lat="48.04251" lon="-4.49263">
        <ele>26.798502558104</ele>
        <time>2021-12-26T16:58:51.229Z</time>
      </trkpt>
      <trkpt lat="48.04247" lon="-4.49274">
        <ele>26.126220971213</ele>
        <time>2021-12-26T16:58:54.214Z</time>
      </trkpt>
      <trkpt lat="48.0424" lon="-4.49297">
        <ele>25.429304117966</ele>
        <time>2021-12-26T16:58:57.201Z</time>
      </trkpt>
      <trkpt lat="48.04223" lon="-4.49359">
        <ele>24.699487991529</ele>
        <time>2021-12-26T16:59:00.194Z</time>
      </trkpt>
      <trkpt lat="48.0422" lon="-4.49371">
        <ele>24.074655132313</ele>
        <time>2021-12-26T16:59:03.188Z</time>
      </trkpt>
      <trkpt lat="48.04212" lon="-4.49396">
        <ele>23.448194939814</ele>
        <time>2021-12-26T16:59:06.185Z</time>
      </trkpt>
      <trkpt lat="48.042" lon="-4.49435">
        <ele>22.835415717358</ele>
        <time>2021-12-26T16:59:09.185Z</time>
      </trkpt>
      <trkpt lat="48.04188" lon="-4.49474">
        <ele>22.299729609629</ele>
        <time>2021-12-26T16:59:12.189Z</time>
      </trkpt>
      <trkpt lat="48.04184" lon="-4.49487">
        <ele>21.833094947429</ele>
        <time>2021-12-26T16:59:15.194Z</time>
      </trkpt>
      <trkpt lat="48.04168" lon="-4.49541">
        <ele>21.388656664005</ele>
        <time>2021-12-26T16:59:18.204Z</time>
      </trkpt>
      <trkpt lat="48.04152" lon="-4.49595">
        <ele>21.064152661688</ele>
        <time>2021-12-26T16:59:21.219Z</time>
      </trkpt>
      <trkpt lat="48.04135" lon="-4.4965">
        <ele>20.748314083967</ele>
        <time>2021-12-26T16:59:24.240Z</time>
      </trkpt>
      <trkpt lat="48.04131" lon="-4.49663">
        <ele>20.498117939637</ele>
        <time>2021-12-26T16:59:27.262Z</time>
      </trkpt>
      <trkpt lat="48.04118" lon="-4.49715">
        <ele>20.352607042264</ele>
        <time>2021-12-26T16:59:30.289Z</time>
      </trkpt>
      <trkpt lat="48.04115" lon="-4.49742">
        <ele>20.175586648605</ele>
        <time>2021-12-26T16:59:33.318Z</time>
      </trkpt>
      <trkpt lat="48.04115" lon="-4.49755">
        <ele>20.044504606475</ele>
        <time>2021-12-26T16:59:36.348Z</time>
      </trkpt>
      <trkpt lat="48.04115" lon="-4.49768">
        <ele>19.958772610363</ele>
        <time>2021-12-26T16:59:39.379Z</time>
      </trkpt>
      <trkpt lat="48.04119" lon="-4.49794">
        <ele>19.937769986564</ele>
        <time>2021-12-26T16:59:42.413Z</time>
      </trkpt>
      <trkpt lat="48.04123" lon="-4.49817">
        <ele>19.923947353304</ele>
        <time>2021-12-26T16:59:45.449Z</time>
      </trkpt>
      <trkpt lat="48.04126" lon="-4.49829">
        <ele>19.929142906237</ele>
        <time>2021-12-26T16:59:48.486Z</time>
      </trkpt>
      <trkpt lat="48.04135" lon="-4.49871">
        <ele>20.016392551032</ele>
        <time>2021-12-26T16:59:51.527Z</time>
      </trkpt>
      <trkpt lat="48.04139" lon="-4.49891">
        <ele>20.109397894788</ele>
        <time>2021-12-26T16:59:54.569Z</time>
      </trkpt>
      <trkpt lat="48.04141" lon="-4.49901">
        <ele>20.196680769592</ele>
        <time>2021-12-26T16:59:57.612Z</time>
      </trkpt>
      <trkpt lat="48.04145" lon="-4.49921">
        <ele>20.328757449153</ele>
        <time>2021-12-26T17:00:00.657Z</time>
      </trkpt>
      <trkpt lat="48.0415" lon="-4.49952">
        <ele>20.438748464016</ele>
        <time>2021-12-26T17:00:03.705Z</time>
      </trkpt>
      <trkpt lat="48.04154" lon="-4.49974">
        <ele>20.600569863583</ele>
        <time>2021-12-26T17:00:06.755Z</time>
      </trkpt>
      <trkpt lat="48.04158" lon="-4.49996">
        <ele>20.766094235802</ele>
        <time>2021-12-26T17:00:09.807Z</time>
      </trkpt>
      <trkpt lat="48.04163" lon="-4.50031">
        <ele>20.881761623299</ele>
        <time>2021-12-26T17:00:12.862Z</time>
      </trkpt>
      <trkpt lat="48.04169" lon="-4.50078">
        <ele>21.050602973696</ele>
        <time>2021-12-26T17:00:15.921Z</time>
      </trkpt>
      <trkpt lat="48.04173" lon="-4.50102">
        <ele>21.233787081577</ele>
        <time>2021-12-26T17:00:18.982Z</time>
      </trkpt>
      <trkpt lat="48.0418" lon="-4.5015">
        <ele>21.419154652464</ele>
        <time>2021-12-26T17:00:22.047Z</time>
      </trkpt>
      <trkpt lat="48.04185" lon="-4.50198">
        <ele>21.592391489576</ele>
        <time>2021-12-26T17:00:25.117Z</time>
      </trkpt>
      <trkpt lat="48.04187" lon="-4.50219">
        <ele>21.743265426377</ele>
        <time>2021-12-26T17:00:28.189Z</time>
      </trkpt>
      <trkpt lat="48.04189" lon="-4.50246">
        <ele>21.914117444701</ele>
        <time>2021-12-26T17:00:31.263Z</time>
      </trkpt>
      <trkpt lat="48.04189" lon="-4.50254">
        <ele>22.019393059964</ele>
        <time>2021-12-26T17:00:34.338Z</time>
      </trkpt>
      <trkpt lat="48.0419" lon="-4.50263">
        <ele>22.099657678698</ele>
        <time>2021-12-26T17:00:37.413Z</time>
      </trkpt>
      <trkpt lat="48.0419" lon="-4.50267">
        <ele>22.153965229203</ele>
        <time>2021-12-26T17:00:40.489Z</time>
      </trkpt>
      <trkpt lat="48.04193" lon="-4.5027">
        <ele>22.183763909154</ele>
        <time>2021-12-26T17:00:43.565Z</time>
      </trkpt>
      <trkpt lat="48.04194" lon="-4.50271">
        <ele>22.175062670777</ele>
        <time>2021-12-26T17:00:46.641Z</time>
      </trkpt>
      <trkpt lat="48.04195" lon="-4.50269">
        <ele>22.131587471771</ele>
        <time>2021-12-26T17:00:49.718Z</time>
      </trkpt>
      <trkpt lat="48.04195" lon="-4.50265">
        <ele>22.048484025046</ele>
        <time>2021-12-26T17:00:52.795Z</time>
      </trkpt>
      <trkpt lat="48.04196" lon="-4.50262">
        <ele>21.926955912746</ele>
        <time>2021-12-26T17:00:55.872Z</time>
      </trkpt>
      <trkpt lat="48.04193" lon="-4.50274">
        <ele>21.751626934991</ele>
        <time>2021-12-26T17:00:58.950Z</time>
      </trkpt>
      <trkpt lat="48.04191" lon="-4.5029">
        <ele>21.55923219591</ele>
        <time>2021-12-26T17:01:02.030Z</time>
      </trkpt>
      <trkpt lat="48.0419" lon="-4.50295">
        <ele>21.318405028354</ele>
        <time>2021-12-26T17:01:05.110Z</time>
      </trkpt>
      <trkpt lat="48.04187" lon="-4.50324">
        <ele>21.036693934474</ele>
        <time>2021-12-26T17:01:08.193Z</time>
      </trkpt>
      <trkpt lat="48.04186" lon="-4.50331">
        <ele>20.702584872702</ele>
        <time>2021-12-26T17:01:11.276Z</time>
      </trkpt>
      <trkpt lat="48.04185" lon="-4.50346">
        <ele>20.325912159909</ele>
        <time>2021-12-26T17:01:14.361Z</time>
      </trkpt>
      <trkpt lat="48.04181" lon="-4.50388">
        <ele>19.861063275018</ele>
        <time>2021-12-26T17:01:17.449Z</time>
      </trkpt>
      <trkpt lat="48.04179" lon="-4.50407">
        <ele>19.413177629566</ele>
        <time>2021-12-26T17:01:20.539Z</time>
      </trkpt>
      <trkpt lat="48.04179" lon="-4.50418">
        <ele>18.932220302787</ele>
        <time>2021-12-26T17:01:23.630Z</time>
      </trkpt>
      <trkpt lat="48.04178" lon="-4.50441">
        <ele>18.388793816445</ele>
        <time>2021-12-26T17:01:26.723Z</time>
      </trkpt>
      <trkpt lat="48.04177" lon="-4.50466">
        <ele>17.816726962949</ele>
        <time>2021-12-26T17:01:29.818Z</time>
      </trkpt>
      <trkpt lat="48.04179" lon="-4.50507">
        <ele>17.179568710167</ele>
        <time>2021-12-26T17:01:32.917Z</time>
      </trkpt>
      <trkpt lat="48.04182" lon="-4.50535">
        <ele>16.551427365775</ele>
        <time>2021-12-26T17:01:36.018Z</time>
      </trkpt>
      <trkpt lat="48.04187" lon="-4.50578">
        <ele>15.924701928743</ele>
        <time>2021-12-26T17:01:39.123Z</time>
      </trkpt>
      <trkpt lat="48.0419" lon="-4.50593">
        <ele>15.297708576313</ele>
        <time>2021-12-26T17:01:42.229Z</time>
      </trkpt>
      <trkpt lat="48.04192" lon="-4.50608">
        <ele>14.667436945887</ele>
        <time>2021-12-26T17:01:45.337Z</time>
      </trkpt>
      <trkpt lat="48.04203" lon="-4.50654">
        <ele>13.968258233776</ele>
        <time>2021-12-26T17:01:48.449Z</time>
      </trkpt>
      <trkpt lat="48.04207" lon="-4.50669">
        <ele>13.351043917776</ele>
        <time>2021-12-26T17:01:51.562Z</time>
      </trkpt>
      <trkpt lat="48.04212" lon="-4.50684">
        <ele>12.754863949687</ele>
        <time>2021-12-26T17:01:54.677Z</time>
      </trkpt>
      <trkpt lat="48.04221" lon="-4.50716">
        <ele>12.115626094687</ele>
        <time>2021-12-26T17:01:57.795Z</time>
      </trkpt>
      <trkpt lat="48.0423" lon="-4.50748">
        <ele>11.48133578267</ele>
        <time>2021-12-26T17:02:00.916Z</time>
      </trkpt>
      <trkpt lat="48.04239" lon="-4.50782">
        <ele>10.925854474098</ele>
        <time>2021-12-26T17:02:04.040Z</time>
      </trkpt>
      <trkpt lat="48.04243" lon="-4.50799">
        <ele>10.453292570467</ele>
        <time>2021-12-26T17:02:07.165Z</time>
      </trkpt>
      <trkpt lat="48.04247" lon="-4.50817">
        <ele>10.001800413834</ele>
        <time>2021-12-26T17:02:10.292Z</time>
      </trkpt>
      <trkpt lat="48.04252" lon="-4.50853">
        <ele>9.5975504500197</ele>
        <time>2021-12-26T17:02:13.422Z</time>
      </trkpt>
      <trkpt lat="48.04254" lon="-4.50871">
        <ele>9.2266724169265</ele>
        <time>2021-12-26T17:02:16.554Z</time>
      </trkpt>
      <trkpt lat="48.04254" lon="-4.50924">
        <ele>8.8538472992139</ele>
        <time>2021-12-26T17:02:19.690Z</time>
      </trkpt>
      <trkpt lat="48.04253" lon="-4.50958">
        <ele>8.6189070099017</ele>
        <time>2021-12-26T17:02:22.829Z</time>
      </trkpt>
      <trkpt lat="48.04253" lon="-4.50991">
        <ele>8.4405908210335</ele>
        <time>2021-12-26T17:02:25.971Z</time>
      </trkpt>
      <trkpt lat="48.04252" lon="-4.51036">
        <ele>8.37415747074</ele>
        <time>2021-12-26T17:02:29.117Z</time>
      </trkpt>
      <trkpt lat="48.04252" lon="-4.5105">
        <ele>8.276726630305</ele>
        <time>2021-12-26T17:02:32.264Z</time>
      </trkpt>
      <trkpt lat="48.04251" lon="-4.51078">
        <ele>8.2045582818144</ele>
        <time>2021-12-26T17:02:35.414Z</time>
      </trkpt>
      <trkpt lat="48.0425" lon="-4.51092">
        <ele>8.1745310481136</ele>
        <time>2021-12-26T17:02:38.565Z</time>
      </trkpt>
      <trkpt lat="48.04245" lon="-4.51131">
        <ele>8.1781465759091</ele>
        <time>2021-12-26T17:02:41.719Z</time>
      </trkpt>
      <trkpt lat="48.04238" lon="-4.51155">
        <ele>8.2029813976082</ele>
        <time>2021-12-26T17:02:44.876Z</time>
      </trkpt>
      <trkpt lat="48.04234" lon="-4.51167">
        <ele>8.2511154348406</ele>
        <time>2021-12-26T17:02:48.034Z</time>
      </trkpt>
      <trkpt lat="48.04229" lon="-4.51177">
        <ele>8.3382696506572</ele>
        <time>2021-12-26T17:02:51.193Z</time>
      </trkpt>
      <trkpt lat="48.04211" lon="-4.51208">
        <ele>8.4591290524404</ele>
        <time>2021-12-26T17:02:54.355Z</time>
      </trkpt>
      <trkpt lat="48.04199" lon="-4.51228">
        <ele>8.5825479397904</ele>
        <time>2021-12-26T17:02:57.520Z</time>
      </trkpt>
      <trkpt lat="48.04189" lon="-4.51251">
        <ele>8.7522633820904</ele>
        <time>2021-12-26T17:03:00.687Z</time>
      </trkpt>
      <trkpt lat="48.04185" lon="-4.51262">
        <ele>8.9164740904042</ele>
        <time>2021-12-26T17:03:03.855Z</time>
      </trkpt>
      <trkpt lat="48.04182" lon="-4.51274">
        <ele>9.0885445114115</ele>
        <time>2021-12-26T17:03:07.024Z</time>
      </trkpt>
      <trkpt lat="48.04176" lon="-4.5131">
        <ele>9.3182522327289</ele>
        <time>2021-12-26T17:03:10.196Z</time>
      </trkpt>
      <trkpt lat="48.04175" lon="-4.51322">
        <ele>9.4729567015752</ele>
        <time>2021-12-26T17:03:13.369Z</time>
      </trkpt>
      <trkpt lat="48.04172" lon="-4.51345">
        <ele>9.6299544687666</ele>
        <time>2021-12-26T17:03:16.544Z</time>
      </trkpt>
      <trkpt lat="48.04171" lon="-4.51367">
        <ele>9.7452917792438</ele>
        <time>2021-12-26T17:03:19.721Z</time>
      </trkpt>
      <trkpt lat="48.0417" lon="-4.51377">
        <ele>9.8476737396399</ele>
        <time>2021-12-26T17:03:22.899Z</time>
      </trkpt>
      <trkpt lat="48.04169" lon="-4.51406">
        <ele>9.9309927081341</ele>
        <time>2021-12-26T17:03:26.080Z</time>
      </trkpt>
      <trkpt lat="48.04167" lon="-4.51434">
        <ele>9.9956717114146</ele>
        <time>2021-12-26T17:03:29.263Z</time>
      </trkpt>
      <trkpt lat="48.04167" lon="-4.51443">
        <ele>10.041299415716</ele>
        <time>2021-12-26T17:03:32.447Z</time>
      </trkpt>
      <trkpt lat="48.04167" lon="-4.51487">
        <ele>10.133264977548</ele>
        <time>2021-12-26T17:03:35.635Z</time>
      </trkpt>
      <trkpt lat="48.04167" lon="-4.51496">
        <ele>10.135602711196</ele>
        <time>2021-12-26T17:03:38.824Z</time>
      </trkpt>
      <trkpt lat="48.04173" lon="-4.51562">
        <ele>10.114221473395</ele>
        <time>2021-12-26T17:03:42.018Z</time>
      </trkpt>
      <trkpt lat="48.04181" lon="-4.51627">
        <ele>10.069887528214</ele>
        <time>2021-12-26T17:03:45.218Z</time>
      </trkpt>
      <trkpt lat="48.04187" lon="-4.51663">
        <ele>9.9292200964091</ele>
        <time>2021-12-26T17:03:48.421Z</time>
      </trkpt>
      <trkpt lat="48.04193" lon="-4.51701">
        <ele>9.7789971922613</ele>
        <time>2021-12-26T17:03:51.628Z</time>
      </trkpt>
      <trkpt lat="48.04195" lon="-4.51713">
        <ele>9.6583042689971</ele>
        <time>2021-12-26T17:03:54.836Z</time>
      </trkpt>
      <trkpt lat="48.04201" lon="-4.51753">
        <ele>9.482012768516</ele>
        <time>2021-12-26T17:03:58.047Z</time>
      </trkpt>
      <trkpt lat="48.04203" lon="-4.51766">
        <ele>9.352264961058</ele>
        <time>2021-12-26T17:04:01.259Z</time>
      </trkpt>
      <trkpt lat="48.04212" lon="-4.51822">
        <ele>9.19091905491</ele>
        <time>2021-12-26T17:04:04.476Z</time>
      </trkpt>
      <trkpt lat="48.04219" lon="-4.51865">
        <ele>9.0375771162958</ele>
        <time>2021-12-26T17:04:07.697Z</time>
      </trkpt>
      <trkpt lat="48.04224" lon="-4.51893">
        <ele>8.915819732416</ele>
        <time>2021-12-26T17:04:10.921Z</time>
      </trkpt>
      <trkpt lat="48.04226" lon="-4.51906">
        <ele>8.7799075170425</ele>
        <time>2021-12-26T17:04:14.146Z</time>
      </trkpt>
      <trkpt lat="48.0423" lon="-4.51932">
        <ele>8.638636378407</ele>
        <time>2021-12-26T17:04:17.373Z</time>
      </trkpt>
      <trkpt lat="48.04235" lon="-4.51957">
        <ele>8.5228881277896</ele>
        <time>2021-12-26T17:04:20.603Z</time>
      </trkpt>
      <trkpt lat="48.04241" lon="-4.51995">
        <ele>8.4274563863301</ele>
        <time>2021-12-26T17:04:23.836Z</time>
      </trkpt>
      <trkpt lat="48.04248" lon="-4.52033">
        <ele>8.2981062818714</ele>
        <time>2021-12-26T17:04:27.072Z</time>
      </trkpt>
      <trkpt lat="48.0425" lon="-4.52046">
        <ele>8.1962141364586</ele>
        <time>2021-12-26T17:04:30.309Z</time>
      </trkpt>
      <trkpt lat="48.04252" lon="-4.52059">
        <ele>8.101709880338</ele>
        <time>2021-12-26T17:04:33.548Z</time>
      </trkpt>
      <trkpt lat="48.04259" lon="-4.521">
        <ele>8.0090310626154</ele>
        <time>2021-12-26T17:04:36.790Z</time>
      </trkpt>
      <trkpt lat="48.04265" lon="-4.52142">
        <ele>7.9220017029002</ele>
        <time>2021-12-26T17:04:40.036Z</time>
      </trkpt>
      <trkpt lat="48.04265" lon="-4.52157">
        <ele>7.906126888889</ele>
        <time>2021-12-26T17:04:43.283Z</time>
      </trkpt>
      <trkpt lat="48.04263" lon="-4.52171">
        <ele>7.9186858054543</ele>
        <time>2021-12-26T17:04:46.532Z</time>
      </trkpt>
      <trkpt lat="48.0426" lon="-4.52185">
        <ele>7.9617946249711</ele>
        <time>2021-12-26T17:04:49.782Z</time>
      </trkpt>
      <trkpt lat="48.04256" lon="-4.52199">
        <ele>8.042289981639</ele>
        <time>2021-12-26T17:04:53.033Z</time>
      </trkpt>
      <trkpt lat="48.04246" lon="-4.52224">
        <ele>8.1543193761539</ele>
        <time>2021-12-26T17:04:56.287Z</time>
      </trkpt>
      <trkpt lat="48.0424" lon="-4.52236">
        <ele>8.3196351496613</ele>
        <time>2021-12-26T17:04:59.542Z</time>
      </trkpt>
      <trkpt lat="48.04234" lon="-4.52247">
        <ele>8.5132412403694</ele>
        <time>2021-12-26T17:05:02.798Z</time>
      </trkpt>
      <trkpt lat="48.04216" lon="-4.52281">
        <ele>8.8624256231811</ele>
        <time>2021-12-26T17:05:06.058Z</time>
      </trkpt>
      <trkpt lat="48.042" lon="-4.52311">
        <ele>9.2248470414575</ele>
        <time>2021-12-26T17:05:09.321Z</time>
      </trkpt>
      <trkpt lat="48.04195" lon="-4.52321">
        <ele>9.5095833286814</ele>
        <time>2021-12-26T17:05:12.585Z</time>
      </trkpt>
      <trkpt lat="48.0419" lon="-4.5233">
        <ele>9.8068228345292</ele>
        <time>2021-12-26T17:05:15.850Z</time>
      </trkpt>
      <trkpt lat="48.04171" lon="-4.52363">
        <ele>10.190561818207</ele>
        <time>2021-12-26T17:05:19.119Z</time>
      </trkpt>
      <trkpt lat="48.04167" lon="-4.5237">
        <ele>10.476609865878</ele>
        <time>2021-12-26T17:05:22.389Z</time>
      </trkpt>
      <trkpt lat="48.0415" lon="-4.52402">
        <ele>10.78401403999</ele>
        <time>2021-12-26T17:05:25.662Z</time>
      </trkpt>
      <trkpt lat="48.04124" lon="-4.5244">
        <ele>11.071644290645</ele>
        <time>2021-12-26T17:05:28.940Z</time>
      </trkpt>
      <trkpt lat="48.04115" lon="-4.52455">
        <ele>11.364353308357</ele>
        <time>2021-12-26T17:05:32.220Z</time>
      </trkpt>
      <trkpt lat="48.04105" lon="-4.5247">
        <ele>11.651275137475</ele>
        <time>2021-12-26T17:05:35.502Z</time>
      </trkpt>
      <trkpt lat="48.04101" lon="-4.52477">
        <ele>11.918299639447</ele>
        <time>2021-12-26T17:05:38.785Z</time>
      </trkpt>
      <trkpt lat="48.0409" lon="-4.52493">
        <ele>12.183368799605</ele>
        <time>2021-12-26T17:05:42.069Z</time>
      </trkpt>
      <trkpt lat="48.0408" lon="-4.52508">
        <ele>12.423371900765</ele>
        <time>2021-12-26T17:05:45.355Z</time>
      </trkpt>
      <trkpt lat="48.04075" lon="-4.52515">
        <ele>12.641643451438</ele>
        <time>2021-12-26T17:05:48.642Z</time>
      </trkpt>
      <trkpt lat="48.04064" lon="-4.5253">
        <ele>12.851167597714</ele>
        <time>2021-12-26T17:05:51.931Z</time>
      </trkpt>
      <trkpt lat="48.04039" lon="-4.52567">
        <ele>13.041660450715</ele>
        <time>2021-12-26T17:05:55.225Z</time>
      </trkpt>
      <trkpt lat="48.04023" lon="-4.5259">
        <ele>13.174535251311</ele>
        <time>2021-12-26T17:05:58.522Z</time>
      </trkpt>
      <trkpt lat="48.04017" lon="-4.52598">
        <ele>13.328470989715</ele>
        <time>2021-12-26T17:06:01.820Z</time>
      </trkpt>
      <trkpt lat="48.03973" lon="-4.52661">
        <ele>13.40208099574</ele>
        <time>2021-12-26T17:06:05.125Z</time>
      </trkpt>
      <trkpt lat="48.03967" lon="-4.52669">
        <ele>13.537263894142</ele>
        <time>2021-12-26T17:06:08.431Z</time>
      </trkpt>
      <trkpt lat="48.03928" lon="-4.52726">
        <ele>13.595777131607</ele>
        <time>2021-12-26T17:06:11.745Z</time>
      </trkpt>
      <trkpt lat="48.039" lon="-4.52766">
        <ele>13.722665297541</ele>
        <time>2021-12-26T17:06:15.064Z</time>
      </trkpt>
      <trkpt lat="48.03894" lon="-4.52774">
        <ele>13.841914192772</ele>
        <time>2021-12-26T17:06:18.384Z</time>
      </trkpt>
      <trkpt lat="48.03878" lon="-4.52797">
        <ele>13.938855250401</ele>
        <time>2021-12-26T17:06:21.706Z</time>
      </trkpt>
      <trkpt lat="48.03859" lon="-4.52826">
        <ele>14.055396922122</ele>
        <time>2021-12-26T17:06:25.032Z</time>
      </trkpt>
      <trkpt lat="48.03829" lon="-4.52873">
        <ele>14.257079770281</ele>
        <time>2021-12-26T17:06:28.364Z</time>
      </trkpt>
      <trkpt lat="48.03825" lon="-4.52882">
        <ele>14.380314274026</ele>
        <time>2021-12-26T17:06:31.697Z</time>
      </trkpt>
      <trkpt lat="48.03816" lon="-4.52899">
        <ele>14.525768058948</ele>
        <time>2021-12-26T17:06:35.031Z</time>
      </trkpt>
      <trkpt lat="48.03812" lon="-4.52908">
        <ele>14.639966971309</ele>
        <time>2021-12-26T17:06:38.366Z</time>
      </trkpt>
      <trkpt lat="48.038" lon="-4.52937">
        <ele>14.74912479489</ele>
        <time>2021-12-26T17:06:41.704Z</time>
      </trkpt>
      <trkpt lat="48.03776" lon="-4.52991">
        <ele>14.836902400574</ele>
        <time>2021-12-26T17:06:45.048Z</time>
      </trkpt>
      <trkpt lat="48.03768" lon="-4.53008">
        <ele>14.896720867331</ele>
        <time>2021-12-26T17:06:48.394Z</time>
      </trkpt>
      <trkpt lat="48.03748" lon="-4.53052">
        <ele>14.974963045003</ele>
        <time>2021-12-26T17:06:51.744Z</time>
      </trkpt>
      <trkpt lat="48.03733" lon="-4.53087">
        <ele>14.962496247829</ele>
        <time>2021-12-26T17:06:55.098Z</time>
      </trkpt>
      <trkpt lat="48.03725" lon="-4.53104">
        <ele>14.989662518798</ele>
        <time>2021-12-26T17:06:58.454Z</time>
      </trkpt>
      <trkpt lat="48.0371" lon="-4.53138">
        <ele>14.990215355173</ele>
        <time>2021-12-26T17:07:01.813Z</time>
      </trkpt>
      <trkpt lat="48.03704" lon="-4.53155">
        <ele>15.007627396288</ele>
        <time>2021-12-26T17:07:05.174Z</time>
      </trkpt>
      <trkpt lat="48.03701" lon="-4.53172">
        <ele>15.013049681176</ele>
        <time>2021-12-26T17:07:08.536Z</time>
      </trkpt>
      <trkpt lat="48.03699" lon="-4.53202">
        <ele>15.012427606441</ele>
        <time>2021-12-26T17:07:11.901Z</time>
      </trkpt>
      <trkpt lat="48.037" lon="-4.53224">
        <ele>14.953981497568</ele>
        <time>2021-12-26T17:07:15.268Z</time>
      </trkpt>
      <trkpt lat="48.03703" lon="-4.53247">
        <ele>14.821808923722</ele>
        <time>2021-12-26T17:07:18.637Z</time>
      </trkpt>
      <trkpt lat="48.03705" lon="-4.53272">
        <ele>14.658280743839</ele>
        <time>2021-12-26T17:07:22.008Z</time>
      </trkpt>
      <trkpt lat="48.03703" lon="-4.53298">
        <ele>14.444170378147</ele>
        <time>2021-12-26T17:07:25.381Z</time>
      </trkpt>
      <trkpt lat="48.03696" lon="-4.53323">
        <ele>14.212306382789</ele>
        <time>2021-12-26T17:07:28.757Z</time>
      </trkpt>
      <trkpt lat="48.0369" lon="-4.53334">
        <ele>14.030835428164</ele>
        <time>2021-12-26T17:07:32.134Z</time>
      </trkpt>
      <trkpt lat="48.03684" lon="-4.53345">
        <ele>13.818405896245</ele>
        <time>2021-12-26T17:07:35.512Z</time>
      </trkpt>
      <trkpt lat="48.03669" lon="-4.53364">
        <ele>13.573091563527</ele>
        <time>2021-12-26T17:07:38.893Z</time>
      </trkpt>
      <trkpt lat="48.03642" lon="-4.53382">
        <ele>13.389549080401</ele>
        <time>2021-12-26T17:07:42.278Z</time>
      </trkpt>
      <trkpt lat="48.03632" lon="-4.53385">
        <ele>13.300580219911</ele>
        <time>2021-12-26T17:07:45.664Z</time>
      </trkpt>
      <trkpt lat="48.03623" lon="-4.53385">
        <ele>13.243588394879</ele>
        <time>2021-12-26T17:07:49.051Z</time>
      </trkpt>
      <trkpt lat="48.03613" lon="-4.53384">
        <ele>13.219393823119</ele>
        <time>2021-12-26T17:07:52.439Z</time>
      </trkpt>
      <trkpt lat="48.03603" lon="-4.53382">
        <ele>13.235428592593</ele>
        <time>2021-12-26T17:07:55.829Z</time>
      </trkpt>
      <trkpt lat="48.03573" lon="-4.53371">
        <ele>13.300565998869</ele>
        <time>2021-12-26T17:07:59.223Z</time>
      </trkpt>
      <trkpt lat="48.03553" lon="-4.53362">
        <ele>13.24597262134</ele>
        <time>2021-12-26T17:08:02.619Z</time>
      </trkpt>
      <trkpt lat="48.03533" lon="-4.53357">
        <ele>13.19750013143</ele>
        <time>2021-12-26T17:08:06.018Z</time>
      </trkpt>
      <trkpt lat="48.03523" lon="-4.53359">
        <ele>13.253434495659</ele>
        <time>2021-12-26T17:08:09.418Z</time>
      </trkpt>
      <trkpt lat="48.03513" lon="-4.53363">
        <ele>13.3651984356</ele>
        <time>2021-12-26T17:08:12.820Z</time>
      </trkpt>
      <trkpt lat="48.03493" lon="-4.53376">
        <ele>13.598246282686</ele>
        <time>2021-12-26T17:08:16.224Z</time>
      </trkpt>
      <trkpt lat="48.03442" lon="-4.53409">
        <ele>14.218664187862</ele>
        <time>2021-12-26T17:08:19.636Z</time>
      </trkpt>
      <trkpt lat="48.03432" lon="-4.53414">
        <ele>14.608038725774</ele>
        <time>2021-12-26T17:08:23.049Z</time>
      </trkpt>
      <trkpt lat="48.03422" lon="-4.53416">
        <ele>15.007852792726</ele>
        <time>2021-12-26T17:08:26.463Z</time>
      </trkpt>
      <trkpt lat="48.03395" lon="-4.53421">
        <ele>15.441992882297</ele>
        <time>2021-12-26T17:08:29.881Z</time>
      </trkpt>
      <trkpt lat="48.03388" lon="-4.53422">
        <ele>15.847264007495</ele>
        <time>2021-12-26T17:08:33.300Z</time>
      </trkpt>
      <trkpt lat="48.03367" lon="-4.53429">
        <ele>16.286371330289</ele>
        <time>2021-12-26T17:08:36.721Z</time>
      </trkpt>
      <trkpt lat="48.03361" lon="-4.53433">
        <ele>16.770865264929</ele>
        <time>2021-12-26T17:08:40.143Z</time>
      </trkpt>
      <trkpt lat="48.03355" lon="-4.53437">
        <ele>17.287959397608</ele>
        <time>2021-12-26T17:08:43.566Z</time>
      </trkpt>
      <trkpt lat="48.03344" lon="-4.53449">
        <ele>17.875892143405</ele>
        <time>2021-12-26T17:08:46.991Z</time>
      </trkpt>
      <trkpt lat="48.03339" lon="-4.53455">
        <ele>18.435938468319</ele>
        <time>2021-12-26T17:08:50.417Z</time>
      </trkpt>
      <trkpt lat="48.03334" lon="-4.53461">
        <ele>18.996501169844</ele>
        <time>2021-12-26T17:08:53.844Z</time>
      </trkpt>
      <trkpt lat="48.03329" lon="-4.53467">
        <ele>19.546233265894</ele>
        <time>2021-12-26T17:08:57.271Z</time>
      </trkpt>
      <trkpt lat="48.03324" lon="-4.53472">
        <ele>20.084543116065</ele>
        <time>2021-12-26T17:09:00.699Z</time>
      </trkpt>
      <trkpt lat="48.0332" lon="-4.53478">
        <ele>20.60029872205</ele>
        <time>2021-12-26T17:09:04.128Z</time>
      </trkpt>
      <trkpt lat="48.03315" lon="-4.53482">
        <ele>21.091254594394</ele>
        <time>2021-12-26T17:09:07.558Z</time>
      </trkpt>
      <trkpt lat="48.0331" lon="-4.53487">
        <ele>21.557491996724</ele>
        <time>2021-12-26T17:09:10.988Z</time>
      </trkpt>
      <trkpt lat="48.03299" lon="-4.53496">
        <ele>22.012729010849</ele>
        <time>2021-12-26T17:09:14.420Z</time>
      </trkpt>
      <trkpt lat="48.03294" lon="-4.53501">
        <ele>22.421493451266</ele>
        <time>2021-12-26T17:09:17.853Z</time>
      </trkpt>
      <trkpt lat="48.03288" lon="-4.53505">
        <ele>22.778084106365</ele>
        <time>2021-12-26T17:09:21.287Z</time>
      </trkpt>
      <trkpt lat="48.0327" lon="-4.53517">
        <ele>23.07912862722</ele>
        <time>2021-12-26T17:09:24.723Z</time>
      </trkpt>
      <trkpt lat="48.03248" lon="-4.53539">
        <ele>23.328916476061</ele>
        <time>2021-12-26T17:09:28.163Z</time>
      </trkpt>
      <trkpt lat="48.03243" lon="-4.53545">
        <ele>23.571562825684</ele>
        <time>2021-12-26T17:09:31.603Z</time>
      </trkpt>
      <trkpt lat="48.03232" lon="-4.53555">
        <ele>23.750962041777</ele>
        <time>2021-12-26T17:09:35.045Z</time>
      </trkpt>
      <trkpt lat="48.0322" lon="-4.53563">
        <ele>23.878197803188</ele>
        <time>2021-12-26T17:09:38.489Z</time>
      </trkpt>
      <trkpt lat="48.03214" lon="-4.53567">
        <ele>23.966275961182</ele>
        <time>2021-12-26T17:09:41.934Z</time>
      </trkpt>
      <trkpt lat="48.03209" lon="-4.5357">
        <ele>24.01321491545</ele>
        <time>2021-12-26T17:09:45.379Z</time>
      </trkpt>
      <trkpt lat="48.03203" lon="-4.53573">
        <ele>24.043014183522</ele>
        <time>2021-12-26T17:09:48.825Z</time>
      </trkpt>
      <trkpt lat="48.03185" lon="-4.53581">
        <ele>24.041848254408</ele>
        <time>2021-12-26T17:09:52.274Z</time>
      </trkpt>
      <trkpt lat="48.03179" lon="-4.53583">
        <ele>23.973272873435</ele>
        <time>2021-12-26T17:09:55.723Z</time>
      </trkpt>
      <trkpt lat="48.03173" lon="-4.53585">
        <ele>23.862644639199</ele>
        <time>2021-12-26T17:09:59.173Z</time>
      </trkpt>
      <trkpt lat="48.03155" lon="-4.53588">
        <ele>23.723490338883</ele>
        <time>2021-12-26T17:10:02.626Z</time>
      </trkpt>
      <trkpt lat="48.03142" lon="-4.53587">
        <ele>23.515578081558</ele>
        <time>2021-12-26T17:10:06.080Z</time>
      </trkpt>
      <trkpt lat="48.03129" lon="-4.53585">
        <ele>23.259407749727</ele>
        <time>2021-12-26T17:10:09.536Z</time>
      </trkpt>
      <trkpt lat="48.03103" lon="-4.53577">
        <ele>22.895963088477</ele>
        <time>2021-12-26T17:10:12.995Z</time>
      </trkpt>
      <trkpt lat="48.03097" lon="-4.53574">
        <ele>22.505869453363</ele>
        <time>2021-12-26T17:10:16.455Z</time>
      </trkpt>
      <trkpt lat="48.03079" lon="-4.5356">
        <ele>22.010662773732</ele>
        <time>2021-12-26T17:10:19.918Z</time>
      </trkpt>
      <trkpt lat="48.03061" lon="-4.53547">
        <ele>21.461341739908</ele>
        <time>2021-12-26T17:10:23.383Z</time>
      </trkpt>
      <trkpt lat="48.0304" lon="-4.53535">
        <ele>20.966914230823</ele>
        <time>2021-12-26T17:10:26.851Z</time>
      </trkpt>
      <trkpt lat="48.03025" lon="-4.53527">
        <ele>20.40892651024</ele>
        <time>2021-12-26T17:10:30.321Z</time>
      </trkpt>
      <trkpt lat="48.03001" lon="-4.53516">
        <ele>19.759409567648</ele>
        <time>2021-12-26T17:10:33.795Z</time>
      </trkpt>
      <trkpt lat="48.02985" lon="-4.5351">
        <ele>19.121321292485</ele>
        <time>2021-12-26T17:10:37.271Z</time>
      </trkpt>
      <trkpt lat="48.02976" lon="-4.53511">
        <ele>18.50195207773</ele>
        <time>2021-12-26T17:10:40.748Z</time>
      </trkpt>
      <trkpt lat="48.02968" lon="-4.53513">
        <ele>17.876037635875</ele>
        <time>2021-12-26T17:10:44.226Z</time>
      </trkpt>
      <trkpt lat="48.0296" lon="-4.53518">
        <ele>17.243984432329</ele>
        <time>2021-12-26T17:10:47.705Z</time>
      </trkpt>
      <trkpt lat="48.02952" lon="-4.53526">
        <ele>16.582938444732</ele>
        <time>2021-12-26T17:10:51.185Z</time>
      </trkpt>
      <trkpt lat="48.02939" lon="-4.53547">
        <ele>15.846300326047</ele>
        <time>2021-12-26T17:10:54.668Z</time>
      </trkpt>
      <trkpt lat="48.02935" lon="-4.53561">
        <ele>15.146853892011</ele>
        <time>2021-12-26T17:10:58.152Z</time>
      </trkpt>
      <trkpt lat="48.02932" lon="-4.53575">
        <ele>14.451050357639</ele>
        <time>2021-12-26T17:11:01.637Z</time>
      </trkpt>
      <trkpt lat="48.02929" lon="-4.53588">
        <ele>13.752908653868</ele>
        <time>2021-12-26T17:11:05.123Z</time>
      </trkpt>
      <trkpt lat="48.02919" lon="-4.53638">
        <ele>12.998045876853</ele>
        <time>2021-12-26T17:11:08.614Z</time>
      </trkpt>
      <trkpt lat="48.02913" lon="-4.53662">
        <ele>12.33407984559</ele>
        <time>2021-12-26T17:11:12.107Z</time>
      </trkpt>
      <trkpt lat="48.02909" lon="-4.53672">
        <ele>11.664231294969</ele>
        <time>2021-12-26T17:11:15.601Z</time>
      </trkpt>
      <trkpt lat="48.029" lon="-4.53693">
        <ele>10.990128250984</ele>
        <time>2021-12-26T17:11:19.097Z</time>
      </trkpt>
      <trkpt lat="48.02895" lon="-4.53701">
        <ele>10.334941340826</ele>
        <time>2021-12-26T17:11:22.594Z</time>
      </trkpt>
      <trkpt lat="48.02891" lon="-4.53709">
        <ele>9.692472892041</ele>
        <time>2021-12-26T17:11:26.092Z</time>
      </trkpt>
      <trkpt lat="48.02882" lon="-4.53723">
        <ele>9.0413565284356</ele>
        <time>2021-12-26T17:11:29.592Z</time>
      </trkpt>
      <trkpt lat="48.02877" lon="-4.53729">
        <ele>8.4422484507132</ele>
        <time>2021-12-26T17:11:33.093Z</time>
      </trkpt>
      <trkpt lat="48.02871" lon="-4.53734">
        <ele>7.8695537609074</ele>
        <time>2021-12-26T17:11:36.595Z</time>
      </trkpt>
      <trkpt lat="48.02864" lon="-4.53739">
        <ele>7.318786770047</ele>
        <time>2021-12-26T17:11:40.098Z</time>
      </trkpt>
      <trkpt lat="48.0285" lon="-4.5375">
        <ele>6.7764436961445</ele>
        <time>2021-12-26T17:11:43.603Z</time>
      </trkpt>
      <trkpt lat="48.02834" lon="-4.53758">
        <ele>6.2878777994519</ele>
        <time>2021-12-26T17:11:47.110Z</time>
      </trkpt>
      <trkpt lat="48.02807" lon="-4.53764">
        <ele>5.8237615324952</ele>
        <time>2021-12-26T17:11:50.620Z</time>
      </trkpt>
      <trkpt lat="48.02799" lon="-4.53766">
        <ele>5.3740252239187</ele>
        <time>2021-12-26T17:11:54.131Z</time>
      </trkpt>
      <trkpt lat="48.0279" lon="-4.53768">
        <ele>4.9417248710944</ele>
        <time>2021-12-26T17:11:57.644Z</time>
      </trkpt>
      <trkpt lat="48.02773" lon="-4.53771">
        <ele>4.50951674864</ele>
        <time>2021-12-26T17:12:01.159Z</time>
      </trkpt>
      <trkpt lat="48.0274" lon="-4.53778">
        <ele>4.0774082126965</ele>
        <time>2021-12-26T17:12:04.678Z</time>
      </trkpt>
      <trkpt lat="48.02723" lon="-4.53781">
        <ele>3.7290651791935</ele>
        <time>2021-12-26T17:12:08.199Z</time>
      </trkpt>
      <trkpt lat="48.02699" lon="-4.53784">
        <ele>3.4128214190834</ele>
        <time>2021-12-26T17:12:11.723Z</time>
      </trkpt>
      <trkpt lat="48.02682" lon="-4.5378">
        <ele>3.0800937052066</ele>
        <time>2021-12-26T17:12:15.250Z</time>
      </trkpt>
      <trkpt lat="48.02666" lon="-4.53771">
        <ele>2.7577984639706</ele>
        <time>2021-12-26T17:12:18.779Z</time>
      </trkpt>
      <trkpt lat="48.02659" lon="-4.53766">
        <ele>2.4611014391021</ele>
        <time>2021-12-26T17:12:22.309Z</time>
      </trkpt>
      <trkpt lat="48.02629" lon="-4.53745">
        <ele>2.1681598807563</ele>
        <time>2021-12-26T17:12:25.843Z</time>
      </trkpt>
      <trkpt lat="48.02614" lon="-4.53735">
        <ele>1.9914672492528</ele>
        <time>2021-12-26T17:12:29.379Z</time>
      </trkpt>
      <trkpt lat="48.02607" lon="-4.5373">
        <ele>1.7684269926445</ele>
        <time>2021-12-26T17:12:32.916Z</time>
      </trkpt>
      <trkpt lat="48.02556" lon="-4.53694">
        <ele>1.6702724438655</ele>
        <time>2021-12-26T17:12:36.461Z</time>
      </trkpt>
      <trkpt lat="48.02542" lon="-4.53682">
        <ele>1.4161376293094</ele>
        <time>2021-12-26T17:12:40.008Z</time>
      </trkpt>
      <trkpt lat="48.0252" lon="-4.53647">
        <ele>1.1503889933649</ele>
        <time>2021-12-26T17:12:43.559Z</time>
      </trkpt>
      <trkpt lat="48.02508" lon="-4.53618">
        <ele>0.95215166361214</ele>
        <time>2021-12-26T17:12:47.113Z</time>
      </trkpt>
      <trkpt lat="48.025" lon="-4.53599">
        <ele>0.79091999151187</ele>
        <time>2021-12-26T17:12:50.669Z</time>
      </trkpt>
      <trkpt lat="48.0249" lon="-4.53584">
        <ele>0.67081590656979</ele>
        <time>2021-12-26T17:12:54.226Z</time>
      </trkpt>
      <trkpt lat="48.0248" lon="-4.5357">
        <ele>0.55488252999034</ele>
        <time>2021-12-26T17:12:57.785Z</time>
      </trkpt>
      <trkpt lat="48.02474" lon="-4.53553">
        <ele>0.48859083446283</ele>
        <time>2021-12-26T17:13:01.346Z</time>
      </trkpt>
      <trkpt lat="48.02472" lon="-4.53544">
        <ele>0.45126195133835</ele>
        <time>2021-12-26T17:13:04.908Z</time>
      </trkpt>
      <trkpt lat="48.02468" lon="-4.53534">
        <ele>0.45032544690451</ele>
        <time>2021-12-26T17:13:08.471Z</time>
      </trkpt>
      <trkpt lat="48.0246" lon="-4.53516">
        <ele>0.48892357678797</ele>
        <time>2021-12-26T17:13:12.036Z</time>
      </trkpt>
      <trkpt lat="48.02456" lon="-4.53508">
        <ele>0.58373070624067</ele>
        <time>2021-12-26T17:13:15.601Z</time>
      </trkpt>
      <trkpt lat="48.02452" lon="-4.53499">
        <ele>0.72315079707392</ele>
        <time>2021-12-26T17:13:19.167Z</time>
      </trkpt>
      <trkpt lat="48.02444" lon="-4.53483">
        <ele>0.90590296187613</ele>
        <time>2021-12-26T17:13:22.735Z</time>
      </trkpt>
      <trkpt lat="48.02431" lon="-4.53459">
        <ele>1.091417151665</ele>
        <time>2021-12-26T17:13:26.306Z</time>
      </trkpt>
      <trkpt lat="48.02418" lon="-4.53433">
        <ele>1.3471433316832</ele>
        <time>2021-12-26T17:13:29.880Z</time>
      </trkpt>
      <trkpt lat="48.02414" lon="-4.53424">
        <ele>1.6424531627992</ele>
        <time>2021-12-26T17:13:33.455Z</time>
      </trkpt>
      <trkpt lat="48.02403" lon="-4.53407">
        <ele>1.9765624433654</ele>
        <time>2021-12-26T17:13:37.032Z</time>
      </trkpt>
      <trkpt lat="48.02397" lon="-4.53399">
        <ele>2.3482471510135</ele>
        <time>2021-12-26T17:13:40.610Z</time>
      </trkpt>
      <trkpt lat="48.02384" lon="-4.53386">
        <ele>2.9126577517567</ele>
        <time>2021-12-26T17:13:44.190Z</time>
      </trkpt>
      <trkpt lat="48.02377" lon="-4.53382">
        <ele>3.4620584965742</ele>
        <time>2021-12-26T17:13:47.771Z</time>
      </trkpt>
      <trkpt lat="48.0237" lon="-4.53379">
        <ele>4.0010885954836</ele>
        <time>2021-12-26T17:13:51.353Z</time>
      </trkpt>
      <trkpt lat="48.02356" lon="-4.53377">
        <ele>4.5673529578487</ele>
        <time>2021-12-26T17:13:54.936Z</time>
      </trkpt>
      <trkpt lat="48.02349" lon="-4.53377">
        <ele>5.0963444791026</ele>
        <time>2021-12-26T17:13:58.520Z</time>
      </trkpt>
      <trkpt lat="48.02342" lon="-4.53378">
        <ele>5.6515886011424</ele>
        <time>2021-12-26T17:14:02.105Z</time>
      </trkpt>
      <trkpt lat="48.02324" lon="-4.53383">
        <ele>6.2475449228766</ele>
        <time>2021-12-26T17:14:05.693Z</time>
      </trkpt>
      <trkpt lat="48.02301" lon="-4.53388">
        <ele>6.8072024029181</ele>
        <time>2021-12-26T17:14:09.283Z</time>
      </trkpt>
      <trkpt lat="48.02296" lon="-4.53388">
        <ele>7.3990519459213</ele>
        <time>2021-12-26T17:14:12.874Z</time>
      </trkpt>
      <trkpt lat="48.02291" lon="-4.53387">
        <ele>8.0102749017536</ele>
        <time>2021-12-26T17:14:16.466Z</time>
      </trkpt>
      <trkpt lat="48.02271" lon="-4.53376">
        <ele>8.6675642965831</ele>
        <time>2021-12-26T17:14:20.061Z</time>
      </trkpt>
      <trkpt lat="48.02262" lon="-4.53368">
        <ele>9.3350749089906</ele>
        <time>2021-12-26T17:14:23.657Z</time>
      </trkpt>
      <trkpt lat="48.02257" lon="-4.53364">
        <ele>9.9937322293026</ele>
        <time>2021-12-26T17:14:27.254Z</time>
      </trkpt>
      <trkpt lat="48.02246" lon="-4.53349">
        <ele>10.67556849075</ele>
        <time>2021-12-26T17:14:30.853Z</time>
      </trkpt>
      <trkpt lat="48.02243" lon="-4.53343">
        <ele>11.346083770105</ele>
        <time>2021-12-26T17:14:34.452Z</time>
      </trkpt>
      <trkpt lat="48.0224" lon="-4.53337">
        <ele>12.025920238964</ele>
        <time>2021-12-26T17:14:38.052Z</time>
      </trkpt>
      <trkpt lat="48.02228" lon="-4.53313">
        <ele>12.710676930686</ele>
        <time>2021-12-26T17:14:41.654Z</time>
      </trkpt>
      <trkpt lat="48.02222" lon="-4.53302">
        <ele>13.409906452629</ele>
        <time>2021-12-26T17:14:45.258Z</time>
      </trkpt>
      <trkpt lat="48.02212" lon="-4.53284">
        <ele>14.108373572691</ele>
        <time>2021-12-26T17:14:48.864Z</time>
      </trkpt>
      <trkpt lat="48.02199" lon="-4.5326">
        <ele>14.801576512929</ele>
        <time>2021-12-26T17:14:52.472Z</time>
      </trkpt>
      <trkpt lat="48.02186" lon="-4.53237">
        <ele>15.515782550199</ele>
        <time>2021-12-26T17:14:56.083Z</time>
      </trkpt>
      <trkpt lat="48.02183" lon="-4.53232">
        <ele>16.226608346519</ele>
        <time>2021-12-26T17:14:59.695Z</time>
      </trkpt>
      <trkpt lat="48.02173" lon="-4.53214">
        <ele>16.987106295739</ele>
        <time>2021-12-26T17:15:03.309Z</time>
      </trkpt>
      <trkpt lat="48.02161" lon="-4.53189">
        <ele>17.768126430558</ele>
        <time>2021-12-26T17:15:06.925Z</time>
      </trkpt>
      <trkpt lat="48.02155" lon="-4.53176">
        <ele>18.527964560753</ele>
        <time>2021-12-26T17:15:10.543Z</time>
      </trkpt>
      <trkpt lat="48.02147" lon="-4.53157">
        <ele>19.270360659611</ele>
        <time>2021-12-26T17:15:14.163Z</time>
      </trkpt>
      <trkpt lat="48.02137" lon="-4.5313">
        <ele>20.050677051988</ele>
        <time>2021-12-26T17:15:17.785Z</time>
      </trkpt>
      <trkpt lat="48.02134" lon="-4.53123">
        <ele>20.790814342678</ele>
        <time>2021-12-26T17:15:21.408Z</time>
      </trkpt>
      <trkpt lat="48.02128" lon="-4.5311">
        <ele>21.552469963315</ele>
        <time>2021-12-26T17:15:25.032Z</time>
      </trkpt>
      <trkpt lat="48.02109" lon="-4.53065">
        <ele>22.357935740687</ele>
        <time>2021-12-26T17:15:28.661Z</time>
      </trkpt>
      <trkpt lat="48.02097" lon="-4.5304">
        <ele>23.096661579333</ele>
        <time>2021-12-26T17:15:32.293Z</time>
      </trkpt>
      <trkpt lat="48.02089" lon="-4.53024">
        <ele>23.813772717506</ele>
        <time>2021-12-26T17:15:35.926Z</time>
      </trkpt>
      <trkpt lat="48.02079" lon="-4.53003">
        <ele>24.528208554418</ele>
        <time>2021-12-26T17:15:39.562Z</time>
      </trkpt>
      <trkpt lat="48.02069" lon="-4.52983">
        <ele>25.276254946843</ele>
        <time>2021-12-26T17:15:43.200Z</time>
      </trkpt>
      <trkpt lat="48.02067" lon="-4.52978">
        <ele>26.0142809074</ele>
        <time>2021-12-26T17:15:46.838Z</time>
      </trkpt>
      <trkpt lat="48.02056" lon="-4.5295">
        <ele>26.775350167138</ele>
        <time>2021-12-26T17:15:50.479Z</time>
      </trkpt>
      <trkpt lat="48.02052" lon="-4.52938">
        <ele>27.520116994953</ele>
        <time>2021-12-26T17:15:54.121Z</time>
      </trkpt>
      <trkpt lat="48.02048" lon="-4.52912">
        <ele>28.300206755308</ele>
        <time>2021-12-26T17:15:57.766Z</time>
      </trkpt>
      <trkpt lat="48.02042" lon="-4.52879">
        <ele>29.076777494651</ele>
        <time>2021-12-26T17:16:01.414Z</time>
      </trkpt>
      <trkpt lat="48.0204" lon="-4.52872">
        <ele>29.797198975188</ele>
        <time>2021-12-26T17:16:05.062Z</time>
      </trkpt>
      <trkpt lat="48.02035" lon="-4.52838">
        <ele>30.537048037794</ele>
        <time>2021-12-26T17:16:08.713Z</time>
      </trkpt>
      <trkpt lat="48.02027" lon="-4.52789">
        <ele>31.368425294587</ele>
        <time>2021-12-26T17:16:12.369Z</time>
      </trkpt>
      <trkpt lat="48.02022" lon="-4.52768">
        <ele>32.121785846571</ele>
        <time>2021-12-26T17:16:16.026Z</time>
      </trkpt>
      <trkpt lat="48.02015" lon="-4.52741">
        <ele>32.8900881829</ele>
        <time>2021-12-26T17:16:19.686Z</time>
      </trkpt>
      <trkpt lat="48.02009" lon="-4.52729">
        <ele>33.634489829018</ele>
        <time>2021-12-26T17:16:23.347Z</time>
      </trkpt>
      <trkpt lat="48.01999" lon="-4.52712">
        <ele>34.338015069461</ele>
        <time>2021-12-26T17:16:27.010Z</time>
      </trkpt>
      <trkpt lat="48.01996" lon="-4.52707">
        <ele>35.052391480881</ele>
        <time>2021-12-26T17:16:30.674Z</time>
      </trkpt>
      <trkpt lat="48.01984" lon="-4.52694">
        <ele>35.806510085538</ele>
        <time>2021-12-26T17:16:34.340Z</time>
      </trkpt>
      <trkpt lat="48.01972" lon="-4.52683">
        <ele>36.529309935591</ele>
        <time>2021-12-26T17:16:38.008Z</time>
      </trkpt>
      <trkpt lat="48.01967" lon="-4.5268">
        <ele>37.222445268215</ele>
        <time>2021-12-26T17:16:41.676Z</time>
      </trkpt>
      <trkpt lat="48.01962" lon="-4.52677">
        <ele>37.913642850366</ele>
        <time>2021-12-26T17:16:45.345Z</time>
      </trkpt>
      <trkpt lat="48.01948" lon="-4.52672">
        <ele>38.606001089406</ele>
        <time>2021-12-26T17:16:49.016Z</time>
      </trkpt>
      <trkpt lat="48.01934" lon="-4.52667">
        <ele>39.294024334124</ele>
        <time>2021-12-26T17:16:52.689Z</time>
      </trkpt>
      <trkpt lat="48.01924" lon="-4.52664">
        <ele>39.995924562016</ele>
        <time>2021-12-26T17:16:56.363Z</time>
      </trkpt>
      <trkpt lat="48.01905" lon="-4.52657">
        <ele>40.700563046027</ele>
        <time>2021-12-26T17:17:00.039Z</time>
      </trkpt>
      <trkpt lat="48.01901" lon="-4.52654">
        <ele>41.41494341368</ele>
        <time>2021-12-26T17:17:03.716Z</time>
      </trkpt>
      <trkpt lat="48.01896" lon="-4.52651">
        <ele>42.146089092938</ele>
        <time>2021-12-26T17:17:07.394Z</time>
      </trkpt>
      <trkpt lat="48.01892" lon="-4.52648">
        <ele>42.889368939744</ele>
        <time>2021-12-26T17:17:11.072Z</time>
      </trkpt>
      <trkpt lat="48.01876" lon="-4.52631">
        <ele>43.695231550407</ele>
        <time>2021-12-26T17:17:14.753Z</time>
      </trkpt>
      <trkpt lat="48.01869" lon="-4.52621">
        <ele>44.463911939943</ele>
        <time>2021-12-26T17:17:18.435Z</time>
      </trkpt>
      <trkpt lat="48.01859" lon="-4.52601">
        <ele>45.272247151815</ele>
        <time>2021-12-26T17:17:22.119Z</time>
      </trkpt>
      <trkpt lat="48.01857" lon="-4.52594">
        <ele>46.056506419854</ele>
        <time>2021-12-26T17:17:25.804Z</time>
      </trkpt>
      <trkpt lat="48.01853" lon="-4.52574">
        <ele>46.890555119359</ele>
        <time>2021-12-26T17:17:29.491Z</time>
      </trkpt>
      <trkpt lat="48.0185" lon="-4.52561">
        <ele>47.717172293831</ele>
        <time>2021-12-26T17:17:33.179Z</time>
      </trkpt>
      <trkpt lat="48.01847" lon="-4.5253">
        <ele>48.597775331732</ele>
        <time>2021-12-26T17:17:36.870Z</time>
      </trkpt>
      <trkpt lat="48.01845" lon="-4.52508">
        <ele>49.457306657341</ele>
        <time>2021-12-26T17:17:40.563Z</time>
      </trkpt>
      <trkpt lat="48.01844" lon="-4.525">
        <ele>50.28504570042</ele>
        <time>2021-12-26T17:17:44.256Z</time>
      </trkpt>
      <trkpt lat="48.01842" lon="-4.52479">
        <ele>51.148283271731</ele>
        <time>2021-12-26T17:17:47.951Z</time>
      </trkpt>
      <trkpt lat="48.01841" lon="-4.52466">
        <ele>51.981218352502</ele>
        <time>2021-12-26T17:17:51.647Z</time>
      </trkpt>
      <trkpt lat="48.01839" lon="-4.52451">
        <ele>52.807074677112</ele>
        <time>2021-12-26T17:17:55.345Z</time>
      </trkpt>
      <trkpt lat="48.01838" lon="-4.52421">
        <ele>53.661438903377</ele>
        <time>2021-12-26T17:17:59.045Z</time>
      </trkpt>
      <trkpt lat="48.01836" lon="-4.524">
        <ele>54.460285140234</ele>
        <time>2021-12-26T17:18:02.747Z</time>
      </trkpt>
      <trkpt lat="48.01834" lon="-4.52378">
        <ele>55.265772919893</ele>
        <time>2021-12-26T17:18:06.451Z</time>
      </trkpt>
      <trkpt lat="48.01831" lon="-4.52355">
        <ele>56.118668272034</ele>
        <time>2021-12-26T17:18:10.157Z</time>
      </trkpt>
      <trkpt lat="48.0183" lon="-4.52348">
        <ele>56.916352217561</ele>
        <time>2021-12-26T17:18:13.864Z</time>
      </trkpt>
      <trkpt lat="48.01827" lon="-4.52333">
        <ele>57.724425551754</ele>
        <time>2021-12-26T17:18:17.572Z</time>
      </trkpt>
      <trkpt lat="48.01827" lon="-4.52326">
        <ele>58.486958159058</ele>
        <time>2021-12-26T17:18:21.281Z</time>
      </trkpt>
      <trkpt lat="48.01826" lon="-4.52318">
        <ele>59.235549398035</ele>
        <time>2021-12-26T17:18:24.990Z</time>
      </trkpt>
      <trkpt lat="48.01822" lon="-4.52282">
        <ele>60.019694473899</ele>
        <time>2021-12-26T17:18:28.702Z</time>
      </trkpt>
      <trkpt lat="48.01821" lon="-4.52267">
        <ele>60.779107127495</ele>
        <time>2021-12-26T17:18:32.416Z</time>
      </trkpt>
      <trkpt lat="48.01819" lon="-4.52247">
        <ele>61.548113427949</ele>
        <time>2021-12-26T17:18:36.131Z</time>
      </trkpt>
      <trkpt lat="48.01817" lon="-4.52233">
        <ele>62.230970827639</ele>
        <time>2021-12-26T17:18:39.848Z</time>
      </trkpt>
      <trkpt lat="48.01815" lon="-4.52212">
        <ele>62.884813137718</ele>
        <time>2021-12-26T17:18:43.566Z</time>
      </trkpt>
      <trkpt lat="48.01815" lon="-4.52205">
        <ele>63.503295117729</ele>
        <time>2021-12-26T17:18:47.285Z</time>
      </trkpt>
      <trkpt lat="48.01814" lon="-4.52199">
        <ele>64.102566569166</ele>
        <time>2021-12-26T17:18:51.005Z</time>
      </trkpt>
      <trkpt lat="48.0181" lon="-4.52166">
        <ele>64.677354792582</ele>
        <time>2021-12-26T17:18:54.728Z</time>
      </trkpt>
      <trkpt lat="48.01809" lon="-4.52151">
        <ele>65.224761684792</ele>
        <time>2021-12-26T17:18:58.452Z</time>
      </trkpt>
      <trkpt lat="48.01806" lon="-4.52124">
        <ele>65.770764932385</ele>
        <time>2021-12-26T17:19:02.178Z</time>
      </trkpt>
      <trkpt lat="48.01805" lon="-4.52117">
        <ele>66.280944883412</ele>
        <time>2021-12-26T17:19:05.905Z</time>
      </trkpt>
      <trkpt lat="48.01802" lon="-4.52089">
        <ele>66.795223678275</ele>
        <time>2021-12-26T17:19:09.634Z</time>
      </trkpt>
      <trkpt lat="48.01795" lon="-4.52024">
        <ele>67.337383092777</ele>
        <time>2021-12-26T17:19:13.369Z</time>
      </trkpt>
      <trkpt lat="48.01794" lon="-4.52009">
        <ele>67.778263626144</ele>
        <time>2021-12-26T17:19:17.105Z</time>
      </trkpt>
      <trkpt lat="48.01787" lon="-4.51968">
        <ele>68.172886396203</ele>
        <time>2021-12-26T17:19:20.845Z</time>
      </trkpt>
      <trkpt lat="48.01785" lon="-4.51956">
        <ele>68.53178177765</ele>
        <time>2021-12-26T17:19:24.586Z</time>
      </trkpt>
      <trkpt lat="48.0178" lon="-4.51933">
        <ele>68.876646016185</ele>
        <time>2021-12-26T17:19:28.329Z</time>
      </trkpt>
      <trkpt lat="48.01778" lon="-4.51927">
        <ele>69.188272813798</ele>
        <time>2021-12-26T17:19:32.073Z</time>
      </trkpt>
      <trkpt lat="48.01762" lon="-4.51876">
        <ele>69.504073417124</ele>
        <time>2021-12-26T17:19:35.822Z</time>
      </trkpt>
      <trkpt lat="48.0176" lon="-4.5187">
        <ele>69.753071630122</ele>
        <time>2021-12-26T17:19:39.571Z</time>
      </trkpt>
      <trkpt lat="48.01757" lon="-4.51859">
        <ele>69.992321151409</ele>
        <time>2021-12-26T17:19:43.321Z</time>
      </trkpt>
      <trkpt lat="48.01749" lon="-4.51842">
        <ele>70.218604211088</ele>
        <time>2021-12-26T17:19:47.073Z</time>
      </trkpt>
      <trkpt lat="48.0174" lon="-4.51825">
        <ele>70.390054178497</ele>
        <time>2021-12-26T17:19:50.827Z</time>
      </trkpt>
      <trkpt lat="48.01737" lon="-4.51819">
        <ele>70.523964591952</ele>
        <time>2021-12-26T17:19:54.581Z</time>
      </trkpt>
      <trkpt lat="48.01726" lon="-4.51802">
        <ele>70.625694537614</ele>
        <time>2021-12-26T17:19:58.338Z</time>
      </trkpt>
      <trkpt lat="48.01706" lon="-4.51774">
        <ele>70.659014528897</ele>
        <time>2021-12-26T17:20:02.098Z</time>
      </trkpt>
      <trkpt lat="48.01702" lon="-4.51768">
        <ele>70.712818339429</ele>
        <time>2021-12-26T17:20:05.859Z</time>
      </trkpt>
      <trkpt lat="48.01698" lon="-4.51762">
        <ele>70.741974364849</ele>
        <time>2021-12-26T17:20:09.621Z</time>
      </trkpt>
      <trkpt lat="48.01665" lon="-4.51705">
        <ele>70.794381912144</ele>
        <time>2021-12-26T17:20:13.389Z</time>
      </trkpt>
      <trkpt lat="48.01659" lon="-4.51693">
        <ele>70.781199936796</ele>
        <time>2021-12-26T17:20:17.158Z</time>
      </trkpt>
      <trkpt lat="48.01645" lon="-4.5167">
        <ele>70.700106822066</ele>
        <time>2021-12-26T17:20:20.930Z</time>
      </trkpt>
      <trkpt lat="48.01639" lon="-4.51659">
        <ele>70.635699429798</ele>
        <time>2021-12-26T17:20:24.703Z</time>
      </trkpt>
      <trkpt lat="48.01634" lon="-4.51648">
        <ele>70.553536677302</ele>
        <time>2021-12-26T17:20:28.477Z</time>
      </trkpt>
      <trkpt lat="48.0163" lon="-4.51643">
        <ele>70.455415466031</ele>
        <time>2021-12-26T17:20:32.252Z</time>
      </trkpt>
      <trkpt lat="48.01627" lon="-4.51638">
        <ele>70.341090992933</ele>
        <time>2021-12-26T17:20:36.028Z</time>
      </trkpt>
      <trkpt lat="48.0161" lon="-4.5161">
        <ele>70.218890652141</ele>
        <time>2021-12-26T17:20:39.807Z</time>
      </trkpt>
      <trkpt lat="48.01607" lon="-4.51604">
        <ele>70.084445044669</ele>
        <time>2021-12-26T17:20:43.587Z</time>
      </trkpt>
      <trkpt lat="48.01604" lon="-4.51598">
        <ele>69.941945700963</ele>
        <time>2021-12-26T17:20:47.367Z</time>
      </trkpt>
      <trkpt lat="48.01597" lon="-4.51585">
        <ele>69.793971320274</ele>
        <time>2021-12-26T17:20:51.149Z</time>
      </trkpt>
      <trkpt lat="48.01593" lon="-4.5157">
        <ele>69.649302120181</ele>
        <time>2021-12-26T17:20:54.932Z</time>
      </trkpt>
      <trkpt lat="48.0159" lon="-4.51562">
        <ele>69.496846169003</ele>
        <time>2021-12-26T17:20:58.716Z</time>
      </trkpt>
      <trkpt lat="48.01588" lon="-4.51553">
        <ele>69.329799158255</ele>
        <time>2021-12-26T17:21:02.501Z</time>
      </trkpt>
      <trkpt lat="48.01586" lon="-4.51544">
        <ele>69.165173691501</ele>
        <time>2021-12-26T17:21:06.287Z</time>
      </trkpt>
      <trkpt lat="48.01578" lon="-4.51506">
        <ele>68.959431093014</ele>
        <time>2021-12-26T17:21:10.076Z</time>
      </trkpt>
      <trkpt lat="48.01576" lon="-4.51495">
        <ele>68.807069669138</ele>
        <time>2021-12-26T17:21:13.866Z</time>
      </trkpt>
      <trkpt lat="48.01572" lon="-4.51451">
        <ele>68.611079743924</ele>
        <time>2021-12-26T17:21:17.660Z</time>
      </trkpt>
      <trkpt lat="48.01572" lon="-4.51428">
        <ele>68.466288631683</ele>
        <time>2021-12-26T17:21:21.456Z</time>
      </trkpt>
      <trkpt lat="48.01574" lon="-4.51393">
        <ele>68.361000985556</ele>
        <time>2021-12-26T17:21:25.255Z</time>
      </trkpt>
      <trkpt lat="48.01574" lon="-4.51369">
        <ele>68.310243196315</ele>
        <time>2021-12-26T17:21:29.056Z</time>
      </trkpt>
      <trkpt lat="48.01575" lon="-4.51345">
        <ele>68.253625289212</ele>
        <time>2021-12-26T17:21:32.859Z</time>
      </trkpt>
      <trkpt lat="48.01576" lon="-4.51321">
        <ele>68.210890425079</ele>
        <time>2021-12-26T17:21:36.664Z</time>
      </trkpt>
      <trkpt lat="48.01577" lon="-4.51299">
        <ele>68.198500345598</ele>
        <time>2021-12-26T17:21:40.471Z</time>
      </trkpt>
      <trkpt lat="48.01578" lon="-4.51288">
        <ele>68.194558192486</ele>
        <time>2021-12-26T17:21:44.279Z</time>
      </trkpt>
      <trkpt lat="48.01581" lon="-4.51266">
        <ele>68.230147981586</ele>
        <time>2021-12-26T17:21:48.089Z</time>
      </trkpt>
      <trkpt lat="48.01582" lon="-4.51256">
        <ele>68.278805707286</ele>
        <time>2021-12-26T17:21:51.900Z</time>
      </trkpt>
      <trkpt lat="48.01583" lon="-4.51246">
        <ele>68.343135030863</ele>
        <time>2021-12-26T17:21:55.712Z</time>
      </trkpt>
      <trkpt lat="48.01584" lon="-4.51236">
        <ele>68.422267536462</ele>
        <time>2021-12-26T17:21:59.524Z</time>
      </trkpt>
      <trkpt lat="48.01586" lon="-4.51207">
        <ele>68.572105257584</ele>
        <time>2021-12-26T17:22:03.339Z</time>
      </trkpt>
      <trkpt lat="48.01586" lon="-4.51198">
        <ele>68.69050906636</ele>
        <time>2021-12-26T17:22:07.155Z</time>
      </trkpt>
      <trkpt lat="48.01586" lon="-4.51178">
        <ele>68.821159654358</ele>
        <time>2021-12-26T17:22:10.973Z</time>
      </trkpt>
      <trkpt lat="48.01584" lon="-4.51158">
        <ele>68.921406562292</ele>
        <time>2021-12-26T17:22:14.792Z</time>
      </trkpt>
      <trkpt lat="48.01583" lon="-4.51148">
        <ele>69.031566997033</ele>
        <time>2021-12-26T17:22:18.612Z</time>
      </trkpt>
      <trkpt lat="48.01582" lon="-4.51138">
        <ele>69.147437665122</ele>
        <time>2021-12-26T17:22:22.433Z</time>
      </trkpt>
      <trkpt lat="48.0158" lon="-4.5111">
        <ele>69.262751266468</ele>
        <time>2021-12-26T17:22:26.257Z</time>
      </trkpt>
      <trkpt lat="48.01577" lon="-4.5108">
        <ele>69.380788867751</ele>
        <time>2021-12-26T17:22:30.083Z</time>
      </trkpt>
      <trkpt lat="48.01567" lon="-4.51005">
        <ele>69.485898000546</ele>
        <time>2021-12-26T17:22:33.916Z</time>
      </trkpt>
      <trkpt lat="48.01566" lon="-4.50996">
        <ele>69.625131605471</ele>
        <time>2021-12-26T17:22:37.750Z</time>
      </trkpt>
      <trkpt lat="48.01563" lon="-4.50979">
        <ele>69.785830684407</ele>
        <time>2021-12-26T17:22:41.585Z</time>
      </trkpt>
      <trkpt lat="48.01559" lon="-4.50949">
        <ele>69.948647245491</ele>
        <time>2021-12-26T17:22:45.423Z</time>
      </trkpt>
      <trkpt lat="48.01557" lon="-4.50935">
        <ele>70.088257687995</ele>
        <time>2021-12-26T17:22:49.262Z</time>
      </trkpt>
      <trkpt lat="48.01554" lon="-4.50905">
        <ele>70.243136252528</ele>
        <time>2021-12-26T17:22:53.104Z</time>
      </trkpt>
      <trkpt lat="48.01552" lon="-4.5089">
        <ele>70.377820429244</ele>
        <time>2021-12-26T17:22:56.947Z</time>
      </trkpt>
      <trkpt lat="48.0155" lon="-4.50881">
        <ele>70.513587144581</ele>
        <time>2021-12-26T17:23:00.791Z</time>
      </trkpt>
      <trkpt lat="48.01549" lon="-4.50874">
        <ele>70.661160013502</ele>
        <time>2021-12-26T17:23:04.635Z</time>
      </trkpt>
      <trkpt lat="48.01547" lon="-4.50866">
        <ele>70.808061142072</ele>
        <time>2021-12-26T17:23:08.480Z</time>
      </trkpt>
      <trkpt lat="48.01547" lon="-4.50864">
        <ele>70.943292784387</ele>
        <time>2021-12-26T17:23:12.325Z</time>
      </trkpt>
      <trkpt lat="48.01547" lon="-4.5086">
        <ele>71.080494864175</ele>
        <time>2021-12-26T17:23:16.171Z</time>
      </trkpt>
      <trkpt lat="48.01545" lon="-4.50846">
        <ele>71.251642618614</ele>
        <time>2021-12-26T17:23:20.018Z</time>
      </trkpt>
      <trkpt lat="48.01544" lon="-4.50839">
        <ele>71.401991957898</ele>
        <time>2021-12-26T17:23:23.865Z</time>
      </trkpt>
      <trkpt lat="48.01544" lon="-4.50835">
        <ele>71.538500574035</ele>
        <time>2021-12-26T17:23:27.713Z</time>
      </trkpt>
      <trkpt lat="48.01544" lon="-4.50831">
        <ele>71.667820358991</ele>
        <time>2021-12-26T17:23:31.561Z</time>
      </trkpt>
      <trkpt lat="48.01543" lon="-4.50823">
        <ele>71.790635532146</ele>
        <time>2021-12-26T17:23:35.410Z</time>
      </trkpt>
      <trkpt lat="48.01543" lon="-4.5082">
        <ele>71.913215837768</ele>
        <time>2021-12-26T17:23:39.259Z</time>
      </trkpt>
      <trkpt lat="48.01541" lon="-4.50806">
        <ele>72.038394918081</ele>
        <time>2021-12-26T17:23:43.109Z</time>
      </trkpt>
      <trkpt lat="48.01541" lon="-4.50785">
        <ele>72.196834757338</ele>
        <time>2021-12-26T17:23:46.961Z</time>
      </trkpt>
      <trkpt lat="48.01541" lon="-4.50769">
        <ele>72.349750673769</ele>
        <time>2021-12-26T17:23:50.815Z</time>
      </trkpt>
      <trkpt lat="48.01543" lon="-4.50714">
        <ele>72.499401893211</ele>
        <time>2021-12-26T17:23:54.673Z</time>
      </trkpt>
      <trkpt lat="48.01542" lon="-4.50706">
        <ele>72.625332968198</ele>
        <time>2021-12-26T17:23:58.532Z</time>
      </trkpt>
      <trkpt lat="48.01542" lon="-4.50638">
        <ele>72.666574619371</ele>
        <time>2021-12-26T17:24:02.397Z</time>
      </trkpt>
      <trkpt lat="48.01543" lon="-4.50595">
        <ele>72.799180940845</ele>
        <time>2021-12-26T17:24:06.266Z</time>
      </trkpt>
      <trkpt lat="48.01543" lon="-4.50583">
        <ele>72.954816078643</ele>
        <time>2021-12-26T17:24:10.136Z</time>
      </trkpt>
      <trkpt lat="48.01543" lon="-4.50572">
        <ele>73.144293404709</ele>
        <time>2021-12-26T17:24:14.007Z</time>
      </trkpt>
      <trkpt lat="48.01543" lon="-4.5055">
        <ele>73.3515867222</ele>
        <time>2021-12-26T17:24:17.879Z</time>
      </trkpt>
      <trkpt lat="48.01546" lon="-4.50518">
        <ele>73.578227448526</ele>
        <time>2021-12-26T17:24:21.754Z</time>
      </trkpt>
      <trkpt lat="48.01547" lon="-4.50507">
        <ele>73.825483399775</ele>
        <time>2021-12-26T17:24:25.630Z</time>
      </trkpt>
      <trkpt lat="48.01549" lon="-4.50487">
        <ele>74.094330036349</ele>
        <time>2021-12-26T17:24:29.508Z</time>
      </trkpt>
      <trkpt lat="48.01559" lon="-4.50411">
        <ele>74.430033169787</ele>
        <time>2021-12-26T17:24:33.393Z</time>
      </trkpt>
      <trkpt lat="48.0156" lon="-4.50401">
        <ele>74.74329139111</ele>
        <time>2021-12-26T17:24:37.279Z</time>
      </trkpt>
      <trkpt lat="48.01565" lon="-4.50363">
        <ele>75.119874729487</ele>
        <time>2021-12-26T17:24:41.168Z</time>
      </trkpt>
      <trkpt lat="48.01567" lon="-4.50345">
        <ele>75.505687191027</ele>
        <time>2021-12-26T17:24:45.059Z</time>
      </trkpt>
      <trkpt lat="48.01571" lon="-4.50319">
        <ele>75.927524104158</ele>
        <time>2021-12-26T17:24:48.952Z</time>
      </trkpt>
      <trkpt lat="48.01573" lon="-4.50302">
        <ele>76.358628362376</ele>
        <time>2021-12-26T17:24:52.846Z</time>
      </trkpt>
      <trkpt lat="48.01574" lon="-4.50294">
        <ele>76.790872403282</ele>
        <time>2021-12-26T17:24:56.741Z</time>
      </trkpt>
      <trkpt lat="48.01578" lon="-4.50261">
        <ele>77.277589810227</ele>
        <time>2021-12-26T17:25:00.639Z</time>
      </trkpt>
      <trkpt lat="48.01581" lon="-4.50236">
        <ele>77.769641653923</ele>
        <time>2021-12-26T17:25:04.539Z</time>
      </trkpt>
      <trkpt lat="48.01585" lon="-4.50204">
        <ele>78.288627322526</ele>
        <time>2021-12-26T17:25:08.442Z</time>
      </trkpt>
      <trkpt lat="48.01588" lon="-4.50172">
        <ele>78.787897397798</ele>
        <time>2021-12-26T17:25:12.348Z</time>
      </trkpt>
      <trkpt lat="48.01591" lon="-4.50148">
        <ele>79.308834047345</ele>
        <time>2021-12-26T17:25:16.256Z</time>
      </trkpt>
      <trkpt lat="48.01594" lon="-4.50109">
        <ele>79.859057072445</ele>
        <time>2021-12-26T17:25:20.167Z</time>
      </trkpt>
      <trkpt lat="48.01593" lon="-4.50084">
        <ele>80.363019754562</ele>
        <time>2021-12-26T17:25:24.080Z</time>
      </trkpt>
      <trkpt lat="48.01594" lon="-4.50067">
        <ele>80.89381529302</ele>
        <time>2021-12-26T17:25:27.995Z</time>
      </trkpt>
      <trkpt lat="48.01594" lon="-4.50058">
        <ele>81.415330944094</ele>
        <time>2021-12-26T17:25:31.911Z</time>
      </trkpt>
      <trkpt lat="48.01595" lon="-4.50032">
        <ele>81.929245967095</ele>
        <time>2021-12-26T17:25:35.829Z</time>
      </trkpt>
      <trkpt lat="48.01594" lon="-4.50023">
        <ele>82.447429598839</ele>
        <time>2021-12-26T17:25:39.748Z</time>
      </trkpt>
      <trkpt lat="48.01594" lon="-4.50005">
        <ele>82.969719516946</ele>
        <time>2021-12-26T17:25:43.668Z</time>
      </trkpt>
      <trkpt lat="48.01592" lon="-4.49969">
        <ele>83.492520590262</ele>
        <time>2021-12-26T17:25:47.591Z</time>
      </trkpt>
      <trkpt lat="48.01589" lon="-4.49942">
        <ele>84.05786990208</ele>
        <time>2021-12-26T17:25:51.517Z</time>
      </trkpt>
      <trkpt lat="48.01587" lon="-4.49916">
        <ele>84.60700241033</ele>
        <time>2021-12-26T17:25:55.445Z</time>
      </trkpt>
      <trkpt lat="48.01584" lon="-4.4989">
        <ele>85.165222631445</ele>
        <time>2021-12-26T17:25:59.375Z</time>
      </trkpt>
      <trkpt lat="48.0158" lon="-4.49866">
        <ele>85.684235769873</ele>
        <time>2021-12-26T17:26:03.307Z</time>
      </trkpt>
      <trkpt lat="48.01573" lon="-4.49826">
        <ele>86.248469908145</ele>
        <time>2021-12-26T17:26:07.243Z</time>
      </trkpt>
      <trkpt lat="48.01568" lon="-4.49792">
        <ele>86.88608301778</ele>
        <time>2021-12-26T17:26:11.182Z</time>
      </trkpt>
      <trkpt lat="48.01565" lon="-4.49766">
        <ele>87.473111172113</ele>
        <time>2021-12-26T17:26:15.123Z</time>
      </trkpt>
      <trkpt lat="48.0156" lon="-4.49715">
        <ele>88.015558463139</ele>
        <time>2021-12-26T17:26:19.069Z</time>
      </trkpt>
      <trkpt lat="48.01552" lon="-4.4963">
        <ele>88.528123395063</ele>
        <time>2021-12-26T17:26:23.022Z</time>
      </trkpt>
      <trkpt lat="48.01551" lon="-4.4962">
        <ele>89.083743550291</ele>
        <time>2021-12-26T17:26:26.976Z</time>
      </trkpt>
      <trkpt lat="48.01544" lon="-4.49543">
        <ele>89.643489035718</ele>
        <time>2021-12-26T17:26:30.937Z</time>
      </trkpt>
      <trkpt lat="48.01542" lon="-4.49524">
        <ele>90.204957876175</ele>
        <time>2021-12-26T17:26:34.900Z</time>
      </trkpt>
      <trkpt lat="48.01536" lon="-4.49456">
        <ele>90.849170789361</ele>
        <time>2021-12-26T17:26:38.869Z</time>
      </trkpt>
      <trkpt lat="48.01535" lon="-4.49446">
        <ele>91.427859493462</ele>
        <time>2021-12-26T17:26:42.838Z</time>
      </trkpt>
      <trkpt lat="48.01527" lon="-4.4936">
        <ele>92.092712003107</ele>
        <time>2021-12-26T17:26:46.815Z</time>
      </trkpt>
      <trkpt lat="48.01526" lon="-4.4935">
        <ele>92.650329022944</ele>
        <time>2021-12-26T17:26:50.793Z</time>
      </trkpt>
      <trkpt lat="48.01519" lon="-4.49285">
        <ele>93.252306258682</ele>
        <time>2021-12-26T17:26:54.776Z</time>
      </trkpt>
      <trkpt lat="48.01516" lon="-4.49248">
        <ele>93.808434273826</ele>
        <time>2021-12-26T17:26:58.763Z</time>
      </trkpt>
      <trkpt lat="48.01513" lon="-4.4922">
        <ele>94.390230659819</ele>
        <time>2021-12-26T17:27:02.752Z</time>
      </trkpt>
      <trkpt lat="48.0151" lon="-4.49185">
        <ele>94.956813846208</ele>
        <time>2021-12-26T17:27:06.744Z</time>
      </trkpt>
      <trkpt lat="48.01509" lon="-4.49176">
        <ele>95.469777705261</ele>
        <time>2021-12-26T17:27:10.737Z</time>
      </trkpt>
      <trkpt lat="48.01507" lon="-4.49158">
        <ele>95.982589564479</ele>
        <time>2021-12-26T17:27:14.732Z</time>
      </trkpt>
      <trkpt lat="48.01506" lon="-4.4915">
        <ele>96.482428210475</ele>
        <time>2021-12-26T17:27:18.727Z</time>
      </trkpt>
      <trkpt lat="48.01496" lon="-4.49079">
        <ele>97.0147047284</ele>
        <time>2021-12-26T17:27:22.729Z</time>
      </trkpt>
      <trkpt lat="48.01495" lon="-4.4907">
        <ele>97.467877279872</ele>
        <time>2021-12-26T17:27:26.731Z</time>
      </trkpt>
      <trkpt lat="48.01487" lon="-4.4901">
        <ele>97.903175864874</ele>
        <time>2021-12-26T17:27:30.739Z</time>
      </trkpt>
      <trkpt lat="48.01483" lon="-4.48984">
        <ele>98.339886658138</ele>
        <time>2021-12-26T17:27:34.749Z</time>
      </trkpt>
      <trkpt lat="48.01473" lon="-4.48914">
        <ele>98.739806248982</ele>
        <time>2021-12-26T17:27:38.765Z</time>
      </trkpt>
      <trkpt lat="48.01472" lon="-4.48905">
        <ele>99.114579635142</ele>
        <time>2021-12-26T17:27:42.782Z</time>
      </trkpt>
      <trkpt lat="48.01468" lon="-4.48878">
        <ele>99.464754555572</ele>
        <time>2021-12-26T17:27:46.801Z</time>
      </trkpt>
      <trkpt lat="48.01464" lon="-4.4885">
        <ele>99.792921262998</ele>
        <time>2021-12-26T17:27:50.823Z</time>
      </trkpt>
      <trkpt lat="48.01458" lon="-4.48814">
        <ele>100.0975749587</ele>
        <time>2021-12-26T17:27:54.848Z</time>
      </trkpt>
      <trkpt lat="48.01457" lon="-4.48805">
        <ele>100.38465630962</ele>
        <time>2021-12-26T17:27:58.874Z</time>
      </trkpt>
      <trkpt lat="48.01452" lon="-4.4877">
        <ele>100.60274960921</ele>
        <time>2021-12-26T17:28:02.903Z</time>
      </trkpt>
      <trkpt lat="48.01446" lon="-4.48723">
        <ele>100.91989320926</ele>
        <time>2021-12-26T17:28:06.936Z</time>
      </trkpt>
      <trkpt lat="48.01443" lon="-4.48703">
        <ele>101.20793209037</ele>
        <time>2021-12-26T17:28:10.971Z</time>
      </trkpt>
      <trkpt lat="48.01439" lon="-4.48673">
        <ele>101.47140945608</ele>
        <time>2021-12-26T17:28:15.009Z</time>
      </trkpt>
      <trkpt lat="48.01433" lon="-4.48632">
        <ele>101.65626572649</ele>
        <time>2021-12-26T17:28:19.050Z</time>
      </trkpt>
      <trkpt lat="48.01428" lon="-4.4857">
        <ele>101.80044878892</ele>
        <time>2021-12-26T17:28:23.097Z</time>
      </trkpt>
      <trkpt lat="48.01426" lon="-4.4855">
        <ele>101.90793275639</ele>
        <time>2021-12-26T17:28:27.145Z</time>
      </trkpt>
      <trkpt lat="48.01425" lon="-4.48539">
        <ele>101.98447779049</ele>
        <time>2021-12-26T17:28:31.194Z</time>
      </trkpt>
      <trkpt lat="48.01417" lon="-4.4851">
        <ele>102.03961666501</ele>
        <time>2021-12-26T17:28:35.246Z</time>
      </trkpt>
      <trkpt lat="48.01411" lon="-4.48491">
        <ele>102.05927289583</ele>
        <time>2021-12-26T17:28:39.300Z</time>
      </trkpt>
      <trkpt lat="48.01395" lon="-4.48441">
        <ele>101.9946302117</ele>
        <time>2021-12-26T17:28:43.359Z</time>
      </trkpt>
      <trkpt lat="48.01386" lon="-4.4841">
        <ele>101.92783651017</ele>
        <time>2021-12-26T17:28:47.421Z</time>
      </trkpt>
      <trkpt lat="48.01375" lon="-4.48365">
        <ele>101.82789946078</ele>
        <time>2021-12-26T17:28:51.487Z</time>
      </trkpt>
      <trkpt lat="48.01357" lon="-4.48283">
        <ele>101.66049331347</ele>
        <time>2021-12-26T17:28:55.560Z</time>
      </trkpt>
      <trkpt lat="48.01343" lon="-4.48208">
        <ele>101.53390111862</ele>
        <time>2021-12-26T17:28:59.640Z</time>
      </trkpt>
      <trkpt lat="48.0134" lon="-4.48182">
        <ele>101.35535170511</ele>
        <time>2021-12-26T17:29:03.722Z</time>
      </trkpt>
      <trkpt lat="48.01333" lon="-4.48101">
        <ele>101.13239067918</ele>
        <time>2021-12-26T17:29:07.811Z</time>
      </trkpt>
      <trkpt lat="48.01331" lon="-4.48074">
        <ele>100.91529894881</ele>
        <time>2021-12-26T17:29:11.903Z</time>
      </trkpt>
      <trkpt lat="48.01321" lon="-4.48009">
        <ele>100.67372106452</ele>
        <time>2021-12-26T17:29:16.000Z</time>
      </trkpt>
      <trkpt lat="48.01302" lon="-4.4792">
        <ele>100.34571399291</ele>
        <time>2021-12-26T17:29:20.106Z</time>
      </trkpt>
      <trkpt lat="48.01285" lon="-4.4783">
        <ele>100.03411036461</ele>
        <time>2021-12-26T17:29:24.220Z</time>
      </trkpt>
      <trkpt lat="48.01282" lon="-4.47804">
        <ele>99.67796280356</ele>
        <time>2021-12-26T17:29:28.336Z</time>
      </trkpt>
      <trkpt lat="48.01274" lon="-4.47722">
        <ele>99.393524007836</ele>
        <time>2021-12-26T17:29:32.459Z</time>
      </trkpt>
      <trkpt lat="48.01272" lon="-4.47694">
        <ele>98.999939685864</ele>
        <time>2021-12-26T17:29:36.584Z</time>
      </trkpt>
      <trkpt lat="48.01272" lon="-4.4768">
        <ele>98.585562830909</ele>
        <time>2021-12-26T17:29:40.711Z</time>
      </trkpt>
      <trkpt lat="48.01271" lon="-4.47651">
        <ele>98.147999677195</ele>
        <time>2021-12-26T17:29:44.840Z</time>
      </trkpt>
      <trkpt lat="48.01268" lon="-4.47607">
        <ele>97.6850715329</ele>
        <time>2021-12-26T17:29:48.973Z</time>
      </trkpt>
      <trkpt lat="48.01267" lon="-4.47592">
        <ele>97.220718417289</ele>
        <time>2021-12-26T17:29:53.107Z</time>
      </trkpt>
      <trkpt lat="48.01255" lon="-4.47501">
        <ele>96.655014792928</ele>
        <time>2021-12-26T17:29:57.249Z</time>
      </trkpt>
      <trkpt lat="48.01249" lon="-4.47471">
        <ele>96.106969284242</ele>
        <time>2021-12-26T17:30:01.394Z</time>
      </trkpt>
      <trkpt lat="48.01244" lon="-4.4744">
        <ele>95.544776565758</ele>
        <time>2021-12-26T17:30:05.542Z</time>
      </trkpt>
      <trkpt lat="48.01232" lon="-4.47378">
        <ele>94.989228600661</ele>
        <time>2021-12-26T17:30:09.695Z</time>
      </trkpt>
      <trkpt lat="48.01229" lon="-4.47362">
        <ele>94.452605043099</ele>
        <time>2021-12-26T17:30:13.850Z</time>
      </trkpt>
      <trkpt lat="48.0122" lon="-4.47316">
        <ele>93.837262948832</ele>
        <time>2021-12-26T17:30:18.009Z</time>
      </trkpt>
      <trkpt lat="48.01218" lon="-4.473">
        <ele>93.265485614811</ele>
        <time>2021-12-26T17:30:22.169Z</time>
      </trkpt>
      <trkpt lat="48.01215" lon="-4.47283">
        <ele>92.68972169587</ele>
        <time>2021-12-26T17:30:26.331Z</time>
      </trkpt>
      <trkpt lat="48.01213" lon="-4.47267">
        <ele>92.118494863039</ele>
        <time>2021-12-26T17:30:30.494Z</time>
      </trkpt>
      <trkpt lat="48.0121" lon="-4.47251">
        <ele>91.536252099571</ele>
        <time>2021-12-26T17:30:34.659Z</time>
      </trkpt>
      <trkpt lat="48.01205" lon="-4.47202">
        <ele>91.017506490312</ele>
        <time>2021-12-26T17:30:38.828Z</time>
      </trkpt>
      <trkpt lat="48.01204" lon="-4.47185">
        <ele>90.464190138304</ele>
        <time>2021-12-26T17:30:42.999Z</time>
      </trkpt>
      <trkpt lat="48.01204" lon="-4.47152">
        <ele>89.881374369092</ele>
        <time>2021-12-26T17:30:47.172Z</time>
      </trkpt>
      <trkpt lat="48.01204" lon="-4.47102">
        <ele>89.218726365275</ele>
        <time>2021-12-26T17:30:51.350Z</time>
      </trkpt>
      <trkpt lat="48.01206" lon="-4.47055">
        <ele>88.648161729437</ele>
        <time>2021-12-26T17:30:55.532Z</time>
      </trkpt>
      <trkpt lat="48.01206" lon="-4.47023">
        <ele>88.150977017098</ele>
        <time>2021-12-26T17:30:59.717Z</time>
      </trkpt>
      <trkpt lat="48.01206" lon="-4.46974">
        <ele>87.656929014249</ele>
        <time>2021-12-26T17:31:03.906Z</time>
      </trkpt>
      <trkpt lat="48.01204" lon="-4.46925">
        <ele>87.068777617651</ele>
        <time>2021-12-26T17:31:08.099Z</time>
      </trkpt>
      <trkpt lat="48.01203" lon="-4.46908">
        <ele>86.523934598946</ele>
        <time>2021-12-26T17:31:12.294Z</time>
      </trkpt>
      <trkpt lat="48.01195" lon="-4.46842">
        <ele>85.925535050513</ele>
        <time>2021-12-26T17:31:16.494Z</time>
      </trkpt>
      <trkpt lat="48.01189" lon="-4.46793">
        <ele>85.314401198546</ele>
        <time>2021-12-26T17:31:20.699Z</time>
      </trkpt>
      <trkpt lat="48.01182" lon="-4.46744">
        <ele>84.741098765908</ele>
        <time>2021-12-26T17:31:24.908Z</time>
      </trkpt>
      <trkpt lat="48.01178" lon="-4.4671">
        <ele>84.218980723967</ele>
        <time>2021-12-26T17:31:29.120Z</time>
      </trkpt>
      <trkpt lat="48.01175" lon="-4.46693">
        <ele>83.700670185669</ele>
        <time>2021-12-26T17:31:33.334Z</time>
      </trkpt>
      <trkpt lat="48.0117" lon="-4.4666">
        <ele>83.122568432081</ele>
        <time>2021-12-26T17:31:37.550Z</time>
      </trkpt>
      <trkpt lat="48.01163" lon="-4.46614">
        <ele>82.564499376216</ele>
        <time>2021-12-26T17:31:41.771Z</time>
      </trkpt>
      <trkpt lat="48.01161" lon="-4.46599">
        <ele>82.070165092916</ele>
        <time>2021-12-26T17:31:45.993Z</time>
      </trkpt>
      <trkpt lat="48.01158" lon="-4.46586">
        <ele>81.578831898459</ele>
        <time>2021-12-26T17:31:50.216Z</time>
      </trkpt>
      <trkpt lat="48.01156" lon="-4.46573">
        <ele>81.094677045793</ele>
        <time>2021-12-26T17:31:54.440Z</time>
      </trkpt>
      <trkpt lat="48.01146" lon="-4.46535">
        <ele>80.644701706851</ele>
        <time>2021-12-26T17:31:58.668Z</time>
      </trkpt>
      <trkpt lat="48.01134" lon="-4.46498">
        <ele>80.141450816279</ele>
        <time>2021-12-26T17:32:02.899Z</time>
      </trkpt>
      <trkpt lat="48.01121" lon="-4.46464">
        <ele>79.584683022118</ele>
        <time>2021-12-26T17:32:07.134Z</time>
      </trkpt>
      <trkpt lat="48.01106" lon="-4.46431">
        <ele>78.974819213662</ele>
        <time>2021-12-26T17:32:11.372Z</time>
      </trkpt>
      <trkpt lat="48.01101" lon="-4.4642">
        <ele>78.38949067382</ele>
        <time>2021-12-26T17:32:15.611Z</time>
      </trkpt>
      <trkpt lat="48.01078" lon="-4.46378">
        <ele>77.770358945318</ele>
        <time>2021-12-26T17:32:19.855Z</time>
      </trkpt>
      <trkpt lat="48.01065" lon="-4.46357">
        <ele>77.126830256214</ele>
        <time>2021-12-26T17:32:24.102Z</time>
      </trkpt>
      <trkpt lat="48.01051" lon="-4.46336">
        <ele>76.513729336397</ele>
        <time>2021-12-26T17:32:28.351Z</time>
      </trkpt>
      <trkpt lat="48.01037" lon="-4.46313">
        <ele>75.875388302454</ele>
        <time>2021-12-26T17:32:32.603Z</time>
      </trkpt>
      <trkpt lat="48.01023" lon="-4.46288">
        <ele>75.211164956167</ele>
        <time>2021-12-26T17:32:36.858Z</time>
      </trkpt>
      <trkpt lat="48.01017" lon="-4.46275">
        <ele>74.546162182045</ele>
        <time>2021-12-26T17:32:41.114Z</time>
      </trkpt>
      <trkpt lat="48.0101" lon="-4.46261">
        <ele>73.87705800605</ele>
        <time>2021-12-26T17:32:45.372Z</time>
      </trkpt>
      <trkpt lat="48.0099" lon="-4.46218">
        <ele>73.151374880814</ele>
        <time>2021-12-26T17:32:49.634Z</time>
      </trkpt>
      <trkpt lat="48.00983" lon="-4.46204">
        <ele>72.498297798072</ele>
        <time>2021-12-26T17:32:53.898Z</time>
      </trkpt>
      <trkpt lat="48.00976" lon="-4.46189">
        <ele>71.861070257053</ele>
        <time>2021-12-26T17:32:58.163Z</time>
      </trkpt>
      <trkpt lat="48.00969" lon="-4.46175">
        <ele>71.225345502187</ele>
        <time>2021-12-26T17:33:02.430Z</time>
      </trkpt>
      <trkpt lat="48.00962" lon="-4.4616">
        <ele>70.599275051487</ele>
        <time>2021-12-26T17:33:06.698Z</time>
      </trkpt>
      <trkpt lat="48.00955" lon="-4.46145">
        <ele>69.97905079734</ele>
        <time>2021-12-26T17:33:10.968Z</time>
      </trkpt>
      <trkpt lat="48.00934" lon="-4.46101">
        <ele>69.339174751739</ele>
        <time>2021-12-26T17:33:15.242Z</time>
      </trkpt>
      <trkpt lat="48.00927" lon="-4.46087">
        <ele>68.764082469392</ele>
        <time>2021-12-26T17:33:19.518Z</time>
      </trkpt>
      <trkpt lat="48.0092" lon="-4.46073">
        <ele>68.215305305086</ele>
        <time>2021-12-26T17:33:23.795Z</time>
      </trkpt>
      <trkpt lat="48.00913" lon="-4.46059">
        <ele>67.689078374293</ele>
        <time>2021-12-26T17:33:28.074Z</time>
      </trkpt>
      <trkpt lat="48.00899" lon="-4.4603">
        <ele>67.214104376691</ele>
        <time>2021-12-26T17:33:32.356Z</time>
      </trkpt>
      <trkpt lat="48.00878" lon="-4.45986">
        <ele>66.679718148808</ele>
        <time>2021-12-26T17:33:36.643Z</time>
      </trkpt>
      <trkpt lat="48.00858" lon="-4.45942">
        <ele>66.147687630695</ele>
        <time>2021-12-26T17:33:40.934Z</time>
      </trkpt>
      <trkpt lat="48.00846" lon="-4.45912">
        <ele>65.726170526403</ele>
        <time>2021-12-26T17:33:45.228Z</time>
      </trkpt>
      <trkpt lat="48.00834" lon="-4.45883">
        <ele>65.354734149488</ele>
        <time>2021-12-26T17:33:49.525Z</time>
      </trkpt>
      <trkpt lat="48.00818" lon="-4.4584">
        <ele>65.014041684537</ele>
        <time>2021-12-26T17:33:53.827Z</time>
      </trkpt>
      <trkpt lat="48.00803" lon="-4.45799">
        <ele>64.714323273127</ele>
        <time>2021-12-26T17:33:58.133Z</time>
      </trkpt>
      <trkpt lat="48.00793" lon="-4.45773">
        <ele>64.446639905953</ele>
        <time>2021-12-26T17:34:02.441Z</time>
      </trkpt>
      <trkpt lat="48.00788" lon="-4.4576">
        <ele>64.208554689981</ele>
        <time>2021-12-26T17:34:06.751Z</time>
      </trkpt>
      <trkpt lat="48.00767" lon="-4.4571">
        <ele>64.079859614029</ele>
        <time>2021-12-26T17:34:11.066Z</time>
      </trkpt>
      <trkpt lat="48.00754" lon="-4.45687">
        <ele>63.954647486423</ele>
        <time>2021-12-26T17:34:15.383Z</time>
      </trkpt>
      <trkpt lat="48.0074" lon="-4.45666">
        <ele>63.861160813378</ele>
        <time>2021-12-26T17:34:19.703Z</time>
      </trkpt>
      <trkpt lat="48.00706" lon="-4.45616">
        <ele>63.763391152072</ele>
        <time>2021-12-26T17:34:24.029Z</time>
      </trkpt>
      <trkpt lat="48.00669" lon="-4.4556">
        <ele>63.715731115026</ele>
        <time>2021-12-26T17:34:28.362Z</time>
      </trkpt>
      <trkpt lat="48.00631" lon="-4.45503">
        <ele>63.569298183423</ele>
        <time>2021-12-26T17:34:32.702Z</time>
      </trkpt>
      <trkpt lat="48.00625" lon="-4.45496">
        <ele>63.546432043643</ele>
        <time>2021-12-26T17:34:37.043Z</time>
      </trkpt>
      <trkpt lat="48.00614" lon="-4.4548">
        <ele>63.565162339173</ele>
        <time>2021-12-26T17:34:41.386Z</time>
      </trkpt>
      <trkpt lat="48.00597" lon="-4.45455">
        <ele>63.667935519187</ele>
        <time>2021-12-26T17:34:45.732Z</time>
      </trkpt>
      <trkpt lat="48.0058" lon="-4.4543">
        <ele>63.820071118314</ele>
        <time>2021-12-26T17:34:50.081Z</time>
      </trkpt>
      <trkpt lat="48.00546" lon="-4.45381">
        <ele>63.999337779061</ele>
        <time>2021-12-26T17:34:54.436Z</time>
      </trkpt>
      <trkpt lat="48.00535" lon="-4.45364">
        <ele>64.190408661158</ele>
        <time>2021-12-26T17:34:58.793Z</time>
      </trkpt>
      <trkpt lat="48.00524" lon="-4.45347">
        <ele>64.412023301155</ele>
        <time>2021-12-26T17:35:03.152Z</time>
      </trkpt>
      <trkpt lat="48.00524" lon="-4.45347">
        <ele>64.908820079761</ele>
        <time>2021-12-26T17:35:07.511Z</time>
      </trkpt>
      <trkpt lat="48.00518" lon="-4.45338">
        <ele>65.209794174577</ele>
        <time>2021-12-26T17:35:11.871Z</time>
      </trkpt>
      <trkpt lat="48.00506" lon="-4.45322">
        <ele>65.519643181358</ele>
        <time>2021-12-26T17:35:16.233Z</time>
      </trkpt>
      <trkpt lat="48.00495" lon="-4.45306">
        <ele>65.868834346623</ele>
        <time>2021-12-26T17:35:20.597Z</time>
      </trkpt>
      <trkpt lat="48.0049" lon="-4.45298">
        <ele>66.252069344398</ele>
        <time>2021-12-26T17:35:24.962Z</time>
      </trkpt>
      <trkpt lat="48.00468" lon="-4.45268">
        <ele>66.644097753471</ele>
        <time>2021-12-26T17:35:29.331Z</time>
      </trkpt>
      <trkpt lat="48.00452" lon="-4.45245">
        <ele>67.077085486371</ele>
        <time>2021-12-26T17:35:33.703Z</time>
      </trkpt>
      <trkpt lat="48.00435" lon="-4.45222">
        <ele>67.561606407873</ele>
        <time>2021-12-26T17:35:38.078Z</time>
      </trkpt>
      <trkpt lat="48.0043" lon="-4.45214">
        <ele>68.040203925805</ele>
        <time>2021-12-26T17:35:42.454Z</time>
      </trkpt>
      <trkpt lat="48.00414" lon="-4.45191">
        <ele>68.524250891946</ele>
        <time>2021-12-26T17:35:46.833Z</time>
      </trkpt>
      <trkpt lat="48.00409" lon="-4.45183">
        <ele>69.042530909227</ele>
        <time>2021-12-26T17:35:51.213Z</time>
      </trkpt>
      <trkpt lat="48.00385" lon="-4.45142">
        <ele>69.627083986699</ele>
        <time>2021-12-26T17:35:55.597Z</time>
      </trkpt>
      <trkpt lat="48.00377" lon="-4.45126">
        <ele>70.19314022709</ele>
        <time>2021-12-26T17:35:59.983Z</time>
      </trkpt>
      <trkpt lat="48.00366" lon="-4.45101">
        <ele>70.764655654244</ele>
        <time>2021-12-26T17:36:04.372Z</time>
      </trkpt>
      <trkpt lat="48.00362" lon="-4.45093">
        <ele>71.347066657256</ele>
        <time>2021-12-26T17:36:08.762Z</time>
      </trkpt>
      <trkpt lat="48.00358" lon="-4.45085">
        <ele>71.941212165144</ele>
        <time>2021-12-26T17:36:13.152Z</time>
      </trkpt>
      <trkpt lat="48.00332" lon="-4.45027">
        <ele>72.594827282321</ele>
        <time>2021-12-26T17:36:17.549Z</time>
      </trkpt>
      <trkpt lat="48.00328" lon="-4.45018">
        <ele>73.217955337092</ele>
        <time>2021-12-26T17:36:21.946Z</time>
      </trkpt>
      <trkpt lat="48.00313" lon="-4.44986">
        <ele>73.859030111818</ele>
        <time>2021-12-26T17:36:26.347Z</time>
      </trkpt>
      <trkpt lat="48.00309" lon="-4.44977">
        <ele>74.478264811777</ele>
        <time>2021-12-26T17:36:30.749Z</time>
      </trkpt>
      <trkpt lat="48.00306" lon="-4.44969">
        <ele>75.105425326464</ele>
        <time>2021-12-26T17:36:35.152Z</time>
      </trkpt>
      <trkpt lat="48.00284" lon="-4.44922">
        <ele>75.775821875664</ele>
        <time>2021-12-26T17:36:39.560Z</time>
      </trkpt>
      <trkpt lat="48.00277" lon="-4.44906">
        <ele>76.391278359041</ele>
        <time>2021-12-26T17:36:43.969Z</time>
      </trkpt>
      <trkpt lat="48.00274" lon="-4.44898">
        <ele>76.979981726327</ele>
        <time>2021-12-26T17:36:48.379Z</time>
      </trkpt>
      <trkpt lat="48.00252" lon="-4.44851">
        <ele>77.557399858188</ele>
        <time>2021-12-26T17:36:52.794Z</time>
      </trkpt>
      <trkpt lat="48.00245" lon="-4.44835">
        <ele>78.104062355478</ele>
        <time>2021-12-26T17:36:57.211Z</time>
      </trkpt>
      <trkpt lat="48.00223" lon="-4.44788">
        <ele>78.648340000786</ele>
        <time>2021-12-26T17:37:01.633Z</time>
      </trkpt>
      <trkpt lat="48.00205" lon="-4.44747">
        <ele>79.288397685449</ele>
        <time>2021-12-26T17:37:06.059Z</time>
      </trkpt>
      <trkpt lat="48.00194" lon="-4.44723">
        <ele>79.80923676016</ele>
        <time>2021-12-26T17:37:10.487Z</time>
      </trkpt>
      <trkpt lat="48.0019" lon="-4.44715">
        <ele>80.254919310451</ele>
        <time>2021-12-26T17:37:14.916Z</time>
      </trkpt>
      <trkpt lat="48.00183" lon="-4.44698">
        <ele>80.646683671053</ele>
        <time>2021-12-26T17:37:19.347Z</time>
      </trkpt>
      <trkpt lat="48.00171" lon="-4.44674">
        <ele>81.034259718821</ele>
        <time>2021-12-26T17:37:23.780Z</time>
      </trkpt>
      <trkpt lat="48.00155" lon="-4.44637">
        <ele>81.370137422757</ele>
        <time>2021-12-26T17:37:28.217Z</time>
      </trkpt>
      <trkpt lat="48.00145" lon="-4.44616">
        <ele>81.660673492079</ele>
        <time>2021-12-26T17:37:32.657Z</time>
      </trkpt>
      <trkpt lat="48.00138" lon="-4.44602">
        <ele>81.864853517747</ele>
        <time>2021-12-26T17:37:37.098Z</time>
      </trkpt>
      <trkpt lat="48.00116" lon="-4.44551">
        <ele>82.018633215589</ele>
        <time>2021-12-26T17:37:41.544Z</time>
      </trkpt>
      <trkpt lat="48.00087" lon="-4.44492">
        <ele>82.098540304256</ele>
        <time>2021-12-26T17:37:45.997Z</time>
      </trkpt>
      <trkpt lat="48.00083" lon="-4.44485">
        <ele>82.117695749763</ele>
        <time>2021-12-26T17:37:50.450Z</time>
      </trkpt>
      <trkpt lat="48.00062" lon="-4.44452">
        <ele>82.08524983894</ele>
        <time>2021-12-26T17:37:54.907Z</time>
      </trkpt>
      <trkpt lat="48.00047" lon="-4.44431">
        <ele>82.000118525538</ele>
        <time>2021-12-26T17:37:59.367Z</time>
      </trkpt>
      <trkpt lat="48.00015" lon="-4.44385">
        <ele>81.884341535572</ele>
        <time>2021-12-26T17:38:03.833Z</time>
      </trkpt>
      <trkpt lat="47.99988" lon="-4.44339">
        <ele>81.691609049692</ele>
        <time>2021-12-26T17:38:08.304Z</time>
      </trkpt>
      <trkpt lat="47.99982" lon="-4.44329">
        <ele>81.4377090004</ele>
        <time>2021-12-26T17:38:12.776Z</time>
      </trkpt>
      <trkpt lat="47.99971" lon="-4.44309">
        <ele>81.082697002423</ele>
        <time>2021-12-26T17:38:17.250Z</time>
      </trkpt>
      <trkpt lat="47.99948" lon="-4.44265">
        <ele>80.649767669813</ele>
        <time>2021-12-26T17:38:21.729Z</time>
      </trkpt>
      <trkpt lat="47.99943" lon="-4.44254">
        <ele>80.260205661286</ele>
        <time>2021-12-26T17:38:26.209Z</time>
      </trkpt>
      <trkpt lat="47.99926" lon="-4.44221">
        <ele>79.821286924312</ele>
        <time>2021-12-26T17:38:30.693Z</time>
      </trkpt>
      <trkpt lat="47.99914" lon="-4.44198">
        <ele>79.332917110437</ele>
        <time>2021-12-26T17:38:35.180Z</time>
      </trkpt>
      <trkpt lat="47.99897" lon="-4.44161">
        <ele>78.8431968057</ele>
        <time>2021-12-26T17:38:39.670Z</time>
      </trkpt>
      <trkpt lat="47.99887" lon="-4.44136">
        <ele>78.33479153268</ele>
        <time>2021-12-26T17:38:44.163Z</time>
      </trkpt>
      <trkpt lat="47.99876" lon="-4.44111">
        <ele>77.803172818026</ele>
        <time>2021-12-26T17:38:48.659Z</time>
      </trkpt>
      <trkpt lat="47.99866" lon="-4.44087">
        <ele>77.307270938255</ele>
        <time>2021-12-26T17:38:53.157Z</time>
      </trkpt>
      <trkpt lat="47.9986" lon="-4.44075">
        <ele>76.780677768891</ele>
        <time>2021-12-26T17:38:57.656Z</time>
      </trkpt>
      <trkpt lat="47.99855" lon="-4.44064">
        <ele>76.268572944245</ele>
        <time>2021-12-26T17:39:02.156Z</time>
      </trkpt>
      <trkpt lat="47.9984" lon="-4.4403">
        <ele>75.77459791451</ele>
        <time>2021-12-26T17:39:06.660Z</time>
      </trkpt>
      <trkpt lat="47.99821" lon="-4.43988">
        <ele>75.228939881107</ele>
        <time>2021-12-26T17:39:11.168Z</time>
      </trkpt>
      <trkpt lat="47.99817" lon="-4.43977">
        <ele>74.737923148809</ele>
        <time>2021-12-26T17:39:15.677Z</time>
      </trkpt>
      <trkpt lat="47.99812" lon="-4.43966">
        <ele>74.241206324056</ele>
        <time>2021-12-26T17:39:20.188Z</time>
      </trkpt>
      <trkpt lat="47.99807" lon="-4.43955">
        <ele>73.755361426257</ele>
        <time>2021-12-26T17:39:24.700Z</time>
      </trkpt>
      <trkpt lat="47.99802" lon="-4.43944">
        <ele>73.28970019596</ele>
        <time>2021-12-26T17:39:29.213Z</time>
      </trkpt>
      <trkpt lat="47.99787" lon="-4.4391">
        <ele>72.846286335805</ele>
        <time>2021-12-26T17:39:33.729Z</time>
      </trkpt>
      <trkpt lat="47.99782" lon="-4.43898">
        <ele>72.437654283224</ele>
        <time>2021-12-26T17:39:38.247Z</time>
      </trkpt>
      <trkpt lat="47.99777" lon="-4.43887">
        <ele>72.081572900331</ele>
        <time>2021-12-26T17:39:42.766Z</time>
      </trkpt>
      <trkpt lat="47.99772" lon="-4.43875">
        <ele>71.759719034903</ele>
        <time>2021-12-26T17:39:47.286Z</time>
      </trkpt>
      <trkpt lat="47.99762" lon="-4.43851">
        <ele>71.459465467635</ele>
        <time>2021-12-26T17:39:51.808Z</time>
      </trkpt>
      <trkpt lat="47.99757" lon="-4.43839">
        <ele>71.168710378213</ele>
        <time>2021-12-26T17:39:56.332Z</time>
      </trkpt>
      <trkpt lat="47.99751" lon="-4.43827">
        <ele>70.940501222729</ele>
        <time>2021-12-26T17:40:00.857Z</time>
      </trkpt>
      <trkpt lat="47.99745" lon="-4.43815">
        <ele>70.738487434873</ele>
        <time>2021-12-26T17:40:05.383Z</time>
      </trkpt>
      <trkpt lat="47.99739" lon="-4.43803">
        <ele>70.557582435437</ele>
        <time>2021-12-26T17:40:09.911Z</time>
      </trkpt>
      <trkpt lat="47.99727" lon="-4.43778">
        <ele>70.425789166445</ele>
        <time>2021-12-26T17:40:14.441Z</time>
      </trkpt>
      <trkpt lat="47.9972" lon="-4.43766">
        <ele>70.33527597833</ele>
        <time>2021-12-26T17:40:18.973Z</time>
      </trkpt>
      <trkpt lat="47.99713" lon="-4.43755">
        <ele>70.310533620298</ele>
        <time>2021-12-26T17:40:23.506Z</time>
      </trkpt>
      <trkpt lat="47.99699" lon="-4.43735">
        <ele>70.306183368123</ele>
        <time>2021-12-26T17:40:28.041Z</time>
      </trkpt>
      <trkpt lat="47.99692" lon="-4.43726">
        <ele>70.347640812936</ele>
        <time>2021-12-26T17:40:32.578Z</time>
      </trkpt>
      <trkpt lat="47.9967" lon="-4.43701">
        <ele>70.457667738417</ele>
        <time>2021-12-26T17:40:37.118Z</time>
      </trkpt>
      <trkpt lat="47.99663" lon="-4.43694">
        <ele>70.572458730219</ele>
        <time>2021-12-26T17:40:41.659Z</time>
      </trkpt>
      <trkpt lat="47.99656" lon="-4.43687">
        <ele>70.717735616341</ele>
        <time>2021-12-26T17:40:46.201Z</time>
      </trkpt>
      <trkpt lat="47.99617" lon="-4.4366">
        <ele>70.871681802183</ele>
        <time>2021-12-26T17:40:50.749Z</time>
      </trkpt>
      <trkpt lat="47.99569" lon="-4.43641">
        <ele>71.017109547166</ele>
        <time>2021-12-26T17:40:55.303Z</time>
      </trkpt>
      <trkpt lat="47.99553" lon="-4.43638">
        <ele>71.257718578192</ele>
        <time>2021-12-26T17:40:59.859Z</time>
      </trkpt>
      <trkpt lat="47.99528" lon="-4.43635">
        <ele>71.532445083677</ele>
        <time>2021-12-26T17:41:04.419Z</time>
      </trkpt>
      <trkpt lat="47.9952" lon="-4.43634">
        <ele>71.798946029217</ele>
        <time>2021-12-26T17:41:08.980Z</time>
      </trkpt>
      <trkpt lat="47.99513" lon="-4.43634">
        <ele>72.081660166688</ele>
        <time>2021-12-26T17:41:13.542Z</time>
      </trkpt>
      <trkpt lat="47.99472" lon="-4.43629">
        <ele>72.470042474689</ele>
        <time>2021-12-26T17:41:18.109Z</time>
      </trkpt>
      <trkpt lat="47.99465" lon="-4.43629">
        <ele>72.76782259566</ele>
        <time>2021-12-26T17:41:22.677Z</time>
      </trkpt>
      <trkpt lat="47.99453" lon="-4.43628">
        <ele>73.061654085248</ele>
        <time>2021-12-26T17:41:27.246Z</time>
      </trkpt>
      <trkpt lat="47.99421" lon="-4.43624">
        <ele>73.33839237519</ele>
        <time>2021-12-26T17:41:31.820Z</time>
      </trkpt>
      <trkpt lat="47.99414" lon="-4.43624">
        <ele>73.626486056385</ele>
        <time>2021-12-26T17:41:36.394Z</time>
      </trkpt>
      <trkpt lat="47.9938" lon="-4.4362">
        <ele>73.91192446828</ele>
        <time>2021-12-26T17:41:40.973Z</time>
      </trkpt>
      <trkpt lat="47.99373" lon="-4.43619">
        <ele>74.202326612119</ele>
        <time>2021-12-26T17:41:45.553Z</time>
      </trkpt>
      <trkpt lat="47.99359" lon="-4.43617">
        <ele>74.482465071006</ele>
        <time>2021-12-26T17:41:50.135Z</time>
      </trkpt>
      <trkpt lat="47.99351" lon="-4.43616">
        <ele>74.736566496796</ele>
        <time>2021-12-26T17:41:54.718Z</time>
      </trkpt>
      <trkpt lat="47.99344" lon="-4.43614">
        <ele>74.979851138369</ele>
        <time>2021-12-26T17:41:59.301Z</time>
      </trkpt>
      <trkpt lat="47.9933" lon="-4.43609">
        <ele>75.224484335676</ele>
        <time>2021-12-26T17:42:03.886Z</time>
      </trkpt>
      <trkpt lat="47.99302" lon="-4.43597">
        <ele>75.42557637998</ele>
        <time>2021-12-26T17:42:08.475Z</time>
      </trkpt>
      <trkpt lat="47.99295" lon="-4.43592">
        <ele>75.615557572376</ele>
        <time>2021-12-26T17:42:13.065Z</time>
      </trkpt>
      <trkpt lat="47.99288" lon="-4.43586">
        <ele>75.771863102778</ele>
        <time>2021-12-26T17:42:17.656Z</time>
      </trkpt>
      <trkpt lat="47.9927" lon="-4.43563">
        <ele>75.880937875312</ele>
        <time>2021-12-26T17:42:22.250Z</time>
      </trkpt>
      <trkpt lat="47.99259" lon="-4.43547">
        <ele>76.021819112767</ele>
        <time>2021-12-26T17:42:26.846Z</time>
      </trkpt>
      <trkpt lat="47.99238" lon="-4.43514">
        <ele>76.151536310566</ele>
        <time>2021-12-26T17:42:31.446Z</time>
      </trkpt>
      <trkpt lat="47.99227" lon="-4.43497">
        <ele>76.196916177593</ele>
        <time>2021-12-26T17:42:36.048Z</time>
      </trkpt>
      <trkpt lat="47.99188" lon="-4.43435">
        <ele>76.188089675517</ele>
        <time>2021-12-26T17:42:40.658Z</time>
      </trkpt>
      <trkpt lat="47.99176" lon="-4.43416">
        <ele>76.168677167765</ele>
        <time>2021-12-26T17:42:45.270Z</time>
      </trkpt>
      <trkpt lat="47.99136" lon="-4.43353">
        <ele>76.116028536686</ele>
        <time>2021-12-26T17:42:49.889Z</time>
      </trkpt>
      <trkpt lat="47.99124" lon="-4.43335">
        <ele>76.024394997361</ele>
        <time>2021-12-26T17:42:54.511Z</time>
      </trkpt>
      <trkpt lat="47.99112" lon="-4.43316">
        <ele>75.907876484521</ele>
        <time>2021-12-26T17:42:59.135Z</time>
      </trkpt>
      <trkpt lat="47.99094" lon="-4.43289">
        <ele>75.753102807118</ele>
        <time>2021-12-26T17:43:03.762Z</time>
      </trkpt>
      <trkpt lat="47.99076" lon="-4.43261">
        <ele>75.596189249077</ele>
        <time>2021-12-26T17:43:08.392Z</time>
      </trkpt>
      <trkpt lat="47.99059" lon="-4.43233">
        <ele>75.427269077966</ele>
        <time>2021-12-26T17:43:13.026Z</time>
      </trkpt>
      <trkpt lat="47.99016" lon="-4.43166">
        <ele>75.229044775134</ele>
        <time>2021-12-26T17:43:17.668Z</time>
      </trkpt>
      <trkpt lat="47.9901" lon="-4.43156">
        <ele>74.994984921435</ele>
        <time>2021-12-26T17:43:22.311Z</time>
      </trkpt>
      <trkpt lat="47.98997" lon="-4.43136">
        <ele>74.75656085775</ele>
        <time>2021-12-26T17:43:26.956Z</time>
      </trkpt>
      <trkpt lat="47.98972" lon="-4.43098">
        <ele>74.492300538195</ele>
        <time>2021-12-26T17:43:31.606Z</time>
      </trkpt>
      <trkpt lat="47.9896" lon="-4.43079">
        <ele>74.210661360121</ele>
        <time>2021-12-26T17:43:36.258Z</time>
      </trkpt>
      <trkpt lat="47.9892" lon="-4.43027">
        <ele>73.885575243128</ele>
        <time>2021-12-26T17:43:40.917Z</time>
      </trkpt>
      <trkpt lat="47.98871" lon="-4.42971">
        <ele>73.509655009118</ele>
        <time>2021-12-26T17:43:45.584Z</time>
      </trkpt>
      <trkpt lat="47.98858" lon="-4.42956">
        <ele>73.144610923114</ele>
        <time>2021-12-26T17:43:50.253Z</time>
      </trkpt>
      <trkpt lat="47.98819" lon="-4.42912">
        <ele>72.72983358028</ele>
        <time>2021-12-26T17:43:54.929Z</time>
      </trkpt>
      <trkpt lat="47.98805" lon="-4.42897">
        <ele>72.396404211744</ele>
        <time>2021-12-26T17:43:59.607Z</time>
      </trkpt>
      <trkpt lat="47.98799" lon="-4.42889">
        <ele>72.062604760347</ele>
        <time>2021-12-26T17:44:04.286Z</time>
      </trkpt>
      <trkpt lat="47.98766" lon="-4.42852">
        <ele>71.767268132392</ele>
        <time>2021-12-26T17:44:08.970Z</time>
      </trkpt>
      <trkpt lat="47.98747" lon="-4.4283">
        <ele>71.433229897919</ele>
        <time>2021-12-26T17:44:13.657Z</time>
      </trkpt>
      <trkpt lat="47.98728" lon="-4.42808">
        <ele>71.099421090852</ele>
        <time>2021-12-26T17:44:18.347Z</time>
      </trkpt>
      <trkpt lat="47.98721" lon="-4.428">
        <ele>70.780040815633</ele>
        <time>2021-12-26T17:44:23.038Z</time>
      </trkpt>
      <trkpt lat="47.98715" lon="-4.42793">
        <ele>70.474247995697</ele>
        <time>2021-12-26T17:44:27.730Z</time>
      </trkpt>
      <trkpt lat="47.98708" lon="-4.42785">
        <ele>70.176470614071</ele>
        <time>2021-12-26T17:44:32.424Z</time>
      </trkpt>
      <trkpt lat="47.98694" lon="-4.4277">
        <ele>69.876143095454</ele>
        <time>2021-12-26T17:44:37.120Z</time>
      </trkpt>
      <trkpt lat="47.98686" lon="-4.42762">
        <ele>69.586376943364</ele>
        <time>2021-12-26T17:44:41.817Z</time>
      </trkpt>
      <trkpt lat="47.98672" lon="-4.42748">
        <ele>69.30822193137</ele>
        <time>2021-12-26T17:44:46.516Z</time>
      </trkpt>
      <trkpt lat="47.98666" lon="-4.42741">
        <ele>69.043077962682</ele>
        <time>2021-12-26T17:44:51.216Z</time>
      </trkpt>
      <trkpt lat="47.98659" lon="-4.42735">
        <ele>68.781679785278</ele>
        <time>2021-12-26T17:44:55.917Z</time>
      </trkpt>
      <trkpt lat="47.98627" lon="-4.42706">
        <ele>68.493159113271</ele>
        <time>2021-12-26T17:45:00.623Z</time>
      </trkpt>
      <trkpt lat="47.98621" lon="-4.427">
        <ele>68.263754238507</ele>
        <time>2021-12-26T17:45:05.330Z</time>
      </trkpt>
      <trkpt lat="47.98597" lon="-4.42678">
        <ele>68.031466613749</ele>
        <time>2021-12-26T17:45:10.041Z</time>
      </trkpt>
      <trkpt lat="47.9859" lon="-4.42673">
        <ele>67.847477435535</ele>
        <time>2021-12-26T17:45:14.753Z</time>
      </trkpt>
      <trkpt lat="47.98584" lon="-4.42668">
        <ele>67.686894420262</ele>
        <time>2021-12-26T17:45:19.466Z</time>
      </trkpt>
      <trkpt lat="47.9855" lon="-4.42648">
        <ele>67.525783337425</ele>
        <time>2021-12-26T17:45:24.183Z</time>
      </trkpt>
      <trkpt lat="47.98544" lon="-4.42643">
        <ele>67.41292390463</ele>
        <time>2021-12-26T17:45:28.901Z</time>
      </trkpt>
      <trkpt lat="47.98537" lon="-4.42629">
        <ele>67.312418395143</ele>
        <time>2021-12-26T17:45:33.621Z</time>
      </trkpt>
      <trkpt lat="47.98536" lon="-4.4262">
        <ele>67.247480084744</ele>
        <time>2021-12-26T17:45:38.341Z</time>
      </trkpt>
      <trkpt lat="47.98537" lon="-4.42612">
        <ele>67.211809633684</ele>
        <time>2021-12-26T17:45:43.062Z</time>
      </trkpt>
      <trkpt lat="47.98539" lon="-4.42603">
        <ele>67.212238939113</ele>
        <time>2021-12-26T17:45:47.784Z</time>
      </trkpt>
      <trkpt lat="47.98543" lon="-4.42584">
        <ele>67.238822516048</ele>
        <time>2021-12-26T17:45:52.508Z</time>
      </trkpt>
      <trkpt lat="47.98545" lon="-4.42574">
        <ele>67.295397103343</ele>
        <time>2021-12-26T17:45:57.233Z</time>
      </trkpt>
      <trkpt lat="47.98549" lon="-4.42553">
        <ele>67.379099841974</ele>
        <time>2021-12-26T17:46:01.959Z</time>
      </trkpt>
      <trkpt lat="47.98551" lon="-4.42541">
        <ele>67.499562138994</ele>
        <time>2021-12-26T17:46:06.686Z</time>
      </trkpt>
      <trkpt lat="47.98553" lon="-4.42518">
        <ele>67.632635460222</ele>
        <time>2021-12-26T17:46:11.415Z</time>
      </trkpt>
      <trkpt lat="47.98553" lon="-4.42481">
        <ele>67.826736002384</ele>
        <time>2021-12-26T17:46:16.148Z</time>
      </trkpt>
      <trkpt lat="47.98553" lon="-4.42468">
        <ele>67.998596161222</ele>
        <time>2021-12-26T17:46:20.882Z</time>
      </trkpt>
      <trkpt lat="47.98553" lon="-4.42455">
        <ele>68.204344587981</ele>
        <time>2021-12-26T17:46:25.617Z</time>
      </trkpt>
      <trkpt lat="47.98553" lon="-4.42428">
        <ele>68.445172924211</ele>
        <time>2021-12-26T17:46:30.354Z</time>
      </trkpt>
      <trkpt lat="47.98553" lon="-4.42415">
        <ele>68.675696807774</ele>
        <time>2021-12-26T17:46:35.092Z</time>
      </trkpt>
      <trkpt lat="47.98553" lon="-4.42401">
        <ele>68.895811834463</ele>
        <time>2021-12-26T17:46:39.832Z</time>
      </trkpt>
      <trkpt lat="47.98553" lon="-4.42387">
        <ele>69.140263571156</ele>
        <time>2021-12-26T17:46:44.573Z</time>
      </trkpt>
      <trkpt lat="47.98552" lon="-4.42308">
        <ele>69.383212782198</ele>
        <time>2021-12-26T17:46:49.321Z</time>
      </trkpt>
      <trkpt lat="47.98552" lon="-4.42283">
        <ele>69.608229672182</ele>
        <time>2021-12-26T17:46:54.071Z</time>
      </trkpt>
      <trkpt lat="47.98553" lon="-4.42223">
        <ele>69.871027459357</ele>
        <time>2021-12-26T17:46:58.826Z</time>
      </trkpt>
      <trkpt lat="47.98552" lon="-4.42175">
        <ele>70.120529998957</ele>
        <time>2021-12-26T17:47:03.585Z</time>
      </trkpt>
      <trkpt lat="47.98551" lon="-4.42138">
        <ele>70.360688966083</ele>
        <time>2021-12-26T17:47:08.347Z</time>
      </trkpt>
      <trkpt lat="47.9855" lon="-4.42103">
        <ele>70.589494425477</ele>
        <time>2021-12-26T17:47:13.113Z</time>
      </trkpt>
      <trkpt lat="47.98551" lon="-4.42069">
        <ele>70.78339679649</ele>
        <time>2021-12-26T17:47:17.881Z</time>
      </trkpt>
      <trkpt lat="47.98553" lon="-4.4203">
        <ele>70.964079656788</ele>
        <time>2021-12-26T17:47:22.653Z</time>
      </trkpt>
      <trkpt lat="47.9855" lon="-4.4198">
        <ele>71.083786556917</ele>
        <time>2021-12-26T17:47:27.429Z</time>
      </trkpt>
      <trkpt lat="47.98548" lon="-4.41921">
        <ele>71.212052339706</ele>
        <time>2021-12-26T17:47:32.210Z</time>
      </trkpt>
      <trkpt lat="47.98547" lon="-4.41873">
        <ele>71.353927655373</ele>
        <time>2021-12-26T17:47:36.995Z</time>
      </trkpt>
      <trkpt lat="47.98547" lon="-4.41824">
        <ele>71.436411466377</ele>
        <time>2021-12-26T17:47:41.785Z</time>
      </trkpt>
      <trkpt lat="47.98545" lon="-4.41761">
        <ele>71.498492573922</ele>
        <time>2021-12-26T17:47:46.580Z</time>
      </trkpt>
      <trkpt lat="47.98544" lon="-4.41698">
        <ele>71.585600665276</ele>
        <time>2021-12-26T17:47:51.381Z</time>
      </trkpt>
      <trkpt lat="47.98543" lon="-4.41647">
        <ele>71.617095678969</ele>
        <time>2021-12-26T17:47:56.186Z</time>
      </trkpt>
      <trkpt lat="47.98543" lon="-4.41621">
        <ele>71.674700993572</ele>
        <time>2021-12-26T17:48:00.993Z</time>
      </trkpt>
      <trkpt lat="47.98543" lon="-4.41596">
        <ele>71.736806565172</ele>
        <time>2021-12-26T17:48:05.803Z</time>
      </trkpt>
      <trkpt lat="47.98543" lon="-4.41583">
        <ele>71.787127144181</ele>
        <time>2021-12-26T17:48:10.614Z</time>
      </trkpt>
      <trkpt lat="47.98542" lon="-4.41508">
        <ele>71.809241167943</ele>
        <time>2021-12-26T17:48:15.431Z</time>
      </trkpt>
      <trkpt lat="47.98541" lon="-4.41472">
        <ele>71.811884869983</ele>
        <time>2021-12-26T17:48:20.251Z</time>
      </trkpt>
      <trkpt lat="47.98541" lon="-4.41399">
        <ele>71.846061952381</ele>
        <time>2021-12-26T17:48:25.078Z</time>
      </trkpt>
      <trkpt lat="47.98541" lon="-4.41361">
        <ele>71.780523114549</ele>
        <time>2021-12-26T17:48:29.908Z</time>
      </trkpt>
      <trkpt lat="47.98541" lon="-4.41337">
        <ele>71.738545666994</ele>
        <time>2021-12-26T17:48:34.740Z</time>
      </trkpt>
      <trkpt lat="47.98541" lon="-4.41286">
        <ele>71.716292433272</ele>
        <time>2021-12-26T17:48:39.576Z</time>
      </trkpt>
      <trkpt lat="47.98541" lon="-4.41273">
        <ele>71.667577023649</ele>
        <time>2021-12-26T17:48:44.413Z</time>
      </trkpt>
      <trkpt lat="47.98541" lon="-4.4126">
        <ele>71.572876800716</ele>
        <time>2021-12-26T17:48:49.252Z</time>
      </trkpt>
      <trkpt lat="47.98541" lon="-4.41234">
        <ele>71.492647102715</ele>
        <time>2021-12-26T17:48:54.093Z</time>
      </trkpt>
      <trkpt lat="47.98541" lon="-4.41193">
        <ele>71.420432391721</ele>
        <time>2021-12-26T17:48:58.937Z</time>
      </trkpt>
      <trkpt lat="47.9854" lon="-4.41138">
        <ele>71.273578741667</ele>
        <time>2021-12-26T17:49:03.786Z</time>
      </trkpt>
      <trkpt lat="47.9854" lon="-4.41124">
        <ele>71.140256713005</ele>
        <time>2021-12-26T17:49:08.636Z</time>
      </trkpt>
      <trkpt lat="47.9854" lon="-4.4111">
        <ele>70.99736439797</ele>
        <time>2021-12-26T17:49:13.488Z</time>
      </trkpt>
      <trkpt lat="47.9854" lon="-4.41096">
        <ele>70.828384552969</ele>
        <time>2021-12-26T17:49:18.341Z</time>
      </trkpt>
      <trkpt lat="47.9854" lon="-4.41011">
        <ele>70.532766842439</ele>
        <time>2021-12-26T17:49:23.201Z</time>
      </trkpt>
      <trkpt lat="47.9854" lon="-4.40927">
        <ele>70.416722501562</ele>
        <time>2021-12-26T17:49:28.068Z</time>
      </trkpt>
      <trkpt lat="47.98539" lon="-4.40887">
        <ele>70.284530101651</ele>
        <time>2021-12-26T17:49:32.939Z</time>
      </trkpt>
      <trkpt lat="47.98538" lon="-4.4081">
        <ele>70.154033994639</ele>
        <time>2021-12-26T17:49:37.817Z</time>
      </trkpt>
      <trkpt lat="47.98535" lon="-4.40785">
        <ele>70.009692162722</ele>
        <time>2021-12-26T17:49:42.697Z</time>
      </trkpt>
      <trkpt lat="47.98521" lon="-4.40726">
        <ele>69.856314969819</ele>
        <time>2021-12-26T17:49:47.582Z</time>
      </trkpt>
      <trkpt lat="47.98506" lon="-4.40685">
        <ele>69.802714984827</ele>
        <time>2021-12-26T17:49:52.471Z</time>
      </trkpt>
      <trkpt lat="47.98495" lon="-4.40657">
        <ele>69.695966614871</ele>
        <time>2021-12-26T17:49:57.363Z</time>
      </trkpt>
      <trkpt lat="47.98487" lon="-4.40639">
        <ele>69.514327204182</ele>
        <time>2021-12-26T17:50:02.257Z</time>
      </trkpt>
      <trkpt lat="47.98479" lon="-4.40619">
        <ele>69.358030507739</ele>
        <time>2021-12-26T17:50:07.153Z</time>
      </trkpt>
      <trkpt lat="47.98471" lon="-4.406">
        <ele>69.19878217487</ele>
        <time>2021-12-26T17:50:12.051Z</time>
      </trkpt>
      <trkpt lat="47.98467" lon="-4.4059">
        <ele>69.02306385397</ele>
        <time>2021-12-26T17:50:16.950Z</time>
      </trkpt>
      <trkpt lat="47.98459" lon="-4.4057">
        <ele>68.825401685934</ele>
        <time>2021-12-26T17:50:21.851Z</time>
      </trkpt>
      <trkpt lat="47.98446" lon="-4.4054">
        <ele>68.59084865894</ele>
        <time>2021-12-26T17:50:26.755Z</time>
      </trkpt>
      <trkpt lat="47.98442" lon="-4.4053">
        <ele>68.368871203404</ele>
        <time>2021-12-26T17:50:31.660Z</time>
      </trkpt>
      <trkpt lat="47.98438" lon="-4.40519">
        <ele>68.13153142048</ele>
        <time>2021-12-26T17:50:36.566Z</time>
      </trkpt>
      <trkpt lat="47.9843" lon="-4.40499">
        <ele>67.877773481996</ele>
        <time>2021-12-26T17:50:41.474Z</time>
      </trkpt>
      <trkpt lat="47.98409" lon="-4.40448">
        <ele>67.641652449226</ele>
        <time>2021-12-26T17:50:46.387Z</time>
      </trkpt>
      <trkpt lat="47.98405" lon="-4.40438">
        <ele>67.36598622345</ele>
        <time>2021-12-26T17:50:51.301Z</time>
      </trkpt>
      <trkpt lat="47.98396" lon="-4.40417">
        <ele>67.043579793762</ele>
        <time>2021-12-26T17:50:56.218Z</time>
      </trkpt>
      <trkpt lat="47.98392" lon="-4.40406">
        <ele>66.720630806683</ele>
        <time>2021-12-26T17:51:01.136Z</time>
      </trkpt>
      <trkpt lat="47.98378" lon="-4.40375">
        <ele>66.383145318491</ele>
        <time>2021-12-26T17:51:06.057Z</time>
      </trkpt>
      <trkpt lat="47.98373" lon="-4.40365">
        <ele>66.00693498589</ele>
        <time>2021-12-26T17:51:10.979Z</time>
      </trkpt>
      <trkpt lat="47.98363" lon="-4.40344">
        <ele>65.591000128672</ele>
        <time>2021-12-26T17:51:15.903Z</time>
      </trkpt>
      <trkpt lat="47.98338" lon="-4.40287">
        <ele>65.063549037724</ele>
        <time>2021-12-26T17:51:20.833Z</time>
      </trkpt>
      <trkpt lat="47.98333" lon="-4.40275">
        <ele>64.631593353463</ele>
        <time>2021-12-26T17:51:25.764Z</time>
      </trkpt>
      <trkpt lat="47.98316" lon="-4.4024">
        <ele>64.150992843551</ele>
        <time>2021-12-26T17:51:30.699Z</time>
      </trkpt>
      <trkpt lat="47.98304" lon="-4.40216">
        <ele>63.680351868466</ele>
        <time>2021-12-26T17:51:35.637Z</time>
      </trkpt>
      <trkpt lat="47.98292" lon="-4.40194">
        <ele>63.190511092</ele>
        <time>2021-12-26T17:51:40.577Z</time>
      </trkpt>
      <trkpt lat="47.98286" lon="-4.40183">
        <ele>62.725396934428</ele>
        <time>2021-12-26T17:51:45.518Z</time>
      </trkpt>
      <trkpt lat="47.98266" lon="-4.4015">
        <ele>62.237451862595</ele>
        <time>2021-12-26T17:51:50.463Z</time>
      </trkpt>
      <trkpt lat="47.98259" lon="-4.40139">
        <ele>61.781345538756</ele>
        <time>2021-12-26T17:51:55.409Z</time>
      </trkpt>
      <trkpt lat="47.98252" lon="-4.40127">
        <ele>61.333402002779</ele>
        <time>2021-12-26T17:52:00.357Z</time>
      </trkpt>
      <trkpt lat="47.98238" lon="-4.40105">
        <ele>60.857401502042</ele>
        <time>2021-12-26T17:52:05.307Z</time>
      </trkpt>
      <trkpt lat="47.98225" lon="-4.40082">
        <ele>60.404509698102</ele>
        <time>2021-12-26T17:52:10.260Z</time>
      </trkpt>
      <trkpt lat="47.98211" lon="-4.40059">
        <ele>59.950741128953</ele>
        <time>2021-12-26T17:52:15.216Z</time>
      </trkpt>
      <trkpt lat="47.98204" lon="-4.40048">
        <ele>59.490919780584</ele>
        <time>2021-12-26T17:52:20.173Z</time>
      </trkpt>
      <trkpt lat="47.98198" lon="-4.40036">
        <ele>59.024544239114</ele>
        <time>2021-12-26T17:52:25.131Z</time>
      </trkpt>
      <trkpt lat="47.98191" lon="-4.40025">
        <ele>58.567421271571</ele>
        <time>2021-12-26T17:52:30.091Z</time>
      </trkpt>
      <trkpt lat="47.98177" lon="-4.40002">
        <ele>58.096955804486</ele>
        <time>2021-12-26T17:52:35.053Z</time>
      </trkpt>
      <trkpt lat="47.98164" lon="-4.3998">
        <ele>57.658039305577</ele>
        <time>2021-12-26T17:52:40.018Z</time>
      </trkpt>
      <trkpt lat="47.98151" lon="-4.39957">
        <ele>57.236954458089</ele>
        <time>2021-12-26T17:52:44.986Z</time>
      </trkpt>
      <trkpt lat="47.98144" lon="-4.39947">
        <ele>56.859775346369</ele>
        <time>2021-12-26T17:52:49.955Z</time>
      </trkpt>
      <trkpt lat="47.98137" lon="-4.39936">
        <ele>56.492238135732</ele>
        <time>2021-12-26T17:52:54.925Z</time>
      </trkpt>
      <trkpt lat="47.98111" lon="-4.39893">
        <ele>56.042512412964</ele>
        <time>2021-12-26T17:52:59.900Z</time>
      </trkpt>
      <trkpt lat="47.98089" lon="-4.39862">
        <ele>55.701681558114</ele>
        <time>2021-12-26T17:53:04.879Z</time>
      </trkpt>
      <trkpt lat="47.98064" lon="-4.39831">
        <ele>55.376252420899</ele>
        <time>2021-12-26T17:53:09.862Z</time>
      </trkpt>
      <trkpt lat="47.98048" lon="-4.39812">
        <ele>55.152583344688</ele>
        <time>2021-12-26T17:53:14.848Z</time>
      </trkpt>
      <trkpt lat="47.98041" lon="-4.39803">
        <ele>54.911521006981</ele>
        <time>2021-12-26T17:53:19.835Z</time>
      </trkpt>
      <trkpt lat="47.98033" lon="-4.39795">
        <ele>54.715179841346</ele>
        <time>2021-12-26T17:53:24.823Z</time>
      </trkpt>
      <trkpt lat="47.98018" lon="-4.39779">
        <ele>54.561446843441</ele>
        <time>2021-12-26T17:53:29.814Z</time>
      </trkpt>
      <trkpt lat="47.97998" lon="-4.39759">
        <ele>54.391326574799</ele>
        <time>2021-12-26T17:53:34.808Z</time>
      </trkpt>
      <trkpt lat="47.97991" lon="-4.39753">
        <ele>54.223064891471</ele>
        <time>2021-12-26T17:53:39.803Z</time>
      </trkpt>
      <trkpt lat="47.97984" lon="-4.39746">
        <ele>54.068227392334</ele>
        <time>2021-12-26T17:53:44.799Z</time>
      </trkpt>
      <trkpt lat="47.97956" lon="-4.3972">
        <ele>53.886295463977</ele>
        <time>2021-12-26T17:53:49.799Z</time>
      </trkpt>
      <trkpt lat="47.9795" lon="-4.39714">
        <ele>53.769430225496</ele>
        <time>2021-12-26T17:53:54.800Z</time>
      </trkpt>
      <trkpt lat="47.97944" lon="-4.39708">
        <ele>53.662705520173</ele>
        <time>2021-12-26T17:53:59.802Z</time>
      </trkpt>
      <trkpt lat="47.97938" lon="-4.39703">
        <ele>53.564327252021</ele>
        <time>2021-12-26T17:54:04.805Z</time>
      </trkpt>
      <trkpt lat="47.97932" lon="-4.39697">
        <ele>53.472592309898</ele>
        <time>2021-12-26T17:54:09.809Z</time>
      </trkpt>
      <trkpt lat="47.97927" lon="-4.39692">
        <ele>53.386074735797</ele>
        <time>2021-12-26T17:54:14.814Z</time>
      </trkpt>
      <trkpt lat="47.97909" lon="-4.39675">
        <ele>53.305250667389</ele>
        <time>2021-12-26T17:54:19.821Z</time>
      </trkpt>
      <trkpt lat="47.97885" lon="-4.39651">
        <ele>53.224577826796</ele>
        <time>2021-12-26T17:54:24.832Z</time>
      </trkpt>
      <trkpt lat="47.97838" lon="-4.39607">
        <ele>53.100615761905</ele>
        <time>2021-12-26T17:54:29.850Z</time>
      </trkpt>
      <trkpt lat="47.97832" lon="-4.39601">
        <ele>53.000949204745</ele>
        <time>2021-12-26T17:54:34.869Z</time>
      </trkpt>
      <trkpt lat="47.97802" lon="-4.39573">
        <ele>52.888573208537</ele>
        <time>2021-12-26T17:54:39.893Z</time>
      </trkpt>
      <trkpt lat="47.97796" lon="-4.39567">
        <ele>52.794444881721</ele>
        <time>2021-12-26T17:54:44.918Z</time>
      </trkpt>
      <trkpt lat="47.97789" lon="-4.39561">
        <ele>52.69357704076</ele>
        <time>2021-12-26T17:54:49.944Z</time>
      </trkpt>
      <trkpt lat="47.97761" lon="-4.39535">
        <ele>52.548423669874</ele>
        <time>2021-12-26T17:54:54.974Z</time>
      </trkpt>
      <trkpt lat="47.9774" lon="-4.39514">
        <ele>52.381971900151</ele>
        <time>2021-12-26T17:55:00.007Z</time>
      </trkpt>
      <trkpt lat="47.97726" lon="-4.39501">
        <ele>52.247606817561</ele>
        <time>2021-12-26T17:55:05.042Z</time>
      </trkpt>
      <trkpt lat="47.97705" lon="-4.3948">
        <ele>52.067457275816</ele>
        <time>2021-12-26T17:55:10.081Z</time>
      </trkpt>
      <trkpt lat="47.97676" lon="-4.39453">
        <ele>51.934585948241</ele>
        <time>2021-12-26T17:55:15.124Z</time>
      </trkpt>
      <trkpt lat="47.97655" lon="-4.39433">
        <ele>51.793271938476</ele>
        <time>2021-12-26T17:55:20.170Z</time>
      </trkpt>
      <trkpt lat="47.97605" lon="-4.39384">
        <ele>51.767265449082</ele>
        <time>2021-12-26T17:55:25.224Z</time>
      </trkpt>
      <trkpt lat="47.97598" lon="-4.39377">
        <ele>51.629891759982</ele>
        <time>2021-12-26T17:55:30.279Z</time>
      </trkpt>
      <trkpt lat="47.97583" lon="-4.39362">
        <ele>51.438434150702</ele>
        <time>2021-12-26T17:55:35.336Z</time>
      </trkpt>
      <trkpt lat="47.97576" lon="-4.39355">
        <ele>51.258626043079</ele>
        <time>2021-12-26T17:55:40.395Z</time>
      </trkpt>
      <trkpt lat="47.97539" lon="-4.39319">
        <ele>51.021443036215</ele>
        <time>2021-12-26T17:55:45.459Z</time>
      </trkpt>
      <trkpt lat="47.97531" lon="-4.39312">
        <ele>50.831478206338</ele>
        <time>2021-12-26T17:55:50.524Z</time>
      </trkpt>
      <trkpt lat="47.9751" lon="-4.3929">
        <ele>50.605018640153</ele>
        <time>2021-12-26T17:55:55.593Z</time>
      </trkpt>
      <trkpt lat="47.97502" lon="-4.39282">
        <ele>50.387577140045</ele>
        <time>2021-12-26T17:56:00.663Z</time>
      </trkpt>
      <trkpt lat="47.9748" lon="-4.39261">
        <ele>50.15349164821</ele>
        <time>2021-12-26T17:56:05.736Z</time>
      </trkpt>
      <trkpt lat="47.97473" lon="-4.39254">
        <ele>49.905506079642</ele>
        <time>2021-12-26T17:56:10.811Z</time>
      </trkpt>
      <trkpt lat="47.97467" lon="-4.39247">
        <ele>49.625290982504</ele>
        <time>2021-12-26T17:56:15.887Z</time>
      </trkpt>
      <trkpt lat="47.97454" lon="-4.39234">
        <ele>49.335946143699</ele>
        <time>2021-12-26T17:56:20.965Z</time>
      </trkpt>
      <trkpt lat="47.97441" lon="-4.39222">
        <ele>49.050893784841</ele>
        <time>2021-12-26T17:56:26.045Z</time>
      </trkpt>
      <trkpt lat="47.97421" lon="-4.39202">
        <ele>48.777251018077</ele>
        <time>2021-12-26T17:56:31.128Z</time>
      </trkpt>
      <trkpt lat="47.97402" lon="-4.39183">
        <ele>48.462338577777</ele>
        <time>2021-12-26T17:56:36.214Z</time>
      </trkpt>
      <trkpt lat="47.97379" lon="-4.3916">
        <ele>48.103035555036</ele>
        <time>2021-12-26T17:56:41.303Z</time>
      </trkpt>
      <trkpt lat="47.97374" lon="-4.39154">
        <ele>47.664461099785</ele>
        <time>2021-12-26T17:56:46.393Z</time>
      </trkpt>
      <trkpt lat="47.97337" lon="-4.39117">
        <ele>47.104963809386</ele>
        <time>2021-12-26T17:56:51.489Z</time>
      </trkpt>
      <trkpt lat="47.97318" lon="-4.39098">
        <ele>46.596030582433</ele>
        <time>2021-12-26T17:56:56.588Z</time>
      </trkpt>
      <trkpt lat="47.97312" lon="-4.39092">
        <ele>46.047196058501</ele>
        <time>2021-12-26T17:57:01.688Z</time>
      </trkpt>
      <trkpt lat="47.97305" lon="-4.39086">
        <ele>45.457562109608</ele>
        <time>2021-12-26T17:57:06.789Z</time>
      </trkpt>
      <trkpt lat="47.97293" lon="-4.39073">
        <ele>44.826628715079</ele>
        <time>2021-12-26T17:57:11.892Z</time>
      </trkpt>
      <trkpt lat="47.97274" lon="-4.39052">
        <ele>44.153251298339</ele>
        <time>2021-12-26T17:57:16.998Z</time>
      </trkpt>
      <trkpt lat="47.97256" lon="-4.39027">
        <ele>43.42926816079</ele>
        <time>2021-12-26T17:57:22.107Z</time>
      </trkpt>
      <trkpt lat="47.9725" lon="-4.39017">
        <ele>42.66644323324</ele>
        <time>2021-12-26T17:57:27.217Z</time>
      </trkpt>
      <trkpt lat="47.97227" lon="-4.38976">
        <ele>41.781714472257</ele>
        <time>2021-12-26T17:57:32.332Z</time>
      </trkpt>
      <trkpt lat="47.97222" lon="-4.38966">
        <ele>40.933578572274</ele>
        <time>2021-12-26T17:57:37.448Z</time>
      </trkpt>
      <trkpt lat="47.97217" lon="-4.38954">
        <ele>40.041319617685</ele>
        <time>2021-12-26T17:57:42.565Z</time>
      </trkpt>
      <trkpt lat="47.97204" lon="-4.38917">
        <ele>39.005572049174</ele>
        <time>2021-12-26T17:57:47.686Z</time>
      </trkpt>
      <trkpt lat="47.97199" lon="-4.38903">
        <ele>38.04751835503</ele>
        <time>2021-12-26T17:57:52.808Z</time>
      </trkpt>
      <trkpt lat="47.97196" lon="-4.38889">
        <ele>37.075820774241</ele>
        <time>2021-12-26T17:57:57.931Z</time>
      </trkpt>
      <trkpt lat="47.97188" lon="-4.38858">
        <ele>36.059724348954</ele>
        <time>2021-12-26T17:58:03.057Z</time>
      </trkpt>
      <trkpt lat="47.97181" lon="-4.38827">
        <ele>35.060612512274</ele>
        <time>2021-12-26T17:58:08.186Z</time>
      </trkpt>
      <trkpt lat="47.97174" lon="-4.38795">
        <ele>34.090161776802</ele>
        <time>2021-12-26T17:58:13.318Z</time>
      </trkpt>
      <trkpt lat="47.97171" lon="-4.38778">
        <ele>33.120105487105</ele>
        <time>2021-12-26T17:58:18.451Z</time>
      </trkpt>
      <trkpt lat="47.97163" lon="-4.38742">
        <ele>32.112988939394</ele>
        <time>2021-12-26T17:58:23.588Z</time>
      </trkpt>
      <trkpt lat="47.97159" lon="-4.38723">
        <ele>31.097262766101</ele>
        <time>2021-12-26T17:58:28.726Z</time>
      </trkpt>
      <trkpt lat="47.97155" lon="-4.38704">
        <ele>30.09310600206</ele>
        <time>2021-12-26T17:58:33.866Z</time>
      </trkpt>
      <trkpt lat="47.97147" lon="-4.38667">
        <ele>29.132565706756</ele>
        <time>2021-12-26T17:58:39.009Z</time>
      </trkpt>
      <trkpt lat="47.97143" lon="-4.38649">
        <ele>28.238608033718</ele>
        <time>2021-12-26T17:58:44.154Z</time>
      </trkpt>
      <trkpt lat="47.9714" lon="-4.38631">
        <ele>27.363561023569</ele>
        <time>2021-12-26T17:58:49.301Z</time>
      </trkpt>
      <trkpt lat="47.97131" lon="-4.38594">
        <ele>26.495890613153</ele>
        <time>2021-12-26T17:58:54.451Z</time>
      </trkpt>
      <trkpt lat="47.97126" lon="-4.38576">
        <ele>25.642794803386</ele>
        <time>2021-12-26T17:58:59.603Z</time>
      </trkpt>
      <trkpt lat="47.97121" lon="-4.38557">
        <ele>24.85531368844</ele>
        <time>2021-12-26T17:59:04.757Z</time>
      </trkpt>
      <trkpt lat="47.97117" lon="-4.38538">
        <ele>24.07482054462</ele>
        <time>2021-12-26T17:59:09.912Z</time>
      </trkpt>
      <trkpt lat="47.97112" lon="-4.3852">
        <ele>23.35554445551</ele>
        <time>2021-12-26T17:59:15.069Z</time>
      </trkpt>
      <trkpt lat="47.97108" lon="-4.38502">
        <ele>22.695183003308</ele>
        <time>2021-12-26T17:59:20.228Z</time>
      </trkpt>
      <trkpt lat="47.97099" lon="-4.38466">
        <ele>22.076278139441</ele>
        <time>2021-12-26T17:59:25.390Z</time>
      </trkpt>
      <trkpt lat="47.97095" lon="-4.38448">
        <ele>21.563596307054</ele>
        <time>2021-12-26T17:59:30.554Z</time>
      </trkpt>
      <trkpt lat="47.97085" lon="-4.38411">
        <ele>21.108095929513</ele>
        <time>2021-12-26T17:59:35.721Z</time>
      </trkpt>
      <trkpt lat="47.97072" lon="-4.38378">
        <ele>20.692332301203</ele>
        <time>2021-12-26T17:59:40.891Z</time>
      </trkpt>
      <trkpt lat="47.97065" lon="-4.38362">
        <ele>20.341743264425</ele>
        <time>2021-12-26T17:59:46.063Z</time>
      </trkpt>
      <trkpt lat="47.97039" lon="-4.38296">
        <ele>20.130811936835</ele>
        <time>2021-12-26T17:59:51.242Z</time>
      </trkpt>
      <trkpt lat="47.97034" lon="-4.38279">
        <ele>20.011937356518</ele>
        <time>2021-12-26T17:59:56.422Z</time>
      </trkpt>
      <trkpt lat="47.97018" lon="-4.38213">
        <ele>20.148418333681</ele>
        <time>2021-12-26T18:00:01.608Z</time>
      </trkpt>
      <trkpt lat="47.97009" lon="-4.38137">
        <ele>20.305870545648</ele>
        <time>2021-12-26T18:00:06.801Z</time>
      </trkpt>
      <trkpt lat="47.97008" lon="-4.38123">
        <ele>20.283343406826</ele>
        <time>2021-12-26T18:00:11.995Z</time>
      </trkpt>
      <trkpt lat="47.97007" lon="-4.38109">
        <ele>20.300817485145</ele>
        <time>2021-12-26T18:00:17.190Z</time>
      </trkpt>
      <trkpt lat="47.97007" lon="-4.38058">
        <ele>20.269182416336</ele>
        <time>2021-12-26T18:00:22.390Z</time>
      </trkpt>
      <trkpt lat="47.97007" lon="-4.38046">
        <ele>20.325645105534</ele>
        <time>2021-12-26T18:00:27.591Z</time>
      </trkpt>
      <trkpt lat="47.97012" lon="-4.37976">
        <ele>20.378643550723</ele>
        <time>2021-12-26T18:00:32.798Z</time>
      </trkpt>
      <trkpt lat="47.97014" lon="-4.37952">
        <ele>20.518344192535</ele>
        <time>2021-12-26T18:00:38.007Z</time>
      </trkpt>
      <trkpt lat="47.97018" lon="-4.37918">
        <ele>20.691259311305</ele>
        <time>2021-12-26T18:00:43.219Z</time>
      </trkpt>
      <trkpt lat="47.9702" lon="-4.37906">
        <ele>20.852087740812</ele>
        <time>2021-12-26T18:00:48.432Z</time>
      </trkpt>
      <trkpt lat="47.97021" lon="-4.37845">
        <ele>21.013407527921</ele>
        <time>2021-12-26T18:00:53.650Z</time>
      </trkpt>
      <trkpt lat="47.9702" lon="-4.37821">
        <ele>21.180997975676</ele>
        <time>2021-12-26T18:00:58.871Z</time>
      </trkpt>
      <trkpt lat="47.97016" lon="-4.37761">
        <ele>21.494494768261</ele>
        <time>2021-12-26T18:01:04.097Z</time>
      </trkpt>
      <trkpt lat="47.97015" lon="-4.37748">
        <ele>21.73423802058</ele>
        <time>2021-12-26T18:01:09.324Z</time>
      </trkpt>
      <trkpt lat="47.97013" lon="-4.37707">
        <ele>21.913629008838</ele>
        <time>2021-12-26T18:01:14.554Z</time>
      </trkpt>
      <trkpt lat="47.97012" lon="-4.37693">
        <ele>22.066653774464</ele>
        <time>2021-12-26T18:01:19.786Z</time>
      </trkpt>
      <trkpt lat="47.97011" lon="-4.37667">
        <ele>22.186449226863</ele>
        <time>2021-12-26T18:01:25.020Z</time>
      </trkpt>
      <trkpt lat="47.9701" lon="-4.37576">
        <ele>22.278847310121</ele>
        <time>2021-12-26T18:01:30.262Z</time>
      </trkpt>
      <trkpt lat="47.9701" lon="-4.37565">
        <ele>22.439869816129</ele>
        <time>2021-12-26T18:01:35.505Z</time>
      </trkpt>
      <trkpt lat="47.9701" lon="-4.37554">
        <ele>22.610519159215</ele>
        <time>2021-12-26T18:01:40.749Z</time>
      </trkpt>
      <trkpt lat="47.97008" lon="-4.37511">
        <ele>22.825393532076</ele>
        <time>2021-12-26T18:01:45.996Z</time>
      </trkpt>
      <trkpt lat="47.97008" lon="-4.3749">
        <ele>23.047974619504</ele>
        <time>2021-12-26T18:01:51.245Z</time>
      </trkpt>
      <trkpt lat="47.97007" lon="-4.37469">
        <ele>23.277801385747</ele>
        <time>2021-12-26T18:01:56.496Z</time>
      </trkpt>
      <trkpt lat="47.97006" lon="-4.37448">
        <ele>23.522554732438</ele>
        <time>2021-12-26T18:02:01.749Z</time>
      </trkpt>
      <trkpt lat="47.97004" lon="-4.37425">
        <ele>23.783505594516</ele>
        <time>2021-12-26T18:02:07.004Z</time>
      </trkpt>
      <trkpt lat="47.97002" lon="-4.37414">
        <ele>24.047879088237</ele>
        <time>2021-12-26T18:02:12.260Z</time>
      </trkpt>
      <trkpt lat="47.96999" lon="-4.37392">
        <ele>24.341078041619</ele>
        <time>2021-12-26T18:02:17.518Z</time>
      </trkpt>
      <trkpt lat="47.96988" lon="-4.37319">
        <ele>24.728728568508</ele>
        <time>2021-12-26T18:02:22.782Z</time>
      </trkpt>
      <trkpt lat="47.96982" lon="-4.37278">
        <ele>25.050748942051</ele>
        <time>2021-12-26T18:02:28.050Z</time>
      </trkpt>
      <trkpt lat="47.96978" lon="-4.37257">
        <ele>25.341797896587</ele>
        <time>2021-12-26T18:02:33.320Z</time>
      </trkpt>
      <trkpt lat="47.9697" lon="-4.37217">
        <ele>25.671588574439</ele>
        <time>2021-12-26T18:02:38.593Z</time>
      </trkpt>
      <trkpt lat="47.96966" lon="-4.37198">
        <ele>25.961379940584</ele>
        <time>2021-12-26T18:02:43.868Z</time>
      </trkpt>
      <trkpt lat="47.96963" lon="-4.37179">
        <ele>26.261664055115</ele>
        <time>2021-12-26T18:02:49.145Z</time>
      </trkpt>
      <trkpt lat="47.96954" lon="-4.37143">
        <ele>26.512503152269</ele>
        <time>2021-12-26T18:02:54.425Z</time>
      </trkpt>
      <trkpt lat="47.9695" lon="-4.37126">
        <ele>26.847840328866</ele>
        <time>2021-12-26T18:02:59.707Z</time>
      </trkpt>
      <trkpt lat="47.96942" lon="-4.37092">
        <ele>27.179764378495</ele>
        <time>2021-12-26T18:03:04.992Z</time>
      </trkpt>
      <trkpt lat="47.9693" lon="-4.3706">
        <ele>27.606620661011</ele>
        <time>2021-12-26T18:03:10.280Z</time>
      </trkpt>
      <trkpt lat="47.96923" lon="-4.37045">
        <ele>28.072186001971</ele>
        <time>2021-12-26T18:03:15.570Z</time>
      </trkpt>
      <trkpt lat="47.96914" lon="-4.37032">
        <ele>28.570928514324</ele>
        <time>2021-12-26T18:03:20.861Z</time>
      </trkpt>
      <trkpt lat="47.96909" lon="-4.37027">
        <ele>29.061986369215</ele>
        <time>2021-12-26T18:03:26.153Z</time>
      </trkpt>
      <trkpt lat="47.969" lon="-4.37018">
        <ele>29.604881031533</ele>
        <time>2021-12-26T18:03:31.447Z</time>
      </trkpt>
      <trkpt lat="47.9689" lon="-4.37012">
        <ele>30.175622154942</ele>
        <time>2021-12-26T18:03:36.742Z</time>
      </trkpt>
      <trkpt lat="47.96885" lon="-4.37009">
        <ele>30.732721111112</ele>
        <time>2021-12-26T18:03:42.038Z</time>
      </trkpt>
      <trkpt lat="47.9688" lon="-4.37007">
        <ele>31.301499765233</ele>
        <time>2021-12-26T18:03:47.334Z</time>
      </trkpt>
      <trkpt lat="47.96865" lon="-4.37002">
        <ele>31.914173985471</ele>
        <time>2021-12-26T18:03:52.632Z</time>
      </trkpt>
      <trkpt lat="47.9686" lon="-4.37002">
        <ele>32.536487764681</ele>
        <time>2021-12-26T18:03:57.931Z</time>
      </trkpt>
      <trkpt lat="47.96854" lon="-4.37001">
        <ele>33.174824843701</ele>
        <time>2021-12-26T18:04:03.231Z</time>
      </trkpt>
      <trkpt lat="47.96843" lon="-4.37001">
        <ele>33.849009992222</ele>
        <time>2021-12-26T18:04:08.532Z</time>
      </trkpt>
      <trkpt lat="47.96838" lon="-4.37001">
        <ele>34.51651361147</ele>
        <time>2021-12-26T18:04:13.834Z</time>
      </trkpt>
      <trkpt lat="47.96821" lon="-4.37">
        <ele>35.223574611671</ele>
        <time>2021-12-26T18:04:19.138Z</time>
      </trkpt>
      <trkpt lat="47.96815" lon="-4.37">
        <ele>35.911907518241</ele>
        <time>2021-12-26T18:04:24.443Z</time>
      </trkpt>
      <trkpt lat="47.9681" lon="-4.37">
        <ele>36.600414875871</ele>
        <time>2021-12-26T18:04:29.748Z</time>
      </trkpt>
      <trkpt lat="47.96805" lon="-4.36999">
        <ele>37.285833218319</ele>
        <time>2021-12-26T18:04:35.054Z</time>
      </trkpt>
      <trkpt lat="47.96789" lon="-4.36997">
        <ele>38.00670351658</ele>
        <time>2021-12-26T18:04:40.362Z</time>
      </trkpt>
      <trkpt lat="47.96769" lon="-4.36992">
        <ele>38.774673408697</ele>
        <time>2021-12-26T18:04:45.673Z</time>
      </trkpt>
      <trkpt lat="47.96764" lon="-4.36991">
        <ele>39.436501836804</ele>
        <time>2021-12-26T18:04:50.984Z</time>
      </trkpt>
      <trkpt lat="47.96745" lon="-4.36982">
        <ele>40.103025815944</ele>
        <time>2021-12-26T18:04:56.298Z</time>
      </trkpt>
      <trkpt lat="47.9673" lon="-4.36976">
        <ele>40.724466673276</ele>
        <time>2021-12-26T18:05:01.614Z</time>
      </trkpt>
      <trkpt lat="47.9672" lon="-4.36971">
        <ele>41.279546623578</ele>
        <time>2021-12-26T18:05:06.931Z</time>
      </trkpt>
      <trkpt lat="47.96706" lon="-4.36964">
        <ele>41.812519040088</ele>
        <time>2021-12-26T18:05:12.250Z</time>
      </trkpt>
      <trkpt lat="47.96691" lon="-4.36957">
        <ele>42.321958124239</ele>
        <time>2021-12-26T18:05:17.571Z</time>
      </trkpt>
      <trkpt lat="47.96668" lon="-4.36947">
        <ele>42.816804431607</ele>
        <time>2021-12-26T18:05:22.895Z</time>
      </trkpt>
      <trkpt lat="47.96653" lon="-4.36942">
        <ele>43.28084011429</ele>
        <time>2021-12-26T18:05:28.221Z</time>
      </trkpt>
      <trkpt lat="47.96633" lon="-4.36936">
        <ele>43.744545552318</ele>
        <time>2021-12-26T18:05:33.550Z</time>
      </trkpt>
      <trkpt lat="47.96624" lon="-4.36934">
        <ele>44.136191828892</ele>
        <time>2021-12-26T18:05:38.880Z</time>
      </trkpt>
      <trkpt lat="47.96614" lon="-4.36931">
        <ele>44.454914668291</ele>
        <time>2021-12-26T18:05:44.211Z</time>
      </trkpt>
      <trkpt lat="47.96589" lon="-4.36925">
        <ele>44.729442740909</ele>
        <time>2021-12-26T18:05:49.546Z</time>
      </trkpt>
      <trkpt lat="47.96584" lon="-4.36924">
        <ele>44.961253158133</ele>
        <time>2021-12-26T18:05:54.881Z</time>
      </trkpt>
      <trkpt lat="47.96574" lon="-4.36921">
        <ele>45.163525180375</ele>
        <time>2021-12-26T18:06:00.218Z</time>
      </trkpt>
      <trkpt lat="47.96549" lon="-4.36919">
        <ele>45.383603230593</ele>
        <time>2021-12-26T18:06:05.558Z</time>
      </trkpt>
      <trkpt lat="47.96534" lon="-4.36918">
        <ele>45.518937757951</ele>
        <time>2021-12-26T18:06:10.900Z</time>
      </trkpt>
      <trkpt lat="47.96529" lon="-4.36918">
        <ele>45.567149145833</ele>
        <time>2021-12-26T18:06:16.242Z</time>
      </trkpt>
      <trkpt lat="47.96514" lon="-4.36918">
        <ele>45.584429049646</ele>
        <time>2021-12-26T18:06:21.586Z</time>
      </trkpt>
      <trkpt lat="47.96482" lon="-4.36919">
        <ele>45.569581558258</ele>
        <time>2021-12-26T18:06:26.935Z</time>
      </trkpt>
      <trkpt lat="47.96471" lon="-4.36919">
        <ele>45.471738203159</ele>
        <time>2021-12-26T18:06:32.285Z</time>
      </trkpt>
      <trkpt lat="47.96431" lon="-4.36919">
        <ele>45.36550307994</ele>
        <time>2021-12-26T18:06:37.640Z</time>
      </trkpt>
      <trkpt lat="47.96393" lon="-4.36919">
        <ele>45.137957416685</ele>
        <time>2021-12-26T18:06:43.000Z</time>
      </trkpt>
      <trkpt lat="47.96379" lon="-4.36919">
        <ele>44.901126408201</ele>
        <time>2021-12-26T18:06:48.362Z</time>
      </trkpt>
      <trkpt lat="47.96372" lon="-4.3692">
        <ele>44.644404786025</ele>
        <time>2021-12-26T18:06:53.725Z</time>
      </trkpt>
      <trkpt lat="47.96348" lon="-4.3692">
        <ele>44.366133024819</ele>
        <time>2021-12-26T18:06:59.091Z</time>
      </trkpt>
      <trkpt lat="47.96324" lon="-4.36918">
        <ele>44.006420220161</ele>
        <time>2021-12-26T18:07:04.460Z</time>
      </trkpt>
      <trkpt lat="47.96306" lon="-4.36915">
        <ele>43.63380160402</ele>
        <time>2021-12-26T18:07:09.831Z</time>
      </trkpt>
      <trkpt lat="47.96287" lon="-4.3691">
        <ele>43.232292524574</ele>
        <time>2021-12-26T18:07:15.205Z</time>
      </trkpt>
      <trkpt lat="47.96278" lon="-4.36906">
        <ele>42.874063664132</ele>
        <time>2021-12-26T18:07:20.580Z</time>
      </trkpt>
      <trkpt lat="47.96268" lon="-4.36902">
        <ele>42.520920893611</ele>
        <time>2021-12-26T18:07:25.956Z</time>
      </trkpt>
      <trkpt lat="47.96258" lon="-4.36897">
        <ele>42.171729511883</ele>
        <time>2021-12-26T18:07:31.334Z</time>
      </trkpt>
      <trkpt lat="47.96248" lon="-4.36891">
        <ele>41.863192576744</ele>
        <time>2021-12-26T18:07:36.713Z</time>
      </trkpt>
      <trkpt lat="47.96227" lon="-4.36878">
        <ele>41.568507392742</ele>
        <time>2021-12-26T18:07:42.095Z</time>
      </trkpt>
      <trkpt lat="47.96217" lon="-4.36871">
        <ele>41.319948416956</ele>
        <time>2021-12-26T18:07:47.478Z</time>
      </trkpt>
      <trkpt lat="47.96207" lon="-4.36863">
        <ele>41.129540544526</ele>
        <time>2021-12-26T18:07:52.863Z</time>
      </trkpt>
      <trkpt lat="47.96197" lon="-4.36855">
        <ele>40.991039592761</ele>
        <time>2021-12-26T18:07:58.249Z</time>
      </trkpt>
      <trkpt lat="47.96177" lon="-4.36838">
        <ele>40.922937939127</ele>
        <time>2021-12-26T18:08:03.638Z</time>
      </trkpt>
      <trkpt lat="47.96166" lon="-4.3683">
        <ele>40.905413284208</ele>
        <time>2021-12-26T18:08:09.029Z</time>
      </trkpt>
      <trkpt lat="47.96138" lon="-4.36806">
        <ele>40.950509065217</ele>
        <time>2021-12-26T18:08:14.424Z</time>
      </trkpt>
      <trkpt lat="47.96129" lon="-4.368">
        <ele>40.993566534974</ele>
        <time>2021-12-26T18:08:19.820Z</time>
      </trkpt>
      <trkpt lat="47.96121" lon="-4.36793">
        <ele>41.077192120669</ele>
        <time>2021-12-26T18:08:25.218Z</time>
      </trkpt>
      <trkpt lat="47.96113" lon="-4.36786">
        <ele>41.210009830215</ele>
        <time>2021-12-26T18:08:30.617Z</time>
      </trkpt>
      <trkpt lat="47.96098" lon="-4.36771">
        <ele>41.400079081487</ele>
        <time>2021-12-26T18:08:36.018Z</time>
      </trkpt>
      <trkpt lat="47.96092" lon="-4.36764">
        <ele>41.630540887839</ele>
        <time>2021-12-26T18:08:41.420Z</time>
      </trkpt>
      <trkpt lat="47.96079" lon="-4.36749">
        <ele>41.92992356317</ele>
        <time>2021-12-26T18:08:46.824Z</time>
      </trkpt>
      <trkpt lat="47.96063" lon="-4.36727">
        <ele>42.279847133025</ele>
        <time>2021-12-26T18:08:52.231Z</time>
      </trkpt>
      <trkpt lat="47.96053" lon="-4.36713">
        <ele>42.639478521718</ele>
        <time>2021-12-26T18:08:57.640Z</time>
      </trkpt>
      <trkpt lat="47.96043" lon="-4.367">
        <ele>43.010266952021</ele>
        <time>2021-12-26T18:09:03.051Z</time>
      </trkpt>
      <trkpt lat="47.96038" lon="-4.36693">
        <ele>43.417511291419</ele>
        <time>2021-12-26T18:09:08.462Z</time>
      </trkpt>
      <trkpt lat="47.96034" lon="-4.36686">
        <ele>43.871313925823</ele>
        <time>2021-12-26T18:09:13.874Z</time>
      </trkpt>
      <trkpt lat="47.96029" lon="-4.36678">
        <ele>44.360382009775</ele>
        <time>2021-12-26T18:09:19.287Z</time>
      </trkpt>
      <trkpt lat="47.96025" lon="-4.36671">
        <ele>44.864858185023</ele>
        <time>2021-12-26T18:09:24.701Z</time>
      </trkpt>
      <trkpt lat="47.9602" lon="-4.36663">
        <ele>45.389442045679</ele>
        <time>2021-12-26T18:09:30.116Z</time>
      </trkpt>
      <trkpt lat="47.96001" lon="-4.36632">
        <ele>46.020583682006</ele>
        <time>2021-12-26T18:09:35.535Z</time>
      </trkpt>
      <trkpt lat="47.95982" lon="-4.36602">
        <ele>46.694838859845</ele>
        <time>2021-12-26T18:09:40.957Z</time>
      </trkpt>
      <trkpt lat="47.95978" lon="-4.36595">
        <ele>47.297807711635</ele>
        <time>2021-12-26T18:09:46.380Z</time>
      </trkpt>
      <trkpt lat="47.95973" lon="-4.36588">
        <ele>47.912592701655</ele>
        <time>2021-12-26T18:09:51.804Z</time>
      </trkpt>
      <trkpt lat="47.95969" lon="-4.3658">
        <ele>48.535380331842</ele>
        <time>2021-12-26T18:09:57.229Z</time>
      </trkpt>
      <trkpt lat="47.95964" lon="-4.36573">
        <ele>49.173042245403</ele>
        <time>2021-12-26T18:10:02.655Z</time>
      </trkpt>
      <trkpt lat="47.95954" lon="-4.36559">
        <ele>49.838706847519</ele>
        <time>2021-12-26T18:10:08.082Z</time>
      </trkpt>
      <trkpt lat="47.9594" lon="-4.36539">
        <ele>50.499452271826</ele>
        <time>2021-12-26T18:10:13.512Z</time>
      </trkpt>
      <trkpt lat="47.95914" lon="-4.36506">
        <ele>51.150877155664</ele>
        <time>2021-12-26T18:10:18.946Z</time>
      </trkpt>
      <trkpt lat="47.95903" lon="-4.36493">
        <ele>51.777970315696</ele>
        <time>2021-12-26T18:10:24.382Z</time>
      </trkpt>
      <trkpt lat="47.95862" lon="-4.36438">
        <ele>52.360513527278</ele>
        <time>2021-12-26T18:10:29.825Z</time>
      </trkpt>
      <trkpt lat="47.95851" lon="-4.36424">
        <ele>52.94421684195</ele>
        <time>2021-12-26T18:10:35.270Z</time>
      </trkpt>
      <trkpt lat="47.95807" lon="-4.36368">
        <ele>53.486390817857</ele>
        <time>2021-12-26T18:10:40.723Z</time>
      </trkpt>
      <trkpt lat="47.95762" lon="-4.36313">
        <ele>54.010052902973</ele>
        <time>2021-12-26T18:10:46.183Z</time>
      </trkpt>
      <trkpt lat="47.95756" lon="-4.36306">
        <ele>54.517462087246</ele>
        <time>2021-12-26T18:10:51.644Z</time>
      </trkpt>
      <trkpt lat="47.95717" lon="-4.36259">
        <ele>55.011794219334</ele>
        <time>2021-12-26T18:10:57.111Z</time>
      </trkpt>
      <trkpt lat="47.95711" lon="-4.36253">
        <ele>55.481421819807</ele>
        <time>2021-12-26T18:11:02.579Z</time>
      </trkpt>
      <trkpt lat="47.957" lon="-4.36242">
        <ele>55.924680810794</ele>
        <time>2021-12-26T18:11:08.049Z</time>
      </trkpt>
      <trkpt lat="47.9569" lon="-4.36228">
        <ele>56.321766987677</ele>
        <time>2021-12-26T18:11:13.521Z</time>
      </trkpt>
      <trkpt lat="47.95685" lon="-4.36221">
        <ele>56.690712881671</ele>
        <time>2021-12-26T18:11:18.994Z</time>
      </trkpt>
      <trkpt lat="47.95675" lon="-4.36207">
        <ele>57.049515149885</ele>
        <time>2021-12-26T18:11:24.469Z</time>
      </trkpt>
      <trkpt lat="47.95654" lon="-4.36181">
        <ele>57.346176877841</ele>
        <time>2021-12-26T18:11:29.947Z</time>
      </trkpt>
      <trkpt lat="47.95643" lon="-4.36168">
        <ele>57.615816533748</ele>
        <time>2021-12-26T18:11:35.427Z</time>
      </trkpt>
      <trkpt lat="47.95627" lon="-4.3615">
        <ele>57.898435036266</ele>
        <time>2021-12-26T18:11:40.909Z</time>
      </trkpt>
      <trkpt lat="47.95602" lon="-4.36122">
        <ele>58.1586955946</ele>
        <time>2021-12-26T18:11:46.396Z</time>
      </trkpt>
      <trkpt lat="47.95584" lon="-4.361">
        <ele>58.3985839243</ele>
        <time>2021-12-26T18:11:51.886Z</time>
      </trkpt>
      <trkpt lat="47.95566" lon="-4.36079">
        <ele>58.547701446724</ele>
        <time>2021-12-26T18:11:57.378Z</time>
      </trkpt>
      <trkpt lat="47.95554" lon="-4.36063">
        <ele>58.652038867448</ele>
        <time>2021-12-26T18:12:02.873Z</time>
      </trkpt>
      <trkpt lat="47.95551" lon="-4.36058">
        <ele>58.763818102017</ele>
        <time>2021-12-26T18:12:08.368Z</time>
      </trkpt>
      <trkpt lat="47.95547" lon="-4.36054">
        <ele>58.848686601172</ele>
        <time>2021-12-26T18:12:13.864Z</time>
      </trkpt>
      <trkpt lat="47.95543" lon="-4.3605">
        <ele>58.901824002325</ele>
        <time>2021-12-26T18:12:19.360Z</time>
      </trkpt>
      <trkpt lat="47.95537" lon="-4.36042">
        <ele>58.91860783141</ele>
        <time>2021-12-26T18:12:24.857Z</time>
      </trkpt>
      <trkpt lat="47.95534" lon="-4.36039">
        <ele>58.923831958502</ele>
        <time>2021-12-26T18:12:30.355Z</time>
      </trkpt>
      <trkpt lat="47.95529" lon="-4.36034">
        <ele>58.906067654666</ele>
        <time>2021-12-26T18:12:35.854Z</time>
      </trkpt>
      <trkpt lat="47.95526" lon="-4.36032">
        <ele>58.875783958065</ele>
        <time>2021-12-26T18:12:41.353Z</time>
      </trkpt>
      <trkpt lat="47.9552" lon="-4.36025">
        <ele>58.831309672447</ele>
        <time>2021-12-26T18:12:46.853Z</time>
      </trkpt>
      <trkpt lat="47.95514" lon="-4.3602">
        <ele>58.766385095038</ele>
        <time>2021-12-26T18:12:52.354Z</time>
      </trkpt>
      <trkpt lat="47.95511" lon="-4.36018">
        <ele>58.677603004203</ele>
        <time>2021-12-26T18:12:57.855Z</time>
      </trkpt>
      <trkpt lat="47.95511" lon="-4.36018">
        <ele>58.566964283553</ele>
        <time>2021-12-26T18:13:03.356Z</time>
      </trkpt>
      <trkpt lat="47.95505" lon="-4.36012">
        <ele>58.44808133964</ele>
        <time>2021-12-26T18:13:08.858Z</time>
      </trkpt>
      <trkpt lat="47.95503" lon="-4.36011">
        <ele>58.305604833152</ele>
        <time>2021-12-26T18:13:14.361Z</time>
      </trkpt>
      <trkpt lat="47.95501" lon="-4.3601">
        <ele>58.147950565547</ele>
        <time>2021-12-26T18:13:19.864Z</time>
      </trkpt>
      <trkpt lat="47.95499" lon="-4.36008">
        <ele>57.976291825293</ele>
        <time>2021-12-26T18:13:25.367Z</time>
      </trkpt>
      <trkpt lat="47.95493" lon="-4.36004">
        <ele>57.796519578612</ele>
        <time>2021-12-26T18:13:30.871Z</time>
      </trkpt>
      <trkpt lat="47.95486" lon="-4.35999">
        <ele>57.60484091747</ele>
        <time>2021-12-26T18:13:36.376Z</time>
      </trkpt>
      <trkpt lat="47.95479" lon="-4.35994">
        <ele>57.40380640275</ele>
        <time>2021-12-26T18:13:41.882Z</time>
      </trkpt>
      <trkpt lat="47.95466" lon="-4.3599">
        <ele>57.200022096288</ele>
        <time>2021-12-26T18:13:47.390Z</time>
      </trkpt>
      <trkpt lat="47.9545" lon="-4.35985">
        <ele>56.939310527006</ele>
        <time>2021-12-26T18:13:52.900Z</time>
      </trkpt>
      <trkpt lat="47.95435" lon="-4.35981">
        <ele>56.675486400614</ele>
        <time>2021-12-26T18:13:58.412Z</time>
      </trkpt>
      <trkpt lat="47.95412" lon="-4.3597">
        <ele>56.39653483271</ele>
        <time>2021-12-26T18:14:03.927Z</time>
      </trkpt>
      <trkpt lat="47.95407" lon="-4.35967">
        <ele>56.12901979238</ele>
        <time>2021-12-26T18:14:09.443Z</time>
      </trkpt>
      <trkpt lat="47.9539" lon="-4.35954">
        <ele>55.844421711013</ele>
        <time>2021-12-26T18:14:14.961Z</time>
      </trkpt>
      <trkpt lat="47.95373" lon="-4.35943">
        <ele>55.567757753824</ele>
        <time>2021-12-26T18:14:20.482Z</time>
      </trkpt>
      <trkpt lat="47.95366" lon="-4.35939">
        <ele>55.312625635713</ele>
        <time>2021-12-26T18:14:26.003Z</time>
      </trkpt>
      <trkpt lat="47.95328" lon="-4.35913">
        <ele>55.039739870059</ele>
        <time>2021-12-26T18:14:31.530Z</time>
      </trkpt>
      <trkpt lat="47.95321" lon="-4.35907">
        <ele>54.802924952709</ele>
        <time>2021-12-26T18:14:37.058Z</time>
      </trkpt>
      <trkpt lat="47.95309" lon="-4.35894">
        <ele>54.569464829779</ele>
        <time>2021-12-26T18:14:42.588Z</time>
      </trkpt>
      <trkpt lat="47.95303" lon="-4.35887">
        <ele>54.347507830275</ele>
        <time>2021-12-26T18:14:48.119Z</time>
      </trkpt>
      <trkpt lat="47.95291" lon="-4.35871">
        <ele>54.127937684702</ele>
        <time>2021-12-26T18:14:53.652Z</time>
      </trkpt>
      <trkpt lat="47.9528" lon="-4.35855">
        <ele>53.905530827029</ele>
        <time>2021-12-26T18:14:59.187Z</time>
      </trkpt>
      <trkpt lat="47.95275" lon="-4.35847">
        <ele>53.702994451311</ele>
        <time>2021-12-26T18:15:04.723Z</time>
      </trkpt>
      <trkpt lat="47.95269" lon="-4.35839">
        <ele>53.5159187049</ele>
        <time>2021-12-26T18:15:10.260Z</time>
      </trkpt>
      <trkpt lat="47.95246" lon="-4.35803">
        <ele>53.295470792714</ele>
        <time>2021-12-26T18:15:15.801Z</time>
      </trkpt>
      <trkpt lat="47.9524" lon="-4.35794">
        <ele>53.172988709124</ele>
        <time>2021-12-26T18:15:21.343Z</time>
      </trkpt>
      <trkpt lat="47.95221" lon="-4.35766">
        <ele>53.079022260552</ele>
        <time>2021-12-26T18:15:26.889Z</time>
      </trkpt>
      <trkpt lat="47.95215" lon="-4.35757">
        <ele>53.003953196385</ele>
        <time>2021-12-26T18:15:32.436Z</time>
      </trkpt>
      <trkpt lat="47.95197" lon="-4.3573">
        <ele>52.955045564818</ele>
        <time>2021-12-26T18:15:37.986Z</time>
      </trkpt>
      <trkpt lat="47.95191" lon="-4.35722">
        <ele>52.915774253018</ele>
        <time>2021-12-26T18:15:43.537Z</time>
      </trkpt>
      <trkpt lat="47.95186" lon="-4.35713">
        <ele>52.880726289878</ele>
        <time>2021-12-26T18:15:49.089Z</time>
      </trkpt>
      <trkpt lat="47.95147" lon="-4.35657">
        <ele>52.855265470138</ele>
        <time>2021-12-26T18:15:54.648Z</time>
      </trkpt>
      <trkpt lat="47.95137" lon="-4.35642">
        <ele>52.784622532188</ele>
        <time>2021-12-26T18:16:00.209Z</time>
      </trkpt>
      <trkpt lat="47.9511" lon="-4.35606">
        <ele>52.768831877307</ele>
        <time>2021-12-26T18:16:05.775Z</time>
      </trkpt>
      <trkpt lat="47.951" lon="-4.3559">
        <ele>52.770002883519</ele>
        <time>2021-12-26T18:16:11.343Z</time>
      </trkpt>
      <trkpt lat="47.95089" lon="-4.35575">
        <ele>52.738945194084</ele>
        <time>2021-12-26T18:16:16.912Z</time>
      </trkpt>
      <trkpt lat="47.95084" lon="-4.35567">
        <ele>52.678953301475</ele>
        <time>2021-12-26T18:16:22.482Z</time>
      </trkpt>
      <trkpt lat="47.95074" lon="-4.35552">
        <ele>52.636373417016</ele>
        <time>2021-12-26T18:16:28.054Z</time>
      </trkpt>
      <trkpt lat="47.95064" lon="-4.35537">
        <ele>52.578704546991</ele>
        <time>2021-12-26T18:16:33.628Z</time>
      </trkpt>
      <trkpt lat="47.95048" lon="-4.35514">
        <ele>52.487105771969</ele>
        <time>2021-12-26T18:16:39.205Z</time>
      </trkpt>
      <trkpt lat="47.95023" lon="-4.35478">
        <ele>52.408013870545</ele>
        <time>2021-12-26T18:16:44.786Z</time>
      </trkpt>
      <trkpt lat="47.95017" lon="-4.35471">
        <ele>52.278879071597</ele>
        <time>2021-12-26T18:16:50.368Z</time>
      </trkpt>
      <trkpt lat="47.95012" lon="-4.35464">
        <ele>52.12703118541</ele>
        <time>2021-12-26T18:16:55.951Z</time>
      </trkpt>
      <trkpt lat="47.94974" lon="-4.35409">
        <ele>51.89996590818</ele>
        <time>2021-12-26T18:17:01.541Z</time>
      </trkpt>
      <trkpt lat="47.94963" lon="-4.35399">
        <ele>51.683235627552</ele>
        <time>2021-12-26T18:17:07.133Z</time>
      </trkpt>
      <trkpt lat="47.94958" lon="-4.35393">
        <ele>51.445869971989</ele>
        <time>2021-12-26T18:17:12.726Z</time>
      </trkpt>
      <trkpt lat="47.94954" lon="-4.35385">
        <ele>51.174782144926</ele>
        <time>2021-12-26T18:17:18.319Z</time>
      </trkpt>
      <trkpt lat="47.94951" lon="-4.35376">
        <ele>50.873401539165</ele>
        <time>2021-12-26T18:17:23.913Z</time>
      </trkpt>
      <trkpt lat="47.94947" lon="-4.35367">
        <ele>50.543938652542</ele>
        <time>2021-12-26T18:17:29.508Z</time>
      </trkpt>
      <trkpt lat="47.94937" lon="-4.35351">
        <ele>50.207543482999</ele>
        <time>2021-12-26T18:17:35.105Z</time>
      </trkpt>
      <trkpt lat="47.94925" lon="-4.35335">
        <ele>49.809995338216</ele>
        <time>2021-12-26T18:17:40.704Z</time>
      </trkpt>
      <trkpt lat="47.94898" lon="-4.35305">
        <ele>49.361930211725</ele>
        <time>2021-12-26T18:17:46.308Z</time>
      </trkpt>
      <trkpt lat="47.94883" lon="-4.3529">
        <ele>48.925713354364</ele>
        <time>2021-12-26T18:17:51.914Z</time>
      </trkpt>
      <trkpt lat="47.94852" lon="-4.35257">
        <ele>48.451509074086</ele>
        <time>2021-12-26T18:17:57.525Z</time>
      </trkpt>
      <trkpt lat="47.94844" lon="-4.35249">
        <ele>47.970984938361</ele>
        <time>2021-12-26T18:18:03.137Z</time>
      </trkpt>
      <trkpt lat="47.94828" lon="-4.35232">
        <ele>47.484042708895</ele>
        <time>2021-12-26T18:18:08.752Z</time>
      </trkpt>
      <trkpt lat="47.9482" lon="-4.35224">
        <ele>46.961216528015</ele>
        <time>2021-12-26T18:18:14.368Z</time>
      </trkpt>
      <trkpt lat="47.94812" lon="-4.35215">
        <ele>46.430228490076</ele>
        <time>2021-12-26T18:18:19.985Z</time>
      </trkpt>
      <trkpt lat="47.94788" lon="-4.3519">
        <ele>45.863984159535</ele>
        <time>2021-12-26T18:18:25.606Z</time>
      </trkpt>
      <trkpt lat="47.94772" lon="-4.35174">
        <ele>45.304563855331</ele>
        <time>2021-12-26T18:18:31.229Z</time>
      </trkpt>
      <trkpt lat="47.9474" lon="-4.35142">
        <ele>44.718094721908</ele>
        <time>2021-12-26T18:18:36.858Z</time>
      </trkpt>
      <trkpt lat="47.94716" lon="-4.35117">
        <ele>44.120379685512</ele>
        <time>2021-12-26T18:18:42.490Z</time>
      </trkpt>
      <trkpt lat="47.94692" lon="-4.35094">
        <ele>43.508509797209</ele>
        <time>2021-12-26T18:18:48.126Z</time>
      </trkpt>
      <trkpt lat="47.94659" lon="-4.35062">
        <ele>42.918718280191</ele>
        <time>2021-12-26T18:18:53.767Z</time>
      </trkpt>
      <trkpt lat="47.9465" lon="-4.35053">
        <ele>42.316338307473</ele>
        <time>2021-12-26T18:18:59.409Z</time>
      </trkpt>
      <trkpt lat="47.94642" lon="-4.35045">
        <ele>41.710083697849</ele>
        <time>2021-12-26T18:19:05.053Z</time>
      </trkpt>
      <trkpt lat="47.94633" lon="-4.35036">
        <ele>41.091247768621</ele>
        <time>2021-12-26T18:19:10.698Z</time>
      </trkpt>
      <trkpt lat="47.94615" lon="-4.35017">
        <ele>40.433341479955</ele>
        <time>2021-12-26T18:19:16.346Z</time>
      </trkpt>
      <trkpt lat="47.94606" lon="-4.35008">
        <ele>39.826399747116</ele>
        <time>2021-12-26T18:19:21.995Z</time>
      </trkpt>
      <trkpt lat="47.94597" lon="-4.34998">
        <ele>39.223173562885</ele>
        <time>2021-12-26T18:19:27.646Z</time>
      </trkpt>
      <trkpt lat="47.94588" lon="-4.34989">
        <ele>38.613271343254</ele>
        <time>2021-12-26T18:19:33.298Z</time>
      </trkpt>
      <trkpt lat="47.94579" lon="-4.3498">
        <ele>37.999619308284</ele>
        <time>2021-12-26T18:19:38.952Z</time>
      </trkpt>
      <trkpt lat="47.94552" lon="-4.3495">
        <ele>37.334522743344</ele>
        <time>2021-12-26T18:19:44.610Z</time>
      </trkpt>
      <trkpt lat="47.94543" lon="-4.3494">
        <ele>36.763616706163</ele>
        <time>2021-12-26T18:19:50.269Z</time>
      </trkpt>
      <trkpt lat="47.94534" lon="-4.34929">
        <ele>36.1881290069</ele>
        <time>2021-12-26T18:19:55.930Z</time>
      </trkpt>
      <trkpt lat="47.9449" lon="-4.34873">
        <ele>35.514500924907</ele>
        <time>2021-12-26T18:20:01.598Z</time>
      </trkpt>
      <trkpt lat="47.94473" lon="-4.3485">
        <ele>34.970908990949</ele>
        <time>2021-12-26T18:20:07.269Z</time>
      </trkpt>
      <trkpt lat="47.94465" lon="-4.34838">
        <ele>34.439702455885</ele>
        <time>2021-12-26T18:20:12.942Z</time>
      </trkpt>
      <trkpt lat="47.94427" lon="-4.34782">
        <ele>33.82307214668</ele>
        <time>2021-12-26T18:20:18.622Z</time>
      </trkpt>
      <trkpt lat="47.94412" lon="-4.34762">
        <ele>33.360935286849</ele>
        <time>2021-12-26T18:20:24.304Z</time>
      </trkpt>
      <trkpt lat="47.94406" lon="-4.34751">
        <ele>32.869640861162</ele>
        <time>2021-12-26T18:20:29.988Z</time>
      </trkpt>
      <trkpt lat="47.94366" lon="-4.34692">
        <ele>32.485432682319</ele>
        <time>2021-12-26T18:20:35.679Z</time>
      </trkpt>
      <trkpt lat="47.9436" lon="-4.34683">
        <ele>32.077419185521</ele>
        <time>2021-12-26T18:20:41.371Z</time>
      </trkpt>
      <trkpt lat="47.94354" lon="-4.34673">
        <ele>31.672919957774</ele>
        <time>2021-12-26T18:20:47.064Z</time>
      </trkpt>
      <trkpt lat="47.94336" lon="-4.34647">
        <ele>31.339024558801</ele>
        <time>2021-12-26T18:20:52.760Z</time>
      </trkpt>
      <trkpt lat="47.94319" lon="-4.34622">
        <ele>30.991524830078</ele>
        <time>2021-12-26T18:20:58.459Z</time>
      </trkpt>
      <trkpt lat="47.94307" lon="-4.34605">
        <ele>30.555811024322</ele>
        <time>2021-12-26T18:21:04.160Z</time>
      </trkpt>
      <trkpt lat="47.94302" lon="-4.34596">
        <ele>30.101946189917</ele>
        <time>2021-12-26T18:21:09.863Z</time>
      </trkpt>
      <trkpt lat="47.9428" lon="-4.3456">
        <ele>29.621884205408</ele>
        <time>2021-12-26T18:21:15.570Z</time>
      </trkpt>
      <trkpt lat="47.94264" lon="-4.34532">
        <ele>29.147503257592</ele>
        <time>2021-12-26T18:21:21.280Z</time>
      </trkpt>
      <trkpt lat="47.94259" lon="-4.34522">
        <ele>28.62817333883</ele>
        <time>2021-12-26T18:21:26.991Z</time>
      </trkpt>
      <trkpt lat="47.94244" lon="-4.34491">
        <ele>28.082432957254</ele>
        <time>2021-12-26T18:21:32.705Z</time>
      </trkpt>
      <trkpt lat="47.94234" lon="-4.3447">
        <ele>27.492848803754</ele>
        <time>2021-12-26T18:21:38.422Z</time>
      </trkpt>
      <trkpt lat="47.94224" lon="-4.34447">
        <ele>26.874328974213</ele>
        <time>2021-12-26T18:21:44.141Z</time>
      </trkpt>
      <trkpt lat="47.94219" lon="-4.34436">
        <ele>26.235291538723</ele>
        <time>2021-12-26T18:21:49.861Z</time>
      </trkpt>
      <trkpt lat="47.94201" lon="-4.34388">
        <ele>25.495319284742</ele>
        <time>2021-12-26T18:21:55.586Z</time>
      </trkpt>
      <trkpt lat="47.94192" lon="-4.34363">
        <ele>24.857391632107</ele>
        <time>2021-12-26T18:22:01.313Z</time>
      </trkpt>
      <trkpt lat="47.94167" lon="-4.34287">
        <ele>24.201912147376</ele>
        <time>2021-12-26T18:22:07.048Z</time>
      </trkpt>
      <trkpt lat="47.94157" lon="-4.34262">
        <ele>23.528260764518</ele>
        <time>2021-12-26T18:22:12.785Z</time>
      </trkpt>
      <trkpt lat="47.94121" lon="-4.34189">
        <ele>22.730195242644</ele>
        <time>2021-12-26T18:22:18.530Z</time>
      </trkpt>
      <trkpt lat="47.94098" lon="-4.34157">
        <ele>21.919830951456</ele>
        <time>2021-12-26T18:22:24.279Z</time>
      </trkpt>
      <trkpt lat="47.94081" lon="-4.34137">
        <ele>21.155389044473</ele>
        <time>2021-12-26T18:22:30.031Z</time>
      </trkpt>
      <trkpt lat="47.94073" lon="-4.34128">
        <ele>20.441860977576</ele>
        <time>2021-12-26T18:22:35.784Z</time>
      </trkpt>
      <trkpt lat="47.94027" lon="-4.34086">
        <ele>19.702721860532</ele>
        <time>2021-12-26T18:22:41.544Z</time>
      </trkpt>
      <trkpt lat="47.94008" lon="-4.34068">
        <ele>18.95161081361</ele>
        <time>2021-12-26T18:22:47.307Z</time>
      </trkpt>
      <trkpt lat="47.93989" lon="-4.34051">
        <ele>18.211633441317</ele>
        <time>2021-12-26T18:22:53.073Z</time>
      </trkpt>
      <trkpt lat="47.93969" lon="-4.34033">
        <ele>17.49478341011</ele>
        <time>2021-12-26T18:22:58.842Z</time>
      </trkpt>
      <trkpt lat="47.9396" lon="-4.34024">
        <ele>16.841205014516</ele>
        <time>2021-12-26T18:23:04.612Z</time>
      </trkpt>
      <trkpt lat="47.9395" lon="-4.34015">
        <ele>16.25060699158</ele>
        <time>2021-12-26T18:23:10.384Z</time>
      </trkpt>
      <trkpt lat="47.9394" lon="-4.34006">
        <ele>15.695749293005</ele>
        <time>2021-12-26T18:23:16.157Z</time>
      </trkpt>
      <trkpt lat="47.9393" lon="-4.33997">
        <ele>15.156128696687</ele>
        <time>2021-12-26T18:23:21.932Z</time>
      </trkpt>
      <trkpt lat="47.9391" lon="-4.3398">
        <ele>14.670111375073</ele>
        <time>2021-12-26T18:23:27.710Z</time>
      </trkpt>
      <trkpt lat="47.93862" lon="-4.33936">
        <ele>14.167221474723</ele>
        <time>2021-12-26T18:23:33.495Z</time>
      </trkpt>
      <trkpt lat="47.93853" lon="-4.33927">
        <ele>13.765941786665</ele>
        <time>2021-12-26T18:23:39.281Z</time>
      </trkpt>
      <trkpt lat="47.93827" lon="-4.33903">
        <ele>13.413959122233</ele>
        <time>2021-12-26T18:23:45.071Z</time>
      </trkpt>
      <trkpt lat="47.93811" lon="-4.33889">
        <ele>13.141982287222</ele>
        <time>2021-12-26T18:23:50.864Z</time>
      </trkpt>
      <trkpt lat="47.93803" lon="-4.33882">
        <ele>12.905995381098</ele>
        <time>2021-12-26T18:23:56.658Z</time>
      </trkpt>
      <trkpt lat="47.93787" lon="-4.33867">
        <ele>12.717140821442</ele>
        <time>2021-12-26T18:24:02.454Z</time>
      </trkpt>
      <trkpt lat="47.93759" lon="-4.33841">
        <ele>12.538838948563</ele>
        <time>2021-12-26T18:24:08.255Z</time>
      </trkpt>
      <trkpt lat="47.93745" lon="-4.33829">
        <ele>12.461730253205</ele>
        <time>2021-12-26T18:24:14.058Z</time>
      </trkpt>
      <trkpt lat="47.93712" lon="-4.33798">
        <ele>12.486461075568</ele>
        <time>2021-12-26T18:24:19.866Z</time>
      </trkpt>
      <trkpt lat="47.93698" lon="-4.33786">
        <ele>12.524010484306</ele>
        <time>2021-12-26T18:24:25.676Z</time>
      </trkpt>
      <trkpt lat="47.93698" lon="-4.33786">
        <ele>12.771242487535</ele>
        <time>2021-12-26T18:24:31.486Z</time>
      </trkpt>
      <trkpt lat="47.93691" lon="-4.3378">
        <ele>12.994341775502</ele>
        <time>2021-12-26T18:24:37.297Z</time>
      </trkpt>
      <trkpt lat="47.93684" lon="-4.33774">
        <ele>13.280520319977</ele>
        <time>2021-12-26T18:24:43.109Z</time>
      </trkpt>
      <trkpt lat="47.93671" lon="-4.33762">
        <ele>13.642507202729</ele>
        <time>2021-12-26T18:24:48.923Z</time>
      </trkpt>
      <trkpt lat="47.93651" lon="-4.33743">
        <ele>14.075624389307</ele>
        <time>2021-12-26T18:24:54.740Z</time>
      </trkpt>
      <trkpt lat="47.9363" lon="-4.33724">
        <ele>14.479956230396</ele>
        <time>2021-12-26T18:25:00.560Z</time>
      </trkpt>
      <trkpt lat="47.93623" lon="-4.33718">
        <ele>14.936675225033</ele>
        <time>2021-12-26T18:25:06.381Z</time>
      </trkpt>
      <trkpt lat="47.93609" lon="-4.33706">
        <ele>15.504401326807</ele>
        <time>2021-12-26T18:25:12.204Z</time>
      </trkpt>
      <trkpt lat="47.93582" lon="-4.33681">
        <ele>16.139738615408</ele>
        <time>2021-12-26T18:25:18.031Z</time>
      </trkpt>
      <trkpt lat="47.93569" lon="-4.33669">
        <ele>16.790254645257</ele>
        <time>2021-12-26T18:25:23.860Z</time>
      </trkpt>
      <trkpt lat="47.93556" lon="-4.33657">
        <ele>17.466019017735</ele>
        <time>2021-12-26T18:25:29.691Z</time>
      </trkpt>
      <trkpt lat="47.9353" lon="-4.33634">
        <ele>18.236763271359</ele>
        <time>2021-12-26T18:25:35.526Z</time>
      </trkpt>
      <trkpt lat="47.93511" lon="-4.33617">
        <ele>19.009286096028</ele>
        <time>2021-12-26T18:25:41.364Z</time>
      </trkpt>
      <trkpt lat="47.93488" lon="-4.33595">
        <ele>19.836107375729</ele>
        <time>2021-12-26T18:25:47.206Z</time>
      </trkpt>
      <trkpt lat="47.93465" lon="-4.33575">
        <ele>20.658726079401</ele>
        <time>2021-12-26T18:25:53.051Z</time>
      </trkpt>
      <trkpt lat="47.93459" lon="-4.33569">
        <ele>21.499362601508</ele>
        <time>2021-12-26T18:25:58.897Z</time>
      </trkpt>
      <trkpt lat="47.93437" lon="-4.33549">
        <ele>22.376270011432</ele>
        <time>2021-12-26T18:26:04.746Z</time>
      </trkpt>
      <trkpt lat="47.9342" lon="-4.33534">
        <ele>23.353655087131</ele>
        <time>2021-12-26T18:26:10.598Z</time>
      </trkpt>
      <trkpt lat="47.93409" lon="-4.33524">
        <ele>24.285992531398</ele>
        <time>2021-12-26T18:26:16.452Z</time>
      </trkpt>
      <trkpt lat="47.93388" lon="-4.33502">
        <ele>25.274076127003</ele>
        <time>2021-12-26T18:26:22.309Z</time>
      </trkpt>
      <trkpt lat="47.93383" lon="-4.33496">
        <ele>26.237063597951</ele>
        <time>2021-12-26T18:26:28.167Z</time>
      </trkpt>
      <trkpt lat="47.93354" lon="-4.3346">
        <ele>27.260745251916</ele>
        <time>2021-12-26T18:26:34.030Z</time>
      </trkpt>
      <trkpt lat="47.93345" lon="-4.33448">
        <ele>28.271614376958</ele>
        <time>2021-12-26T18:26:39.894Z</time>
      </trkpt>
      <trkpt lat="47.93341" lon="-4.33442">
        <ele>29.288958742321</ele>
        <time>2021-12-26T18:26:45.759Z</time>
      </trkpt>
      <trkpt lat="47.93325" lon="-4.33416">
        <ele>30.356714099722</ele>
        <time>2021-12-26T18:26:51.627Z</time>
      </trkpt>
      <trkpt lat="47.93314" lon="-4.33397">
        <ele>31.436859094288</ele>
        <time>2021-12-26T18:26:57.497Z</time>
      </trkpt>
      <trkpt lat="47.93307" lon="-4.33384">
        <ele>32.502903844723</ele>
        <time>2021-12-26T18:27:03.369Z</time>
      </trkpt>
      <trkpt lat="47.93296" lon="-4.33365">
        <ele>33.579853744083</ele>
        <time>2021-12-26T18:27:09.243Z</time>
      </trkpt>
      <trkpt lat="47.93286" lon="-4.33346">
        <ele>34.647787024098</ele>
        <time>2021-12-26T18:27:15.119Z</time>
      </trkpt>
      <trkpt lat="47.93279" lon="-4.33334">
        <ele>35.67584150156</ele>
        <time>2021-12-26T18:27:20.996Z</time>
      </trkpt>
      <trkpt lat="47.93269" lon="-4.33316">
        <ele>36.714742264328</ele>
        <time>2021-12-26T18:27:26.875Z</time>
      </trkpt>
      <trkpt lat="47.9325" lon="-4.3328">
        <ele>37.723224146682</ele>
        <time>2021-12-26T18:27:32.758Z</time>
      </trkpt>
      <trkpt lat="47.9324" lon="-4.33262">
        <ele>38.744267359511</ele>
        <time>2021-12-26T18:27:38.643Z</time>
      </trkpt>
      <trkpt lat="47.93227" lon="-4.3324">
        <ele>39.788219684319</ele>
        <time>2021-12-26T18:27:44.531Z</time>
      </trkpt>
      <trkpt lat="47.9322" lon="-4.33229">
        <ele>40.736311073966</ele>
        <time>2021-12-26T18:27:50.420Z</time>
      </trkpt>
      <trkpt lat="47.93207" lon="-4.33207">
        <ele>41.768610296339</ele>
        <time>2021-12-26T18:27:56.312Z</time>
      </trkpt>
      <trkpt lat="47.93196" lon="-4.33191">
        <ele>42.65470567209</ele>
        <time>2021-12-26T18:28:02.206Z</time>
      </trkpt>
      <trkpt lat="47.93192" lon="-4.33186">
        <ele>43.482749879765</ele>
        <time>2021-12-26T18:28:08.100Z</time>
      </trkpt>
      <trkpt lat="47.93188" lon="-4.33181">
        <ele>44.272317208094</ele>
        <time>2021-12-26T18:28:13.995Z</time>
      </trkpt>
      <trkpt lat="47.9316" lon="-4.33142">
        <ele>45.053955019878</ele>
        <time>2021-12-26T18:28:19.895Z</time>
      </trkpt>
      <trkpt lat="47.93156" lon="-4.33136">
        <ele>45.774460220465</ele>
        <time>2021-12-26T18:28:25.796Z</time>
      </trkpt>
      <trkpt lat="47.93122" lon="-4.33095">
        <ele>46.481228496333</ele>
        <time>2021-12-26T18:28:31.702Z</time>
      </trkpt>
      <trkpt lat="47.93102" lon="-4.33072">
        <ele>47.120860226073</ele>
        <time>2021-12-26T18:28:37.612Z</time>
      </trkpt>
      <trkpt lat="47.93088" lon="-4.33055">
        <ele>47.722850328922</ele>
        <time>2021-12-26T18:28:43.524Z</time>
      </trkpt>
      <trkpt lat="47.93064" lon="-4.33025">
        <ele>48.32140236474</ele>
        <time>2021-12-26T18:28:49.440Z</time>
      </trkpt>
      <trkpt lat="47.9305" lon="-4.33007">
        <ele>48.835507891638</ele>
        <time>2021-12-26T18:28:55.358Z</time>
      </trkpt>
      <trkpt lat="47.93035" lon="-4.32989">
        <ele>49.346755938556</ele>
        <time>2021-12-26T18:29:01.279Z</time>
      </trkpt>
      <trkpt lat="47.93025" lon="-4.32977">
        <ele>49.800100170275</ele>
        <time>2021-12-26T18:29:07.202Z</time>
      </trkpt>
      <trkpt lat="47.93" lon="-4.32947">
        <ele>50.210614212526</ele>
        <time>2021-12-26T18:29:13.129Z</time>
      </trkpt>
      <trkpt lat="47.92954" lon="-4.32891">
        <ele>50.516036844608</ele>
        <time>2021-12-26T18:29:19.063Z</time>
      </trkpt>
      <trkpt lat="47.92926" lon="-4.32857">
        <ele>50.769812510479</ele>
        <time>2021-12-26T18:29:25.002Z</time>
      </trkpt>
      <trkpt lat="47.92907" lon="-4.32835">
        <ele>51.040538807148</ele>
        <time>2021-12-26T18:29:30.944Z</time>
      </trkpt>
      <trkpt lat="47.92881" lon="-4.32804">
        <ele>51.221963192129</ele>
        <time>2021-12-26T18:29:36.890Z</time>
      </trkpt>
      <trkpt lat="47.92854" lon="-4.32771">
        <ele>51.399446682226</ele>
        <time>2021-12-26T18:29:42.841Z</time>
      </trkpt>
      <trkpt lat="47.92819" lon="-4.3273">
        <ele>51.620201319313</ele>
        <time>2021-12-26T18:29:48.798Z</time>
      </trkpt>
      <trkpt lat="47.92798" lon="-4.32707">
        <ele>51.730040329793</ele>
        <time>2021-12-26T18:29:54.758Z</time>
      </trkpt>
      <trkpt lat="47.9279" lon="-4.32701">
        <ele>51.808326518195</ele>
        <time>2021-12-26T18:30:00.719Z</time>
      </trkpt>
      <trkpt lat="47.92759" lon="-4.32676">
        <ele>51.889948709564</ele>
        <time>2021-12-26T18:30:06.685Z</time>
      </trkpt>
      <trkpt lat="47.92742" lon="-4.32665">
        <ele>51.937826966048</ele>
        <time>2021-12-26T18:30:12.653Z</time>
      </trkpt>
      <trkpt lat="47.92733" lon="-4.32661">
        <ele>51.946500715815</ele>
        <time>2021-12-26T18:30:18.622Z</time>
      </trkpt>
      <trkpt lat="47.92725" lon="-4.32657">
        <ele>51.914905749468</ele>
        <time>2021-12-26T18:30:24.593Z</time>
      </trkpt>
      <trkpt lat="47.92708" lon="-4.3265">
        <ele>51.848617318166</ele>
        <time>2021-12-26T18:30:30.566Z</time>
      </trkpt>
      <trkpt lat="47.92691" lon="-4.32645">
        <ele>51.748864158744</ele>
        <time>2021-12-26T18:30:36.541Z</time>
      </trkpt>
      <trkpt lat="47.92658" lon="-4.32641">
        <ele>51.609966252748</ele>
        <time>2021-12-26T18:30:42.520Z</time>
      </trkpt>
      <trkpt lat="47.92641" lon="-4.3264">
        <ele>51.489305998779</ele>
        <time>2021-12-26T18:30:48.501Z</time>
      </trkpt>
      <trkpt lat="47.92593" lon="-4.32647">
        <ele>51.391423968966</ele>
        <time>2021-12-26T18:30:54.489Z</time>
      </trkpt>
      <trkpt lat="47.92578" lon="-4.32651">
        <ele>51.227097577364</ele>
        <time>2021-12-26T18:31:00.479Z</time>
      </trkpt>
      <trkpt lat="47.9257" lon="-4.32653">
        <ele>51.041212093381</ele>
        <time>2021-12-26T18:31:06.470Z</time>
      </trkpt>
      <trkpt lat="47.92562" lon="-4.32655">
        <ele>50.825253673218</ele>
        <time>2021-12-26T18:31:12.462Z</time>
      </trkpt>
      <trkpt lat="47.92517" lon="-4.32664">
        <ele>50.560840678459</ele>
        <time>2021-12-26T18:31:18.460Z</time>
      </trkpt>
      <trkpt lat="47.92495" lon="-4.32669">
        <ele>50.284963612016</ele>
        <time>2021-12-26T18:31:24.460Z</time>
      </trkpt>
      <trkpt lat="47.92481" lon="-4.32672">
        <ele>50.0016759845</ele>
        <time>2021-12-26T18:31:30.462Z</time>
      </trkpt>
      <trkpt lat="47.92451" lon="-4.32678">
        <ele>49.765263726943</ele>
        <time>2021-12-26T18:31:36.468Z</time>
      </trkpt>
      <trkpt lat="47.92397" lon="-4.32683">
        <ele>49.508600240028</ele>
        <time>2021-12-26T18:31:42.481Z</time>
      </trkpt>
      <trkpt lat="47.92353" lon="-4.32679">
        <ele>49.145626596329</ele>
        <time>2021-12-26T18:31:48.500Z</time>
      </trkpt>
      <trkpt lat="47.92335" lon="-4.32676">
        <ele>48.771124291331</ele>
        <time>2021-12-26T18:31:54.521Z</time>
      </trkpt>
      <trkpt lat="47.92308" lon="-4.3267">
        <ele>48.35990518483</ele>
        <time>2021-12-26T18:32:00.546Z</time>
      </trkpt>
      <trkpt lat="47.92291" lon="-4.32664">
        <ele>47.95464637881</ele>
        <time>2021-12-26T18:32:06.573Z</time>
      </trkpt>
      <trkpt lat="47.92274" lon="-4.32657">
        <ele>47.526133470616</ele>
        <time>2021-12-26T18:32:12.602Z</time>
      </trkpt>
      <trkpt lat="47.92219" lon="-4.32629">
        <ele>47.025635057363</ele>
        <time>2021-12-26T18:32:18.639Z</time>
      </trkpt>
      <trkpt lat="47.92212" lon="-4.32624">
        <ele>46.534699271643</ele>
        <time>2021-12-26T18:32:24.677Z</time>
      </trkpt>
      <trkpt lat="47.92197" lon="-4.32614">
        <ele>46.029315755338</ele>
        <time>2021-12-26T18:32:30.717Z</time>
      </trkpt>
      <trkpt lat="47.92155" lon="-4.32578">
        <ele>45.449903122575</ele>
        <time>2021-12-26T18:32:36.763Z</time>
      </trkpt>
      <trkpt lat="47.92149" lon="-4.32572">
        <ele>44.8987228935</ele>
        <time>2021-12-26T18:32:42.810Z</time>
      </trkpt>
      <trkpt lat="47.92136" lon="-4.32559">
        <ele>44.327285359872</ele>
        <time>2021-12-26T18:32:48.859Z</time>
      </trkpt>
      <trkpt lat="47.92124" lon="-4.32545">
        <ele>43.759652265146</ele>
        <time>2021-12-26T18:32:54.910Z</time>
      </trkpt>
      <trkpt lat="47.92112" lon="-4.32532">
        <ele>43.123126083918</ele>
        <time>2021-12-26T18:33:00.963Z</time>
      </trkpt>
      <trkpt lat="47.92099" lon="-4.32518">
        <ele>42.504337809826</ele>
        <time>2021-12-26T18:33:07.018Z</time>
      </trkpt>
      <trkpt lat="47.92078" lon="-4.32497">
        <ele>41.843043511135</ele>
        <time>2021-12-26T18:33:13.076Z</time>
      </trkpt>
      <trkpt lat="47.92063" lon="-4.32482">
        <ele>41.143033270515</ele>
        <time>2021-12-26T18:33:19.137Z</time>
      </trkpt>
      <trkpt lat="47.92039" lon="-4.32459">
        <ele>40.386835104955</ele>
        <time>2021-12-26T18:33:25.201Z</time>
      </trkpt>
      <trkpt lat="47.92031" lon="-4.32451">
        <ele>39.654471125493</ele>
        <time>2021-12-26T18:33:31.267Z</time>
      </trkpt>
      <trkpt lat="47.92023" lon="-4.32443">
        <ele>38.910597811621</ele>
        <time>2021-12-26T18:33:37.334Z</time>
      </trkpt>
      <trkpt lat="47.92014" lon="-4.32434">
        <ele>38.169485332617</ele>
        <time>2021-12-26T18:33:43.402Z</time>
      </trkpt>
      <trkpt lat="47.92005" lon="-4.32426">
        <ele>37.438269736569</ele>
        <time>2021-12-26T18:33:49.472Z</time>
      </trkpt>
      <trkpt lat="47.91988" lon="-4.32409">
        <ele>36.703594428444</ele>
        <time>2021-12-26T18:33:55.544Z</time>
      </trkpt>
      <trkpt lat="47.91971" lon="-4.32392">
        <ele>35.954994943238</ele>
        <time>2021-12-26T18:34:01.619Z</time>
      </trkpt>
      <trkpt lat="47.91962" lon="-4.32384">
        <ele>35.222196626485</ele>
        <time>2021-12-26T18:34:07.695Z</time>
      </trkpt>
      <trkpt lat="47.91953" lon="-4.32375">
        <ele>34.495149794612</ele>
        <time>2021-12-26T18:34:13.773Z</time>
      </trkpt>
      <trkpt lat="47.91944" lon="-4.32366">
        <ele>33.754302372675</ele>
        <time>2021-12-26T18:34:19.852Z</time>
      </trkpt>
      <trkpt lat="47.91935" lon="-4.32358">
        <ele>32.986395423494</ele>
        <time>2021-12-26T18:34:25.932Z</time>
      </trkpt>
      <trkpt lat="47.91926" lon="-4.32349">
        <ele>32.217887397317</ele>
        <time>2021-12-26T18:34:32.014Z</time>
      </trkpt>
      <trkpt lat="47.91917" lon="-4.3234">
        <ele>31.449874032803</ele>
        <time>2021-12-26T18:34:38.097Z</time>
      </trkpt>
      <trkpt lat="47.91898" lon="-4.32321">
        <ele>30.701981663889</ele>
        <time>2021-12-26T18:34:44.183Z</time>
      </trkpt>
      <trkpt lat="47.91888" lon="-4.32312">
        <ele>29.983468901391</ele>
        <time>2021-12-26T18:34:50.271Z</time>
      </trkpt>
      <trkpt lat="47.91878" lon="-4.32303">
        <ele>29.268293546942</ele>
        <time>2021-12-26T18:34:56.360Z</time>
      </trkpt>
      <trkpt lat="47.91868" lon="-4.32294">
        <ele>28.556845011041</ele>
        <time>2021-12-26T18:35:02.451Z</time>
      </trkpt>
      <trkpt lat="47.91858" lon="-4.32285">
        <ele>27.845768699983</ele>
        <time>2021-12-26T18:35:08.543Z</time>
      </trkpt>
      <trkpt lat="47.91811" lon="-4.3224">
        <ele>26.984731748047</ele>
        <time>2021-12-26T18:35:14.642Z</time>
      </trkpt>
      <trkpt lat="47.91801" lon="-4.32233">
        <ele>26.244618726516</ele>
        <time>2021-12-26T18:35:20.743Z</time>
      </trkpt>
      <trkpt lat="47.9177" lon="-4.32214">
        <ele>25.490544712716</ele>
        <time>2021-12-26T18:35:26.848Z</time>
      </trkpt>
      <trkpt lat="47.91749" lon="-4.32203">
        <ele>24.791686127916</ele>
        <time>2021-12-26T18:35:32.956Z</time>
      </trkpt>
      <trkpt lat="47.91728" lon="-4.32189">
        <ele>24.100122112961</ele>
        <time>2021-12-26T18:35:39.067Z</time>
      </trkpt>
      <trkpt lat="47.91718" lon="-4.32182">
        <ele>23.438627202885</ele>
        <time>2021-12-26T18:35:45.179Z</time>
      </trkpt>
      <trkpt lat="47.91699" lon="-4.32165">
        <ele>22.741577268966</ele>
        <time>2021-12-26T18:35:51.294Z</time>
      </trkpt>
      <trkpt lat="47.9168" lon="-4.32146">
        <ele>22.098338140288</ele>
        <time>2021-12-26T18:35:57.412Z</time>
      </trkpt>
      <trkpt lat="47.91654" lon="-4.32113">
        <ele>21.463922869094</ele>
        <time>2021-12-26T18:36:03.535Z</time>
      </trkpt>
      <trkpt lat="47.91645" lon="-4.32101">
        <ele>20.837878256181</ele>
        <time>2021-12-26T18:36:09.659Z</time>
      </trkpt>
      <trkpt lat="47.9162" lon="-4.32067">
        <ele>20.156105993329</ele>
        <time>2021-12-26T18:36:15.788Z</time>
      </trkpt>
      <trkpt lat="47.91611" lon="-4.32055">
        <ele>19.527906710203</ele>
        <time>2021-12-26T18:36:21.918Z</time>
      </trkpt>
      <trkpt lat="47.91595" lon="-4.32033">
        <ele>18.918073131545</ele>
        <time>2021-12-26T18:36:28.051Z</time>
      </trkpt>
      <trkpt lat="47.91556" lon="-4.31981">
        <ele>18.340618037961</ele>
        <time>2021-12-26T18:36:34.191Z</time>
      </trkpt>
      <trkpt lat="47.91549" lon="-4.31972">
        <ele>17.763881418401</ele>
        <time>2021-12-26T18:36:40.332Z</time>
      </trkpt>
      <trkpt lat="47.91542" lon="-4.31962">
        <ele>17.201074698782</ele>
        <time>2021-12-26T18:36:46.474Z</time>
      </trkpt>
      <trkpt lat="47.91528" lon="-4.31944">
        <ele>16.657780172241</ele>
        <time>2021-12-26T18:36:52.619Z</time>
      </trkpt>
      <trkpt lat="47.91508" lon="-4.31917">
        <ele>16.089474137875</ele>
        <time>2021-12-26T18:36:58.767Z</time>
      </trkpt>
      <trkpt lat="47.91491" lon="-4.31887">
        <ele>15.497267614475</ele>
        <time>2021-12-26T18:37:04.919Z</time>
      </trkpt>
      <trkpt lat="47.9148" lon="-4.31867">
        <ele>14.883103891904</ele>
        <time>2021-12-26T18:37:11.073Z</time>
      </trkpt>
      <trkpt lat="47.91465" lon="-4.31833">
        <ele>14.246860636499</ele>
        <time>2021-12-26T18:37:17.230Z</time>
      </trkpt>
      <trkpt lat="47.91457" lon="-4.31809">
        <ele>13.671910274606</ele>
        <time>2021-12-26T18:37:23.390Z</time>
      </trkpt>
      <trkpt lat="47.91453" lon="-4.31795">
        <ele>13.12485534852</ele>
        <time>2021-12-26T18:37:29.551Z</time>
      </trkpt>
      <trkpt lat="47.91445" lon="-4.31768">
        <ele>12.565919358443</ele>
        <time>2021-12-26T18:37:35.714Z</time>
      </trkpt>
      <trkpt lat="47.91435" lon="-4.3174">
        <ele>12.013955637398</ele>
        <time>2021-12-26T18:37:41.880Z</time>
      </trkpt>
      <trkpt lat="47.91416" lon="-4.317">
        <ele>11.440917061791</ele>
        <time>2021-12-26T18:37:48.051Z</time>
      </trkpt>
      <trkpt lat="47.91399" lon="-4.31677">
        <ele>10.986465221916</ele>
        <time>2021-12-26T18:37:54.224Z</time>
      </trkpt>
      <trkpt lat="47.91381" lon="-4.31657">
        <ele>10.573426191458</ele>
        <time>2021-12-26T18:38:00.400Z</time>
      </trkpt>
      <trkpt lat="47.91372" lon="-4.31648">
        <ele>10.198911137041</ele>
        <time>2021-12-26T18:38:06.578Z</time>
      </trkpt>
      <trkpt lat="47.91351" lon="-4.31635">
        <ele>9.7962325789124</ele>
        <time>2021-12-26T18:38:12.759Z</time>
      </trkpt>
      <trkpt lat="47.9134" lon="-4.31629">
        <ele>9.4504581107173</ele>
        <time>2021-12-26T18:38:18.941Z</time>
      </trkpt>
      <trkpt lat="47.91319" lon="-4.31616">
        <ele>9.1289256480867</ele>
        <time>2021-12-26T18:38:25.126Z</time>
      </trkpt>
      <trkpt lat="47.91297" lon="-4.31604">
        <ele>8.8465659138035</ele>
        <time>2021-12-26T18:38:31.314Z</time>
      </trkpt>
      <trkpt lat="47.91275" lon="-4.31591">
        <ele>8.6500341749107</ele>
        <time>2021-12-26T18:38:37.505Z</time>
      </trkpt>
      <trkpt lat="47.91264" lon="-4.31585">
        <ele>8.4961561603598</ele>
        <time>2021-12-26T18:38:43.698Z</time>
      </trkpt>
      <trkpt lat="47.91234" lon="-4.31565">
        <ele>8.4509676129856</ele>
        <time>2021-12-26T18:38:49.895Z</time>
      </trkpt>
      <trkpt lat="47.91225" lon="-4.31558">
        <ele>8.3797251869938</ele>
        <time>2021-12-26T18:38:56.093Z</time>
      </trkpt>
      <trkpt lat="47.91217" lon="-4.3155">
        <ele>8.3618944892232</ele>
        <time>2021-12-26T18:39:02.293Z</time>
      </trkpt>
      <trkpt lat="47.91203" lon="-4.31533">
        <ele>8.3961633284891</ele>
        <time>2021-12-26T18:39:08.495Z</time>
      </trkpt>
      <trkpt lat="47.91197" lon="-4.31525">
        <ele>8.4119588437666</ele>
        <time>2021-12-26T18:39:14.698Z</time>
      </trkpt>
      <trkpt lat="47.91192" lon="-4.31517">
        <ele>8.4503154199486</ele>
        <time>2021-12-26T18:39:20.902Z</time>
      </trkpt>
      <trkpt lat="47.91184" lon="-4.31501">
        <ele>8.5218041982036</ele>
        <time>2021-12-26T18:39:27.108Z</time>
      </trkpt>
      <trkpt lat="47.91181" lon="-4.31493">
        <ele>8.6143439387657</ele>
        <time>2021-12-26T18:39:33.314Z</time>
      </trkpt>
      <trkpt lat="47.91172" lon="-4.31468">
        <ele>8.708935384662</ele>
        <time>2021-12-26T18:39:39.523Z</time>
      </trkpt>
      <trkpt lat="47.9117" lon="-4.3146">
        <ele>8.8486187089898</ele>
        <time>2021-12-26T18:39:45.733Z</time>
      </trkpt>
      <trkpt lat="47.91165" lon="-4.31442">
        <ele>8.9957422687223</ele>
        <time>2021-12-26T18:39:51.944Z</time>
      </trkpt>
      <trkpt lat="47.9116" lon="-4.31413">
        <ele>9.1939803863077</ele>
        <time>2021-12-26T18:39:58.158Z</time>
      </trkpt>
      <trkpt lat="47.91159" lon="-4.31403">
        <ele>9.4236704037171</ele>
        <time>2021-12-26T18:40:04.373Z</time>
      </trkpt>
      <trkpt lat="47.91158" lon="-4.31392">
        <ele>9.7094801791123</ele>
        <time>2021-12-26T18:40:10.589Z</time>
      </trkpt>
      <trkpt lat="47.91148" lon="-4.31328">
        <ele>9.9856044573719</ele>
        <time>2021-12-26T18:40:16.810Z</time>
      </trkpt>
      <trkpt lat="47.91146" lon="-4.31316">
        <ele>10.319041332635</ele>
        <time>2021-12-26T18:40:23.032Z</time>
      </trkpt>
      <trkpt lat="47.91145" lon="-4.31304">
        <ele>10.68384334953</ele>
        <time>2021-12-26T18:40:29.256Z</time>
      </trkpt>
      <trkpt lat="47.91137" lon="-4.31242">
        <ele>11.01925935069</ele>
        <time>2021-12-26T18:40:35.485Z</time>
      </trkpt>
      <trkpt lat="47.91133" lon="-4.31218">
        <ele>11.437451446293</ele>
        <time>2021-12-26T18:40:41.716Z</time>
      </trkpt>
      <trkpt lat="47.91122" lon="-4.31138">
        <ele>11.981935768536</ele>
        <time>2021-12-26T18:40:47.954Z</time>
      </trkpt>
      <trkpt lat="47.9112" lon="-4.31127">
        <ele>12.520563131368</ele>
        <time>2021-12-26T18:40:54.193Z</time>
      </trkpt>
      <trkpt lat="47.91119" lon="-4.31116">
        <ele>13.089988768972</ele>
        <time>2021-12-26T18:41:00.433Z</time>
      </trkpt>
      <trkpt lat="47.91115" lon="-4.31084">
        <ele>13.738598274241</ele>
        <time>2021-12-26T18:41:06.676Z</time>
      </trkpt>
      <trkpt lat="47.9111" lon="-4.31052">
        <ele>14.361064174018</ele>
        <time>2021-12-26T18:41:12.922Z</time>
      </trkpt>
      <trkpt lat="47.91109" lon="-4.31042">
        <ele>15.020855427907</ele>
        <time>2021-12-26T18:41:19.169Z</time>
      </trkpt>
      <trkpt lat="47.91104" lon="-4.31013">
        <ele>15.741681521612</ele>
        <time>2021-12-26T18:41:25.418Z</time>
      </trkpt>
      <trkpt lat="47.91099" lon="-4.30978">
        <ele>16.496760758856</ele>
        <time>2021-12-26T18:41:31.670Z</time>
      </trkpt>
      <trkpt lat="47.91097" lon="-4.30962">
        <ele>17.234967176263</ele>
        <time>2021-12-26T18:41:37.924Z</time>
      </trkpt>
      <trkpt lat="47.91095" lon="-4.30946">
        <ele>17.951755024977</ele>
        <time>2021-12-26T18:41:44.179Z</time>
      </trkpt>
      <trkpt lat="47.91094" lon="-4.30939">
        <ele>18.672298405372</ele>
        <time>2021-12-26T18:41:50.435Z</time>
      </trkpt>
      <trkpt lat="47.91091" lon="-4.30923">
        <ele>19.430188848316</ele>
        <time>2021-12-26T18:41:56.692Z</time>
      </trkpt>
      <trkpt lat="47.91089" lon="-4.30908">
        <ele>20.211827940812</ele>
        <time>2021-12-26T18:42:02.951Z</time>
      </trkpt>
      <trkpt lat="47.91087" lon="-4.309">
        <ele>20.981240969027</ele>
        <time>2021-12-26T18:42:09.210Z</time>
      </trkpt>
      <trkpt lat="47.91085" lon="-4.30884">
        <ele>21.783893584185</ele>
        <time>2021-12-26T18:42:15.471Z</time>
      </trkpt>
      <trkpt lat="47.91083" lon="-4.30876">
        <ele>22.544177989788</ele>
        <time>2021-12-26T18:42:21.733Z</time>
      </trkpt>
      <trkpt lat="47.9108" lon="-4.3086">
        <ele>23.323710969168</ele>
        <time>2021-12-26T18:42:27.996Z</time>
      </trkpt>
      <trkpt lat="47.91078" lon="-4.30853">
        <ele>24.070799613391</ele>
        <time>2021-12-26T18:42:34.260Z</time>
      </trkpt>
      <trkpt lat="47.91075" lon="-4.30846">
        <ele>24.802891337124</ele>
        <time>2021-12-26T18:42:40.524Z</time>
      </trkpt>
      <trkpt lat="47.91073" lon="-4.30839">
        <ele>25.55599950133</ele>
        <time>2021-12-26T18:42:46.789Z</time>
      </trkpt>
      <trkpt lat="47.91071" lon="-4.30832">
        <ele>26.301574572623</ele>
        <time>2021-12-26T18:42:53.055Z</time>
      </trkpt>
      <trkpt lat="47.91053" lon="-4.30789">
        <ele>27.048783407111</ele>
        <time>2021-12-26T18:42:59.325Z</time>
      </trkpt>
      <trkpt lat="47.9105" lon="-4.30782">
        <ele>27.755590249611</ele>
        <time>2021-12-26T18:43:05.596Z</time>
      </trkpt>
      <trkpt lat="47.91032" lon="-4.30751">
        <ele>28.53140975135</ele>
        <time>2021-12-26T18:43:11.870Z</time>
      </trkpt>
      <trkpt lat="47.91028" lon="-4.30745">
        <ele>29.210559375225</ele>
        <time>2021-12-26T18:43:18.145Z</time>
      </trkpt>
      <trkpt lat="47.91016" lon="-4.30727">
        <ele>29.929436774801</ele>
        <time>2021-12-26T18:43:24.422Z</time>
      </trkpt>
      <trkpt lat="47.91005" lon="-4.3071">
        <ele>30.594740314535</ele>
        <time>2021-12-26T18:43:30.701Z</time>
      </trkpt>
      <trkpt lat="47.90999" lon="-4.30698">
        <ele>31.232132420816</ele>
        <time>2021-12-26T18:43:36.982Z</time>
      </trkpt>
      <trkpt lat="47.90995" lon="-4.30692">
        <ele>31.858908540384</ele>
        <time>2021-12-26T18:43:43.263Z</time>
      </trkpt>
      <trkpt lat="47.90978" lon="-4.30659">
        <ele>32.485897665857</ele>
        <time>2021-12-26T18:43:49.548Z</time>
      </trkpt>
      <trkpt lat="47.90972" lon="-4.30648">
        <ele>33.097233952413</ele>
        <time>2021-12-26T18:43:55.834Z</time>
      </trkpt>
      <trkpt lat="47.90967" lon="-4.30636">
        <ele>33.697363492083</ele>
        <time>2021-12-26T18:44:02.121Z</time>
      </trkpt>
      <trkpt lat="47.9096" lon="-4.30617">
        <ele>34.31206804371</ele>
        <time>2021-12-26T18:44:08.410Z</time>
      </trkpt>
      <trkpt lat="47.90955" lon="-4.30603">
        <ele>34.914604360002</ele>
        <time>2021-12-26T18:44:14.701Z</time>
      </trkpt>
      <trkpt lat="47.90953" lon="-4.30596">
        <ele>35.502198180381</ele>
        <time>2021-12-26T18:44:20.992Z</time>
      </trkpt>
      <trkpt lat="47.90946" lon="-4.30574">
        <ele>36.115865184592</ele>
        <time>2021-12-26T18:44:27.285Z</time>
      </trkpt>
      <trkpt lat="47.90943" lon="-4.3056">
        <ele>36.68583142609</ele>
        <time>2021-12-26T18:44:33.580Z</time>
      </trkpt>
      <trkpt lat="47.90941" lon="-4.30553">
        <ele>37.242911503191</ele>
        <time>2021-12-26T18:44:39.875Z</time>
      </trkpt>
      <trkpt lat="47.90936" lon="-4.30532">
        <ele>37.802941119432</ele>
        <time>2021-12-26T18:44:46.172Z</time>
      </trkpt>
      <trkpt lat="47.90932" lon="-4.3051">
        <ele>38.331881666491</ele>
        <time>2021-12-26T18:44:52.471Z</time>
      </trkpt>
      <trkpt lat="47.90927" lon="-4.30479">
        <ele>38.874448888878</ele>
        <time>2021-12-26T18:44:58.773Z</time>
      </trkpt>
      <trkpt lat="47.90921" lon="-4.30441">
        <ele>39.469267804275</ele>
        <time>2021-12-26T18:45:05.078Z</time>
      </trkpt>
      <trkpt lat="47.90916" lon="-4.30416">
        <ele>40.05128279544</ele>
        <time>2021-12-26T18:45:11.386Z</time>
      </trkpt>
      <trkpt lat="47.9091" lon="-4.30381">
        <ele>40.632608024203</ele>
        <time>2021-12-26T18:45:17.697Z</time>
      </trkpt>
      <trkpt lat="47.90907" lon="-4.30363">
        <ele>41.175196200395</ele>
        <time>2021-12-26T18:45:24.009Z</time>
      </trkpt>
      <trkpt lat="47.90894" lon="-4.30312">
        <ele>41.77988018151</ele>
        <time>2021-12-26T18:45:30.326Z</time>
      </trkpt>
      <trkpt lat="47.90875" lon="-4.30265">
        <ele>42.328335667503</ele>
        <time>2021-12-26T18:45:36.648Z</time>
      </trkpt>
      <trkpt lat="47.90872" lon="-4.30258">
        <ele>42.838699785457</ele>
        <time>2021-12-26T18:45:42.971Z</time>
      </trkpt>
      <trkpt lat="47.90864" lon="-4.3024">
        <ele>43.333945200224</ele>
        <time>2021-12-26T18:45:49.296Z</time>
      </trkpt>
      <trkpt lat="47.90851" lon="-4.30215">
        <ele>43.817413462645</ele>
        <time>2021-12-26T18:45:55.623Z</time>
      </trkpt>
      <trkpt lat="47.90844" lon="-4.30203">
        <ele>44.356029969253</ele>
        <time>2021-12-26T18:46:01.952Z</time>
      </trkpt>
      <trkpt lat="47.90831" lon="-4.30176">
        <ele>44.92224878106</ele>
        <time>2021-12-26T18:46:08.284Z</time>
      </trkpt>
      <trkpt lat="47.9082" lon="-4.30155">
        <ele>45.465796789684</ele>
        <time>2021-12-26T18:46:14.618Z</time>
      </trkpt>
      <trkpt lat="47.90817" lon="-4.30148">
        <ele>45.976897241983</ele>
        <time>2021-12-26T18:46:20.953Z</time>
      </trkpt>
      <trkpt lat="47.90796" lon="-4.30107">
        <ele>46.578081646381</ele>
        <time>2021-12-26T18:46:27.292Z</time>
      </trkpt>
      <trkpt lat="47.90782" lon="-4.30079">
        <ele>47.114578557685</ele>
        <time>2021-12-26T18:46:33.634Z</time>
      </trkpt>
      <trkpt lat="47.90771" lon="-4.30057">
        <ele>47.621738227267</ele>
        <time>2021-12-26T18:46:39.978Z</time>
      </trkpt>
      <trkpt lat="47.90763" lon="-4.30042">
        <ele>48.08224144255</ele>
        <time>2021-12-26T18:46:46.324Z</time>
      </trkpt>
      <trkpt lat="47.90741" lon="-4.29999">
        <ele>48.535682652813</ele>
        <time>2021-12-26T18:46:52.675Z</time>
      </trkpt>
      <trkpt lat="47.90734" lon="-4.29985">
        <ele>48.960526377635</ele>
        <time>2021-12-26T18:46:59.027Z</time>
      </trkpt>
      <trkpt lat="47.90715" lon="-4.29949">
        <ele>49.349781763499</ele>
        <time>2021-12-26T18:47:05.383Z</time>
      </trkpt>
      <trkpt lat="47.90687" lon="-4.29894">
        <ele>49.706382534915</ele>
        <time>2021-12-26T18:47:11.745Z</time>
      </trkpt>
      <trkpt lat="47.9066" lon="-4.2984">
        <ele>50.153835810694</ele>
        <time>2021-12-26T18:47:18.113Z</time>
      </trkpt>
      <trkpt lat="47.90655" lon="-4.29832">
        <ele>50.500694587583</ele>
        <time>2021-12-26T18:47:24.482Z</time>
      </trkpt>
      <trkpt lat="47.90634" lon="-4.29788">
        <ele>50.867783852803</ele>
        <time>2021-12-26T18:47:30.856Z</time>
      </trkpt>
      <trkpt lat="47.90601" lon="-4.29722">
        <ele>51.256439864997</ele>
        <time>2021-12-26T18:47:37.237Z</time>
      </trkpt>
      <trkpt lat="47.90592" lon="-4.29702">
        <ele>51.552666812867</ele>
        <time>2021-12-26T18:47:43.620Z</time>
      </trkpt>
      <trkpt lat="47.90579" lon="-4.29674">
        <ele>51.773446952087</ele>
        <time>2021-12-26T18:47:50.006Z</time>
      </trkpt>
      <trkpt lat="47.90566" lon="-4.29648">
        <ele>52.005763629899</ele>
        <time>2021-12-26T18:47:56.395Z</time>
      </trkpt>
      <trkpt lat="47.90558" lon="-4.29629">
        <ele>52.239655043319</ele>
        <time>2021-12-26T18:48:02.786Z</time>
      </trkpt>
      <trkpt lat="47.90544" lon="-4.29601">
        <ele>52.48606372007</ele>
        <time>2021-12-26T18:48:09.180Z</time>
      </trkpt>
      <trkpt lat="47.90521" lon="-4.29554">
        <ele>52.751171209822</ele>
        <time>2021-12-26T18:48:15.579Z</time>
      </trkpt>
      <trkpt lat="47.90516" lon="-4.29545">
        <ele>53.012695376233</ele>
        <time>2021-12-26T18:48:21.979Z</time>
      </trkpt>
      <trkpt lat="47.90502" lon="-4.29517">
        <ele>53.272611566942</ele>
        <time>2021-12-26T18:48:28.382Z</time>
      </trkpt>
      <trkpt lat="47.90483" lon="-4.29482">
        <ele>53.534349592385</ele>
        <time>2021-12-26T18:48:34.789Z</time>
      </trkpt>
      <trkpt lat="47.90473" lon="-4.29464">
        <ele>53.85885804063</ele>
        <time>2021-12-26T18:48:41.198Z</time>
      </trkpt>
      <trkpt lat="47.90468" lon="-4.29455">
        <ele>54.198855300294</ele>
        <time>2021-12-26T18:48:47.608Z</time>
      </trkpt>
      <trkpt lat="47.90444" lon="-4.29409">
        <ele>54.626225380723</ele>
        <time>2021-12-26T18:48:54.023Z</time>
      </trkpt>
      <trkpt lat="47.90439" lon="-4.29399">
        <ele>54.989707927982</ele>
        <time>2021-12-26T18:49:00.439Z</time>
      </trkpt>
      <trkpt lat="47.90424" lon="-4.2937">
        <ele>55.386657154591</ele>
        <time>2021-12-26T18:49:06.858Z</time>
      </trkpt>
      <trkpt lat="47.90415" lon="-4.29352">
        <ele>55.781193325409</ele>
        <time>2021-12-26T18:49:13.279Z</time>
      </trkpt>
      <trkpt lat="47.9038" lon="-4.29286">
        <ele>56.24282120595</ele>
        <time>2021-12-26T18:49:19.707Z</time>
      </trkpt>
      <trkpt lat="47.90358" lon="-4.29245">
        <ele>56.698762395814</ele>
        <time>2021-12-26T18:49:26.140Z</time>
      </trkpt>
      <trkpt lat="47.90354" lon="-4.29237">
        <ele>57.113766300936</ele>
        <time>2021-12-26T18:49:32.574Z</time>
      </trkpt>
      <trkpt lat="47.90334" lon="-4.29199">
        <ele>57.584313734522</ele>
        <time>2021-12-26T18:49:39.012Z</time>
      </trkpt>
      <trkpt lat="47.90326" lon="-4.29184">
        <ele>58.045751410016</ele>
        <time>2021-12-26T18:49:45.452Z</time>
      </trkpt>
      <trkpt lat="47.9031" lon="-4.29155">
        <ele>58.567347637479</ele>
        <time>2021-12-26T18:49:51.895Z</time>
      </trkpt>
      <trkpt lat="47.90304" lon="-4.29142">
        <ele>59.087511190278</ele>
        <time>2021-12-26T18:49:58.339Z</time>
      </trkpt>
      <trkpt lat="47.90294" lon="-4.29123">
        <ele>59.615627479542</ele>
        <time>2021-12-26T18:50:04.785Z</time>
      </trkpt>
      <trkpt lat="47.90284" lon="-4.29103">
        <ele>60.170393438015</ele>
        <time>2021-12-26T18:50:11.234Z</time>
      </trkpt>
      <trkpt lat="47.90281" lon="-4.29095">
        <ele>60.703274656459</ele>
        <time>2021-12-26T18:50:17.683Z</time>
      </trkpt>
      <trkpt lat="47.90278" lon="-4.29088">
        <ele>61.244249198453</ele>
        <time>2021-12-26T18:50:24.133Z</time>
      </trkpt>
      <trkpt lat="47.90274" lon="-4.29081">
        <ele>61.777574255787</ele>
        <time>2021-12-26T18:50:30.584Z</time>
      </trkpt>
      <trkpt lat="47.90272" lon="-4.29073">
        <ele>62.324948294777</ele>
        <time>2021-12-26T18:50:37.036Z</time>
      </trkpt>
      <trkpt lat="47.90267" lon="-4.29058">
        <ele>62.897202688107</ele>
        <time>2021-12-26T18:50:43.489Z</time>
      </trkpt>
      <trkpt lat="47.90265" lon="-4.2905">
        <ele>63.462020562565</ele>
        <time>2021-12-26T18:50:49.943Z</time>
      </trkpt>
      <trkpt lat="47.90263" lon="-4.29042">
        <ele>64.031555995216</ele>
        <time>2021-12-26T18:50:56.398Z</time>
      </trkpt>
      <trkpt lat="47.90261" lon="-4.29033">
        <ele>64.6047264843</ele>
        <time>2021-12-26T18:51:02.853Z</time>
      </trkpt>
      <trkpt lat="47.90257" lon="-4.29017">
        <ele>65.184065681025</ele>
        <time>2021-12-26T18:51:09.310Z</time>
      </trkpt>
      <trkpt lat="47.9025" lon="-4.28975">
        <ele>65.772416113648</ele>
        <time>2021-12-26T18:51:15.771Z</time>
      </trkpt>
      <trkpt lat="47.90244" lon="-4.28941">
        <ele>66.366580836065</ele>
        <time>2021-12-26T18:51:22.235Z</time>
      </trkpt>
      <trkpt lat="47.90239" lon="-4.28878">
        <ele>66.95529967073</ele>
        <time>2021-12-26T18:51:28.704Z</time>
      </trkpt>
      <trkpt lat="47.90238" lon="-4.28869">
        <ele>67.509684836535</ele>
        <time>2021-12-26T18:51:35.174Z</time>
      </trkpt>
      <trkpt lat="47.9024" lon="-4.28814">
        <ele>68.09049238505</ele>
        <time>2021-12-26T18:51:41.649Z</time>
      </trkpt>
      <trkpt lat="47.90246" lon="-4.28766">
        <ele>68.722466904119</ele>
        <time>2021-12-26T18:51:48.128Z</time>
      </trkpt>
      <trkpt lat="47.9025" lon="-4.28726">
        <ele>69.311165723702</ele>
        <time>2021-12-26T18:51:54.610Z</time>
      </trkpt>
      <trkpt lat="47.90254" lon="-4.28662">
        <ele>69.830541004969</ele>
        <time>2021-12-26T18:52:01.098Z</time>
      </trkpt>
      <trkpt lat="47.90256" lon="-4.2863">
        <ele>70.362542016022</ele>
        <time>2021-12-26T18:52:07.589Z</time>
      </trkpt>
      <trkpt lat="47.90259" lon="-4.28608">
        <ele>70.862234962314</ele>
        <time>2021-12-26T18:52:14.082Z</time>
      </trkpt>
      <trkpt lat="47.90261" lon="-4.28601">
        <ele>71.341110350731</ele>
        <time>2021-12-26T18:52:20.575Z</time>
      </trkpt>
      <trkpt lat="47.90263" lon="-4.28588">
        <ele>71.803327296984</ele>
        <time>2021-12-26T18:52:27.070Z</time>
      </trkpt>
      <trkpt lat="47.90266" lon="-4.28568">
        <ele>72.246909488287</ele>
        <time>2021-12-26T18:52:33.566Z</time>
      </trkpt>
      <trkpt lat="47.90267" lon="-4.28562">
        <ele>72.669349510457</ele>
        <time>2021-12-26T18:52:40.063Z</time>
      </trkpt>
      <trkpt lat="47.90269" lon="-4.28556">
        <ele>73.072137436082</ele>
        <time>2021-12-26T18:52:46.560Z</time>
      </trkpt>
      <trkpt lat="47.90272" lon="-4.28544">
        <ele>73.458101330301</ele>
        <time>2021-12-26T18:52:53.059Z</time>
      </trkpt>
      <trkpt lat="47.90275" lon="-4.28537">
        <ele>73.820453733404</ele>
        <time>2021-12-26T18:52:59.558Z</time>
      </trkpt>
      <trkpt lat="47.90277" lon="-4.28531">
        <ele>74.160819209433</ele>
        <time>2021-12-26T18:53:06.058Z</time>
      </trkpt>
      <trkpt lat="47.90281" lon="-4.28519">
        <ele>74.486314641402</ele>
        <time>2021-12-26T18:53:12.559Z</time>
      </trkpt>
      <trkpt lat="47.90284" lon="-4.28513">
        <ele>74.790558124689</ele>
        <time>2021-12-26T18:53:19.061Z</time>
      </trkpt>
      <trkpt lat="47.90288" lon="-4.28508">
        <ele>75.072130781386</ele>
        <time>2021-12-26T18:53:25.563Z</time>
      </trkpt>
      <trkpt lat="47.90296" lon="-4.2849">
        <ele>75.353728312669</ele>
        <time>2021-12-26T18:53:32.067Z</time>
      </trkpt>
      <trkpt lat="47.90299" lon="-4.28485">
        <ele>75.581275000574</ele>
        <time>2021-12-26T18:53:38.572Z</time>
      </trkpt>
      <trkpt lat="47.90305" lon="-4.28473">
        <ele>75.786024450621</ele>
        <time>2021-12-26T18:53:45.078Z</time>
      </trkpt>
      <trkpt lat="47.90314" lon="-4.2845">
        <ele>75.973210262528</ele>
        <time>2021-12-26T18:53:51.586Z</time>
      </trkpt>
      <trkpt lat="47.90318" lon="-4.28438">
        <ele>76.113326969234</ele>
        <time>2021-12-26T18:53:58.096Z</time>
      </trkpt>
      <trkpt lat="47.90322" lon="-4.28427">
        <ele>76.217142808993</ele>
        <time>2021-12-26T18:54:04.607Z</time>
      </trkpt>
      <trkpt lat="47.90326" lon="-4.28411">
        <ele>76.291384893711</ele>
        <time>2021-12-26T18:54:11.119Z</time>
      </trkpt>
      <trkpt lat="47.90329" lon="-4.28399">
        <ele>76.332057495242</ele>
        <time>2021-12-26T18:54:17.632Z</time>
      </trkpt>
      <trkpt lat="47.9033" lon="-4.28393">
        <ele>76.338982097344</ele>
        <time>2021-12-26T18:54:24.146Z</time>
      </trkpt>
      <trkpt lat="47.90331" lon="-4.28379">
        <ele>76.315496192385</ele>
        <time>2021-12-26T18:54:30.661Z</time>
      </trkpt>
      <trkpt lat="47.9033" lon="-4.28373">
        <ele>76.25844042435</ele>
        <time>2021-12-26T18:54:37.176Z</time>
      </trkpt>
      <trkpt lat="47.90329" lon="-4.28365">
        <ele>76.170019232622</ele>
        <time>2021-12-26T18:54:43.692Z</time>
      </trkpt>
      <trkpt lat="47.90325" lon="-4.28351">
        <ele>76.048824045431</ele>
        <time>2021-12-26T18:54:50.210Z</time>
      </trkpt>
      <trkpt lat="47.9032" lon="-4.28326">
        <ele>75.89261868985</ele>
        <time>2021-12-26T18:54:56.730Z</time>
      </trkpt>
      <trkpt lat="47.90318" lon="-4.28317">
        <ele>75.718293996855</ele>
        <time>2021-12-26T18:55:03.251Z</time>
      </trkpt>
      <trkpt lat="47.90315" lon="-4.283">
        <ele>75.516209264668</ele>
        <time>2021-12-26T18:55:09.773Z</time>
      </trkpt>
      <trkpt lat="47.90314" lon="-4.28294">
        <ele>75.282008072587</ele>
        <time>2021-12-26T18:55:16.296Z</time>
      </trkpt>
      <trkpt lat="47.90311" lon="-4.28283">
        <ele>75.010546695276</ele>
        <time>2021-12-26T18:55:22.820Z</time>
      </trkpt>
      <trkpt lat="47.90309" lon="-4.28277">
        <ele>74.726785803568</ele>
        <time>2021-12-26T18:55:29.344Z</time>
      </trkpt>
      <trkpt lat="47.90306" lon="-4.2827">
        <ele>74.421659437349</ele>
        <time>2021-12-26T18:55:35.869Z</time>
      </trkpt>
      <trkpt lat="47.90303" lon="-4.28264">
        <ele>74.097099776327</ele>
        <time>2021-12-26T18:55:42.395Z</time>
      </trkpt>
      <trkpt lat="47.90301" lon="-4.28256">
        <ele>73.761175306053</ele>
        <time>2021-12-26T18:55:48.921Z</time>
      </trkpt>
      <trkpt lat="47.903" lon="-4.28242">
        <ele>73.417093137898</ele>
        <time>2021-12-26T18:55:55.449Z</time>
      </trkpt>
      <trkpt lat="47.90304" lon="-4.28221">
        <ele>73.017357131796</ele>
        <time>2021-12-26T18:56:01.978Z</time>
      </trkpt>
      <trkpt lat="47.90305" lon="-4.28217">
        <ele>72.643530038456</ele>
        <time>2021-12-26T18:56:08.508Z</time>
      </trkpt>
      <trkpt lat="47.90306" lon="-4.28214">
        <ele>72.261117454476</ele>
        <time>2021-12-26T18:56:15.038Z</time>
      </trkpt>
      <trkpt lat="47.90308" lon="-4.2821">
        <ele>71.872014258339</ele>
        <time>2021-12-26T18:56:21.569Z</time>
      </trkpt>
      <trkpt lat="47.9031" lon="-4.28196">
        <ele>71.446421565114</ele>
        <time>2021-12-26T18:56:28.101Z</time>
      </trkpt>
      <trkpt lat="47.90311" lon="-4.28193">
        <ele>71.056310842171</ele>
        <time>2021-12-26T18:56:34.633Z</time>
      </trkpt>
      <trkpt lat="47.90317" lon="-4.28184">
        <ele>70.657164719233</ele>
        <time>2021-12-26T18:56:41.166Z</time>
      </trkpt>
      <trkpt lat="47.9032" lon="-4.28181">
        <ele>70.27043957297</ele>
        <time>2021-12-26T18:56:47.700Z</time>
      </trkpt>
      <trkpt lat="47.90327" lon="-4.28167">
        <ele>69.879391978758</ele>
        <time>2021-12-26T18:56:54.235Z</time>
      </trkpt>
      <trkpt lat="47.90333" lon="-4.28155">
        <ele>69.493545060606</ele>
        <time>2021-12-26T18:57:00.771Z</time>
      </trkpt>
      <trkpt lat="47.90339" lon="-4.28142">
        <ele>69.112425981708</ele>
        <time>2021-12-26T18:57:07.309Z</time>
      </trkpt>
      <trkpt lat="47.90352" lon="-4.28116">
        <ele>68.702189436021</ele>
        <time>2021-12-26T18:57:13.850Z</time>
      </trkpt>
      <trkpt lat="47.90356" lon="-4.28108">
        <ele>68.333016354714</ele>
        <time>2021-12-26T18:57:20.391Z</time>
      </trkpt>
      <trkpt lat="47.90359" lon="-4.281">
        <ele>67.980871829325</ele>
        <time>2021-12-26T18:57:26.933Z</time>
      </trkpt>
      <trkpt lat="47.90366" lon="-4.28084">
        <ele>67.63785732404</ele>
        <time>2021-12-26T18:57:33.477Z</time>
      </trkpt>
      <trkpt lat="47.90371" lon="-4.28067">
        <ele>67.291750886799</ele>
        <time>2021-12-26T18:57:40.023Z</time>
      </trkpt>
      <trkpt lat="47.90374" lon="-4.28059">
        <ele>66.971646238222</ele>
        <time>2021-12-26T18:57:46.569Z</time>
      </trkpt>
      <trkpt lat="47.9039" lon="-4.28015">
        <ele>66.664066846966</ele>
        <time>2021-12-26T18:57:53.120Z</time>
      </trkpt>
      <trkpt lat="47.90398" lon="-4.27996">
        <ele>66.42308374488</ele>
        <time>2021-12-26T18:57:59.673Z</time>
      </trkpt>
      <trkpt lat="47.90416" lon="-4.27963">
        <ele>66.185388972566</ele>
        <time>2021-12-26T18:58:06.229Z</time>
      </trkpt>
      <trkpt lat="47.90425" lon="-4.27948">
        <ele>65.975624078721</ele>
        <time>2021-12-26T18:58:12.787Z</time>
      </trkpt>
      <trkpt lat="47.9043" lon="-4.27941">
        <ele>65.76902603655</ele>
        <time>2021-12-26T18:58:19.346Z</time>
      </trkpt>
      <trkpt lat="47.90445" lon="-4.2792">
        <ele>65.569621835948</ele>
        <time>2021-12-26T18:58:25.908Z</time>
      </trkpt>
      <trkpt lat="47.90472" lon="-4.27887">
        <ele>65.381808588526</ele>
        <time>2021-12-26T18:58:32.474Z</time>
      </trkpt>
      <trkpt lat="47.90498" lon="-4.27852">
        <ele>65.185793839311</ele>
        <time>2021-12-26T18:58:39.045Z</time>
      </trkpt>
      <trkpt lat="47.90507" lon="-4.27836">
        <ele>65.013604530578</ele>
        <time>2021-12-26T18:58:45.617Z</time>
      </trkpt>
      <trkpt lat="47.90514" lon="-4.27818">
        <ele>64.863234605049</ele>
        <time>2021-12-26T18:58:52.191Z</time>
      </trkpt>
      <trkpt lat="47.90519" lon="-4.27798">
        <ele>64.734713335636</ele>
        <time>2021-12-26T18:58:58.767Z</time>
      </trkpt>
      <trkpt lat="47.90521" lon="-4.27787">
        <ele>64.6168321713</ele>
        <time>2021-12-26T18:59:05.344Z</time>
      </trkpt>
      <trkpt lat="47.90532" lon="-4.27703">
        <ele>64.509859317825</ele>
        <time>2021-12-26T18:59:11.929Z</time>
      </trkpt>
      <trkpt lat="47.90539" lon="-4.27645">
        <ele>64.478191843229</ele>
        <time>2021-12-26T18:59:18.519Z</time>
      </trkpt>
      <trkpt lat="47.9054" lon="-4.27634">
        <ele>64.405802845074</ele>
        <time>2021-12-26T18:59:25.110Z</time>
      </trkpt>
      <trkpt lat="47.90544" lon="-4.27585">
        <ele>64.286488150839</ele>
        <time>2021-12-26T18:59:31.705Z</time>
      </trkpt>
      <trkpt lat="47.90547" lon="-4.27555">
        <ele>64.213912555928</ele>
        <time>2021-12-26T18:59:38.303Z</time>
      </trkpt>
      <trkpt lat="47.90548" lon="-4.27545">
        <ele>64.177427149111</ele>
        <time>2021-12-26T18:59:44.901Z</time>
      </trkpt>
      <trkpt lat="47.90558" lon="-4.27504">
        <ele>64.201428017726</ele>
        <time>2021-12-26T18:59:51.503Z</time>
      </trkpt>
      <trkpt lat="47.90561" lon="-4.27494">
        <ele>64.211206941997</ele>
        <time>2021-12-26T18:59:58.106Z</time>
      </trkpt>
      <trkpt lat="47.90565" lon="-4.27484">
        <ele>64.219922693794</ele>
        <time>2021-12-26T19:00:04.710Z</time>
      </trkpt>
      <trkpt lat="47.90573" lon="-4.27463">
        <ele>64.215003875132</ele>
        <time>2021-12-26T19:00:11.316Z</time>
      </trkpt>
      <trkpt lat="47.90578" lon="-4.27452">
        <ele>64.229538050093</ele>
        <time>2021-12-26T19:00:17.923Z</time>
      </trkpt>
      <trkpt lat="47.90586" lon="-4.2743">
        <ele>64.238827463372</ele>
        <time>2021-12-26T19:00:24.533Z</time>
      </trkpt>
      <trkpt lat="47.90596" lon="-4.27407">
        <ele>64.264712763415</ele>
        <time>2021-12-26T19:00:31.145Z</time>
      </trkpt>
      <trkpt lat="47.90614" lon="-4.27361">
        <ele>64.2744429845</ele>
        <time>2021-12-26T19:00:37.762Z</time>
      </trkpt>
      <trkpt lat="47.90631" lon="-4.27318">
        <ele>64.306741667163</ele>
        <time>2021-12-26T19:00:44.383Z</time>
      </trkpt>
      <trkpt lat="47.90643" lon="-4.27289">
        <ele>64.428839374919</ele>
        <time>2021-12-26T19:00:51.007Z</time>
      </trkpt>
      <trkpt lat="47.90659" lon="-4.27254">
        <ele>64.584380095482</ele>
        <time>2021-12-26T19:00:57.635Z</time>
      </trkpt>
      <trkpt lat="47.90672" lon="-4.2723">
        <ele>64.753569250128</ele>
        <time>2021-12-26T19:01:04.265Z</time>
      </trkpt>
      <trkpt lat="47.90684" lon="-4.27207">
        <ele>64.923666373668</ele>
        <time>2021-12-26T19:01:10.898Z</time>
      </trkpt>
      <trkpt lat="47.90702" lon="-4.27181">
        <ele>65.101956280198</ele>
        <time>2021-12-26T19:01:17.534Z</time>
      </trkpt>
      <trkpt lat="47.90733" lon="-4.2715">
        <ele>65.306831082909</ele>
        <time>2021-12-26T19:01:24.175Z</time>
      </trkpt>
      <trkpt lat="47.90738" lon="-4.27146">
        <ele>65.469125881892</ele>
        <time>2021-12-26T19:01:30.817Z</time>
      </trkpt>
      <trkpt lat="47.90744" lon="-4.27142">
        <ele>65.633834112914</ele>
        <time>2021-12-26T19:01:37.459Z</time>
      </trkpt>
      <trkpt lat="47.9075" lon="-4.27137">
        <ele>65.800395143341</ele>
        <time>2021-12-26T19:01:44.102Z</time>
      </trkpt>
      <trkpt lat="47.90762" lon="-4.2713">
        <ele>65.966621415677</ele>
        <time>2021-12-26T19:01:50.747Z</time>
      </trkpt>
      <trkpt lat="47.90768" lon="-4.27126">
        <ele>66.122873606526</ele>
        <time>2021-12-26T19:01:57.393Z</time>
      </trkpt>
      <trkpt lat="47.90774" lon="-4.27123">
        <ele>66.279987272475</ele>
        <time>2021-12-26T19:02:04.040Z</time>
      </trkpt>
      <trkpt lat="47.9078" lon="-4.2712">
        <ele>66.433366867805</ele>
        <time>2021-12-26T19:02:10.687Z</time>
      </trkpt>
      <trkpt lat="47.90787" lon="-4.27118">
        <ele>66.580997405451</ele>
        <time>2021-12-26T19:02:17.335Z</time>
      </trkpt>
      <trkpt lat="47.90793" lon="-4.27115">
        <ele>66.727664000486</ele>
        <time>2021-12-26T19:02:23.984Z</time>
      </trkpt>
      <trkpt lat="47.90827" lon="-4.271">
        <ele>66.907347308173</ele>
        <time>2021-12-26T19:02:30.638Z</time>
      </trkpt>
      <trkpt lat="47.90847" lon="-4.2709">
        <ele>67.077276679009</ele>
        <time>2021-12-26T19:02:37.294Z</time>
      </trkpt>
      <trkpt lat="47.90903" lon="-4.27065">
        <ele>67.191992309703</ele>
        <time>2021-12-26T19:02:43.958Z</time>
      </trkpt>
      <trkpt lat="47.9096" lon="-4.27039">
        <ele>67.323095199806</ele>
        <time>2021-12-26T19:02:50.630Z</time>
      </trkpt>
      <trkpt lat="47.90974" lon="-4.27032">
        <ele>67.367589990055</ele>
        <time>2021-12-26T19:02:57.304Z</time>
      </trkpt>
      <trkpt lat="47.91011" lon="-4.27016">
        <ele>67.395516248749</ele>
        <time>2021-12-26T19:03:03.983Z</time>
      </trkpt>
      <trkpt lat="47.91056" lon="-4.26994">
        <ele>67.436551372038</ele>
        <time>2021-12-26T19:03:10.668Z</time>
      </trkpt>
      <trkpt lat="47.91071" lon="-4.26986">
        <ele>67.460921748317</ele>
        <time>2021-12-26T19:03:17.355Z</time>
      </trkpt>
      <trkpt lat="47.91115" lon="-4.2696">
        <ele>67.440069337336</ele>
        <time>2021-12-26T19:03:24.048Z</time>
      </trkpt>
      <trkpt lat="47.91159" lon="-4.26931">
        <ele>67.43613104488</ele>
        <time>2021-12-26T19:03:30.747Z</time>
      </trkpt>
      <trkpt lat="47.9118" lon="-4.26915">
        <ele>67.375887240002</ele>
        <time>2021-12-26T19:03:37.449Z</time>
      </trkpt>
      <trkpt lat="47.91187" lon="-4.26909">
        <ele>67.321006970963</ele>
        <time>2021-12-26T19:03:44.152Z</time>
      </trkpt>
      <trkpt lat="47.91231" lon="-4.2687">
        <ele>67.270140795054</ele>
        <time>2021-12-26T19:03:50.862Z</time>
      </trkpt>
      <trkpt lat="47.91239" lon="-4.26863">
        <ele>67.150744877419</ele>
        <time>2021-12-26T19:03:57.573Z</time>
      </trkpt>
      <trkpt lat="47.91247" lon="-4.26856">
        <ele>67.001505794741</ele>
        <time>2021-12-26T19:04:04.285Z</time>
      </trkpt>
      <trkpt lat="47.91254" lon="-4.26849">
        <ele>66.839682250114</ele>
        <time>2021-12-26T19:04:10.998Z</time>
      </trkpt>
      <trkpt lat="47.91262" lon="-4.26842">
        <ele>66.660295610481</ele>
        <time>2021-12-26T19:04:17.712Z</time>
      </trkpt>
      <trkpt lat="47.91277" lon="-4.26826">
        <ele>66.494592731265</ele>
        <time>2021-12-26T19:04:24.429Z</time>
      </trkpt>
      <trkpt lat="47.91285" lon="-4.26818">
        <ele>66.283916733931</ele>
        <time>2021-12-26T19:04:31.147Z</time>
      </trkpt>
      <trkpt lat="47.91293" lon="-4.2681">
        <ele>66.046125144015</ele>
        <time>2021-12-26T19:04:37.866Z</time>
      </trkpt>
      <trkpt lat="47.91309" lon="-4.26793">
        <ele>65.758715829535</ele>
        <time>2021-12-26T19:04:44.588Z</time>
      </trkpt>
      <trkpt lat="47.9134" lon="-4.26757">
        <ele>65.365885521508</ele>
        <time>2021-12-26T19:04:51.315Z</time>
      </trkpt>
      <trkpt lat="47.91362" lon="-4.26728">
        <ele>64.952193969758</ele>
        <time>2021-12-26T19:04:58.046Z</time>
      </trkpt>
      <trkpt lat="47.91369" lon="-4.26719">
        <ele>64.597842051711</ele>
        <time>2021-12-26T19:05:04.778Z</time>
      </trkpt>
      <trkpt lat="47.91376" lon="-4.26709">
        <ele>64.25763885871</ele>
        <time>2021-12-26T19:05:11.511Z</time>
      </trkpt>
      <trkpt lat="47.91383" lon="-4.26699">
        <ele>63.922304133034</ele>
        <time>2021-12-26T19:05:18.245Z</time>
      </trkpt>
      <trkpt lat="47.91416" lon="-4.26651">
        <ele>63.615972769436</ele>
        <time>2021-12-26T19:05:24.985Z</time>
      </trkpt>
      <trkpt lat="47.91422" lon="-4.26642">
        <ele>63.248175191505</ele>
        <time>2021-12-26T19:05:31.726Z</time>
      </trkpt>
      <trkpt lat="47.91428" lon="-4.26632">
        <ele>62.862409131131</ele>
        <time>2021-12-26T19:05:38.469Z</time>
      </trkpt>
      <trkpt lat="47.91446" lon="-4.26604">
        <ele>62.430084133212</ele>
        <time>2021-12-26T19:05:45.215Z</time>
      </trkpt>
      <trkpt lat="47.91458" lon="-4.26585">
        <ele>62.052792873692</ele>
        <time>2021-12-26T19:05:51.963Z</time>
      </trkpt>
      <trkpt lat="47.91477" lon="-4.26557">
        <ele>61.694213058764</ele>
        <time>2021-12-26T19:05:58.715Z</time>
      </trkpt>
      <trkpt lat="47.91484" lon="-4.26548">
        <ele>61.243912977048</ele>
        <time>2021-12-26T19:06:05.468Z</time>
      </trkpt>
      <trkpt lat="47.91491" lon="-4.26539">
        <ele>60.743658169057</ele>
        <time>2021-12-26T19:06:12.222Z</time>
      </trkpt>
      <trkpt lat="47.91498" lon="-4.26531">
        <ele>60.215283274614</ele>
        <time>2021-12-26T19:06:18.977Z</time>
      </trkpt>
      <trkpt lat="47.91504" lon="-4.26522">
        <ele>59.657854786166</ele>
        <time>2021-12-26T19:06:25.733Z</time>
      </trkpt>
      <trkpt lat="47.91511" lon="-4.26513">
        <ele>59.058270415682</ele>
        <time>2021-12-26T19:06:32.491Z</time>
      </trkpt>
      <trkpt lat="47.91548" lon="-4.2647">
        <ele>58.337811570516</ele>
        <time>2021-12-26T19:06:39.255Z</time>
      </trkpt>
      <trkpt lat="47.91592" lon="-4.26417">
        <ele>57.629085292102</ele>
        <time>2021-12-26T19:06:46.026Z</time>
      </trkpt>
      <trkpt lat="47.91607" lon="-4.26398">
        <ele>56.957051819063</ele>
        <time>2021-12-26T19:06:52.800Z</time>
      </trkpt>
      <trkpt lat="47.91615" lon="-4.26389">
        <ele>56.263535157082</ele>
        <time>2021-12-26T19:06:59.575Z</time>
      </trkpt>
      <trkpt lat="47.91631" lon="-4.2637">
        <ele>55.516582451618</ele>
        <time>2021-12-26T19:07:06.352Z</time>
      </trkpt>
      <trkpt lat="47.91639" lon="-4.2636">
        <ele>54.74605083112</ele>
        <time>2021-12-26T19:07:13.131Z</time>
      </trkpt>
      <trkpt lat="47.91647" lon="-4.2635">
        <ele>53.946425969801</ele>
        <time>2021-12-26T19:07:19.911Z</time>
      </trkpt>
      <trkpt lat="47.91664" lon="-4.26329">
        <ele>53.098551734986</ele>
        <time>2021-12-26T19:07:26.694Z</time>
      </trkpt>
      <trkpt lat="47.91673" lon="-4.26319">
        <ele>52.278803793725</ele>
        <time>2021-12-26T19:07:33.478Z</time>
      </trkpt>
      <trkpt lat="47.91691" lon="-4.26299">
        <ele>51.434912957424</ele>
        <time>2021-12-26T19:07:40.265Z</time>
      </trkpt>
      <trkpt lat="47.91712" lon="-4.2628">
        <ele>50.565430182822</ele>
        <time>2021-12-26T19:07:47.055Z</time>
      </trkpt>
      <trkpt lat="47.91722" lon="-4.26271">
        <ele>49.697022604966</ele>
        <time>2021-12-26T19:07:53.847Z</time>
      </trkpt>
      <trkpt lat="47.91733" lon="-4.26262">
        <ele>48.81190924114</ele>
        <time>2021-12-26T19:08:00.641Z</time>
      </trkpt>
      <trkpt lat="47.91755" lon="-4.26244">
        <ele>47.876320362452</ele>
        <time>2021-12-26T19:08:07.438Z</time>
      </trkpt>
      <trkpt lat="47.91777" lon="-4.26224">
        <ele>47.056549583892</ele>
        <time>2021-12-26T19:08:14.238Z</time>
      </trkpt>
      <trkpt lat="47.91788" lon="-4.26215">
        <ele>46.25711976717</ele>
        <time>2021-12-26T19:08:21.040Z</time>
      </trkpt>
      <trkpt lat="47.91799" lon="-4.26205">
        <ele>45.45934502666</ele>
        <time>2021-12-26T19:08:27.843Z</time>
      </trkpt>
      <trkpt lat="47.91821" lon="-4.26186">
        <ele>44.676291759072</ele>
        <time>2021-12-26T19:08:34.650Z</time>
      </trkpt>
      <trkpt lat="47.91844" lon="-4.26165">
        <ele>43.889566885965</ele>
        <time>2021-12-26T19:08:41.460Z</time>
      </trkpt>
      <trkpt lat="47.91855" lon="-4.26154">
        <ele>43.119206456017</ele>
        <time>2021-12-26T19:08:48.272Z</time>
      </trkpt>
      <trkpt lat="47.91865" lon="-4.26142">
        <ele>42.381808844951</ele>
        <time>2021-12-26T19:08:55.086Z</time>
      </trkpt>
      <trkpt lat="47.91876" lon="-4.26129">
        <ele>41.675468337642</ele>
        <time>2021-12-26T19:09:01.901Z</time>
      </trkpt>
      <trkpt lat="47.91895" lon="-4.261">
        <ele>40.912698307428</ele>
        <time>2021-12-26T19:09:08.720Z</time>
      </trkpt>
      <trkpt lat="47.91904" lon="-4.26084">
        <ele>40.315997944224</ele>
        <time>2021-12-26T19:09:15.541Z</time>
      </trkpt>
      <trkpt lat="47.9192" lon="-4.2605">
        <ele>39.811159030162</ele>
        <time>2021-12-26T19:09:22.365Z</time>
      </trkpt>
      <trkpt lat="47.91935" lon="-4.26015">
        <ele>39.321024601684</ele>
        <time>2021-12-26T19:09:29.193Z</time>
      </trkpt>
      <trkpt lat="47.91942" lon="-4.25998">
        <ele>38.932792579228</ele>
        <time>2021-12-26T19:09:36.023Z</time>
      </trkpt>
      <trkpt lat="47.91955" lon="-4.25963">
        <ele>38.559265665905</ele>
        <time>2021-12-26T19:09:42.856Z</time>
      </trkpt>
      <trkpt lat="47.91979" lon="-4.25898">
        <ele>38.325006511734</ele>
        <time>2021-12-26T19:09:49.696Z</time>
      </trkpt>
      <trkpt lat="47.91985" lon="-4.25882">
        <ele>38.133524977785</ele>
        <time>2021-12-26T19:09:56.537Z</time>
      </trkpt>
      <trkpt lat="47.91996" lon="-4.25852">
        <ele>38.014675826614</ele>
        <time>2021-12-26T19:10:03.381Z</time>
      </trkpt>
      <trkpt lat="47.92013" lon="-4.2581">
        <ele>37.924626772264</ele>
        <time>2021-12-26T19:10:10.229Z</time>
      </trkpt>
      <trkpt lat="47.92018" lon="-4.25797">
        <ele>37.980281091671</ele>
        <time>2021-12-26T19:10:17.079Z</time>
      </trkpt>
      <trkpt lat="47.92023" lon="-4.25784">
        <ele>38.115389668094</ele>
        <time>2021-12-26T19:10:23.930Z</time>
      </trkpt>
      <trkpt lat="47.92032" lon="-4.2576">
        <ele>38.33957991713</ele>
        <time>2021-12-26T19:10:30.783Z</time>
      </trkpt>
      <trkpt lat="47.9204" lon="-4.25739">
        <ele>38.634699743512</ele>
        <time>2021-12-26T19:10:37.639Z</time>
      </trkpt>
      <trkpt lat="47.92044" lon="-4.25728">
        <ele>38.951142274185</ele>
        <time>2021-12-26T19:10:44.496Z</time>
      </trkpt>
      <trkpt lat="47.92048" lon="-4.25718">
        <ele>39.318948642627</ele>
        <time>2021-12-26T19:10:51.354Z</time>
      </trkpt>
      <trkpt lat="47.92051" lon="-4.25708">
        <ele>39.733423434501</ele>
        <time>2021-12-26T19:10:58.213Z</time>
      </trkpt>
      <trkpt lat="47.92055" lon="-4.25698">
        <ele>40.192343627397</ele>
        <time>2021-12-26T19:11:05.072Z</time>
      </trkpt>
      <trkpt lat="47.92062" lon="-4.25679">
        <ele>40.720492866098</ele>
        <time>2021-12-26T19:11:11.933Z</time>
      </trkpt>
      <trkpt lat="47.92065" lon="-4.25671">
        <ele>41.247880648242</ele>
        <time>2021-12-26T19:11:18.795Z</time>
      </trkpt>
      <trkpt lat="47.92072" lon="-4.25653">
        <ele>41.819870644396</ele>
        <time>2021-12-26T19:11:25.659Z</time>
      </trkpt>
      <trkpt lat="47.92082" lon="-4.25628">
        <ele>42.421601110274</ele>
        <time>2021-12-26T19:11:32.526Z</time>
      </trkpt>
      <trkpt lat="47.92091" lon="-4.25603">
        <ele>43.011029443837</ele>
        <time>2021-12-26T19:11:39.395Z</time>
      </trkpt>
      <trkpt lat="47.92094" lon="-4.25595">
        <ele>43.576659836653</ele>
        <time>2021-12-26T19:11:46.265Z</time>
      </trkpt>
      <trkpt lat="47.921" lon="-4.25581">
        <ele>44.139311823356</ele>
        <time>2021-12-26T19:11:53.136Z</time>
      </trkpt>
      <trkpt lat="47.92109" lon="-4.25559">
        <ele>44.691333967296</ele>
        <time>2021-12-26T19:12:00.009Z</time>
      </trkpt>
      <trkpt lat="47.92116" lon="-4.25538">
        <ele>45.206178027145</ele>
        <time>2021-12-26T19:12:06.885Z</time>
      </trkpt>
      <trkpt lat="47.92122" lon="-4.25524">
        <ele>45.683313730023</ele>
        <time>2021-12-26T19:12:13.762Z</time>
      </trkpt>
      <trkpt lat="47.92127" lon="-4.2551">
        <ele>46.131220444477</ele>
        <time>2021-12-26T19:12:20.640Z</time>
      </trkpt>
      <trkpt lat="47.92133" lon="-4.25496">
        <ele>46.540317598045</ele>
        <time>2021-12-26T19:12:27.520Z</time>
      </trkpt>
      <trkpt lat="47.92141" lon="-4.25475">
        <ele>46.943156596164</ele>
        <time>2021-12-26T19:12:34.402Z</time>
      </trkpt>
      <trkpt lat="47.92147" lon="-4.2546">
        <ele>47.270002071477</ele>
        <time>2021-12-26T19:12:41.285Z</time>
      </trkpt>
      <trkpt lat="47.9216" lon="-4.25433">
        <ele>47.586410053691</ele>
        <time>2021-12-26T19:12:48.171Z</time>
      </trkpt>
      <trkpt lat="47.92173" lon="-4.25408">
        <ele>47.800321624654</ele>
        <time>2021-12-26T19:12:55.060Z</time>
      </trkpt>
      <trkpt lat="47.92185" lon="-4.25386">
        <ele>47.963871316092</ele>
        <time>2021-12-26T19:13:01.951Z</time>
      </trkpt>
      <trkpt lat="47.92209" lon="-4.25348">
        <ele>48.035498894335</ele>
        <time>2021-12-26T19:13:08.847Z</time>
      </trkpt>
      <trkpt lat="47.92218" lon="-4.25332">
        <ele>48.011735436413</ele>
        <time>2021-12-26T19:13:15.745Z</time>
      </trkpt>
      <trkpt lat="47.9225" lon="-4.25283">
        <ele>47.854736824068</ele>
        <time>2021-12-26T19:13:22.649Z</time>
      </trkpt>
      <trkpt lat="47.92261" lon="-4.25264">
        <ele>47.661255779323</ele>
        <time>2021-12-26T19:13:29.555Z</time>
      </trkpt>
      <trkpt lat="47.92272" lon="-4.25242">
        <ele>47.405335233236</ele>
        <time>2021-12-26T19:13:36.463Z</time>
      </trkpt>
      <trkpt lat="47.9229" lon="-4.25205">
        <ele>47.072148014556</ele>
        <time>2021-12-26T19:13:43.375Z</time>
      </trkpt>
      <trkpt lat="47.92295" lon="-4.25192">
        <ele>46.716704958706</ele>
        <time>2021-12-26T19:13:50.289Z</time>
      </trkpt>
      <trkpt lat="47.92306" lon="-4.25164">
        <ele>46.259578259834</ele>
        <time>2021-12-26T19:13:57.205Z</time>
      </trkpt>
      <trkpt lat="47.92318" lon="-4.25134">
        <ele>45.769698655001</ele>
        <time>2021-12-26T19:14:04.124Z</time>
      </trkpt>
      <trkpt lat="47.92324" lon="-4.25119">
        <ele>45.281676223786</ele>
        <time>2021-12-26T19:14:11.045Z</time>
      </trkpt>
      <trkpt lat="47.92329" lon="-4.25103">
        <ele>44.765114241752</ele>
        <time>2021-12-26T19:14:17.967Z</time>
      </trkpt>
      <trkpt lat="47.9234" lon="-4.25071">
        <ele>44.235543048129</ele>
        <time>2021-12-26T19:14:24.893Z</time>
      </trkpt>
      <trkpt lat="47.92346" lon="-4.25055">
        <ele>43.713089891112</ele>
        <time>2021-12-26T19:14:31.820Z</time>
      </trkpt>
      <trkpt lat="47.92352" lon="-4.25039">
        <ele>43.197539814002</ele>
        <time>2021-12-26T19:14:38.749Z</time>
      </trkpt>
      <trkpt lat="47.92357" lon="-4.25023">
        <ele>42.698591348882</ele>
        <time>2021-12-26T19:14:45.679Z</time>
      </trkpt>
      <trkpt lat="47.92363" lon="-4.25006">
        <ele>42.16332290074</ele>
        <time>2021-12-26T19:14:52.611Z</time>
      </trkpt>
      <trkpt lat="47.92369" lon="-4.2499">
        <ele>41.640519840178</ele>
        <time>2021-12-26T19:14:59.544Z</time>
      </trkpt>
      <trkpt lat="47.9238" lon="-4.24957">
        <ele>41.100545870199</ele>
        <time>2021-12-26T19:15:06.481Z</time>
      </trkpt>
      <trkpt lat="47.92385" lon="-4.24941">
        <ele>40.639080256571</ele>
        <time>2021-12-26T19:15:13.419Z</time>
      </trkpt>
      <trkpt lat="47.92403" lon="-4.24893">
        <ele>40.017414827523</ele>
        <time>2021-12-26T19:15:20.362Z</time>
      </trkpt>
      <trkpt lat="47.92414" lon="-4.24862">
        <ele>39.581571799071</ele>
        <time>2021-12-26T19:15:27.308Z</time>
      </trkpt>
      <trkpt lat="47.92419" lon="-4.24847">
        <ele>39.283312861697</ele>
        <time>2021-12-26T19:15:34.256Z</time>
      </trkpt>
      <trkpt lat="47.92424" lon="-4.24832">
        <ele>39.082159321147</ele>
        <time>2021-12-26T19:15:41.205Z</time>
      </trkpt>
      <trkpt lat="47.9243" lon="-4.24818">
        <ele>38.942801663318</ele>
        <time>2021-12-26T19:15:48.155Z</time>
      </trkpt>
      <trkpt lat="47.92435" lon="-4.24804">
        <ele>38.862513143339</ele>
        <time>2021-12-26T19:15:55.107Z</time>
      </trkpt>
      <trkpt lat="47.92468" lon="-4.24731">
        <ele>38.979127745863</ele>
        <time>2021-12-26T19:16:02.066Z</time>
      </trkpt>
      <trkpt lat="47.92473" lon="-4.24719">
        <ele>39.075509659837</ele>
        <time>2021-12-26T19:16:09.027Z</time>
      </trkpt>
      <trkpt lat="47.92484" lon="-4.24698">
        <ele>39.301550499297</ele>
        <time>2021-12-26T19:16:15.990Z</time>
      </trkpt>
      <trkpt lat="47.92489" lon="-4.24689">
        <ele>39.516312341919</ele>
        <time>2021-12-26T19:16:22.954Z</time>
      </trkpt>
      <trkpt lat="47.92494" lon="-4.24679">
        <ele>39.786630207793</ele>
        <time>2021-12-26T19:16:29.919Z</time>
      </trkpt>
      <trkpt lat="47.92499" lon="-4.24669">
        <ele>40.108594962318</ele>
        <time>2021-12-26T19:16:36.885Z</time>
      </trkpt>
      <trkpt lat="47.92517" lon="-4.24635">
        <ele>40.590858871723</ele>
        <time>2021-12-26T19:16:43.855Z</time>
      </trkpt>
      <trkpt lat="47.92526" lon="-4.24619">
        <ele>40.972357701694</ele>
        <time>2021-12-26T19:16:50.827Z</time>
      </trkpt>
      <trkpt lat="47.9253" lon="-4.24611">
        <ele>41.392160500424</ele>
        <time>2021-12-26T19:16:57.799Z</time>
      </trkpt>
      <trkpt lat="47.92538" lon="-4.24596">
        <ele>41.859879472013</ele>
        <time>2021-12-26T19:17:04.773Z</time>
      </trkpt>
      <trkpt lat="47.92542" lon="-4.24589">
        <ele>42.371702578713</ele>
        <time>2021-12-26T19:17:11.748Z</time>
      </trkpt>
      <trkpt lat="47.92554" lon="-4.24567">
        <ele>42.966515653234</ele>
        <time>2021-12-26T19:17:18.725Z</time>
      </trkpt>
      <trkpt lat="47.92558" lon="-4.2456">
        <ele>43.519334976118</ele>
        <time>2021-12-26T19:17:25.703Z</time>
      </trkpt>
      <trkpt lat="47.92562" lon="-4.24552">
        <ele>44.09030686478</ele>
        <time>2021-12-26T19:17:32.682Z</time>
      </trkpt>
      <trkpt lat="47.92565" lon="-4.24545">
        <ele>44.675256431613</ele>
        <time>2021-12-26T19:17:39.662Z</time>
      </trkpt>
      <trkpt lat="47.92569" lon="-4.24538">
        <ele>45.265986287568</ele>
        <time>2021-12-26T19:17:46.643Z</time>
      </trkpt>
      <trkpt lat="47.92579" lon="-4.24517">
        <ele>45.914432788836</ele>
        <time>2021-12-26T19:17:53.626Z</time>
      </trkpt>
      <trkpt lat="47.92583" lon="-4.2451">
        <ele>46.495514557573</ele>
        <time>2021-12-26T19:18:00.610Z</time>
      </trkpt>
      <trkpt lat="47.92593" lon="-4.24489">
        <ele>47.099646098811</ele>
        <time>2021-12-26T19:18:07.596Z</time>
      </trkpt>
      <trkpt lat="47.92602" lon="-4.24468">
        <ele>47.677297480302</ele>
        <time>2021-12-26T19:18:14.584Z</time>
      </trkpt>
      <trkpt lat="47.92608" lon="-4.24454">
        <ele>48.212104419737</ele>
        <time>2021-12-26T19:18:21.574Z</time>
      </trkpt>
      <trkpt lat="47.92618" lon="-4.24432">
        <ele>48.71788389199</ele>
        <time>2021-12-26T19:18:28.566Z</time>
      </trkpt>
      <trkpt lat="47.92632" lon="-4.24404">
        <ele>49.21721967038</ele>
        <time>2021-12-26T19:18:35.561Z</time>
      </trkpt>
      <trkpt lat="47.92635" lon="-4.24396">
        <ele>49.724865318461</ele>
        <time>2021-12-26T19:18:42.557Z</time>
      </trkpt>
      <trkpt lat="47.92644" lon="-4.24374">
        <ele>50.229902988676</ele>
        <time>2021-12-26T19:18:49.555Z</time>
      </trkpt>
      <trkpt lat="47.92648" lon="-4.24367">
        <ele>50.690767446554</ele>
        <time>2021-12-26T19:18:56.554Z</time>
      </trkpt>
      <trkpt lat="47.92658" lon="-4.24344">
        <ele>51.142367109696</ele>
        <time>2021-12-26T19:19:03.555Z</time>
      </trkpt>
      <trkpt lat="47.92669" lon="-4.24321">
        <ele>51.578826061491</ele>
        <time>2021-12-26T19:19:10.558Z</time>
      </trkpt>
      <trkpt lat="47.92681" lon="-4.24297">
        <ele>51.973591367484</ele>
        <time>2021-12-26T19:19:17.564Z</time>
      </trkpt>
      <trkpt lat="47.92696" lon="-4.24265">
        <ele>52.394691381667</ele>
        <time>2021-12-26T19:19:24.573Z</time>
      </trkpt>
      <trkpt lat="47.92707" lon="-4.24241">
        <ele>52.80061305439</ele>
        <time>2021-12-26T19:19:31.585Z</time>
      </trkpt>
      <trkpt lat="47.92732" lon="-4.24181">
        <ele>53.319691661991</ele>
        <time>2021-12-26T19:19:38.603Z</time>
      </trkpt>
      <trkpt lat="47.92742" lon="-4.24155">
        <ele>53.684622239393</ele>
        <time>2021-12-26T19:19:45.624Z</time>
      </trkpt>
      <trkpt lat="47.92757" lon="-4.2411">
        <ele>53.958023167444</ele>
        <time>2021-12-26T19:19:52.649Z</time>
      </trkpt>
      <trkpt lat="47.92774" lon="-4.2405">
        <ele>54.215913448053</ele>
        <time>2021-12-26T19:19:59.680Z</time>
      </trkpt>
      <trkpt lat="47.92776" lon="-4.24039">
        <ele>54.513567605564</ele>
        <time>2021-12-26T19:20:06.712Z</time>
      </trkpt>
      <trkpt lat="47.92785" lon="-4.23997">
        <ele>54.738941574544</ele>
        <time>2021-12-26T19:20:13.748Z</time>
      </trkpt>
      <trkpt lat="47.92794" lon="-4.23953">
        <ele>55.020478041917</ele>
        <time>2021-12-26T19:20:20.788Z</time>
      </trkpt>
      <trkpt lat="47.92808" lon="-4.23886">
        <ele>55.332653505181</ele>
        <time>2021-12-26T19:20:27.834Z</time>
      </trkpt>
      <trkpt lat="47.92813" lon="-4.23864">
        <ele>55.642461137418</ele>
        <time>2021-12-26T19:20:34.882Z</time>
      </trkpt>
      <trkpt lat="47.92816" lon="-4.23853">
        <ele>55.970117821969</ele>
        <time>2021-12-26T19:20:41.931Z</time>
      </trkpt>
      <trkpt lat="47.92823" lon="-4.2382">
        <ele>56.342354284918</ele>
        <time>2021-12-26T19:20:48.983Z</time>
      </trkpt>
      <trkpt lat="47.92834" lon="-4.23767">
        <ele>56.794897827104</ele>
        <time>2021-12-26T19:20:56.039Z</time>
      </trkpt>
      <trkpt lat="47.92836" lon="-4.23756">
        <ele>57.183772315959</ele>
        <time>2021-12-26T19:21:03.096Z</time>
      </trkpt>
      <trkpt lat="47.92843" lon="-4.23725">
        <ele>57.64096989685</ele>
        <time>2021-12-26T19:21:10.156Z</time>
      </trkpt>
      <trkpt lat="47.92856" lon="-4.23662">
        <ele>58.024878930041</ele>
        <time>2021-12-26T19:21:17.222Z</time>
      </trkpt>
      <trkpt lat="47.92858" lon="-4.23652">
        <ele>58.400904639035</ele>
        <time>2021-12-26T19:21:24.289Z</time>
      </trkpt>
      <trkpt lat="47.92878" lon="-4.23565">
        <ele>58.862347352934</ele>
        <time>2021-12-26T19:21:31.364Z</time>
      </trkpt>
      <trkpt lat="47.92896" lon="-4.23479">
        <ele>59.333694763729</ele>
        <time>2021-12-26T19:21:38.447Z</time>
      </trkpt>
      <trkpt lat="47.92901" lon="-4.23457">
        <ele>59.737675813067</ele>
        <time>2021-12-26T19:21:45.532Z</time>
      </trkpt>
      <trkpt lat="47.92917" lon="-4.23383">
        <ele>60.101874983116</ele>
        <time>2021-12-26T19:21:52.623Z</time>
      </trkpt>
      <trkpt lat="47.92921" lon="-4.23361">
        <ele>60.523047505052</ele>
        <time>2021-12-26T19:21:59.716Z</time>
      </trkpt>
      <trkpt lat="47.9293" lon="-4.2332">
        <ele>61.001799069187</ele>
        <time>2021-12-26T19:22:06.813Z</time>
      </trkpt>
      <trkpt lat="47.92943" lon="-4.23269">
        <ele>61.539695660501</ele>
        <time>2021-12-26T19:22:13.915Z</time>
      </trkpt>
      <trkpt lat="47.92951" lon="-4.23238">
        <ele>62.018479827939</ele>
        <time>2021-12-26T19:22:21.020Z</time>
      </trkpt>
      <trkpt lat="47.9296" lon="-4.23208">
        <ele>62.482236846161</ele>
        <time>2021-12-26T19:22:28.128Z</time>
      </trkpt>
      <trkpt lat="47.92967" lon="-4.23188">
        <ele>62.955873023849</ele>
        <time>2021-12-26T19:22:35.238Z</time>
      </trkpt>
      <trkpt lat="47.92973" lon="-4.23168">
        <ele>63.391862067128</ele>
        <time>2021-12-26T19:22:42.350Z</time>
      </trkpt>
      <trkpt lat="47.92987" lon="-4.23128">
        <ele>63.781309980735</ele>
        <time>2021-12-26T19:22:49.465Z</time>
      </trkpt>
      <trkpt lat="47.93006" lon="-4.23082">
        <ele>64.201778655804</ele>
        <time>2021-12-26T19:22:56.585Z</time>
      </trkpt>
      <trkpt lat="47.93014" lon="-4.23064">
        <ele>64.621785358504</ele>
        <time>2021-12-26T19:23:03.707Z</time>
      </trkpt>
      <trkpt lat="47.93037" lon="-4.23013">
        <ele>65.116120458141</ele>
        <time>2021-12-26T19:23:10.834Z</time>
      </trkpt>
      <trkpt lat="47.93045" lon="-4.22997">
        <ele>65.501646587223</ele>
        <time>2021-12-26T19:23:17.963Z</time>
      </trkpt>
      <trkpt lat="47.93054" lon="-4.22985">
        <ele>65.867899250195</ele>
        <time>2021-12-26T19:23:25.094Z</time>
      </trkpt>
      <trkpt lat="47.93066" lon="-4.22982">
        <ele>66.200386387731</ele>
        <time>2021-12-26T19:23:32.226Z</time>
      </trkpt>
      <trkpt lat="47.93072" lon="-4.22986">
        <ele>66.496073336975</ele>
        <time>2021-12-26T19:23:39.359Z</time>
      </trkpt>
      <trkpt lat="47.93077" lon="-4.22992">
        <ele>66.766072077748</ele>
        <time>2021-12-26T19:23:46.493Z</time>
      </trkpt>
      <trkpt lat="47.93088" lon="-4.23005">
        <ele>66.994786451803</ele>
        <time>2021-12-26T19:23:53.629Z</time>
      </trkpt>
      <trkpt lat="47.93094" lon="-4.2301">
        <ele>67.22283791001</ele>
        <time>2021-12-26T19:24:00.766Z</time>
      </trkpt>
      <trkpt lat="47.93114" lon="-4.23024">
        <ele>67.424761326171</ele>
        <time>2021-12-26T19:24:07.905Z</time>
      </trkpt>
      <trkpt lat="47.9314" lon="-4.23044">
        <ele>67.62546718413</ele>
        <time>2021-12-26T19:24:15.048Z</time>
      </trkpt>
      <trkpt lat="47.93177" lon="-4.23073">
        <ele>67.825288762345</ele>
        <time>2021-12-26T19:24:22.197Z</time>
      </trkpt>
      <trkpt lat="47.93182" lon="-4.23077">
        <ele>67.996589173342</ele>
        <time>2021-12-26T19:24:29.346Z</time>
      </trkpt>
      <trkpt lat="47.93193" lon="-4.23085">
        <ele>68.171433392701</ele>
        <time>2021-12-26T19:24:36.497Z</time>
      </trkpt>
      <trkpt lat="47.93206" lon="-4.23097">
        <ele>68.334062161383</ele>
        <time>2021-12-26T19:24:43.650Z</time>
      </trkpt>
      <trkpt lat="47.93225" lon="-4.23112">
        <ele>68.459801870663</ele>
        <time>2021-12-26T19:24:50.806Z</time>
      </trkpt>
      <trkpt lat="47.93235" lon="-4.2312">
        <ele>68.545360454092</ele>
        <time>2021-12-26T19:24:57.963Z</time>
      </trkpt>
      <trkpt lat="47.93262" lon="-4.23143">
        <ele>68.549536110928</ele>
        <time>2021-12-26T19:25:05.124Z</time>
      </trkpt>
      <trkpt lat="47.93273" lon="-4.23152">
        <ele>68.59017268581</ele>
        <time>2021-12-26T19:25:12.287Z</time>
      </trkpt>
      <trkpt lat="47.93323" lon="-4.23192">
        <ele>68.653434876406</ele>
        <time>2021-12-26T19:25:19.457Z</time>
      </trkpt>
      <trkpt lat="47.93375" lon="-4.23225">
        <ele>68.596979409493</ele>
        <time>2021-12-26T19:25:26.634Z</time>
      </trkpt>
      <trkpt lat="47.93429" lon="-4.23256">
        <ele>68.630769067967</ele>
        <time>2021-12-26T19:25:33.819Z</time>
      </trkpt>
      <trkpt lat="47.93473" lon="-4.23286">
        <ele>68.462010045457</ele>
        <time>2021-12-26T19:25:41.010Z</time>
      </trkpt>
      <trkpt lat="47.9348" lon="-4.23292">
        <ele>68.344247434198</ele>
        <time>2021-12-26T19:25:48.202Z</time>
      </trkpt>
      <trkpt lat="47.93502" lon="-4.2331">
        <ele>68.165791896729</ele>
        <time>2021-12-26T19:25:55.397Z</time>
      </trkpt>
      <trkpt lat="47.93525" lon="-4.23332">
        <ele>67.984112912496</ele>
        <time>2021-12-26T19:26:02.596Z</time>
      </trkpt>
      <trkpt lat="47.93532" lon="-4.23342">
        <ele>67.819649838432</ele>
        <time>2021-12-26T19:26:09.796Z</time>
      </trkpt>
      <trkpt lat="47.93543" lon="-4.23366">
        <ele>67.624570432136</ele>
        <time>2021-12-26T19:26:16.999Z</time>
      </trkpt>
      <trkpt lat="47.93565" lon="-4.23429">
        <ele>67.432004956501</ele>
        <time>2021-12-26T19:26:24.208Z</time>
      </trkpt>
      <trkpt lat="47.9357" lon="-4.23441">
        <ele>67.220364640974</ele>
        <time>2021-12-26T19:26:31.418Z</time>
      </trkpt>
      <trkpt lat="47.9358" lon="-4.23462">
        <ele>66.972582824761</ele>
        <time>2021-12-26T19:26:38.630Z</time>
      </trkpt>
      <trkpt lat="47.93599" lon="-4.23489">
        <ele>66.763072413321</ele>
        <time>2021-12-26T19:26:45.846Z</time>
      </trkpt>
      <trkpt lat="47.93606" lon="-4.23496">
        <ele>66.530313502169</ele>
        <time>2021-12-26T19:26:53.063Z</time>
      </trkpt>
      <trkpt lat="47.93613" lon="-4.23502">
        <ele>66.286973035495</ele>
        <time>2021-12-26T19:27:00.281Z</time>
      </trkpt>
      <trkpt lat="47.93621" lon="-4.23506">
        <ele>66.008585336029</ele>
        <time>2021-12-26T19:27:07.500Z</time>
      </trkpt>
      <trkpt lat="47.93628" lon="-4.2351">
        <ele>65.714264825105</ele>
        <time>2021-12-26T19:27:14.720Z</time>
      </trkpt>
      <trkpt lat="47.93636" lon="-4.23512">
        <ele>65.406843863232</ele>
        <time>2021-12-26T19:27:21.941Z</time>
      </trkpt>
      <trkpt lat="47.93659" lon="-4.23512">
        <ele>65.111299778016</ele>
        <time>2021-12-26T19:27:29.165Z</time>
      </trkpt>
      <trkpt lat="47.93667" lon="-4.23511">
        <ele>64.768931425068</ele>
        <time>2021-12-26T19:27:36.390Z</time>
      </trkpt>
      <trkpt lat="47.93698" lon="-4.23508">
        <ele>64.398278168652</ele>
        <time>2021-12-26T19:27:43.619Z</time>
      </trkpt>
      <trkpt lat="47.93738" lon="-4.23506">
        <ele>63.952891653845</ele>
        <time>2021-12-26T19:27:50.853Z</time>
      </trkpt>
      <trkpt lat="47.93746" lon="-4.23507">
        <ele>63.541661250384</ele>
        <time>2021-12-26T19:27:58.088Z</time>
      </trkpt>
      <trkpt lat="47.93755" lon="-4.2351">
        <ele>63.12574786718</ele>
        <time>2021-12-26T19:28:05.324Z</time>
      </trkpt>
      <trkpt lat="47.93764" lon="-4.23514">
        <ele>62.716244004294</ele>
        <time>2021-12-26T19:28:12.561Z</time>
      </trkpt>
      <trkpt lat="47.93783" lon="-4.23524">
        <ele>62.301904235331</ele>
        <time>2021-12-26T19:28:19.801Z</time>
      </trkpt>
      <trkpt lat="47.93793" lon="-4.23529">
        <ele>61.926809125536</ele>
        <time>2021-12-26T19:28:27.042Z</time>
      </trkpt>
      <trkpt lat="47.93804" lon="-4.23532">
        <ele>61.576545916555</ele>
        <time>2021-12-26T19:28:34.285Z</time>
      </trkpt>
      <trkpt lat="47.93814" lon="-4.23533">
        <ele>61.229035601891</ele>
        <time>2021-12-26T19:28:41.529Z</time>
      </trkpt>
      <trkpt lat="47.93826" lon="-4.23531">
        <ele>60.899373199141</ele>
        <time>2021-12-26T19:28:48.775Z</time>
      </trkpt>
      <trkpt lat="47.93838" lon="-4.23529">
        <ele>60.592015132189</ele>
        <time>2021-12-26T19:28:56.022Z</time>
      </trkpt>
      <trkpt lat="47.93849" lon="-4.23525">
        <ele>60.303210700694</ele>
        <time>2021-12-26T19:29:03.271Z</time>
      </trkpt>
      <trkpt lat="47.93883" lon="-4.23513">
        <ele>60.016921590022</ele>
        <time>2021-12-26T19:29:10.524Z</time>
      </trkpt>
      <trkpt lat="47.93894" lon="-4.23509">
        <ele>59.786683168036</ele>
        <time>2021-12-26T19:29:17.779Z</time>
      </trkpt>
      <trkpt lat="47.93916" lon="-4.23502">
        <ele>59.574423067145</ele>
        <time>2021-12-26T19:29:25.037Z</time>
      </trkpt>
      <trkpt lat="47.93968" lon="-4.23486">
        <ele>59.366728494561</ele>
        <time>2021-12-26T19:29:32.302Z</time>
      </trkpt>
      <trkpt lat="47.93968" lon="-4.23486">
        <ele>59.124077274456</ele>
        <time>2021-12-26T19:29:39.567Z</time>
      </trkpt>
      <trkpt lat="47.93978" lon="-4.23482">
        <ele>59.057491966895</ele>
        <time>2021-12-26T19:29:46.833Z</time>
      </trkpt>
      <trkpt lat="47.93996" lon="-4.23471">
        <ele>59.038490337298</ele>
        <time>2021-12-26T19:29:54.101Z</time>
      </trkpt>
      <trkpt lat="47.94021" lon="-4.23454">
        <ele>59.119803957635</ele>
        <time>2021-12-26T19:30:01.373Z</time>
      </trkpt>
      <trkpt lat="47.94045" lon="-4.23439">
        <ele>59.269508398168</ele>
        <time>2021-12-26T19:30:08.648Z</time>
      </trkpt>
      <trkpt lat="47.94053" lon="-4.23435">
        <ele>59.345209296388</ele>
        <time>2021-12-26T19:30:15.924Z</time>
      </trkpt>
      <trkpt lat="47.9406" lon="-4.23432">
        <ele>59.445399046487</ele>
        <time>2021-12-26T19:30:23.201Z</time>
      </trkpt>
      <trkpt lat="47.94068" lon="-4.23428">
        <ele>59.57504676949</ele>
        <time>2021-12-26T19:30:30.479Z</time>
      </trkpt>
      <trkpt lat="47.94075" lon="-4.23425">
        <ele>59.719226843638</ele>
        <time>2021-12-26T19:30:37.758Z</time>
      </trkpt>
      <trkpt lat="47.94083" lon="-4.23422">
        <ele>59.892250834108</ele>
        <time>2021-12-26T19:30:45.038Z</time>
      </trkpt>
      <trkpt lat="47.94091" lon="-4.2342">
        <ele>60.100777236563</ele>
        <time>2021-12-26T19:30:52.319Z</time>
      </trkpt>
      <trkpt lat="47.94106" lon="-4.23416">
        <ele>60.327920474216</ele>
        <time>2021-12-26T19:30:59.602Z</time>
      </trkpt>
      <trkpt lat="47.94122" lon="-4.23415">
        <ele>60.572153121603</ele>
        <time>2021-12-26T19:31:06.887Z</time>
      </trkpt>
      <trkpt lat="47.94137" lon="-4.23417">
        <ele>60.857115204592</ele>
        <time>2021-12-26T19:31:14.174Z</time>
      </trkpt>
      <trkpt lat="47.94153" lon="-4.23423">
        <ele>61.14522066348</ele>
        <time>2021-12-26T19:31:21.463Z</time>
      </trkpt>
      <trkpt lat="47.94177" lon="-4.23437">
        <ele>61.446911754101</ele>
        <time>2021-12-26T19:31:28.756Z</time>
      </trkpt>
      <trkpt lat="47.94209" lon="-4.23454">
        <ele>61.793626737996</ele>
        <time>2021-12-26T19:31:36.053Z</time>
      </trkpt>
      <trkpt lat="47.94231" lon="-4.23467">
        <ele>62.273832598369</ele>
        <time>2021-12-26T19:31:43.353Z</time>
      </trkpt>
      <trkpt lat="47.94238" lon="-4.23471">
        <ele>62.768029567357</ele>
        <time>2021-12-26T19:31:50.654Z</time>
      </trkpt>
      <trkpt lat="47.94245" lon="-4.23474">
        <ele>63.292642754502</ele>
        <time>2021-12-26T19:31:57.956Z</time>
      </trkpt>
      <trkpt lat="47.94265" lon="-4.23484">
        <ele>63.863093368482</ele>
        <time>2021-12-26T19:32:05.261Z</time>
      </trkpt>
      <trkpt lat="47.94277" lon="-4.2349">
        <ele>64.448890140957</ele>
        <time>2021-12-26T19:32:12.568Z</time>
      </trkpt>
      <trkpt lat="47.94284" lon="-4.23494">
        <ele>65.076072806423</ele>
        <time>2021-12-26T19:32:19.875Z</time>
      </trkpt>
      <trkpt lat="47.94302" lon="-4.23504">
        <ele>65.764037063166</ele>
        <time>2021-12-26T19:32:27.185Z</time>
      </trkpt>
      <trkpt lat="47.94308" lon="-4.23507">
        <ele>66.473982331088</ele>
        <time>2021-12-26T19:32:34.496Z</time>
      </trkpt>
      <trkpt lat="47.94331" lon="-4.23519">
        <ele>67.263583560558</ele>
        <time>2021-12-26T19:32:41.810Z</time>
      </trkpt>
      <trkpt lat="47.94354" lon="-4.23534">
        <ele>68.129885930627</ele>
        <time>2021-12-26T19:32:49.127Z</time>
      </trkpt>
      <trkpt lat="47.94365" lon="-4.23543">
        <ele>68.952373523639</ele>
        <time>2021-12-26T19:32:56.446Z</time>
      </trkpt>
      <trkpt lat="47.9438" lon="-4.2356">
        <ele>69.795789547058</ele>
        <time>2021-12-26T19:33:03.767Z</time>
      </trkpt>
      <trkpt lat="47.94385" lon="-4.23565">
        <ele>70.620715189277</ele>
        <time>2021-12-26T19:33:11.089Z</time>
      </trkpt>
      <trkpt lat="47.9439" lon="-4.2357">
        <ele>71.453677247338</ele>
        <time>2021-12-26T19:33:18.412Z</time>
      </trkpt>
      <trkpt lat="47.94404" lon="-4.23583">
        <ele>72.315623689314</ele>
        <time>2021-12-26T19:33:25.737Z</time>
      </trkpt>
      <trkpt lat="47.94414" lon="-4.23592">
        <ele>73.152346167424</ele>
        <time>2021-12-26T19:33:33.064Z</time>
      </trkpt>
      <trkpt lat="47.94425" lon="-4.236">
        <ele>74.009801163956</ele>
        <time>2021-12-26T19:33:40.392Z</time>
      </trkpt>
      <trkpt lat="47.94451" lon="-4.23622">
        <ele>74.952240266314</ele>
        <time>2021-12-26T19:33:47.724Z</time>
      </trkpt>
      <trkpt lat="47.94472" lon="-4.23639">
        <ele>75.858315994018</ele>
        <time>2021-12-26T19:33:55.059Z</time>
      </trkpt>
      <trkpt lat="47.94489" lon="-4.23652">
        <ele>76.691392128032</ele>
        <time>2021-12-26T19:34:02.396Z</time>
      </trkpt>
      <trkpt lat="47.94506" lon="-4.23665">
        <ele>77.443066886941</ele>
        <time>2021-12-26T19:34:09.736Z</time>
      </trkpt>
      <trkpt lat="47.94529" lon="-4.23679">
        <ele>78.12978215369</ele>
        <time>2021-12-26T19:34:17.079Z</time>
      </trkpt>
      <trkpt lat="47.94535" lon="-4.23681">
        <ele>78.778934084029</ele>
        <time>2021-12-26T19:34:24.423Z</time>
      </trkpt>
      <trkpt lat="47.94552" lon="-4.23684">
        <ele>79.394169505413</ele>
        <time>2021-12-26T19:34:31.769Z</time>
      </trkpt>
      <trkpt lat="47.94564" lon="-4.23685">
        <ele>79.967372863574</ele>
        <time>2021-12-26T19:34:39.117Z</time>
      </trkpt>
      <trkpt lat="47.94582" lon="-4.23687">
        <ele>80.499964674359</ele>
        <time>2021-12-26T19:34:46.467Z</time>
      </trkpt>
      <trkpt lat="47.94599" lon="-4.23689">
        <ele>80.98014562007</ele>
        <time>2021-12-26T19:34:53.819Z</time>
      </trkpt>
      <trkpt lat="47.94605" lon="-4.23691">
        <ele>81.389513476775</ele>
        <time>2021-12-26T19:35:01.172Z</time>
      </trkpt>
      <trkpt lat="47.9461" lon="-4.23694">
        <ele>81.742655784305</ele>
        <time>2021-12-26T19:35:08.526Z</time>
      </trkpt>
      <trkpt lat="47.94617" lon="-4.23698">
        <ele>82.035286279578</ele>
        <time>2021-12-26T19:35:15.881Z</time>
      </trkpt>
      <trkpt lat="47.94622" lon="-4.23703">
        <ele>82.258992855654</ele>
        <time>2021-12-26T19:35:23.236Z</time>
      </trkpt>
      <trkpt lat="47.9464" lon="-4.2372">
        <ele>82.423684144862</ele>
        <time>2021-12-26T19:35:30.594Z</time>
      </trkpt>
      <trkpt lat="47.94654" lon="-4.23739">
        <ele>82.549009847809</ele>
        <time>2021-12-26T19:35:37.955Z</time>
      </trkpt>
      <trkpt lat="47.94668" lon="-4.23757">
        <ele>82.646908005107</ele>
        <time>2021-12-26T19:35:45.318Z</time>
      </trkpt>
      <trkpt lat="47.94678" lon="-4.23769">
        <ele>82.692984150481</ele>
        <time>2021-12-26T19:35:52.683Z</time>
      </trkpt>
      <trkpt lat="47.94688" lon="-4.23782">
        <ele>82.658140858214</ele>
        <time>2021-12-26T19:36:00.049Z</time>
      </trkpt>
      <trkpt lat="47.94716" lon="-4.23814">
        <ele>82.585461643798</ele>
        <time>2021-12-26T19:36:07.420Z</time>
      </trkpt>
      <trkpt lat="47.94732" lon="-4.23833">
        <ele>82.489175863477</ele>
        <time>2021-12-26T19:36:14.794Z</time>
      </trkpt>
      <trkpt lat="47.94772" lon="-4.23884">
        <ele>82.317843098068</ele>
        <time>2021-12-26T19:36:22.174Z</time>
      </trkpt>
      <trkpt lat="47.94794" lon="-4.23925">
        <ele>82.111856111183</ele>
        <time>2021-12-26T19:36:29.559Z</time>
      </trkpt>
      <trkpt lat="47.94803" lon="-4.23942">
        <ele>81.884579857907</ele>
        <time>2021-12-26T19:36:36.946Z</time>
      </trkpt>
      <trkpt lat="47.94813" lon="-4.23959">
        <ele>81.62463704661</ele>
        <time>2021-12-26T19:36:44.335Z</time>
      </trkpt>
      <trkpt lat="47.94829" lon="-4.23984">
        <ele>81.304175277702</ele>
        <time>2021-12-26T19:36:51.727Z</time>
      </trkpt>
      <trkpt lat="47.94835" lon="-4.23993">
        <ele>80.976298802854</ele>
        <time>2021-12-26T19:36:59.120Z</time>
      </trkpt>
      <trkpt lat="47.94846" lon="-4.2401">
        <ele>80.613009133125</ele>
        <time>2021-12-26T19:37:06.515Z</time>
      </trkpt>
      <trkpt lat="47.94852" lon="-4.24018">
        <ele>80.245544854477</ele>
        <time>2021-12-26T19:37:13.911Z</time>
      </trkpt>
      <trkpt lat="47.94863" lon="-4.24035">
        <ele>79.851052400912</ele>
        <time>2021-12-26T19:37:21.309Z</time>
      </trkpt>
      <trkpt lat="47.94875" lon="-4.24051">
        <ele>79.452858027167</ele>
        <time>2021-12-26T19:37:28.709Z</time>
      </trkpt>
      <trkpt lat="47.94888" lon="-4.24065">
        <ele>79.062411995997</ele>
        <time>2021-12-26T19:37:36.111Z</time>
      </trkpt>
      <trkpt lat="47.94901" lon="-4.24078">
        <ele>78.64004117338</ele>
        <time>2021-12-26T19:37:43.515Z</time>
      </trkpt>
      <trkpt lat="47.94908" lon="-4.24084">
        <ele>78.261030531325</ele>
        <time>2021-12-26T19:37:50.920Z</time>
      </trkpt>
      <trkpt lat="47.94916" lon="-4.24087">
        <ele>77.892438125805</ele>
        <time>2021-12-26T19:37:58.326Z</time>
      </trkpt>
      <trkpt lat="47.94924" lon="-4.2409">
        <ele>77.520560318989</ele>
        <time>2021-12-26T19:38:05.733Z</time>
      </trkpt>
      <trkpt lat="47.94932" lon="-4.24092">
        <ele>77.155194161598</ele>
        <time>2021-12-26T19:38:13.141Z</time>
      </trkpt>
      <trkpt lat="47.94965" lon="-4.24096">
        <ele>76.767698555653</ele>
        <time>2021-12-26T19:38:20.554Z</time>
      </trkpt>
      <trkpt lat="47.94973" lon="-4.24097">
        <ele>76.422104697632</ele>
        <time>2021-12-26T19:38:27.968Z</time>
      </trkpt>
      <trkpt lat="47.9498" lon="-4.24096">
        <ele>76.101297285392</ele>
        <time>2021-12-26T19:38:35.383Z</time>
      </trkpt>
      <trkpt lat="47.94994" lon="-4.24088">
        <ele>75.826761289377</ele>
        <time>2021-12-26T19:38:42.800Z</time>
      </trkpt>
      <trkpt lat="47.94999" lon="-4.2408">
        <ele>75.591203360599</ele>
        <time>2021-12-26T19:38:50.218Z</time>
      </trkpt>
      <trkpt lat="47.95002" lon="-4.24071">
        <ele>75.385103828499</ele>
        <time>2021-12-26T19:38:57.636Z</time>
      </trkpt>
      <trkpt lat="47.95004" lon="-4.24062">
        <ele>75.209157623738</ele>
        <time>2021-12-26T19:39:05.055Z</time>
      </trkpt>
      <trkpt lat="47.95005" lon="-4.24052">
        <ele>75.06340425241</ele>
        <time>2021-12-26T19:39:12.475Z</time>
      </trkpt>
      <trkpt lat="47.95008" lon="-4.24034">
        <ele>74.940545382115</ele>
        <time>2021-12-26T19:39:19.897Z</time>
      </trkpt>
      <trkpt lat="47.95011" lon="-4.24016">
        <ele>74.845628762328</ele>
        <time>2021-12-26T19:39:27.320Z</time>
      </trkpt>
      <trkpt lat="47.95013" lon="-4.24007">
        <ele>74.778266056865</ele>
        <time>2021-12-26T19:39:34.744Z</time>
      </trkpt>
      <trkpt lat="47.95019" lon="-4.23982">
        <ele>74.73688444761</ele>
        <time>2021-12-26T19:39:42.170Z</time>
      </trkpt>
      <trkpt lat="47.95021" lon="-4.23973">
        <ele>74.735438736044</ele>
        <time>2021-12-26T19:39:49.597Z</time>
      </trkpt>
      <trkpt lat="47.95024" lon="-4.23965">
        <ele>74.767729961149</ele>
        <time>2021-12-26T19:39:57.025Z</time>
      </trkpt>
      <trkpt lat="47.95038" lon="-4.23922">
        <ele>74.81422895406</ele>
        <time>2021-12-26T19:40:04.457Z</time>
      </trkpt>
      <trkpt lat="47.95046" lon="-4.23905">
        <ele>74.915191915059</ele>
        <time>2021-12-26T19:40:11.891Z</time>
      </trkpt>
      <trkpt lat="47.95059" lon="-4.2388">
        <ele>75.052846199627</ele>
        <time>2021-12-26T19:40:19.328Z</time>
      </trkpt>
      <trkpt lat="47.95079" lon="-4.23848">
        <ele>75.216688455318</ele>
        <time>2021-12-26T19:40:26.769Z</time>
      </trkpt>
      <trkpt lat="47.95102" lon="-4.23817">
        <ele>75.441013887275</ele>
        <time>2021-12-26T19:40:34.214Z</time>
      </trkpt>
      <trkpt lat="47.95123" lon="-4.23796">
        <ele>75.706600941913</ele>
        <time>2021-12-26T19:40:41.662Z</time>
      </trkpt>
      <trkpt lat="47.95173" lon="-4.23756">
        <ele>75.955118877307</ele>
        <time>2021-12-26T19:40:49.117Z</time>
      </trkpt>
      <trkpt lat="47.9518" lon="-4.2375">
        <ele>76.243422597936</ele>
        <time>2021-12-26T19:40:56.573Z</time>
      </trkpt>
      <trkpt lat="47.95195" lon="-4.23739">
        <ele>76.587061040393</ele>
        <time>2021-12-26T19:41:04.031Z</time>
      </trkpt>
      <trkpt lat="47.95238" lon="-4.23705">
        <ele>76.938643874647</ele>
        <time>2021-12-26T19:41:11.496Z</time>
      </trkpt>
      <trkpt lat="47.95265" lon="-4.23684">
        <ele>77.313034903915</ele>
        <time>2021-12-26T19:41:18.965Z</time>
      </trkpt>
      <trkpt lat="47.95291" lon="-4.23664">
        <ele>77.721779807367</ele>
        <time>2021-12-26T19:41:26.437Z</time>
      </trkpt>
      <trkpt lat="47.95303" lon="-4.23654">
        <ele>78.148169212035</ele>
        <time>2021-12-26T19:41:33.911Z</time>
      </trkpt>
      <trkpt lat="47.95325" lon="-4.23632">
        <ele>78.620502753874</ele>
        <time>2021-12-26T19:41:41.389Z</time>
      </trkpt>
      <trkpt lat="47.9533" lon="-4.23626">
        <ele>79.039804341892</ele>
        <time>2021-12-26T19:41:48.867Z</time>
      </trkpt>
      <trkpt lat="47.95357" lon="-4.23586">
        <ele>79.516615604614</ele>
        <time>2021-12-26T19:41:56.350Z</time>
      </trkpt>
      <trkpt lat="47.95365" lon="-4.2357">
        <ele>79.950281694694</ele>
        <time>2021-12-26T19:42:03.835Z</time>
      </trkpt>
      <trkpt lat="47.95378" lon="-4.23536">
        <ele>80.354151934571</ele>
        <time>2021-12-26T19:42:11.323Z</time>
      </trkpt>
      <trkpt lat="47.95385" lon="-4.23507">
        <ele>80.750671182636</ele>
        <time>2021-12-26T19:42:18.814Z</time>
      </trkpt>
      <trkpt lat="47.9539" lon="-4.23475">
        <ele>81.142008145677</ele>
        <time>2021-12-26T19:42:26.308Z</time>
      </trkpt>
      <trkpt lat="47.95393" lon="-4.23454">
        <ele>81.532993353127</ele>
        <time>2021-12-26T19:42:33.804Z</time>
      </trkpt>
      <trkpt lat="47.95396" lon="-4.234">
        <ele>81.978872947318</ele>
        <time>2021-12-26T19:42:41.305Z</time>
      </trkpt>
      <trkpt lat="47.95397" lon="-4.23389">
        <ele>82.365022343916</ele>
        <time>2021-12-26T19:42:48.806Z</time>
      </trkpt>
      <trkpt lat="47.95406" lon="-4.23321">
        <ele>82.833331602421</ele>
        <time>2021-12-26T19:42:56.313Z</time>
      </trkpt>
      <trkpt lat="47.95408" lon="-4.23309">
        <ele>83.18950766401</ele>
        <time>2021-12-26T19:43:03.821Z</time>
      </trkpt>
      <trkpt lat="47.95412" lon="-4.23286">
        <ele>83.54701324403</ele>
        <time>2021-12-26T19:43:11.332Z</time>
      </trkpt>
      <trkpt lat="47.95414" lon="-4.23275">
        <ele>83.885135482888</ele>
        <time>2021-12-26T19:43:18.844Z</time>
      </trkpt>
      <trkpt lat="47.95416" lon="-4.23263">
        <ele>84.202891834597</ele>
        <time>2021-12-26T19:43:26.357Z</time>
      </trkpt>
      <trkpt lat="47.95419" lon="-4.23216">
        <ele>84.513902366114</ele>
        <time>2021-12-26T19:43:33.874Z</time>
      </trkpt>
      <trkpt lat="47.95418" lon="-4.23192">
        <ele>84.768576042763</ele>
        <time>2021-12-26T19:43:41.393Z</time>
      </trkpt>
      <trkpt lat="47.95415" lon="-4.23132">
        <ele>84.979001572528</ele>
        <time>2021-12-26T19:43:48.917Z</time>
      </trkpt>
      <trkpt lat="47.95411" lon="-4.2305">
        <ele>85.21195050543</ele>
        <time>2021-12-26T19:43:56.448Z</time>
      </trkpt>
      <trkpt lat="47.95412" lon="-4.23026">
        <ele>85.358076560072</ele>
        <time>2021-12-26T19:44:03.981Z</time>
      </trkpt>
      <trkpt lat="47.95417" lon="-4.22977">
        <ele>85.43994101252</ele>
        <time>2021-12-26T19:44:11.519Z</time>
      </trkpt>
      <trkpt lat="47.95418" lon="-4.22964">
        <ele>85.562121956833</ele>
        <time>2021-12-26T19:44:19.058Z</time>
      </trkpt>
      <trkpt lat="47.9542" lon="-4.22951">
        <ele>85.701827585393</ele>
        <time>2021-12-26T19:44:26.598Z</time>
      </trkpt>
      <trkpt lat="47.95422" lon="-4.22938">
        <ele>85.810579495578</ele>
        <time>2021-12-26T19:44:34.139Z</time>
      </trkpt>
      <trkpt lat="47.95423" lon="-4.22925">
        <ele>85.890476933647</ele>
        <time>2021-12-26T19:44:41.681Z</time>
      </trkpt>
      <trkpt lat="47.95431" lon="-4.2285">
        <ele>85.955444667639</ele>
        <time>2021-12-26T19:44:49.230Z</time>
      </trkpt>
      <trkpt lat="47.95431" lon="-4.22838">
        <ele>85.975692611729</ele>
        <time>2021-12-26T19:44:56.780Z</time>
      </trkpt>
      <trkpt lat="47.95432" lon="-4.22826">
        <ele>85.97586705774</ele>
        <time>2021-12-26T19:45:04.331Z</time>
      </trkpt>
      <trkpt lat="47.9543" lon="-4.22759">
        <ele>86.076241607817</ele>
        <time>2021-12-26T19:45:11.888Z</time>
      </trkpt>
      <trkpt lat="47.95428" lon="-4.22736">
        <ele>86.075875155887</ele>
        <time>2021-12-26T19:45:19.447Z</time>
      </trkpt>
      <trkpt lat="47.95422" lon="-4.22679">
        <ele>85.990232015033</ele>
        <time>2021-12-26T19:45:27.011Z</time>
      </trkpt>
      <trkpt lat="47.95418" lon="-4.22657">
        <ele>85.899947475353</ele>
        <time>2021-12-26T19:45:34.577Z</time>
      </trkpt>
      <trkpt lat="47.95412" lon="-4.22599">
        <ele>85.804800232065</ele>
        <time>2021-12-26T19:45:42.148Z</time>
      </trkpt>
      <trkpt lat="47.95412" lon="-4.22588">
        <ele>85.716860332885</ele>
        <time>2021-12-26T19:45:49.720Z</time>
      </trkpt>
      <trkpt lat="47.95411" lon="-4.22528">
        <ele>85.639940500117</ele>
        <time>2021-12-26T19:45:57.297Z</time>
      </trkpt>
      <trkpt lat="47.95412" lon="-4.22504">
        <ele>85.498964631306</ele>
        <time>2021-12-26T19:46:04.876Z</time>
      </trkpt>
      <trkpt lat="47.95416" lon="-4.22455">
        <ele>85.361908223285</ele>
        <time>2021-12-26T19:46:12.459Z</time>
      </trkpt>
      <trkpt lat="47.95421" lon="-4.22417">
        <ele>85.209978311442</ele>
        <time>2021-12-26T19:46:20.046Z</time>
      </trkpt>
      <trkpt lat="47.95424" lon="-4.22404">
        <ele>85.022818362003</ele>
        <time>2021-12-26T19:46:27.634Z</time>
      </trkpt>
      <trkpt lat="47.95426" lon="-4.22391">
        <ele>84.821821295152</ele>
        <time>2021-12-26T19:46:35.223Z</time>
      </trkpt>
      <trkpt lat="47.95437" lon="-4.22338">
        <ele>84.557267884691</ele>
        <time>2021-12-26T19:46:42.817Z</time>
      </trkpt>
      <trkpt lat="47.95442" lon="-4.22312">
        <ele>84.329112786131</ele>
        <time>2021-12-26T19:46:50.413Z</time>
      </trkpt>
      <trkpt lat="47.95457" lon="-4.22234">
        <ele>84.097848240941</ele>
        <time>2021-12-26T19:46:58.016Z</time>
      </trkpt>
      <trkpt lat="47.95464" lon="-4.22198">
        <ele>83.927272225384</ele>
        <time>2021-12-26T19:47:05.622Z</time>
      </trkpt>
      <trkpt lat="47.95475" lon="-4.22139">
        <ele>83.693605622769</ele>
        <time>2021-12-26T19:47:13.234Z</time>
      </trkpt>
      <trkpt lat="47.95484" lon="-4.22091">
        <ele>83.437350365402</ele>
        <time>2021-12-26T19:47:20.850Z</time>
      </trkpt>
      <trkpt lat="47.95491" lon="-4.22053">
        <ele>83.232249888465</ele>
        <time>2021-12-26T19:47:28.469Z</time>
      </trkpt>
      <trkpt lat="47.95499" lon="-4.22016">
        <ele>82.970731712674</ele>
        <time>2021-12-26T19:47:36.092Z</time>
      </trkpt>
      <trkpt lat="47.95501" lon="-4.22003">
        <ele>82.705125209225</ele>
        <time>2021-12-26T19:47:43.716Z</time>
      </trkpt>
      <trkpt lat="47.95506" lon="-4.21977">
        <ele>82.425301208116</ele>
        <time>2021-12-26T19:47:51.342Z</time>
      </trkpt>
      <trkpt lat="47.95514" lon="-4.21935">
        <ele>82.115833723432</ele>
        <time>2021-12-26T19:47:58.972Z</time>
      </trkpt>
      <trkpt lat="47.9552" lon="-4.21907">
        <ele>81.76512012697</ele>
        <time>2021-12-26T19:48:06.605Z</time>
      </trkpt>
      <trkpt lat="47.95528" lon="-4.21864">
        <ele>81.389520694573</ele>
        <time>2021-12-26T19:48:14.241Z</time>
      </trkpt>
      <trkpt lat="47.95539" lon="-4.21803">
        <ele>80.97761321292</ele>
        <time>2021-12-26T19:48:21.883Z</time>
      </trkpt>
      <trkpt lat="47.95545" lon="-4.21771">
        <ele>80.636190131917</ele>
        <time>2021-12-26T19:48:29.528Z</time>
      </trkpt>
      <trkpt lat="47.95548" lon="-4.21755">
        <ele>80.346501989234</ele>
        <time>2021-12-26T19:48:37.174Z</time>
      </trkpt>
      <trkpt lat="47.95563" lon="-4.21691">
        <ele>80.107156430194</ele>
        <time>2021-12-26T19:48:44.826Z</time>
      </trkpt>
      <trkpt lat="47.95567" lon="-4.21676">
        <ele>79.850960956534</ele>
        <time>2021-12-26T19:48:52.480Z</time>
      </trkpt>
      <trkpt lat="47.95573" lon="-4.21661">
        <ele>79.602024838382</ele>
        <time>2021-12-26T19:49:00.135Z</time>
      </trkpt>
      <trkpt lat="47.95586" lon="-4.21634">
        <ele>79.347953556034</ele>
        <time>2021-12-26T19:49:07.793Z</time>
      </trkpt>
      <trkpt lat="47.95601" lon="-4.21611">
        <ele>79.156842229139</ele>
        <time>2021-12-26T19:49:15.454Z</time>
      </trkpt>
      <trkpt lat="47.95609" lon="-4.216">
        <ele>79.00007065688</ele>
        <time>2021-12-26T19:49:23.116Z</time>
      </trkpt>
      <trkpt lat="47.95643" lon="-4.21565">
        <ele>78.820142170849</ele>
        <time>2021-12-26T19:49:30.784Z</time>
      </trkpt>
      <trkpt lat="47.95662" lon="-4.21554">
        <ele>78.662066129912</ele>
        <time>2021-12-26T19:49:38.454Z</time>
      </trkpt>
      <trkpt lat="47.9568" lon="-4.21545">
        <ele>78.539465752538</ele>
        <time>2021-12-26T19:49:46.127Z</time>
      </trkpt>
      <trkpt lat="47.95689" lon="-4.21542">
        <ele>78.479031412</ele>
        <time>2021-12-26T19:49:53.801Z</time>
      </trkpt>
      <trkpt lat="47.95698" lon="-4.21538">
        <ele>78.440101145678</ele>
        <time>2021-12-26T19:50:01.476Z</time>
      </trkpt>
      <trkpt lat="47.95726" lon="-4.21524">
        <ele>78.407888249819</ele>
        <time>2021-12-26T19:50:09.155Z</time>
      </trkpt>
      <trkpt lat="47.95735" lon="-4.21517">
        <ele>78.39555219934</ele>
        <time>2021-12-26T19:50:16.835Z</time>
      </trkpt>
      <trkpt lat="47.95743" lon="-4.21509">
        <ele>78.414618222578</ele>
        <time>2021-12-26T19:50:24.516Z</time>
      </trkpt>
      <trkpt lat="47.95764" lon="-4.21479">
        <ele>78.467708678774</ele>
        <time>2021-12-26T19:50:32.201Z</time>
      </trkpt>
      <trkpt lat="47.95777" lon="-4.21461">
        <ele>78.587685155542</ele>
        <time>2021-12-26T19:50:39.888Z</time>
      </trkpt>
      <trkpt lat="47.95788" lon="-4.21444">
        <ele>78.7369572157</ele>
        <time>2021-12-26T19:50:47.577Z</time>
      </trkpt>
      <trkpt lat="47.95793" lon="-4.21436">
        <ele>78.851112692995</ele>
        <time>2021-12-26T19:50:55.267Z</time>
      </trkpt>
      <trkpt lat="47.95802" lon="-4.21419">
        <ele>79.01419413974</ele>
        <time>2021-12-26T19:51:02.959Z</time>
      </trkpt>
      <trkpt lat="47.95806" lon="-4.2141">
        <ele>79.148544413488</ele>
        <time>2021-12-26T19:51:10.652Z</time>
      </trkpt>
      <trkpt lat="47.95814" lon="-4.21391">
        <ele>79.247394308581</ele>
        <time>2021-12-26T19:51:18.347Z</time>
      </trkpt>
      <trkpt lat="47.95817" lon="-4.21381">
        <ele>79.338033291873</ele>
        <time>2021-12-26T19:51:26.043Z</time>
      </trkpt>
      <trkpt lat="47.9582" lon="-4.21371">
        <ele>79.4221612927</ele>
        <time>2021-12-26T19:51:33.740Z</time>
      </trkpt>
      <trkpt lat="47.95823" lon="-4.21361">
        <ele>79.499908378593</ele>
        <time>2021-12-26T19:51:41.438Z</time>
      </trkpt>
      <trkpt lat="47.9583" lon="-4.21341">
        <ele>79.566002472203</ele>
        <time>2021-12-26T19:51:49.138Z</time>
      </trkpt>
      <trkpt lat="47.95838" lon="-4.21322">
        <ele>79.610789356883</ele>
        <time>2021-12-26T19:51:56.840Z</time>
      </trkpt>
      <trkpt lat="47.95843" lon="-4.21312">
        <ele>79.673953530255</ele>
        <time>2021-12-26T19:52:04.543Z</time>
      </trkpt>
      <trkpt lat="47.95877" lon="-4.2124">
        <ele>79.734819430409</ele>
        <time>2021-12-26T19:52:12.254Z</time>
      </trkpt>
      <trkpt lat="47.95883" lon="-4.21229">
        <ele>79.791784225365</ele>
        <time>2021-12-26T19:52:19.966Z</time>
      </trkpt>
      <trkpt lat="47.95906" lon="-4.21182">
        <ele>79.811760533481</ele>
        <time>2021-12-26T19:52:27.683Z</time>
      </trkpt>
      <trkpt lat="47.95918" lon="-4.21158">
        <ele>79.807442360385</ele>
        <time>2021-12-26T19:52:35.402Z</time>
      </trkpt>
      <trkpt lat="47.95924" lon="-4.21146">
        <ele>79.835280620058</ele>
        <time>2021-12-26T19:52:43.123Z</time>
      </trkpt>
      <trkpt lat="47.9593" lon="-4.21134">
        <ele>79.857978941799</ele>
        <time>2021-12-26T19:52:50.845Z</time>
      </trkpt>
      <trkpt lat="47.95942" lon="-4.21109">
        <ele>79.840818636244</ele>
        <time>2021-12-26T19:52:58.570Z</time>
      </trkpt>
      <trkpt lat="47.95974" lon="-4.21044">
        <ele>79.823002574809</ele>
        <time>2021-12-26T19:53:06.302Z</time>
      </trkpt>
      <trkpt lat="47.95987" lon="-4.21015">
        <ele>79.805319442943</ele>
        <time>2021-12-26T19:53:14.037Z</time>
      </trkpt>
      <trkpt lat="47.96008" lon="-4.20972">
        <ele>79.651924785934</ele>
        <time>2021-12-26T19:53:21.776Z</time>
      </trkpt>
      <trkpt lat="47.96015" lon="-4.20958">
        <ele>79.606002145608</ele>
        <time>2021-12-26T19:53:29.517Z</time>
      </trkpt>
      <trkpt lat="47.96029" lon="-4.20929">
        <ele>79.557301562286</ele>
        <time>2021-12-26T19:53:37.261Z</time>
      </trkpt>
      <trkpt lat="47.96036" lon="-4.20914">
        <ele>79.582421478273</ele>
        <time>2021-12-26T19:53:45.007Z</time>
      </trkpt>
      <trkpt lat="47.96044" lon="-4.209">
        <ele>79.625725144243</ele>
        <time>2021-12-26T19:53:52.754Z</time>
      </trkpt>
      <trkpt lat="47.96056" lon="-4.20875">
        <ele>79.72766500841</ele>
        <time>2021-12-26T19:54:00.504Z</time>
      </trkpt>
      <trkpt lat="47.96062" lon="-4.20863">
        <ele>79.805466064421</ele>
        <time>2021-12-26T19:54:08.255Z</time>
      </trkpt>
      <trkpt lat="47.96085" lon="-4.20817">
        <ele>80.001472799182</ele>
        <time>2021-12-26T19:54:16.011Z</time>
      </trkpt>
      <trkpt lat="47.96101" lon="-4.20785">
        <ele>80.095260508983</ele>
        <time>2021-12-26T19:54:23.770Z</time>
      </trkpt>
      <trkpt lat="47.96116" lon="-4.20753">
        <ele>80.155052027334</ele>
        <time>2021-12-26T19:54:31.533Z</time>
      </trkpt>
      <trkpt lat="47.96121" lon="-4.20742">
        <ele>80.166449835071</ele>
        <time>2021-12-26T19:54:39.297Z</time>
      </trkpt>
      <trkpt lat="47.96132" lon="-4.20718">
        <ele>80.131247775696</ele>
        <time>2021-12-26T19:54:47.064Z</time>
      </trkpt>
      <trkpt lat="47.96142" lon="-4.20693">
        <ele>80.07283725759</ele>
        <time>2021-12-26T19:54:54.833Z</time>
      </trkpt>
      <trkpt lat="47.96152" lon="-4.20666">
        <ele>79.994936693306</ele>
        <time>2021-12-26T19:55:02.605Z</time>
      </trkpt>
      <trkpt lat="47.96161" lon="-4.20638">
        <ele>79.880007755266</ele>
        <time>2021-12-26T19:55:10.379Z</time>
      </trkpt>
      <trkpt lat="47.96165" lon="-4.20624">
        <ele>79.750590116442</ele>
        <time>2021-12-26T19:55:18.155Z</time>
      </trkpt>
      <trkpt lat="47.96169" lon="-4.2061">
        <ele>79.597305164331</ele>
        <time>2021-12-26T19:55:25.932Z</time>
      </trkpt>
      <trkpt lat="47.96172" lon="-4.20596">
        <ele>79.431034822546</ele>
        <time>2021-12-26T19:55:33.710Z</time>
      </trkpt>
      <trkpt lat="47.96175" lon="-4.20582">
        <ele>79.250473709007</ele>
        <time>2021-12-26T19:55:41.490Z</time>
      </trkpt>
      <trkpt lat="47.96178" lon="-4.20568">
        <ele>79.068219614616</ele>
        <time>2021-12-26T19:55:49.271Z</time>
      </trkpt>
      <trkpt lat="47.96184" lon="-4.20539">
        <ele>78.919718804955</ele>
        <time>2021-12-26T19:55:57.055Z</time>
      </trkpt>
      <trkpt lat="47.96187" lon="-4.20525">
        <ele>78.685085825294</ele>
        <time>2021-12-26T19:56:04.840Z</time>
      </trkpt>
      <trkpt lat="47.96195" lon="-4.20468">
        <ele>78.45749116558</ele>
        <time>2021-12-26T19:56:12.630Z</time>
      </trkpt>
      <trkpt lat="47.962" lon="-4.20424">
        <ele>78.087486998676</ele>
        <time>2021-12-26T19:56:20.424Z</time>
      </trkpt>
      <trkpt lat="47.96208" lon="-4.20366">
        <ele>77.692235613887</ele>
        <time>2021-12-26T19:56:28.223Z</time>
      </trkpt>
      <trkpt lat="47.9621" lon="-4.20352">
        <ele>77.33117277348</ele>
        <time>2021-12-26T19:56:36.023Z</time>
      </trkpt>
      <trkpt lat="47.96211" lon="-4.20339">
        <ele>76.932873245407</ele>
        <time>2021-12-26T19:56:43.824Z</time>
      </trkpt>
      <trkpt lat="47.96218" lon="-4.20286">
        <ele>76.521503645729</ele>
        <time>2021-12-26T19:56:51.630Z</time>
      </trkpt>
      <trkpt lat="47.96223" lon="-4.20245">
        <ele>76.135960765074</ele>
        <time>2021-12-26T19:56:59.440Z</time>
      </trkpt>
      <trkpt lat="47.96234" lon="-4.20157">
        <ele>75.583080933057</ele>
        <time>2021-12-26T19:57:07.257Z</time>
      </trkpt>
      <trkpt lat="47.96235" lon="-4.20141">
        <ele>75.12583301002</ele>
        <time>2021-12-26T19:57:15.076Z</time>
      </trkpt>
      <trkpt lat="47.96239" lon="-4.20094">
        <ele>74.581914920761</ele>
        <time>2021-12-26T19:57:22.899Z</time>
      </trkpt>
      <trkpt lat="47.96241" lon="-4.20061">
        <ele>74.033172391565</ele>
        <time>2021-12-26T19:57:30.725Z</time>
      </trkpt>
      <trkpt lat="47.96242" lon="-4.20044">
        <ele>73.533927455063</ele>
        <time>2021-12-26T19:57:38.552Z</time>
      </trkpt>
      <trkpt lat="47.96243" lon="-4.19972">
        <ele>72.974419558521</ele>
        <time>2021-12-26T19:57:46.385Z</time>
      </trkpt>
      <trkpt lat="47.96242" lon="-4.19954">
        <ele>72.57808892132</ele>
        <time>2021-12-26T19:57:54.220Z</time>
      </trkpt>
      <trkpt lat="47.96241" lon="-4.19935">
        <ele>72.219440065318</ele>
        <time>2021-12-26T19:58:02.057Z</time>
      </trkpt>
      <trkpt lat="47.9624" lon="-4.19917">
        <ele>71.884573390759</ele>
        <time>2021-12-26T19:58:09.895Z</time>
      </trkpt>
      <trkpt lat="47.96239" lon="-4.19899">
        <ele>71.584611083519</ele>
        <time>2021-12-26T19:58:17.735Z</time>
      </trkpt>
      <trkpt lat="47.96236" lon="-4.19862">
        <ele>71.324179628155</ele>
        <time>2021-12-26T19:58:25.578Z</time>
      </trkpt>
      <trkpt lat="47.96234" lon="-4.19843">
        <ele>71.090682120264</ele>
        <time>2021-12-26T19:58:33.423Z</time>
      </trkpt>
      <trkpt lat="47.9623" lon="-4.19789">
        <ele>70.845989399304</ele>
        <time>2021-12-26T19:58:41.272Z</time>
      </trkpt>
      <trkpt lat="47.96228" lon="-4.19771">
        <ele>70.715008114037</ele>
        <time>2021-12-26T19:58:49.123Z</time>
      </trkpt>
      <trkpt lat="47.96225" lon="-4.19738">
        <ele>70.674851757752</ele>
        <time>2021-12-26T19:58:56.977Z</time>
      </trkpt>
      <trkpt lat="47.9622" lon="-4.19675">
        <ele>70.76546062684</ele>
        <time>2021-12-26T19:59:04.836Z</time>
      </trkpt>
      <trkpt lat="47.96219" lon="-4.19645">
        <ele>70.739064115236</ele>
        <time>2021-12-26T19:59:12.698Z</time>
      </trkpt>
      <trkpt lat="47.9622" lon="-4.19617">
        <ele>70.780137934611</ele>
        <time>2021-12-26T19:59:20.562Z</time>
      </trkpt>
      <trkpt lat="47.96221" lon="-4.19589">
        <ele>70.86118408593</ele>
        <time>2021-12-26T19:59:28.429Z</time>
      </trkpt>
      <trkpt lat="47.96222" lon="-4.19576">
        <ele>70.922357511323</ele>
        <time>2021-12-26T19:59:36.297Z</time>
      </trkpt>
      <trkpt lat="47.96224" lon="-4.19551">
        <ele>71.027628354867</ele>
        <time>2021-12-26T19:59:44.167Z</time>
      </trkpt>
      <trkpt lat="47.96226" lon="-4.19539">
        <ele>71.128361478101</ele>
        <time>2021-12-26T19:59:52.038Z</time>
      </trkpt>
      <trkpt lat="47.96233" lon="-4.19506">
        <ele>71.288598510236</ele>
        <time>2021-12-26T19:59:59.912Z</time>
      </trkpt>
      <trkpt lat="47.96236" lon="-4.19483">
        <ele>71.455787004344</ele>
        <time>2021-12-26T20:00:07.788Z</time>
      </trkpt>
      <trkpt lat="47.96241" lon="-4.1944">
        <ele>71.529473503428</ele>
        <time>2021-12-26T20:00:15.668Z</time>
      </trkpt>
      <trkpt lat="47.96242" lon="-4.1943">
        <ele>71.637179441552</ele>
        <time>2021-12-26T20:00:23.549Z</time>
      </trkpt>
      <trkpt lat="47.96247" lon="-4.19401">
        <ele>71.658361467274</ele>
        <time>2021-12-26T20:00:31.432Z</time>
      </trkpt>
      <trkpt lat="47.96249" lon="-4.19382">
        <ele>71.757405879749</ele>
        <time>2021-12-26T20:00:39.317Z</time>
      </trkpt>
      <trkpt lat="47.96252" lon="-4.19354">
        <ele>71.905876922254</ele>
        <time>2021-12-26T20:00:47.205Z</time>
      </trkpt>
      <trkpt lat="47.96257" lon="-4.19319">
        <ele>72.11834278801</ele>
        <time>2021-12-26T20:00:55.096Z</time>
      </trkpt>
      <trkpt lat="47.96258" lon="-4.1931">
        <ele>72.300618244316</ele>
        <time>2021-12-26T20:01:02.987Z</time>
      </trkpt>
      <trkpt lat="47.96265" lon="-4.19254">
        <ele>72.556875018656</ele>
        <time>2021-12-26T20:01:10.883Z</time>
      </trkpt>
      <trkpt lat="47.96266" lon="-4.19244">
        <ele>72.747905017459</ele>
        <time>2021-12-26T20:01:18.780Z</time>
      </trkpt>
      <trkpt lat="47.96271" lon="-4.19201">
        <ele>72.978645925168</ele>
        <time>2021-12-26T20:01:26.681Z</time>
      </trkpt>
      <trkpt lat="47.96273" lon="-4.1919">
        <ele>73.167658522294</ele>
        <time>2021-12-26T20:01:34.583Z</time>
      </trkpt>
      <trkpt lat="47.96274" lon="-4.19179">
        <ele>73.344976732996</ele>
        <time>2021-12-26T20:01:42.486Z</time>
      </trkpt>
      <trkpt lat="47.96279" lon="-4.19147">
        <ele>73.489034231989</ele>
        <time>2021-12-26T20:01:50.392Z</time>
      </trkpt>
      <trkpt lat="47.96288" lon="-4.19102">
        <ele>73.573779415509</ele>
        <time>2021-12-26T20:01:58.302Z</time>
      </trkpt>
      <trkpt lat="47.96292" lon="-4.19081">
        <ele>73.703684307654</ele>
        <time>2021-12-26T20:02:06.214Z</time>
      </trkpt>
      <trkpt lat="47.96303" lon="-4.19041">
        <ele>73.871694969638</ele>
        <time>2021-12-26T20:02:14.130Z</time>
      </trkpt>
      <trkpt lat="47.96306" lon="-4.19032">
        <ele>74.056403601983</ele>
        <time>2021-12-26T20:02:22.047Z</time>
      </trkpt>
      <trkpt lat="47.96323" lon="-4.18985">
        <ele>74.289904282613</ele>
        <time>2021-12-26T20:02:29.968Z</time>
      </trkpt>
      <trkpt lat="47.9633" lon="-4.18967">
        <ele>74.45779491539</ele>
        <time>2021-12-26T20:02:37.891Z</time>
      </trkpt>
      <trkpt lat="47.96337" lon="-4.18948">
        <ele>74.600010273828</ele>
        <time>2021-12-26T20:02:45.816Z</time>
      </trkpt>
      <trkpt lat="47.96352" lon="-4.1891">
        <ele>74.748535015463</ele>
        <time>2021-12-26T20:02:53.745Z</time>
      </trkpt>
      <trkpt lat="47.96359" lon="-4.18892">
        <ele>74.916933560854</ele>
        <time>2021-12-26T20:03:01.675Z</time>
      </trkpt>
      <trkpt lat="47.9637" lon="-4.18864">
        <ele>75.111367772964</ele>
        <time>2021-12-26T20:03:09.608Z</time>
      </trkpt>
      <trkpt lat="47.96384" lon="-4.18829">
        <ele>75.315251980044</ele>
        <time>2021-12-26T20:03:17.545Z</time>
      </trkpt>
      <trkpt lat="47.96387" lon="-4.1882">
        <ele>75.489599589245</ele>
        <time>2021-12-26T20:03:25.483Z</time>
      </trkpt>
      <trkpt lat="47.9639" lon="-4.18812">
        <ele>75.663883213475</ele>
        <time>2021-12-26T20:03:33.421Z</time>
      </trkpt>
      <trkpt lat="47.96401" lon="-4.18788">
        <ele>75.850727997609</ele>
        <time>2021-12-26T20:03:41.362Z</time>
      </trkpt>
      <trkpt lat="47.96422" lon="-4.18739">
        <ele>76.015974865272</ele>
        <time>2021-12-26T20:03:49.308Z</time>
      </trkpt>
      <trkpt lat="47.96435" lon="-4.18716">
        <ele>76.155297423815</ele>
        <time>2021-12-26T20:03:57.257Z</time>
      </trkpt>
      <trkpt lat="47.96449" lon="-4.18693">
        <ele>76.342322493782</ele>
        <time>2021-12-26T20:04:05.208Z</time>
      </trkpt>
      <trkpt lat="47.96482" lon="-4.18647">
        <ele>76.546158614292</ele>
        <time>2021-12-26T20:04:13.165Z</time>
      </trkpt>
      <trkpt lat="47.96489" lon="-4.1864">
        <ele>76.706451651479</ele>
        <time>2021-12-26T20:04:21.123Z</time>
      </trkpt>
      <trkpt lat="47.9651" lon="-4.18618">
        <ele>76.838143735015</ele>
        <time>2021-12-26T20:04:29.085Z</time>
      </trkpt>
      <trkpt lat="47.96525" lon="-4.18603">
        <ele>76.98029136558</ele>
        <time>2021-12-26T20:04:37.049Z</time>
      </trkpt>
      <trkpt lat="47.9654" lon="-4.18588">
        <ele>77.122363572913</ele>
        <time>2021-12-26T20:04:45.015Z</time>
      </trkpt>
      <trkpt lat="47.96562" lon="-4.18566">
        <ele>77.286660178305</ele>
        <time>2021-12-26T20:04:52.985Z</time>
      </trkpt>
      <trkpt lat="47.9657" lon="-4.18558">
        <ele>77.450872352218</ele>
        <time>2021-12-26T20:05:00.956Z</time>
      </trkpt>
      <trkpt lat="47.96609" lon="-4.1852">
        <ele>77.636416664443</ele>
        <time>2021-12-26T20:05:08.933Z</time>
      </trkpt>
      <trkpt lat="47.9663" lon="-4.18498">
        <ele>77.837582460924</ele>
        <time>2021-12-26T20:05:16.913Z</time>
      </trkpt>
      <trkpt lat="47.96643" lon="-4.18485">
        <ele>78.040192165674</ele>
        <time>2021-12-26T20:05:24.895Z</time>
      </trkpt>
      <trkpt lat="47.96649" lon="-4.18479">
        <ele>78.213869034893</ele>
        <time>2021-12-26T20:05:32.878Z</time>
      </trkpt>
      <trkpt lat="47.96661" lon="-4.18467">
        <ele>78.390310747473</ele>
        <time>2021-12-26T20:05:40.863Z</time>
      </trkpt>
      <trkpt lat="47.96689" lon="-4.18439">
        <ele>78.604307244959</ele>
        <time>2021-12-26T20:05:48.852Z</time>
      </trkpt>
      <trkpt lat="47.967" lon="-4.18428">
        <ele>78.737207836897</ele>
        <time>2021-12-26T20:05:56.843Z</time>
      </trkpt>
      <trkpt lat="47.96706" lon="-4.18423">
        <ele>78.841025411778</ele>
        <time>2021-12-26T20:06:04.835Z</time>
      </trkpt>
      <trkpt lat="47.96711" lon="-4.18417">
        <ele>78.930383427606</ele>
        <time>2021-12-26T20:06:12.828Z</time>
      </trkpt>
      <trkpt lat="47.96723" lon="-4.18406">
        <ele>79.010635943038</ele>
        <time>2021-12-26T20:06:20.823Z</time>
      </trkpt>
      <trkpt lat="47.96729" lon="-4.184">
        <ele>79.060144660192</ele>
        <time>2021-12-26T20:06:28.819Z</time>
      </trkpt>
      <trkpt lat="47.96742" lon="-4.18388">
        <ele>79.09475381754</ele>
        <time>2021-12-26T20:06:36.817Z</time>
      </trkpt>
      <trkpt lat="47.96748" lon="-4.18381">
        <ele>79.115249876885</ele>
        <time>2021-12-26T20:06:44.816Z</time>
      </trkpt>
      <trkpt lat="47.96781" lon="-4.18349">
        <ele>79.049172705293</ele>
        <time>2021-12-26T20:06:52.820Z</time>
      </trkpt>
      <trkpt lat="47.96788" lon="-4.18342">
        <ele>79.036317459974</ele>
        <time>2021-12-26T20:07:00.825Z</time>
      </trkpt>
      <trkpt lat="47.968" lon="-4.18326">
        <ele>79.005275823559</ele>
        <time>2021-12-26T20:07:08.832Z</time>
      </trkpt>
      <trkpt lat="47.96806" lon="-4.18317">
        <ele>78.96654806947</ele>
        <time>2021-12-26T20:07:16.840Z</time>
      </trkpt>
      <trkpt lat="47.96816" lon="-4.18298">
        <ele>78.896973564436</ele>
        <time>2021-12-26T20:07:24.850Z</time>
      </trkpt>
      <trkpt lat="47.96824" lon="-4.18277">
        <ele>78.824784023332</ele>
        <time>2021-12-26T20:07:32.862Z</time>
      </trkpt>
      <trkpt lat="47.96827" lon="-4.18265">
        <ele>78.783353435435</ele>
        <time>2021-12-26T20:07:40.875Z</time>
      </trkpt>
      <trkpt lat="47.96834" lon="-4.18229">
        <ele>78.770950475128</ele>
        <time>2021-12-26T20:07:48.891Z</time>
      </trkpt>
      <trkpt lat="47.96835" lon="-4.18217">
        <ele>78.757968540925</ele>
        <time>2021-12-26T20:07:56.908Z</time>
      </trkpt>
      <trkpt lat="47.96832" lon="-4.18193">
        <ele>78.766265494161</ele>
        <time>2021-12-26T20:08:04.928Z</time>
      </trkpt>
      <trkpt lat="47.96825" lon="-4.18174">
        <ele>78.765501192465</ele>
        <time>2021-12-26T20:08:12.949Z</time>
      </trkpt>
      <trkpt lat="47.96821" lon="-4.18166">
        <ele>78.77178847753</ele>
        <time>2021-12-26T20:08:20.971Z</time>
      </trkpt>
      <trkpt lat="47.96819" lon="-4.18157">
        <ele>78.787440578391</ele>
        <time>2021-12-26T20:08:28.994Z</time>
      </trkpt>
      <trkpt lat="47.96818" lon="-4.18149">
        <ele>78.800600035675</ele>
        <time>2021-12-26T20:08:37.018Z</time>
      </trkpt>
      <trkpt lat="47.96819" lon="-4.1814">
        <ele>78.827943148592</ele>
        <time>2021-12-26T20:08:45.043Z</time>
      </trkpt>
      <trkpt lat="47.96826" lon="-4.18128">
        <ele>78.886499546061</ele>
        <time>2021-12-26T20:08:53.069Z</time>
      </trkpt>
      <trkpt lat="47.96831" lon="-4.18125">
        <ele>78.950224725635</ele>
        <time>2021-12-26T20:09:01.096Z</time>
      </trkpt>
      <trkpt lat="47.96836" lon="-4.18123">
        <ele>79.021748794351</ele>
        <time>2021-12-26T20:09:09.123Z</time>
      </trkpt>
      <trkpt lat="47.96847" lon="-4.18128">
        <ele>79.109562415714</ele>
        <time>2021-12-26T20:09:17.152Z</time>
      </trkpt>
      <trkpt lat="47.96851" lon="-4.18134">
        <ele>79.178473061175</ele>
        <time>2021-12-26T20:09:25.182Z</time>
      </trkpt>
      <trkpt lat="47.96855" lon="-4.18142">
        <ele>79.253688630086</ele>
        <time>2021-12-26T20:09:33.212Z</time>
      </trkpt>
      <trkpt lat="47.96858" lon="-4.1815">
        <ele>79.330747525445</ele>
        <time>2021-12-26T20:09:41.243Z</time>
      </trkpt>
      <trkpt lat="47.96865" lon="-4.18167">
        <ele>79.395332376502</ele>
        <time>2021-12-26T20:09:49.276Z</time>
      </trkpt>
      <trkpt lat="47.96875" lon="-4.1818">
        <ele>79.490578323111</ele>
        <time>2021-12-26T20:09:57.311Z</time>
      </trkpt>
      <trkpt lat="47.96903" lon="-4.18209">
        <ele>79.575413295452</ele>
        <time>2021-12-26T20:10:05.350Z</time>
      </trkpt>
      <trkpt lat="47.96915" lon="-4.1822">
        <ele>79.732521680018</ele>
        <time>2021-12-26T20:10:13.391Z</time>
      </trkpt>
      <trkpt lat="47.96925" lon="-4.18232">
        <ele>79.898862199165</ele>
        <time>2021-12-26T20:10:21.434Z</time>
      </trkpt>
      <trkpt lat="47.96942" lon="-4.1825">
        <ele>80.096375682679</ele>
        <time>2021-12-26T20:10:29.479Z</time>
      </trkpt>
      <trkpt lat="47.9697" lon="-4.18279">
        <ele>80.392512550771</ele>
        <time>2021-12-26T20:10:37.529Z</time>
      </trkpt>
      <trkpt lat="47.96992" lon="-4.18303">
        <ele>80.585220666678</ele>
        <time>2021-12-26T20:10:45.582Z</time>
      </trkpt>
      <trkpt lat="47.97003" lon="-4.18315">
        <ele>80.751157086002</ele>
        <time>2021-12-26T20:10:53.637Z</time>
      </trkpt>
      <trkpt lat="47.97049" lon="-4.18364">
        <ele>80.83408748015</ele>
        <time>2021-12-26T20:11:01.699Z</time>
      </trkpt>
      <trkpt lat="47.97055" lon="-4.1837">
        <ele>81.019189957106</ele>
        <time>2021-12-26T20:11:09.762Z</time>
      </trkpt>
      <trkpt lat="47.97073" lon="-4.18388">
        <ele>81.213194625772</ele>
        <time>2021-12-26T20:11:17.828Z</time>
      </trkpt>
      <trkpt lat="47.97109" lon="-4.18427">
        <ele>81.426181649313</ele>
        <time>2021-12-26T20:11:25.900Z</time>
      </trkpt>
      <trkpt lat="47.97134" lon="-4.18454">
        <ele>81.663739950297</ele>
        <time>2021-12-26T20:11:33.976Z</time>
      </trkpt>
      <trkpt lat="47.97163" lon="-4.18492">
        <ele>81.884074540562</ele>
        <time>2021-12-26T20:11:42.057Z</time>
      </trkpt>
      <trkpt lat="47.97204" lon="-4.18559">
        <ele>82.200038197278</ele>
        <time>2021-12-26T20:11:50.145Z</time>
      </trkpt>
      <trkpt lat="47.97222" lon="-4.18594">
        <ele>82.373487223857</ele>
        <time>2021-12-26T20:11:58.237Z</time>
      </trkpt>
      <trkpt lat="47.97243" lon="-4.18639">
        <ele>82.475348553807</ele>
        <time>2021-12-26T20:12:06.334Z</time>
      </trkpt>
      <trkpt lat="47.97277" lon="-4.18709">
        <ele>82.622471080616</ele>
        <time>2021-12-26T20:12:14.439Z</time>
      </trkpt>
      <trkpt lat="47.97281" lon="-4.18718">
        <ele>82.781656772871</ele>
        <time>2021-12-26T20:12:22.545Z</time>
      </trkpt>
      <trkpt lat="47.97317" lon="-4.18784">
        <ele>83.036825867368</ele>
        <time>2021-12-26T20:12:30.658Z</time>
      </trkpt>
      <trkpt lat="47.97357" lon="-4.18835">
        <ele>83.18761110015</ele>
        <time>2021-12-26T20:12:38.778Z</time>
      </trkpt>
      <trkpt lat="47.9737" lon="-4.18847">
        <ele>83.307719797357</ele>
        <time>2021-12-26T20:12:46.900Z</time>
      </trkpt>
      <trkpt lat="47.97397" lon="-4.18867">
        <ele>83.438451394944</ele>
        <time>2021-12-26T20:12:55.026Z</time>
      </trkpt>
      <trkpt lat="47.97442" lon="-4.18886">
        <ele>83.474635452822</ele>
        <time>2021-12-26T20:13:03.158Z</time>
      </trkpt>
      <trkpt lat="47.9749" lon="-4.18891">
        <ele>83.515690253143</ele>
        <time>2021-12-26T20:13:11.296Z</time>
      </trkpt>
      <trkpt lat="47.97547" lon="-4.18884">
        <ele>83.562415851007</ele>
        <time>2021-12-26T20:13:19.441Z</time>
      </trkpt>
      <trkpt lat="47.97605" lon="-4.18873">
        <ele>83.602034074424</ele>
        <time>2021-12-26T20:13:27.594Z</time>
      </trkpt>
      <trkpt lat="47.97637" lon="-4.18866">
        <ele>83.7007585001</ele>
        <time>2021-12-26T20:13:35.751Z</time>
      </trkpt>
      <trkpt lat="47.97676" lon="-4.18859">
        <ele>83.865895274845</ele>
        <time>2021-12-26T20:13:43.913Z</time>
      </trkpt>
      <trkpt lat="47.97706" lon="-4.18853">
        <ele>84.0390372627</ele>
        <time>2021-12-26T20:13:52.079Z</time>
      </trkpt>
      <trkpt lat="47.97728" lon="-4.18848">
        <ele>84.155628761775</ele>
        <time>2021-12-26T20:14:00.248Z</time>
      </trkpt>
      <trkpt lat="47.97757" lon="-4.18842">
        <ele>84.28971407887</ele>
        <time>2021-12-26T20:14:08.421Z</time>
      </trkpt>
      <trkpt lat="47.97772" lon="-4.18839">
        <ele>84.452130944868</ele>
        <time>2021-12-26T20:14:16.595Z</time>
      </trkpt>
      <trkpt lat="47.97779" lon="-4.18838">
        <ele>84.617472692001</ele>
        <time>2021-12-26T20:14:24.770Z</time>
      </trkpt>
      <trkpt lat="47.97801" lon="-4.18833">
        <ele>84.822881874555</ele>
        <time>2021-12-26T20:14:32.948Z</time>
      </trkpt>
      <trkpt lat="47.97822" lon="-4.18829">
        <ele>85.027547467201</ele>
        <time>2021-12-26T20:14:41.129Z</time>
      </trkpt>
      <trkpt lat="47.97843" lon="-4.18825">
        <ele>85.254753727124</ele>
        <time>2021-12-26T20:14:49.313Z</time>
      </trkpt>
      <trkpt lat="47.97863" lon="-4.1882">
        <ele>85.40988048233</ele>
        <time>2021-12-26T20:14:57.499Z</time>
      </trkpt>
      <trkpt lat="47.97869" lon="-4.18818">
        <ele>85.587336156128</ele>
        <time>2021-12-26T20:15:05.686Z</time>
      </trkpt>
      <trkpt lat="47.97875" lon="-4.18816">
        <ele>85.781433246214</ele>
        <time>2021-12-26T20:15:13.874Z</time>
      </trkpt>
      <trkpt lat="47.97881" lon="-4.18812">
        <ele>85.997839822259</ele>
        <time>2021-12-26T20:15:22.063Z</time>
      </trkpt>
      <trkpt lat="47.97886" lon="-4.18806">
        <ele>86.229642008877</ele>
        <time>2021-12-26T20:15:30.253Z</time>
      </trkpt>
      <trkpt lat="47.97897" lon="-4.18793">
        <ele>86.471596395431</ele>
        <time>2021-12-26T20:15:38.444Z</time>
      </trkpt>
      <trkpt lat="47.97904" lon="-4.1879">
        <ele>86.754390791462</ele>
        <time>2021-12-26T20:15:46.636Z</time>
      </trkpt>
      <trkpt lat="47.97911" lon="-4.18789">
        <ele>87.07577379794</ele>
        <time>2021-12-26T20:15:54.829Z</time>
      </trkpt>
      <trkpt lat="47.97926" lon="-4.18795">
        <ele>87.443172190878</ele>
        <time>2021-12-26T20:16:03.024Z</time>
      </trkpt>
      <trkpt lat="47.97948" lon="-4.18803">
        <ele>87.782332259702</ele>
        <time>2021-12-26T20:16:11.222Z</time>
      </trkpt>
      <trkpt lat="47.97964" lon="-4.18802">
        <ele>88.162764231759</ele>
        <time>2021-12-26T20:16:19.422Z</time>
      </trkpt>
      <trkpt lat="47.9798" lon="-4.188">
        <ele>88.576404871762</ele>
        <time>2021-12-26T20:16:27.624Z</time>
      </trkpt>
      <trkpt lat="47.98012" lon="-4.18797">
        <ele>89.015570959077</ele>
        <time>2021-12-26T20:16:35.830Z</time>
      </trkpt>
      <trkpt lat="47.98067" lon="-4.18791">
        <ele>89.534288356601</ele>
        <time>2021-12-26T20:16:44.044Z</time>
      </trkpt>
      <trkpt lat="47.98074" lon="-4.1879">
        <ele>90.033873297024</ele>
        <time>2021-12-26T20:16:52.259Z</time>
      </trkpt>
      <trkpt lat="47.98135" lon="-4.18783">
        <ele>90.636892066725</ele>
        <time>2021-12-26T20:17:00.481Z</time>
      </trkpt>
      <trkpt lat="47.98142" lon="-4.18783">
        <ele>91.216446304479</ele>
        <time>2021-12-26T20:17:08.704Z</time>
      </trkpt>
      <trkpt lat="47.98171" lon="-4.18781">
        <ele>91.872606437736</ele>
        <time>2021-12-26T20:17:16.931Z</time>
      </trkpt>
      <trkpt lat="47.98192" lon="-4.1878">
        <ele>92.489035171576</ele>
        <time>2021-12-26T20:17:25.161Z</time>
      </trkpt>
      <trkpt lat="47.98199" lon="-4.1878">
        <ele>93.093332694656</ele>
        <time>2021-12-26T20:17:33.392Z</time>
      </trkpt>
      <trkpt lat="47.98228" lon="-4.18779">
        <ele>93.717882653865</ele>
        <time>2021-12-26T20:17:41.626Z</time>
      </trkpt>
      <trkpt lat="47.98256" lon="-4.18778">
        <ele>94.395494559175</ele>
        <time>2021-12-26T20:17:49.864Z</time>
      </trkpt>
      <trkpt lat="47.98263" lon="-4.18778">
        <ele>95.041855462912</ele>
        <time>2021-12-26T20:17:58.103Z</time>
      </trkpt>
      <trkpt lat="47.9831" lon="-4.1878">
        <ele>95.816332793948</ele>
        <time>2021-12-26T20:18:06.348Z</time>
      </trkpt>
      <trkpt lat="47.98316" lon="-4.1878">
        <ele>96.50306404533</ele>
        <time>2021-12-26T20:18:14.594Z</time>
      </trkpt>
      <trkpt lat="47.98362" lon="-4.18782">
        <ele>97.303665105193</ele>
        <time>2021-12-26T20:18:22.846Z</time>
      </trkpt>
      <trkpt lat="47.98381" lon="-4.18784">
        <ele>98.00600327998</ele>
        <time>2021-12-26T20:18:31.100Z</time>
      </trkpt>
      <trkpt lat="47.98411" lon="-4.18787">
        <ele>98.703472034507</ele>
        <time>2021-12-26T20:18:39.358Z</time>
      </trkpt>
      <trkpt lat="47.98424" lon="-4.18788">
        <ele>99.359992506018</ele>
        <time>2021-12-26T20:18:47.618Z</time>
      </trkpt>
      <trkpt lat="47.98469" lon="-4.18793">
        <ele>100.05553785638</ele>
        <time>2021-12-26T20:18:55.884Z</time>
      </trkpt>
      <trkpt lat="47.98511" lon="-4.18798">
        <ele>100.58623098319</ele>
        <time>2021-12-26T20:19:04.155Z</time>
      </trkpt>
      <trkpt lat="47.98525" lon="-4.188">
        <ele>101.17389958959</ele>
        <time>2021-12-26T20:19:12.428Z</time>
      </trkpt>
      <trkpt lat="47.9856" lon="-4.18803">
        <ele>101.75565189543</ele>
        <time>2021-12-26T20:19:20.705Z</time>
      </trkpt>
      <trkpt lat="47.98567" lon="-4.18804">
        <ele>102.36650483068</ele>
        <time>2021-12-26T20:19:28.983Z</time>
      </trkpt>
      <trkpt lat="47.98596" lon="-4.18807">
        <ele>103.05568737292</ele>
        <time>2021-12-26T20:19:37.265Z</time>
      </trkpt>
      <trkpt lat="47.98631" lon="-4.18811">
        <ele>103.61680529481</ele>
        <time>2021-12-26T20:19:45.552Z</time>
      </trkpt>
      <trkpt lat="47.98652" lon="-4.18812">
        <ele>104.18124625609</ele>
        <time>2021-12-26T20:19:53.841Z</time>
      </trkpt>
      <trkpt lat="47.98689" lon="-4.18812">
        <ele>104.75526110244</ele>
        <time>2021-12-26T20:20:02.135Z</time>
      </trkpt>
      <trkpt lat="47.98703" lon="-4.18811">
        <ele>105.3249398789</ele>
        <time>2021-12-26T20:20:10.431Z</time>
      </trkpt>
      <trkpt lat="47.98758" lon="-4.18808">
        <ele>105.8678740273</ele>
        <time>2021-12-26T20:20:18.734Z</time>
      </trkpt>
      <trkpt lat="47.98817" lon="-4.18804">
        <ele>106.41903951343</ele>
        <time>2021-12-26T20:20:27.045Z</time>
      </trkpt>
      <trkpt lat="47.9883" lon="-4.18803">
        <ele>106.99643031321</ele>
        <time>2021-12-26T20:20:35.357Z</time>
      </trkpt>
      <trkpt lat="47.98843" lon="-4.18802">
        <ele>107.57269010282</ele>
        <time>2021-12-26T20:20:43.671Z</time>
      </trkpt>
      <trkpt lat="47.98855" lon="-4.18799">
        <ele>108.17258060194</ele>
        <time>2021-12-26T20:20:51.987Z</time>
      </trkpt>
      <trkpt lat="47.98867" lon="-4.18792">
        <ele>108.76268260327</ele>
        <time>2021-12-26T20:21:00.304Z</time>
      </trkpt>
      <trkpt lat="47.98874" lon="-4.18789">
        <ele>109.31334019656</ele>
        <time>2021-12-26T20:21:08.622Z</time>
      </trkpt>
      <trkpt lat="47.98887" lon="-4.18792">
        <ele>109.89591490869</ele>
        <time>2021-12-26T20:21:16.942Z</time>
      </trkpt>
      <trkpt lat="47.989" lon="-4.18798">
        <ele>110.47625643952</ele>
        <time>2021-12-26T20:21:25.264Z</time>
      </trkpt>
      <trkpt lat="47.98915" lon="-4.18799">
        <ele>111.03038756539</ele>
        <time>2021-12-26T20:21:33.587Z</time>
      </trkpt>
      <trkpt lat="47.98957" lon="-4.18797">
        <ele>111.64719868468</ele>
        <time>2021-12-26T20:21:41.916Z</time>
      </trkpt>
      <trkpt lat="47.98964" lon="-4.18796">
        <ele>112.05383752287</ele>
        <time>2021-12-26T20:21:50.246Z</time>
      </trkpt>
      <trkpt lat="47.99013" lon="-4.18796">
        <ele>112.45850852877</ele>
        <time>2021-12-26T20:21:58.582Z</time>
      </trkpt>
      <trkpt lat="47.99071" lon="-4.18803">
        <ele>112.65260655941</ele>
        <time>2021-12-26T20:22:06.926Z</time>
      </trkpt>
      <trkpt lat="47.99078" lon="-4.18804">
        <ele>112.99230239564</ele>
        <time>2021-12-26T20:22:15.271Z</time>
      </trkpt>
      <trkpt lat="47.99099" lon="-4.18809">
        <ele>113.30536639671</ele>
        <time>2021-12-26T20:22:23.618Z</time>
      </trkpt>
      <trkpt lat="47.99126" lon="-4.1882">
        <ele>113.57647631088</ele>
        <time>2021-12-26T20:22:31.969Z</time>
      </trkpt>
      <trkpt lat="47.99154" lon="-4.18834">
        <ele>113.89292917265</ele>
        <time>2021-12-26T20:22:40.324Z</time>
      </trkpt>
      <trkpt lat="47.99187" lon="-4.18855">
        <ele>114.27557619457</ele>
        <time>2021-12-26T20:22:48.683Z</time>
      </trkpt>
      <trkpt lat="47.99237" lon="-4.18899">
        <ele>114.66702715259</ele>
        <time>2021-12-26T20:22:57.050Z</time>
      </trkpt>
      <trkpt lat="47.99284" lon="-4.18953">
        <ele>115.0147630582</ele>
        <time>2021-12-26T20:23:05.425Z</time>
      </trkpt>
      <trkpt lat="47.993" lon="-4.18975">
        <ele>115.30602939285</ele>
        <time>2021-12-26T20:23:13.802Z</time>
      </trkpt>
      <trkpt lat="47.99321" lon="-4.19006">
        <ele>115.51491183306</ele>
        <time>2021-12-26T20:23:22.183Z</time>
      </trkpt>
      <trkpt lat="47.99342" lon="-4.19037">
        <ele>115.67972754361</ele>
        <time>2021-12-26T20:23:30.568Z</time>
      </trkpt>
      <trkpt lat="47.99384" lon="-4.19103">
        <ele>115.84322999897</ele>
        <time>2021-12-26T20:23:38.961Z</time>
      </trkpt>
      <trkpt lat="47.99427" lon="-4.19166">
        <ele>116.22491741511</ele>
        <time>2021-12-26T20:23:47.362Z</time>
      </trkpt>
      <trkpt lat="47.99438" lon="-4.19181">
        <ele>116.54802078763</ele>
        <time>2021-12-26T20:23:55.765Z</time>
      </trkpt>
      <trkpt lat="47.99443" lon="-4.19188">
        <ele>116.88595313421</ele>
        <time>2021-12-26T20:24:04.169Z</time>
      </trkpt>
      <trkpt lat="47.99491" lon="-4.19243">
        <ele>117.27409567141</ele>
        <time>2021-12-26T20:24:12.580Z</time>
      </trkpt>
      <trkpt lat="47.9951" lon="-4.19261">
        <ele>117.68598956555</ele>
        <time>2021-12-26T20:24:20.994Z</time>
      </trkpt>
      <trkpt lat="47.99542" lon="-4.19288">
        <ele>118.08562498153</ele>
        <time>2021-12-26T20:24:29.413Z</time>
      </trkpt>
      <trkpt lat="47.99556" lon="-4.19297">
        <ele>118.53190124055</ele>
        <time>2021-12-26T20:24:37.834Z</time>
      </trkpt>
      <trkpt lat="47.99576" lon="-4.19309">
        <ele>119.05108500049</ele>
        <time>2021-12-26T20:24:46.258Z</time>
      </trkpt>
      <trkpt lat="47.99596" lon="-4.19321">
        <ele>119.5720253252</ele>
        <time>2021-12-26T20:24:54.684Z</time>
      </trkpt>
      <trkpt lat="47.99602" lon="-4.19324">
        <ele>120.05875456004</ele>
        <time>2021-12-26T20:25:03.111Z</time>
      </trkpt>
      <trkpt lat="47.99615" lon="-4.19331">
        <ele>120.58544132603</ele>
        <time>2021-12-26T20:25:11.540Z</time>
      </trkpt>
      <trkpt lat="47.99622" lon="-4.19334">
        <ele>121.11886277333</ele>
        <time>2021-12-26T20:25:19.970Z</time>
      </trkpt>
      <trkpt lat="47.99654" lon="-4.19348">
        <ele>121.70262337349</ele>
        <time>2021-12-26T20:25:28.404Z</time>
      </trkpt>
      <trkpt lat="47.99672" lon="-4.19356">
        <ele>122.34316581417</ele>
        <time>2021-12-26T20:25:36.841Z</time>
      </trkpt>
      <trkpt lat="47.99702" lon="-4.19369">
        <ele>123.01105141915</ele>
        <time>2021-12-26T20:25:45.282Z</time>
      </trkpt>
      <trkpt lat="47.9972" lon="-4.19378">
        <ele>123.6631253897</ele>
        <time>2021-12-26T20:25:53.725Z</time>
      </trkpt>
      <trkpt lat="47.99732" lon="-4.19382">
        <ele>124.32737715687</ele>
        <time>2021-12-26T20:26:02.170Z</time>
      </trkpt>
      <trkpt lat="47.99738" lon="-4.19384">
        <ele>125.00777054351</ele>
        <time>2021-12-26T20:26:10.616Z</time>
      </trkpt>
      <trkpt lat="47.99768" lon="-4.19397">
        <ele>125.79235222806</ele>
        <time>2021-12-26T20:26:19.066Z</time>
      </trkpt>
      <trkpt lat="47.99786" lon="-4.19404">
        <ele>126.54626093314</ele>
        <time>2021-12-26T20:26:27.518Z</time>
      </trkpt>
      <trkpt lat="47.99803" lon="-4.19411">
        <ele>127.310739323</ele>
        <time>2021-12-26T20:26:35.972Z</time>
      </trkpt>
      <trkpt lat="47.99826" lon="-4.19421">
        <ele>128.10310964812</ele>
        <time>2021-12-26T20:26:44.429Z</time>
      </trkpt>
      <trkpt lat="47.99847" lon="-4.19429">
        <ele>128.8933623083</ele>
        <time>2021-12-26T20:26:52.889Z</time>
      </trkpt>
      <trkpt lat="47.99859" lon="-4.19429">
        <ele>129.66091125322</ele>
        <time>2021-12-26T20:27:01.351Z</time>
      </trkpt>
      <trkpt lat="47.99863" lon="-4.19426">
        <ele>130.41484077807</ele>
        <time>2021-12-26T20:27:09.813Z</time>
      </trkpt>
      <trkpt lat="47.99872" lon="-4.19419">
        <ele>131.20262845566</ele>
        <time>2021-12-26T20:27:18.277Z</time>
      </trkpt>
      <trkpt lat="47.99883" lon="-4.19416">
        <ele>131.99789218539</ele>
        <time>2021-12-26T20:27:26.742Z</time>
      </trkpt>
      <trkpt lat="47.99895" lon="-4.19423">
        <ele>132.805393258</ele>
        <time>2021-12-26T20:27:35.209Z</time>
      </trkpt>
      <trkpt lat="47.99899" lon="-4.19429">
        <ele>133.62246085025</ele>
        <time>2021-12-26T20:27:43.677Z</time>
      </trkpt>
      <trkpt lat="47.99909" lon="-4.19441">
        <ele>134.45292654099</ele>
        <time>2021-12-26T20:27:52.146Z</time>
      </trkpt>
      <trkpt lat="47.9992" lon="-4.1945">
        <ele>135.30468522048</ele>
        <time>2021-12-26T20:28:00.617Z</time>
      </trkpt>
      <trkpt lat="47.99926" lon="-4.19453">
        <ele>136.20749844003</ele>
        <time>2021-12-26T20:28:09.089Z</time>
      </trkpt>
      <trkpt lat="47.99971" lon="-4.19474">
        <ele>137.18248466134</ele>
        <time>2021-12-26T20:28:17.567Z</time>
      </trkpt>
      <trkpt lat="47.99977" lon="-4.19477">
        <ele>138.12620582543</ele>
        <time>2021-12-26T20:28:26.046Z</time>
      </trkpt>
      <trkpt lat="48.0003" lon="-4.19499">
        <ele>139.17348762097</ele>
        <time>2021-12-26T20:28:34.532Z</time>
      </trkpt>
      <trkpt lat="48.00043" lon="-4.19504">
        <ele>140.16636809052</ele>
        <time>2021-12-26T20:28:43.019Z</time>
      </trkpt>
      <trkpt lat="48.00049" lon="-4.19506">
        <ele>141.18990025184</ele>
        <time>2021-12-26T20:28:51.507Z</time>
      </trkpt>
      <trkpt lat="48.00081" lon="-4.19518">
        <ele>142.25030858855</ele>
        <time>2021-12-26T20:28:59.999Z</time>
      </trkpt>
      <trkpt lat="48.00105" lon="-4.19526">
        <ele>143.38037437343</ele>
        <time>2021-12-26T20:29:08.495Z</time>
      </trkpt>
      <trkpt lat="48.00111" lon="-4.19528">
        <ele>144.50258955941</ele>
        <time>2021-12-26T20:29:16.991Z</time>
      </trkpt>
      <trkpt lat="48.00142" lon="-4.19538">
        <ele>145.73067288907</ele>
        <time>2021-12-26T20:29:25.492Z</time>
      </trkpt>
      <trkpt lat="48.00161" lon="-4.19543">
        <ele>146.91413110808</ele>
        <time>2021-12-26T20:29:33.995Z</time>
      </trkpt>
      <trkpt lat="48.00168" lon="-4.19545">
        <ele>148.06307604268</ele>
        <time>2021-12-26T20:29:42.499Z</time>
      </trkpt>
      <trkpt lat="48.00206" lon="-4.19556">
        <ele>149.34645709634</ele>
        <time>2021-12-26T20:29:51.008Z</time>
      </trkpt>
      <trkpt lat="48.00232" lon="-4.19564">
        <ele>150.52930192527</ele>
        <time>2021-12-26T20:29:59.520Z</time>
      </trkpt>
      <trkpt lat="48.00238" lon="-4.19566">
        <ele>151.61170734966</ele>
        <time>2021-12-26T20:30:08.033Z</time>
      </trkpt>
      <trkpt lat="48.00257" lon="-4.19572">
        <ele>152.67392214907</ele>
        <time>2021-12-26T20:30:16.549Z</time>
      </trkpt>
      <trkpt lat="48.00276" lon="-4.19578">
        <ele>153.69503858408</ele>
        <time>2021-12-26T20:30:25.067Z</time>
      </trkpt>
      <trkpt lat="48.00314" lon="-4.19589">
        <ele>154.76102525517</ele>
        <time>2021-12-26T20:30:33.590Z</time>
      </trkpt>
      <trkpt lat="48.00339" lon="-4.19597">
        <ele>155.68026040077</ele>
        <time>2021-12-26T20:30:42.116Z</time>
      </trkpt>
      <trkpt lat="48.00365" lon="-4.19604">
        <ele>156.51256818925</ele>
        <time>2021-12-26T20:30:50.646Z</time>
      </trkpt>
      <trkpt lat="48.00384" lon="-4.1961">
        <ele>157.26399824991</ele>
        <time>2021-12-26T20:30:59.178Z</time>
      </trkpt>
      <trkpt lat="48.00416" lon="-4.1962">
        <ele>157.95210408945</ele>
        <time>2021-12-26T20:31:07.715Z</time>
      </trkpt>
      <trkpt lat="48.00428" lon="-4.19623">
        <ele>158.54925837944</ele>
        <time>2021-12-26T20:31:16.253Z</time>
      </trkpt>
      <trkpt lat="48.00455" lon="-4.19631">
        <ele>159.08508907894</ele>
        <time>2021-12-26T20:31:24.795Z</time>
      </trkpt>
      <trkpt lat="48.0048" lon="-4.19639">
        <ele>159.5019935458</ele>
        <time>2021-12-26T20:31:33.340Z</time>
      </trkpt>
      <trkpt lat="48.00534" lon="-4.19653">
        <ele>159.78334850391</ele>
        <time>2021-12-26T20:31:41.892Z</time>
      </trkpt>
      <trkpt lat="48.00541" lon="-4.19654">
        <ele>159.83147130876</ele>
        <time>2021-12-26T20:31:50.445Z</time>
      </trkpt>
      <trkpt lat="48.00548" lon="-4.19655">
        <ele>159.75485660305</ele>
        <time>2021-12-26T20:31:58.999Z</time>
      </trkpt>
      <trkpt lat="48.00591" lon="-4.19658">
        <ele>159.55575668128</ele>
        <time>2021-12-26T20:32:07.558Z</time>
      </trkpt>
      <trkpt lat="48.00598" lon="-4.19657">
        <ele>159.22932625641</ele>
        <time>2021-12-26T20:32:16.118Z</time>
      </trkpt>
      <trkpt lat="48.00644" lon="-4.19645">
        <ele>158.77923055763</ele>
        <time>2021-12-26T20:32:24.684Z</time>
      </trkpt>
      <trkpt lat="48.0066" lon="-4.19638">
        <ele>158.20445380999</ele>
        <time>2021-12-26T20:32:33.253Z</time>
      </trkpt>
      <trkpt lat="48.00702" lon="-4.19617">
        <ele>157.39806631071</ele>
        <time>2021-12-26T20:32:41.827Z</time>
      </trkpt>
      <trkpt lat="48.0072" lon="-4.19606">
        <ele>156.7573886259</ele>
        <time>2021-12-26T20:32:50.404Z</time>
      </trkpt>
      <trkpt lat="48.00748" lon="-4.19591">
        <ele>156.03372757223</ele>
        <time>2021-12-26T20:32:58.985Z</time>
      </trkpt>
      <trkpt lat="48.00768" lon="-4.1958">
        <ele>155.3328421916</ele>
        <time>2021-12-26T20:33:07.568Z</time>
      </trkpt>
      <trkpt lat="48.00799" lon="-4.19563">
        <ele>154.62619797399</ele>
        <time>2021-12-26T20:33:16.156Z</time>
      </trkpt>
      <trkpt lat="48.0082" lon="-4.19551">
        <ele>153.96073667875</ele>
        <time>2021-12-26T20:33:24.746Z</time>
      </trkpt>
      <trkpt lat="48.00831" lon="-4.19546">
        <ele>153.27803399564</ele>
        <time>2021-12-26T20:33:33.338Z</time>
      </trkpt>
      <trkpt lat="48.00841" lon="-4.19541">
        <ele>152.57067629617</ele>
        <time>2021-12-26T20:33:41.931Z</time>
      </trkpt>
      <trkpt lat="48.00864" lon="-4.19532">
        <ele>151.82161732936</ele>
        <time>2021-12-26T20:33:50.527Z</time>
      </trkpt>
      <trkpt lat="48.00876" lon="-4.19528">
        <ele>151.09744572732</ele>
        <time>2021-12-26T20:33:59.125Z</time>
      </trkpt>
      <trkpt lat="48.009" lon="-4.19522">
        <ele>150.43438526863</ele>
        <time>2021-12-26T20:34:07.726Z</time>
      </trkpt>
      <trkpt lat="48.00936" lon="-4.19521">
        <ele>149.78687002402</ele>
        <time>2021-12-26T20:34:16.332Z</time>
      </trkpt>
      <trkpt lat="48.0096" lon="-4.19524">
        <ele>149.15310525325</ele>
        <time>2021-12-26T20:34:24.941Z</time>
      </trkpt>
      <trkpt lat="48.00995" lon="-4.19534">
        <ele>148.50699296996</ele>
        <time>2021-12-26T20:34:33.555Z</time>
      </trkpt>
      <trkpt lat="48.01018" lon="-4.19545">
        <ele>147.96696748359</ele>
        <time>2021-12-26T20:34:42.172Z</time>
      </trkpt>
      <trkpt lat="48.01068" lon="-4.19584">
        <ele>147.41169492007</ele>
        <time>2021-12-26T20:34:50.796Z</time>
      </trkpt>
      <trkpt lat="48.01077" lon="-4.19594">
        <ele>147.0668836212</ele>
        <time>2021-12-26T20:34:59.421Z</time>
      </trkpt>
      <trkpt lat="48.01101" lon="-4.19626">
        <ele>146.78296007596</ele>
        <time>2021-12-26T20:35:08.051Z</time>
      </trkpt>
      <trkpt lat="48.01128" lon="-4.19665">
        <ele>146.62049610654</ele>
        <time>2021-12-26T20:35:16.685Z</time>
      </trkpt>
      <trkpt lat="48.01144" lon="-4.19687">
        <ele>146.52490786918</ele>
        <time>2021-12-26T20:35:25.322Z</time>
      </trkpt>
      <trkpt lat="48.01149" lon="-4.19691">
        <ele>146.37280826362</ele>
        <time>2021-12-26T20:35:33.960Z</time>
      </trkpt>
      <trkpt lat="48.01154" lon="-4.19692">
        <ele>146.26285554116</ele>
        <time>2021-12-26T20:35:42.599Z</time>
      </trkpt>
      <trkpt lat="48.01159" lon="-4.19691">
        <ele>146.19073857165</ele>
        <time>2021-12-26T20:35:51.238Z</time>
      </trkpt>
      <trkpt lat="48.01164" lon="-4.19687">
        <ele>146.16632799516</ele>
        <time>2021-12-26T20:35:59.878Z</time>
      </trkpt>
      <trkpt lat="48.01178" lon="-4.19674">
        <ele>146.20235536977</ele>
        <time>2021-12-26T20:36:08.520Z</time>
      </trkpt>
      <trkpt lat="48.01183" lon="-4.19671">
        <ele>146.25488941439</ele>
        <time>2021-12-26T20:36:17.163Z</time>
      </trkpt>
      <trkpt lat="48.01189" lon="-4.19669">
        <ele>146.34443033236</ele>
        <time>2021-12-26T20:36:25.807Z</time>
      </trkpt>
      <trkpt lat="48.01195" lon="-4.19668">
        <ele>146.46603478609</ele>
        <time>2021-12-26T20:36:34.451Z</time>
      </trkpt>
      <trkpt lat="48.01201" lon="-4.19669">
        <ele>146.60889459021</ele>
        <time>2021-12-26T20:36:43.096Z</time>
      </trkpt>
      <trkpt lat="48.01206" lon="-4.19672">
        <ele>146.76646558412</ele>
        <time>2021-12-26T20:36:51.742Z</time>
      </trkpt>
      <trkpt lat="48.01222" lon="-4.19685">
        <ele>146.97443947399</ele>
        <time>2021-12-26T20:37:00.390Z</time>
      </trkpt>
      <trkpt lat="48.01234" lon="-4.19691">
        <ele>147.19836093062</ele>
        <time>2021-12-26T20:37:09.040Z</time>
      </trkpt>
      <trkpt lat="48.01252" lon="-4.19701">
        <ele>147.4006134143</ele>
        <time>2021-12-26T20:37:17.692Z</time>
      </trkpt>
      <trkpt lat="48.01263" lon="-4.19711">
        <ele>147.5257768677</ele>
        <time>2021-12-26T20:37:26.346Z</time>
      </trkpt>
      <trkpt lat="48.01294" lon="-4.19744">
        <ele>147.61815415528</ele>
        <time>2021-12-26T20:37:35.005Z</time>
      </trkpt>
      <trkpt lat="48.01336" lon="-4.19787">
        <ele>147.62144005105</ele>
        <time>2021-12-26T20:37:43.671Z</time>
      </trkpt>
      <trkpt lat="48.01341" lon="-4.19792">
        <ele>147.54349076924</ele>
        <time>2021-12-26T20:37:52.337Z</time>
      </trkpt>
      <trkpt lat="48.01389" lon="-4.19829">
        <ele>147.41519405015</ele>
        <time>2021-12-26T20:38:01.010Z</time>
      </trkpt>
      <trkpt lat="48.01437" lon="-4.19853">
        <ele>147.23051864716</ele>
        <time>2021-12-26T20:38:09.690Z</time>
      </trkpt>
      <trkpt lat="48.01465" lon="-4.19863">
        <ele>147.04044382916</ele>
        <time>2021-12-26T20:38:18.374Z</time>
      </trkpt>
      <trkpt lat="48.01478" lon="-4.19866">
        <ele>147.05707228137</ele>
        <time>2021-12-26T20:38:27.059Z</time>
      </trkpt>
      <trkpt lat="48.01491" lon="-4.1987">
        <ele>147.18373373522</ele>
        <time>2021-12-26T20:38:35.746Z</time>
      </trkpt>
      <trkpt lat="48.015" lon="-4.19881">
        <ele>147.45733173286</ele>
        <time>2021-12-26T20:38:44.434Z</time>
      </trkpt>
      <trkpt lat="48.01503" lon="-4.19888">
        <ele>147.77690720991</ele>
        <time>2021-12-26T20:38:53.123Z</time>
      </trkpt>
      <trkpt lat="48.01505" lon="-4.19896">
        <ele>148.12069166152</ele>
        <time>2021-12-26T20:39:01.813Z</time>
      </trkpt>
      <trkpt lat="48.01507" lon="-4.19904">
        <ele>148.47697841831</ele>
        <time>2021-12-26T20:39:10.504Z</time>
      </trkpt>
      <trkpt lat="48.01509" lon="-4.19919">
        <ele>148.8542818407</ele>
        <time>2021-12-26T20:39:19.196Z</time>
      </trkpt>
      <trkpt lat="48.01505" lon="-4.19934">
        <ele>149.21630961276</ele>
        <time>2021-12-26T20:39:27.889Z</time>
      </trkpt>
      <trkpt lat="48.01495" lon="-4.19938">
        <ele>149.49743831989</ele>
        <time>2021-12-26T20:39:36.584Z</time>
      </trkpt>
      <trkpt lat="48.01491" lon="-4.19936">
        <ele>149.76337047559</ele>
        <time>2021-12-26T20:39:45.279Z</time>
      </trkpt>
      <trkpt lat="48.0147" lon="-4.19926">
        <ele>150.07271753681</ele>
        <time>2021-12-26T20:39:53.977Z</time>
      </trkpt>
      <trkpt lat="48.01463" lon="-4.19922">
        <ele>150.30691433738</ele>
        <time>2021-12-26T20:40:02.676Z</time>
      </trkpt>
      <trkpt lat="48.01456" lon="-4.19919">
        <ele>150.50510071124</ele>
        <time>2021-12-26T20:40:11.376Z</time>
      </trkpt>
    </trkseg>
  </trk>
</gpx>